<?xml version="1.0" encoding="utf-8"?>
<gpx xmlns:xsi="http://www.w3.org/2001/XMLSchema-instance" xmlns:xsd="http://www.w3.org/2001/XMLSchema" xsi:schemaLocation="http://www.topografix.com/GPX/1/1 http://www.topografix.com/GPX/1/1/gpx.xsd" version="1.1" creator="SportTracks 3.1" xmlns="http://www.topografix.com/GPX/1/1">
 <metadata />
 <trk>
  <name />
  <cmt />
  <trkseg>
   <trkpt lat="46.2669219970703" lon="7.46100044250488">
    <ele>14.1999998092651</ele>
    <time>2012-03-04T13:31:11Z</time>
   </trkpt>
   <trkpt lat="46.2669219970703" lon="7.46108865737915">
    <ele>247.800003051758</ele>
    <time>2012-03-04T13:31:13Z</time>
   </trkpt>
   <trkpt lat="46.2669296264648" lon="7.46113109588623">
    <ele>364.600006103516</ele>
    <time>2012-03-04T13:31:14Z</time>
   </trkpt>
   <trkpt lat="46.2669372558594" lon="7.4611701965332">
    <ele>481.399993896484</ele>
    <time>2012-03-04T13:31:15Z</time>
   </trkpt>
   <trkpt lat="46.2669525146484" lon="7.46122407913208">
    <ele>481.399993896484</ele>
    <time>2012-03-04T13:31:16Z</time>
   </trkpt>
   <trkpt lat="46.2669906616211" lon="7.46138048171997">
    <ele>480.380004882812</ele>
    <time>2012-03-04T13:31:19Z</time>
   </trkpt>
   <trkpt lat="46.2670593261719" lon="7.46146726608276">
    <ele>479.700012207031</ele>
    <time>2012-03-04T13:31:21Z</time>
   </trkpt>
   <trkpt lat="46.26708984375" lon="7.46147012710571">
    <ele>479.359985351562</ele>
    <time>2012-03-04T13:31:22Z</time>
   </trkpt>
   <trkpt lat="46.2671890258789" lon="7.46138525009155">
    <ele>478.339996337891</ele>
    <time>2012-03-04T13:31:25Z</time>
   </trkpt>
   <trkpt lat="46.2672080993652" lon="7.46132802963257">
    <ele>478</ele>
    <time>2012-03-04T13:31:26Z</time>
   </trkpt>
   <trkpt lat="46.2672080993652" lon="7.46126556396484">
    <ele>477.660003662109</ele>
    <time>2012-03-04T13:31:27Z</time>
   </trkpt>
   <trkpt lat="46.2671966552734" lon="7.46120452880859">
    <ele>477.320007324219</ele>
    <time>2012-03-04T13:31:28Z</time>
   </trkpt>
   <trkpt lat="46.2671813964844" lon="7.46114301681518">
    <ele>476.980010986328</ele>
    <time>2012-03-04T13:31:29Z</time>
   </trkpt>
   <trkpt lat="46.2671661376953" lon="7.46108150482178">
    <ele>476.640014648438</ele>
    <time>2012-03-04T13:31:30Z</time>
   </trkpt>
   <trkpt lat="46.2671508789062" lon="7.46101713180542">
    <ele>476.299987792969</ele>
    <time>2012-03-04T13:31:31Z</time>
   </trkpt>
   <trkpt lat="46.2671356201172" lon="7.4609522819519">
    <ele>475.959991455078</ele>
    <time>2012-03-04T13:31:32Z</time>
   </trkpt>
   <trkpt lat="46.2671203613281" lon="7.46088600158691">
    <ele>475.619995117188</ele>
    <time>2012-03-04T13:31:33Z</time>
   </trkpt>
   <trkpt lat="46.2671051025391" lon="7.46081781387329">
    <ele>475.279998779297</ele>
    <time>2012-03-04T13:31:34Z</time>
   </trkpt>
   <trkpt lat="46.2670936584473" lon="7.46075296401978">
    <ele>474.940002441406</ele>
    <time>2012-03-04T13:31:35Z</time>
   </trkpt>
   <trkpt lat="46.2670860290527" lon="7.4606876373291">
    <ele>474.600006103516</ele>
    <time>2012-03-04T13:31:36Z</time>
   </trkpt>
   <trkpt lat="46.2670745849609" lon="7.46047592163086">
    <ele>474.600006103516</ele>
    <time>2012-03-04T13:31:40Z</time>
   </trkpt>
   <trkpt lat="46.2670822143555" lon="7.46023321151733">
    <ele>474.488128662109</ele>
    <time>2012-03-04T13:31:46Z</time>
   </trkpt>
   <trkpt lat="46.2670669555664" lon="7.46005344390869">
    <ele>474.394927978516</ele>
    <time>2012-03-04T13:31:51Z</time>
   </trkpt>
   <trkpt lat="46.2670288085938" lon="7.45982503890991">
    <ele>474.264404296875</ele>
    <time>2012-03-04T13:31:58Z</time>
   </trkpt>
   <trkpt lat="46.2670059204102" lon="7.45976209640503">
    <ele>474.227111816406</ele>
    <time>2012-03-04T13:32:00Z</time>
   </trkpt>
   <trkpt lat="46.2669486999512" lon="7.45954942703247">
    <ele>474.077972412109</ele>
    <time>2012-03-04T13:32:08Z</time>
   </trkpt>
   <trkpt lat="46.2668647766113" lon="7.45933198928833">
    <ele>473.928802490234</ele>
    <time>2012-03-04T13:32:16Z</time>
   </trkpt>
   <trkpt lat="46.2667579650879" lon="7.45915174484253">
    <ele>473.798309326172</ele>
    <time>2012-03-04T13:32:23Z</time>
   </trkpt>
   <trkpt lat="46.2666625976562" lon="7.45901393890381">
    <ele>473.686431884766</ele>
    <time>2012-03-04T13:32:29Z</time>
   </trkpt>
   <trkpt lat="46.2665367126465" lon="7.45884561538696">
    <ele>473.537292480469</ele>
    <time>2012-03-04T13:32:37Z</time>
   </trkpt>
   <trkpt lat="46.2663726806641" lon="7.45863437652588">
    <ele>473.350860595703</ele>
    <time>2012-03-04T13:32:47Z</time>
   </trkpt>
   <trkpt lat="46.2662353515625" lon="7.45844507217407">
    <ele>473.183044433594</ele>
    <time>2012-03-04T13:32:56Z</time>
   </trkpt>
   <trkpt lat="46.2661323547363" lon="7.45827865600586">
    <ele>473.052551269531</ele>
    <time>2012-03-04T13:33:03Z</time>
   </trkpt>
   <trkpt lat="46.2660598754883" lon="7.45809412002564">
    <ele>472.922027587891</ele>
    <time>2012-03-04T13:33:10Z</time>
   </trkpt>
   <trkpt lat="46.2660140991211" lon="7.45790386199951">
    <ele>472.791534423828</ele>
    <time>2012-03-04T13:33:17Z</time>
   </trkpt>
   <trkpt lat="46.2659568786621" lon="7.45771932601929">
    <ele>472.661010742188</ele>
    <time>2012-03-04T13:33:24Z</time>
   </trkpt>
   <trkpt lat="46.2658958435059" lon="7.45752096176148">
    <ele>472.530517578125</ele>
    <time>2012-03-04T13:33:31Z</time>
   </trkpt>
   <trkpt lat="46.2658882141113" lon="7.45745420455933">
    <ele>472.493225097656</ele>
    <time>2012-03-04T13:33:33Z</time>
   </trkpt>
   <trkpt lat="46.2659225463867" lon="7.45743274688721">
    <ele>472.455932617188</ele>
    <time>2012-03-04T13:33:35Z</time>
   </trkpt>
   <trkpt lat="46.265941619873" lon="7.45745182037354">
    <ele>472.437286376953</ele>
    <time>2012-03-04T13:33:36Z</time>
   </trkpt>
   <trkpt lat="46.2659568786621" lon="7.45748329162598">
    <ele>472.418640136719</ele>
    <time>2012-03-04T13:33:37Z</time>
   </trkpt>
   <trkpt lat="46.2659759521484" lon="7.45751237869263">
    <ele>472.399993896484</ele>
    <time>2012-03-04T13:33:38Z</time>
   </trkpt>
   <trkpt lat="46.2659873962402" lon="7.45754528045654">
    <ele>472.399993896484</ele>
    <time>2012-03-04T13:33:39Z</time>
   </trkpt>
   <trkpt lat="46.2660522460938" lon="7.45779371261597">
    <ele>471.644439697266</ele>
    <time>2012-03-04T13:33:47Z</time>
   </trkpt>
   <trkpt lat="46.2661323547363" lon="7.45793914794922">
    <ele>471.077758789062</ele>
    <time>2012-03-04T13:33:53Z</time>
   </trkpt>
   <trkpt lat="46.2662467956543" lon="7.45810890197754">
    <ele>470.322204589844</ele>
    <time>2012-03-04T13:34:01Z</time>
   </trkpt>
   <trkpt lat="46.2663726806641" lon="7.45831775665283">
    <ele>469.472229003906</ele>
    <time>2012-03-04T13:34:10Z</time>
   </trkpt>
   <trkpt lat="46.2663879394531" lon="7.45834064483643">
    <ele>469.377777099609</ele>
    <time>2012-03-04T13:34:11Z</time>
   </trkpt>
   <trkpt lat="46.2663993835449" lon="7.45836734771728">
    <ele>469.283325195312</ele>
    <time>2012-03-04T13:34:12Z</time>
   </trkpt>
   <trkpt lat="46.2664108276367" lon="7.45839166641235">
    <ele>469.188903808594</ele>
    <time>2012-03-04T13:34:13Z</time>
   </trkpt>
   <trkpt lat="46.2664260864258" lon="7.458411693573">
    <ele>469.094451904297</ele>
    <time>2012-03-04T13:34:14Z</time>
   </trkpt>
   <trkpt lat="46.2664451599121" lon="7.45842790603638">
    <ele>469</ele>
    <time>2012-03-04T13:34:15Z</time>
   </trkpt>
   <trkpt lat="46.2664642333984" lon="7.4584379196167">
    <ele>469</ele>
    <time>2012-03-04T13:34:16Z</time>
   </trkpt>
   <trkpt lat="46.2664909362793" lon="7.45844030380249">
    <ele>469.399993896484</ele>
    <time>2012-03-04T13:34:17Z</time>
   </trkpt>
   <trkpt lat="46.2665138244629" lon="7.45843458175659">
    <ele>469.799987792969</ele>
    <time>2012-03-04T13:34:18Z</time>
   </trkpt>
   <trkpt lat="46.2665328979492" lon="7.458420753479">
    <ele>469.600006103516</ele>
    <time>2012-03-04T13:34:19Z</time>
   </trkpt>
   <trkpt lat="46.2665519714356" lon="7.4584002494812">
    <ele>469.399993896484</ele>
    <time>2012-03-04T13:34:20Z</time>
   </trkpt>
   <trkpt lat="46.2665672302246" lon="7.45836973190308">
    <ele>469.200012207031</ele>
    <time>2012-03-04T13:34:21Z</time>
   </trkpt>
   <trkpt lat="46.2665748596191" lon="7.4583330154419">
    <ele>469</ele>
    <time>2012-03-04T13:34:22Z</time>
   </trkpt>
   <trkpt lat="46.2665824890137" lon="7.45829105377197">
    <ele>468.799987792969</ele>
    <time>2012-03-04T13:34:23Z</time>
   </trkpt>
   <trkpt lat="46.2665481567383" lon="7.45819759368896">
    <ele>468.799987792969</ele>
    <time>2012-03-04T13:34:26Z</time>
   </trkpt>
   <trkpt lat="46.2664947509766" lon="7.45813226699829">
    <ele>468.433319091797</ele>
    <time>2012-03-04T13:34:29Z</time>
   </trkpt>
   <trkpt lat="46.2663993835449" lon="7.45801639556885">
    <ele>467.822204589844</ele>
    <time>2012-03-04T13:34:34Z</time>
   </trkpt>
   <trkpt lat="46.2663116455078" lon="7.45788526535034">
    <ele>467.088897705078</ele>
    <time>2012-03-04T13:34:40Z</time>
   </trkpt>
   <trkpt lat="46.266300201416" lon="7.45786285400391">
    <ele>466.966674804688</ele>
    <time>2012-03-04T13:34:41Z</time>
   </trkpt>
   <trkpt lat="46.2662887573242" lon="7.45784091949463">
    <ele>466.844451904297</ele>
    <time>2012-03-04T13:34:42Z</time>
   </trkpt>
   <trkpt lat="46.2662811279297" lon="7.45782136917114">
    <ele>466.722229003906</ele>
    <time>2012-03-04T13:34:43Z</time>
   </trkpt>
   <trkpt lat="46.2662696838379" lon="7.45779752731323">
    <ele>466.600006103516</ele>
    <time>2012-03-04T13:34:44Z</time>
   </trkpt>
   <trkpt lat="46.2662391662598" lon="7.45769929885864">
    <ele>466.600006103516</ele>
    <time>2012-03-04T13:34:48Z</time>
   </trkpt>
   <trkpt lat="46.2662162780762" lon="7.45765686035156">
    <ele>466.800018310547</ele>
    <time>2012-03-04T13:34:50Z</time>
   </trkpt>
   <trkpt lat="46.2661781311035" lon="7.45758533477783">
    <ele>467.100006103516</ele>
    <time>2012-03-04T13:34:53Z</time>
   </trkpt>
   <trkpt lat="46.2661552429199" lon="7.45750141143799">
    <ele>467.399993896484</ele>
    <time>2012-03-04T13:34:56Z</time>
   </trkpt>
   <trkpt lat="46.2661437988281" lon="7.45744943618774">
    <ele>467.600006103516</ele>
    <time>2012-03-04T13:34:58Z</time>
   </trkpt>
   <trkpt lat="46.2661323547363" lon="7.45743179321289">
    <ele>467.700012207031</ele>
    <time>2012-03-04T13:34:59Z</time>
   </trkpt>
   <trkpt lat="46.26611328125" lon="7.45738315582275">
    <ele>467.899993896484</ele>
    <time>2012-03-04T13:35:01Z</time>
   </trkpt>
   <trkpt lat="46.2660903930664" lon="7.45731163024902">
    <ele>468.199981689453</ele>
    <time>2012-03-04T13:35:04Z</time>
   </trkpt>
   <trkpt lat="46.2660675048828" lon="7.45726203918457">
    <ele>468.399993896484</ele>
    <time>2012-03-04T13:35:06Z</time>
   </trkpt>
   <trkpt lat="46.2660636901856" lon="7.45723390579224">
    <ele>468.5</ele>
    <time>2012-03-04T13:35:07Z</time>
   </trkpt>
   <trkpt lat="46.266056060791" lon="7.45720291137695">
    <ele>468.599975585938</ele>
    <time>2012-03-04T13:35:08Z</time>
   </trkpt>
   <trkpt lat="46.2660522460938" lon="7.45717859268188">
    <ele>468.699981689453</ele>
    <time>2012-03-04T13:35:09Z</time>
   </trkpt>
   <trkpt lat="46.2660484313965" lon="7.45715284347534">
    <ele>468.799987792969</ele>
    <time>2012-03-04T13:35:10Z</time>
   </trkpt>
   <trkpt lat="46.2660331726074" lon="7.45703649520874">
    <ele>468.799987792969</ele>
    <time>2012-03-04T13:35:14Z</time>
   </trkpt>
   <trkpt lat="46.2660064697266" lon="7.45686197280884">
    <ele>468.362487792969</ele>
    <time>2012-03-04T13:35:21Z</time>
   </trkpt>
   <trkpt lat="46.2659606933594" lon="7.4566707611084">
    <ele>467.862487792969</ele>
    <time>2012-03-04T13:35:29Z</time>
   </trkpt>
   <trkpt lat="46.2659530639648" lon="7.45665073394775">
    <ele>467.799987792969</ele>
    <time>2012-03-04T13:35:30Z</time>
   </trkpt>
   <trkpt lat="46.2659454345703" lon="7.45663166046143">
    <ele>468</ele>
    <time>2012-03-04T13:35:31Z</time>
   </trkpt>
   <trkpt lat="46.265941619873" lon="7.45660829544067">
    <ele>468.200012207031</ele>
    <time>2012-03-04T13:35:32Z</time>
   </trkpt>
   <trkpt lat="46.2659301757812" lon="7.45658874511719">
    <ele>468.399993896484</ele>
    <time>2012-03-04T13:35:33Z</time>
   </trkpt>
   <trkpt lat="46.2659149169922" lon="7.45656967163086">
    <ele>468.599975585938</ele>
    <time>2012-03-04T13:35:34Z</time>
   </trkpt>
   <trkpt lat="46.2659034729004" lon="7.45654773712158">
    <ele>468.799987792969</ele>
    <time>2012-03-04T13:35:35Z</time>
   </trkpt>
   <trkpt lat="46.2658348083496" lon="7.45642805099487">
    <ele>468.799987792969</ele>
    <time>2012-03-04T13:35:41Z</time>
   </trkpt>
   <trkpt lat="46.265739440918" lon="7.45631885528564">
    <ele>468.498016357422</ele>
    <time>2012-03-04T13:35:48Z</time>
   </trkpt>
   <trkpt lat="46.2656173706055" lon="7.45617532730102">
    <ele>468.109802246094</ele>
    <time>2012-03-04T13:35:57Z</time>
   </trkpt>
   <trkpt lat="46.2655258178711" lon="7.45606899261475">
    <ele>467.850982666016</ele>
    <time>2012-03-04T13:36:03Z</time>
   </trkpt>
   <trkpt lat="46.2654342651367" lon="7.45590877532959">
    <ele>467.505889892578</ele>
    <time>2012-03-04T13:36:11Z</time>
   </trkpt>
   <trkpt lat="46.2654342651367" lon="7.45578479766846">
    <ele>467.290191650391</ele>
    <time>2012-03-04T13:36:16Z</time>
   </trkpt>
   <trkpt lat="46.2654495239258" lon="7.45577001571655">
    <ele>467.2470703125</ele>
    <time>2012-03-04T13:36:17Z</time>
   </trkpt>
   <trkpt lat="46.2655334472656" lon="7.4557933807373">
    <ele>467.031372070312</ele>
    <time>2012-03-04T13:36:22Z</time>
   </trkpt>
   <trkpt lat="46.2655601501465" lon="7.4558424949646">
    <ele>466.945098876953</ele>
    <time>2012-03-04T13:36:24Z</time>
   </trkpt>
   <trkpt lat="46.2656021118164" lon="7.4559473991394">
    <ele>466.772552490234</ele>
    <time>2012-03-04T13:36:28Z</time>
   </trkpt>
   <trkpt lat="46.2656097412109" lon="7.45597505569458">
    <ele>466.729431152344</ele>
    <time>2012-03-04T13:36:29Z</time>
   </trkpt>
   <trkpt lat="46.2656211853027" lon="7.45599842071533">
    <ele>466.686279296875</ele>
    <time>2012-03-04T13:36:30Z</time>
   </trkpt>
   <trkpt lat="46.2656364440918" lon="7.45602035522461">
    <ele>466.643157958984</ele>
    <time>2012-03-04T13:36:31Z</time>
   </trkpt>
   <trkpt lat="46.2656517028809" lon="7.45603847503662">
    <ele>466.600006103516</ele>
    <time>2012-03-04T13:36:32Z</time>
   </trkpt>
   <trkpt lat="46.2657241821289" lon="7.45608472824097">
    <ele>466.600006103516</ele>
    <time>2012-03-04T13:36:36Z</time>
   </trkpt>
   <trkpt lat="46.2658538818359" lon="7.4561619758606">
    <ele>467.953826904297</ele>
    <time>2012-03-04T13:36:44Z</time>
   </trkpt>
   <trkpt lat="46.265869140625" lon="7.45617437362671">
    <ele>468.123077392578</ele>
    <time>2012-03-04T13:36:45Z</time>
   </trkpt>
   <trkpt lat="46.2658882141113" lon="7.45618677139282">
    <ele>468.292297363281</ele>
    <time>2012-03-04T13:36:46Z</time>
   </trkpt>
   <trkpt lat="46.2659034729004" lon="7.45619773864746">
    <ele>468.461517333984</ele>
    <time>2012-03-04T13:36:47Z</time>
   </trkpt>
   <trkpt lat="46.2659187316894" lon="7.45621252059936">
    <ele>468.630767822266</ele>
    <time>2012-03-04T13:36:48Z</time>
   </trkpt>
   <trkpt lat="46.2659339904785" lon="7.4562292098999">
    <ele>468.799987792969</ele>
    <time>2012-03-04T13:36:49Z</time>
   </trkpt>
   <trkpt lat="46.2660179138184" lon="7.45634460449219">
    <ele>468.799987792969</ele>
    <time>2012-03-04T13:36:55Z</time>
   </trkpt>
   <trkpt lat="46.2661056518555" lon="7.4565167427063">
    <ele>469.113708496094</ele>
    <time>2012-03-04T13:37:03Z</time>
   </trkpt>
   <trkpt lat="46.2661972045898" lon="7.45667409896851">
    <ele>469.427429199219</ele>
    <time>2012-03-04T13:37:11Z</time>
   </trkpt>
   <trkpt lat="46.2663154602051" lon="7.45683717727661">
    <ele>469.780364990234</ele>
    <time>2012-03-04T13:37:20Z</time>
   </trkpt>
   <trkpt lat="46.2664184570312" lon="7.4569787979126">
    <ele>470.094116210938</ele>
    <time>2012-03-04T13:37:28Z</time>
   </trkpt>
   <trkpt lat="46.2665100097656" lon="7.45709896087646">
    <ele>470.368621826172</ele>
    <time>2012-03-04T13:37:35Z</time>
   </trkpt>
   <trkpt lat="46.2666053771973" lon="7.45722389221191">
    <ele>470.643127441406</ele>
    <time>2012-03-04T13:37:42Z</time>
   </trkpt>
   <trkpt lat="46.2666244506836" lon="7.45724058151245">
    <ele>470.682342529297</ele>
    <time>2012-03-04T13:37:43Z</time>
   </trkpt>
   <trkpt lat="46.2666358947754" lon="7.45725870132446">
    <ele>470.721557617188</ele>
    <time>2012-03-04T13:37:44Z</time>
   </trkpt>
   <trkpt lat="46.2666511535644" lon="7.45727634429932">
    <ele>470.760772705078</ele>
    <time>2012-03-04T13:37:45Z</time>
   </trkpt>
   <trkpt lat="46.2666664123535" lon="7.45729351043701">
    <ele>470.799987792969</ele>
    <time>2012-03-04T13:37:46Z</time>
   </trkpt>
   <trkpt lat="46.2667274475098" lon="7.45735931396484">
    <ele>470.799987792969</ele>
    <time>2012-03-04T13:37:50Z</time>
   </trkpt>
   <trkpt lat="46.2668495178223" lon="7.45750617980957">
    <ele>470.433319091797</ele>
    <time>2012-03-04T13:37:59Z</time>
   </trkpt>
   <trkpt lat="46.2669677734375" lon="7.45763301849365">
    <ele>470.107391357422</ele>
    <time>2012-03-04T13:38:07Z</time>
   </trkpt>
   <trkpt lat="46.2671203613281" lon="7.45777225494385">
    <ele>469.74072265625</ele>
    <time>2012-03-04T13:38:16Z</time>
   </trkpt>
   <trkpt lat="46.2672233581543" lon="7.457839012146">
    <ele>469.496307373047</ele>
    <time>2012-03-04T13:38:22Z</time>
   </trkpt>
   <trkpt lat="46.2673492431641" lon="7.45786142349243">
    <ele>469.251861572266</ele>
    <time>2012-03-04T13:38:28Z</time>
   </trkpt>
   <trkpt lat="46.2674522399902" lon="7.457763671875">
    <ele>469.048156738281</ele>
    <time>2012-03-04T13:38:33Z</time>
   </trkpt>
   <trkpt lat="46.267505645752" lon="7.45757055282593">
    <ele>468.844451904297</ele>
    <time>2012-03-04T13:38:38Z</time>
   </trkpt>
   <trkpt lat="46.2675132751465" lon="7.4574875831604">
    <ele>468.762969970703</ele>
    <time>2012-03-04T13:38:40Z</time>
   </trkpt>
   <trkpt lat="46.2675132751465" lon="7.45744848251343">
    <ele>468.722229003906</ele>
    <time>2012-03-04T13:38:41Z</time>
   </trkpt>
   <trkpt lat="46.2675132751465" lon="7.45741033554077">
    <ele>468.681488037109</ele>
    <time>2012-03-04T13:38:42Z</time>
   </trkpt>
   <trkpt lat="46.267505645752" lon="7.45737075805664">
    <ele>468.640747070312</ele>
    <time>2012-03-04T13:38:43Z</time>
   </trkpt>
   <trkpt lat="46.2674980163574" lon="7.45733308792114">
    <ele>468.600006103516</ele>
    <time>2012-03-04T13:38:44Z</time>
   </trkpt>
   <trkpt lat="46.2674942016602" lon="7.45729303359985">
    <ele>468.600006103516</ele>
    <time>2012-03-04T13:38:45Z</time>
   </trkpt>
   <trkpt lat="46.2674674987793" lon="7.45707511901856">
    <ele>467.866668701172</ele>
    <time>2012-03-04T13:38:50Z</time>
   </trkpt>
   <trkpt lat="46.2674674987793" lon="7.45703172683716">
    <ele>467.720001220703</ele>
    <time>2012-03-04T13:38:51Z</time>
   </trkpt>
   <trkpt lat="46.2674713134766" lon="7.45690631866455">
    <ele>467.279998779297</ele>
    <time>2012-03-04T13:38:54Z</time>
   </trkpt>
   <trkpt lat="46.267505645752" lon="7.45679521560669">
    <ele>466.839996337891</ele>
    <time>2012-03-04T13:38:57Z</time>
   </trkpt>
   <trkpt lat="46.267520904541" lon="7.45676374435425">
    <ele>466.693328857422</ele>
    <time>2012-03-04T13:38:58Z</time>
   </trkpt>
   <trkpt lat="46.2675399780273" lon="7.4567403793335">
    <ele>466.546661376953</ele>
    <time>2012-03-04T13:38:59Z</time>
   </trkpt>
   <trkpt lat="46.2675628662109" lon="7.45672225952148">
    <ele>466.399993896484</ele>
    <time>2012-03-04T13:39:00Z</time>
   </trkpt>
   <trkpt lat="46.2676086425781" lon="7.45669460296631">
    <ele>466.399993896484</ele>
    <time>2012-03-04T13:39:02Z</time>
   </trkpt>
   <trkpt lat="46.2677307128906" lon="7.45666885375976">
    <ele>466.511108398438</ele>
    <time>2012-03-04T13:39:07Z</time>
   </trkpt>
   <trkpt lat="46.2678985595703" lon="7.45668888092041">
    <ele>466.666656494141</ele>
    <time>2012-03-04T13:39:14Z</time>
   </trkpt>
   <trkpt lat="46.2680778503418" lon="7.4567346572876">
    <ele>466.844451904297</ele>
    <time>2012-03-04T13:39:22Z</time>
   </trkpt>
   <trkpt lat="46.2681732177734" lon="7.45676565170288">
    <ele>466.955535888672</ele>
    <time>2012-03-04T13:39:27Z</time>
   </trkpt>
   <trkpt lat="46.2681922912598" lon="7.4567756652832">
    <ele>466.977783203125</ele>
    <time>2012-03-04T13:39:28Z</time>
   </trkpt>
   <trkpt lat="46.2683143615723" lon="7.4568362236023">
    <ele>467.133331298828</ele>
    <time>2012-03-04T13:39:35Z</time>
   </trkpt>
   <trkpt lat="46.268440246582" lon="7.45688247680664">
    <ele>467.266662597656</ele>
    <time>2012-03-04T13:39:41Z</time>
   </trkpt>
   <trkpt lat="46.2685623168945" lon="7.45688152313232">
    <ele>467.399993896484</ele>
    <time>2012-03-04T13:39:47Z</time>
   </trkpt>
   <trkpt lat="46.2687454223633" lon="7.45685720443726">
    <ele>467.599975585938</ele>
    <time>2012-03-04T13:39:56Z</time>
   </trkpt>
   <trkpt lat="46.2688941955566" lon="7.45687007904053">
    <ele>467.755554199219</ele>
    <time>2012-03-04T13:40:03Z</time>
   </trkpt>
   <trkpt lat="46.2690010070801" lon="7.45694351196289">
    <ele>467.888885498047</ele>
    <time>2012-03-04T13:40:09Z</time>
   </trkpt>
   <trkpt lat="46.269100189209" lon="7.45706748962402">
    <ele>468.04443359375</ele>
    <time>2012-03-04T13:40:16Z</time>
   </trkpt>
   <trkpt lat="46.2691802978516" lon="7.45707368850708">
    <ele>468.155548095703</ele>
    <time>2012-03-04T13:40:21Z</time>
   </trkpt>
   <trkpt lat="46.2692031860352" lon="7.45696640014648">
    <ele>468.244445800781</ele>
    <time>2012-03-04T13:40:25Z</time>
   </trkpt>
   <trkpt lat="46.2691535949707" lon="7.45682191848755">
    <ele>468.355529785156</ele>
    <time>2012-03-04T13:40:30Z</time>
   </trkpt>
   <trkpt lat="46.269115447998" lon="7.45676708221436">
    <ele>468.422210693359</ele>
    <time>2012-03-04T13:40:33Z</time>
   </trkpt>
   <trkpt lat="46.269100189209" lon="7.45672702789307">
    <ele>468.466644287109</ele>
    <time>2012-03-04T13:40:35Z</time>
   </trkpt>
   <trkpt lat="46.2690315246582" lon="7.45658731460571">
    <ele>468.599975585938</ele>
    <time>2012-03-04T13:40:41Z</time>
   </trkpt>
   <trkpt lat="46.2689819335938" lon="7.45646524429321">
    <ele>468.711090087891</ele>
    <time>2012-03-04T13:40:46Z</time>
   </trkpt>
   <trkpt lat="46.268970489502" lon="7.45643901824951">
    <ele>468.733306884766</ele>
    <time>2012-03-04T13:40:47Z</time>
   </trkpt>
   <trkpt lat="46.2689666748047" lon="7.45641326904297">
    <ele>468.755554199219</ele>
    <time>2012-03-04T13:40:48Z</time>
   </trkpt>
   <trkpt lat="46.2689552307129" lon="7.456383228302">
    <ele>468.777770996094</ele>
    <time>2012-03-04T13:40:49Z</time>
   </trkpt>
   <trkpt lat="46.2689476013184" lon="7.45635604858398">
    <ele>468.799987792969</ele>
    <time>2012-03-04T13:40:50Z</time>
   </trkpt>
   <trkpt lat="46.2688903808594" lon="7.45623254776001">
    <ele>468.799987792969</ele>
    <time>2012-03-04T13:40:55Z</time>
   </trkpt>
   <trkpt lat="46.2687950134277" lon="7.4560956954956">
    <ele>468.498016357422</ele>
    <time>2012-03-04T13:41:02Z</time>
   </trkpt>
   <trkpt lat="46.2687225341797" lon="7.45595693588257">
    <ele>468.239196777344</ele>
    <time>2012-03-04T13:41:08Z</time>
   </trkpt>
   <trkpt lat="46.268611907959" lon="7.45578050613403">
    <ele>467.937255859375</ele>
    <time>2012-03-04T13:41:15Z</time>
   </trkpt>
   <trkpt lat="46.2685203552246" lon="7.45560312271118">
    <ele>467.635284423828</ele>
    <time>2012-03-04T13:41:22Z</time>
   </trkpt>
   <trkpt lat="46.2684097290039" lon="7.45541429519653">
    <ele>467.333343505859</ele>
    <time>2012-03-04T13:41:29Z</time>
   </trkpt>
   <trkpt lat="46.2683258056641" lon="7.45524406433106">
    <ele>467.074523925781</ele>
    <time>2012-03-04T13:41:35Z</time>
   </trkpt>
   <trkpt lat="46.2682075500488" lon="7.45508146286011">
    <ele>466.772552490234</ele>
    <time>2012-03-04T13:41:42Z</time>
   </trkpt>
   <trkpt lat="46.2681884765625" lon="7.45505094528198">
    <ele>466.729431152344</ele>
    <time>2012-03-04T13:41:43Z</time>
   </trkpt>
   <trkpt lat="46.2681694030762" lon="7.45502185821533">
    <ele>466.686279296875</ele>
    <time>2012-03-04T13:41:44Z</time>
   </trkpt>
   <trkpt lat="46.2681503295898" lon="7.45499324798584">
    <ele>466.643157958984</ele>
    <time>2012-03-04T13:41:45Z</time>
   </trkpt>
   <trkpt lat="46.2681350708008" lon="7.45496940612793">
    <ele>466.600006103516</ele>
    <time>2012-03-04T13:41:46Z</time>
   </trkpt>
   <trkpt lat="46.2680625915527" lon="7.45488500595093">
    <ele>466.600006103516</ele>
    <time>2012-03-04T13:41:50Z</time>
   </trkpt>
   <trkpt lat="46.2679252624512" lon="7.45464038848877">
    <ele>467.149993896484</ele>
    <time>2012-03-04T13:42:00Z</time>
   </trkpt>
   <trkpt lat="46.2678565979004" lon="7.45447874069214">
    <ele>467.480010986328</ele>
    <time>2012-03-04T13:42:06Z</time>
   </trkpt>
   <trkpt lat="46.2678642272949" lon="7.45444869995117">
    <ele>467.535003662109</ele>
    <time>2012-03-04T13:42:07Z</time>
   </trkpt>
   <trkpt lat="46.2679252624512" lon="7.4544186592102">
    <ele>467.755004882812</ele>
    <time>2012-03-04T13:42:11Z</time>
   </trkpt>
   <trkpt lat="46.2679634094238" lon="7.45444393157959">
    <ele>467.864990234375</ele>
    <time>2012-03-04T13:42:13Z</time>
   </trkpt>
   <trkpt lat="46.2680549621582" lon="7.4545431137085">
    <ele>468.139984130859</ele>
    <time>2012-03-04T13:42:18Z</time>
   </trkpt>
   <trkpt lat="46.2681846618652" lon="7.45468378067017">
    <ele>468.579986572266</ele>
    <time>2012-03-04T13:42:26Z</time>
   </trkpt>
   <trkpt lat="46.2681999206543" lon="7.45470094680786">
    <ele>468.634979248047</ele>
    <time>2012-03-04T13:42:27Z</time>
   </trkpt>
   <trkpt lat="46.2682189941406" lon="7.45471954345703">
    <ele>468.690002441406</ele>
    <time>2012-03-04T13:42:28Z</time>
   </trkpt>
   <trkpt lat="46.268238067627" lon="7.4547381401062">
    <ele>468.744995117188</ele>
    <time>2012-03-04T13:42:29Z</time>
   </trkpt>
   <trkpt lat="46.268253326416" lon="7.45475769042969">
    <ele>468.799987792969</ele>
    <time>2012-03-04T13:42:30Z</time>
   </trkpt>
   <trkpt lat="46.2682952880859" lon="7.4548192024231">
    <ele>468.799987792969</ele>
    <time>2012-03-04T13:42:33Z</time>
   </trkpt>
   <trkpt lat="46.2683792114258" lon="7.45491933822632">
    <ele>469.007537841797</ele>
    <time>2012-03-04T13:42:38Z</time>
   </trkpt>
   <trkpt lat="46.2684555053711" lon="7.45498561859131">
    <ele>469.173583984375</ele>
    <time>2012-03-04T13:42:42Z</time>
   </trkpt>
   <trkpt lat="46.2686309814453" lon="7.45509099960327">
    <ele>469.505645751953</ele>
    <time>2012-03-04T13:42:50Z</time>
   </trkpt>
   <trkpt lat="46.2688064575195" lon="7.4551887512207">
    <ele>469.837738037109</ele>
    <time>2012-03-04T13:42:58Z</time>
   </trkpt>
   <trkpt lat="46.2689476013184" lon="7.45532894134522">
    <ele>470.169799804688</ele>
    <time>2012-03-04T13:43:06Z</time>
   </trkpt>
   <trkpt lat="46.2690391540527" lon="7.4554648399353">
    <ele>470.418853759766</ele>
    <time>2012-03-04T13:43:12Z</time>
   </trkpt>
   <trkpt lat="46.2691421508789" lon="7.45562171936035">
    <ele>470.709442138672</ele>
    <time>2012-03-04T13:43:19Z</time>
   </trkpt>
   <trkpt lat="46.2691955566406" lon="7.45569276809692">
    <ele>470.833953857422</ele>
    <time>2012-03-04T13:43:22Z</time>
   </trkpt>
   <trkpt lat="46.269214630127" lon="7.45571374893188">
    <ele>470.875457763672</ele>
    <time>2012-03-04T13:43:23Z</time>
   </trkpt>
   <trkpt lat="46.2692337036133" lon="7.45573425292969">
    <ele>470.9169921875</ele>
    <time>2012-03-04T13:43:24Z</time>
   </trkpt>
   <trkpt lat="46.2692489624023" lon="7.45575523376465">
    <ele>470.95849609375</ele>
    <time>2012-03-04T13:43:25Z</time>
   </trkpt>
   <trkpt lat="46.2692680358887" lon="7.45577812194824">
    <ele>471</ele>
    <time>2012-03-04T13:43:26Z</time>
   </trkpt>
   <trkpt lat="46.2692832946777" lon="7.4557991027832">
    <ele>471</ele>
    <time>2012-03-04T13:43:27Z</time>
   </trkpt>
   <trkpt lat="46.2694091796875" lon="7.45594120025635">
    <ele>471.082366943359</ele>
    <time>2012-03-04T13:43:34Z</time>
   </trkpt>
   <trkpt lat="46.2695655822754" lon="7.45613765716553">
    <ele>471.188232421875</ele>
    <time>2012-03-04T13:43:43Z</time>
   </trkpt>
   <trkpt lat="46.2697143554688" lon="7.45634603500366">
    <ele>471.294128417969</ele>
    <time>2012-03-04T13:43:52Z</time>
   </trkpt>
   <trkpt lat="46.2698516845703" lon="7.45653581619263">
    <ele>471.388244628906</ele>
    <time>2012-03-04T13:44:00Z</time>
   </trkpt>
   <trkpt lat="46.2699813842773" lon="7.45672941207886">
    <ele>471.482360839844</ele>
    <time>2012-03-04T13:44:08Z</time>
   </trkpt>
   <trkpt lat="46.2701072692871" lon="7.45692300796509">
    <ele>471.576477050781</ele>
    <time>2012-03-04T13:44:16Z</time>
   </trkpt>
   <trkpt lat="46.2702255249023" lon="7.45708847045898">
    <ele>471.658813476562</ele>
    <time>2012-03-04T13:44:23Z</time>
   </trkpt>
   <trkpt lat="46.2703514099121" lon="7.45732307434082">
    <ele>471.764709472656</ele>
    <time>2012-03-04T13:44:32Z</time>
   </trkpt>
   <trkpt lat="46.2704086303711" lon="7.45757532119751">
    <ele>471.870574951172</ele>
    <time>2012-03-04T13:44:41Z</time>
   </trkpt>
   <trkpt lat="46.270435333252" lon="7.45778942108154">
    <ele>471.952941894531</ele>
    <time>2012-03-04T13:44:48Z</time>
   </trkpt>
   <trkpt lat="46.2705001831055" lon="7.45803880691528">
    <ele>472.047058105469</ele>
    <time>2012-03-04T13:44:56Z</time>
   </trkpt>
   <trkpt lat="46.2705917358398" lon="7.45821475982666">
    <ele>472.12939453125</ele>
    <time>2012-03-04T13:45:03Z</time>
   </trkpt>
   <trkpt lat="46.2707023620606" lon="7.45836400985718">
    <ele>472.211761474609</ele>
    <time>2012-03-04T13:45:10Z</time>
   </trkpt>
   <trkpt lat="46.2708549499512" lon="7.45850276947022">
    <ele>472.305877685547</ele>
    <time>2012-03-04T13:45:18Z</time>
   </trkpt>
   <trkpt lat="46.2710456848144" lon="7.45862102508545">
    <ele>472.411773681641</ele>
    <time>2012-03-04T13:45:27Z</time>
   </trkpt>
   <trkpt lat="46.2712478637695" lon="7.45870113372803">
    <ele>472.517639160156</ele>
    <time>2012-03-04T13:45:36Z</time>
   </trkpt>
   <trkpt lat="46.2713813781738" lon="7.458824634552">
    <ele>472.600006103516</ele>
    <time>2012-03-04T13:45:43Z</time>
   </trkpt>
   <trkpt lat="46.2714691162109" lon="7.45906639099121">
    <ele>472.694122314453</ele>
    <time>2012-03-04T13:45:51Z</time>
   </trkpt>
   <trkpt lat="46.2715454101562" lon="7.45927143096924">
    <ele>472.776458740234</ele>
    <time>2012-03-04T13:45:58Z</time>
   </trkpt>
   <trkpt lat="46.2716178894043" lon="7.45948171615601">
    <ele>472.858825683594</ele>
    <time>2012-03-04T13:46:05Z</time>
   </trkpt>
   <trkpt lat="46.2716255187988" lon="7.45951271057129">
    <ele>472.870574951172</ele>
    <time>2012-03-04T13:46:06Z</time>
   </trkpt>
   <trkpt lat="46.2717056274414" lon="7.45972347259522">
    <ele>472.952941894531</ele>
    <time>2012-03-04T13:46:13Z</time>
   </trkpt>
   <trkpt lat="46.2718124389648" lon="7.45991325378418">
    <ele>473.035278320312</ele>
    <time>2012-03-04T13:46:20Z</time>
   </trkpt>
   <trkpt lat="46.2719879150391" lon="7.46003484725952">
    <ele>473.12939453125</ele>
    <time>2012-03-04T13:46:28Z</time>
   </trkpt>
   <trkpt lat="46.2721900939941" lon="7.46016120910644">
    <ele>473.235290527344</ele>
    <time>2012-03-04T13:46:37Z</time>
   </trkpt>
   <trkpt lat="46.2722969055176" lon="7.46030330657959">
    <ele>473.305877685547</ele>
    <time>2012-03-04T13:46:43Z</time>
   </trkpt>
   <trkpt lat="46.2723731994629" lon="7.4604434967041">
    <ele>473.364685058594</ele>
    <time>2012-03-04T13:46:48Z</time>
   </trkpt>
   <trkpt lat="46.272388458252" lon="7.46047306060791">
    <ele>473.37646484375</ele>
    <time>2012-03-04T13:46:49Z</time>
   </trkpt>
   <trkpt lat="46.272403717041" lon="7.46050071716309">
    <ele>473.388214111328</ele>
    <time>2012-03-04T13:46:50Z</time>
   </trkpt>
   <trkpt lat="46.2724227905273" lon="7.46052312850952">
    <ele>473.399993896484</ele>
    <time>2012-03-04T13:46:51Z</time>
   </trkpt>
   <trkpt lat="46.2724914550781" lon="7.46054697036743">
    <ele>473.399993896484</ele>
    <time>2012-03-04T13:46:54Z</time>
   </trkpt>
   <trkpt lat="46.272518157959" lon="7.46053218841553">
    <ele>473.114288330078</ele>
    <time>2012-03-04T13:46:55Z</time>
   </trkpt>
   <trkpt lat="46.2725486755371" lon="7.46046829223633">
    <ele>472.542846679688</ele>
    <time>2012-03-04T13:46:57Z</time>
   </trkpt>
   <trkpt lat="46.2725486755371" lon="7.4604287147522">
    <ele>472.257141113281</ele>
    <time>2012-03-04T13:46:58Z</time>
   </trkpt>
   <trkpt lat="46.2725448608398" lon="7.46039199829102">
    <ele>471.971435546875</ele>
    <time>2012-03-04T13:46:59Z</time>
   </trkpt>
   <trkpt lat="46.2725296020508" lon="7.46035623550415">
    <ele>471.685699462891</ele>
    <time>2012-03-04T13:47:00Z</time>
   </trkpt>
   <trkpt lat="46.2725105285644" lon="7.46032619476318">
    <ele>471.399993896484</ele>
    <time>2012-03-04T13:47:01Z</time>
   </trkpt>
   <trkpt lat="46.2724914550781" lon="7.46029806137085">
    <ele>471.399993896484</ele>
    <time>2012-03-04T13:47:02Z</time>
   </trkpt>
   <trkpt lat="46.2724723815918" lon="7.46027088165283">
    <ele>471.422454833984</ele>
    <time>2012-03-04T13:47:03Z</time>
   </trkpt>
   <trkpt lat="46.2723197937012" lon="7.46008157730102">
    <ele>471.602233886719</ele>
    <time>2012-03-04T13:47:11Z</time>
   </trkpt>
   <trkpt lat="46.2722053527832" lon="7.45993900299072">
    <ele>471.737060546875</ele>
    <time>2012-03-04T13:47:17Z</time>
   </trkpt>
   <trkpt lat="46.2720642089844" lon="7.45974016189575">
    <ele>471.916839599609</ele>
    <time>2012-03-04T13:47:25Z</time>
   </trkpt>
   <trkpt lat="46.2719612121582" lon="7.45950937271118">
    <ele>472.096618652344</ele>
    <time>2012-03-04T13:47:33Z</time>
   </trkpt>
   <trkpt lat="46.2719459533691" lon="7.45922708511352">
    <ele>472.276397705078</ele>
    <time>2012-03-04T13:47:41Z</time>
   </trkpt>
   <trkpt lat="46.2719917297363" lon="7.45899868011475">
    <ele>472.433715820312</ele>
    <time>2012-03-04T13:47:48Z</time>
   </trkpt>
   <trkpt lat="46.272045135498" lon="7.45883226394653">
    <ele>472.546051025391</ele>
    <time>2012-03-04T13:47:53Z</time>
   </trkpt>
   <trkpt lat="46.2720642089844" lon="7.45876598358154">
    <ele>472.591003417969</ele>
    <time>2012-03-04T13:47:55Z</time>
   </trkpt>
   <trkpt lat="46.2721405029297" lon="7.45854234695435">
    <ele>472.748321533203</ele>
    <time>2012-03-04T13:48:02Z</time>
   </trkpt>
   <trkpt lat="46.2721481323242" lon="7.4585075378418">
    <ele>472.770782470703</ele>
    <time>2012-03-04T13:48:03Z</time>
   </trkpt>
   <trkpt lat="46.2721748352051" lon="7.45822381973267">
    <ele>472.950561523438</ele>
    <time>2012-03-04T13:48:11Z</time>
   </trkpt>
   <trkpt lat="46.2721557617188" lon="7.45798254013062">
    <ele>473.107849121094</ele>
    <time>2012-03-04T13:48:18Z</time>
   </trkpt>
   <trkpt lat="46.2721138000488" lon="7.45775699615478">
    <ele>473.265167236328</ele>
    <time>2012-03-04T13:48:25Z</time>
   </trkpt>
   <trkpt lat="46.2720909118652" lon="7.45766687393188">
    <ele>473.332580566406</ele>
    <time>2012-03-04T13:48:28Z</time>
   </trkpt>
   <trkpt lat="46.2720832824707" lon="7.45763635635376">
    <ele>473.355041503906</ele>
    <time>2012-03-04T13:48:29Z</time>
   </trkpt>
   <trkpt lat="46.2720794677734" lon="7.45760822296143">
    <ele>473.377532958984</ele>
    <time>2012-03-04T13:48:30Z</time>
   </trkpt>
   <trkpt lat="46.2720718383789" lon="7.45758152008057">
    <ele>473.399993896484</ele>
    <time>2012-03-04T13:48:31Z</time>
   </trkpt>
   <trkpt lat="46.2720642089844" lon="7.45752477645874">
    <ele>473.399993896484</ele>
    <time>2012-03-04T13:48:33Z</time>
   </trkpt>
   <trkpt lat="46.2720260620117" lon="7.45730876922607">
    <ele>473.799987792969</ele>
    <time>2012-03-04T13:48:40Z</time>
   </trkpt>
   <trkpt lat="46.2719955444336" lon="7.45712041854858">
    <ele>474.142852783203</ele>
    <time>2012-03-04T13:48:46Z</time>
   </trkpt>
   <trkpt lat="46.2719879150391" lon="7.45697355270386">
    <ele>474.428558349609</ele>
    <time>2012-03-04T13:48:51Z</time>
   </trkpt>
   <trkpt lat="46.2719841003418" lon="7.45694160461426">
    <ele>474.485717773438</ele>
    <time>2012-03-04T13:48:52Z</time>
   </trkpt>
   <trkpt lat="46.2719573974609" lon="7.45678806304932">
    <ele>474.771423339844</ele>
    <time>2012-03-04T13:48:57Z</time>
   </trkpt>
   <trkpt lat="46.2719345092773" lon="7.45660305023193">
    <ele>475.114288330078</ele>
    <time>2012-03-04T13:49:03Z</time>
   </trkpt>
   <trkpt lat="46.2719306945801" lon="7.45657157897949">
    <ele>475.171417236328</ele>
    <time>2012-03-04T13:49:04Z</time>
   </trkpt>
   <trkpt lat="46.2719306945801" lon="7.45653963088989">
    <ele>475.228576660156</ele>
    <time>2012-03-04T13:49:05Z</time>
   </trkpt>
   <trkpt lat="46.2719268798828" lon="7.45650482177734">
    <ele>475.285705566406</ele>
    <time>2012-03-04T13:49:06Z</time>
   </trkpt>
   <trkpt lat="46.2719268798828" lon="7.4564733505249">
    <ele>475.342864990234</ele>
    <time>2012-03-04T13:49:07Z</time>
   </trkpt>
   <trkpt lat="46.2719230651856" lon="7.45644187927246">
    <ele>475.399993896484</ele>
    <time>2012-03-04T13:49:08Z</time>
   </trkpt>
   <trkpt lat="46.271915435791" lon="7.45634508132935">
    <ele>475.399993896484</ele>
    <time>2012-03-04T13:49:11Z</time>
   </trkpt>
   <trkpt lat="46.2718696594238" lon="7.45609903335571">
    <ele>475.751983642578</ele>
    <time>2012-03-04T13:49:19Z</time>
   </trkpt>
   <trkpt lat="46.2717933654785" lon="7.45584154129028">
    <ele>476.148010253906</ele>
    <time>2012-03-04T13:49:28Z</time>
   </trkpt>
   <trkpt lat="46.2717475891113" lon="7.45561981201172">
    <ele>476.455993652344</ele>
    <time>2012-03-04T13:49:35Z</time>
   </trkpt>
   <trkpt lat="46.2716789245606" lon="7.45541381835938">
    <ele>476.764007568359</ele>
    <time>2012-03-04T13:49:42Z</time>
   </trkpt>
   <trkpt lat="46.271614074707" lon="7.45521306991577">
    <ele>477.071990966797</ele>
    <time>2012-03-04T13:49:49Z</time>
   </trkpt>
   <trkpt lat="46.271541595459" lon="7.45497465133667">
    <ele>477.424011230469</ele>
    <time>2012-03-04T13:49:57Z</time>
   </trkpt>
   <trkpt lat="46.2715263366699" lon="7.45494174957275">
    <ele>477.468017578125</ele>
    <time>2012-03-04T13:49:58Z</time>
   </trkpt>
   <trkpt lat="46.2715187072754" lon="7.45491123199463">
    <ele>477.511993408203</ele>
    <time>2012-03-04T13:49:59Z</time>
   </trkpt>
   <trkpt lat="46.2715110778809" lon="7.4548807144165">
    <ele>477.555999755859</ele>
    <time>2012-03-04T13:50:00Z</time>
   </trkpt>
   <trkpt lat="46.2714996337891" lon="7.45484972000122">
    <ele>477.600006103516</ele>
    <time>2012-03-04T13:50:01Z</time>
   </trkpt>
   <trkpt lat="46.2714729309082" lon="7.4547529220581">
    <ele>477.600006103516</ele>
    <time>2012-03-04T13:50:04Z</time>
   </trkpt>
   <trkpt lat="46.2713928222656" lon="7.45453405380249">
    <ele>477.981811523438</ele>
    <time>2012-03-04T13:50:11Z</time>
   </trkpt>
   <trkpt lat="46.2712745666504" lon="7.45431470870972">
    <ele>478.418182373047</ele>
    <time>2012-03-04T13:50:19Z</time>
   </trkpt>
   <trkpt lat="46.2711563110352" lon="7.45414209365845">
    <ele>478.799987792969</ele>
    <time>2012-03-04T13:50:26Z</time>
   </trkpt>
   <trkpt lat="46.2710571289062" lon="7.45398855209351">
    <ele>479.127288818359</ele>
    <time>2012-03-04T13:50:32Z</time>
   </trkpt>
   <trkpt lat="46.270923614502" lon="7.45379304885864">
    <ele>479.563629150391</ele>
    <time>2012-03-04T13:50:40Z</time>
   </trkpt>
   <trkpt lat="46.2709045410156" lon="7.45377159118652">
    <ele>479.618194580078</ele>
    <time>2012-03-04T13:50:41Z</time>
   </trkpt>
   <trkpt lat="46.2708358764648" lon="7.45370769500732">
    <ele>479.781829833984</ele>
    <time>2012-03-04T13:50:44Z</time>
   </trkpt>
   <trkpt lat="46.2708168029785" lon="7.45368528366089">
    <ele>479.836364746094</ele>
    <time>2012-03-04T13:50:45Z</time>
   </trkpt>
   <trkpt lat="46.2707977294922" lon="7.45366811752319">
    <ele>479.890899658203</ele>
    <time>2012-03-04T13:50:46Z</time>
   </trkpt>
   <trkpt lat="46.2707786560059" lon="7.45365047454834">
    <ele>479.945465087891</ele>
    <time>2012-03-04T13:50:47Z</time>
   </trkpt>
   <trkpt lat="46.2707557678223" lon="7.45363759994507">
    <ele>480</ele>
    <time>2012-03-04T13:50:48Z</time>
   </trkpt>
   <trkpt lat="46.2707328796387" lon="7.45362138748169">
    <ele>480</ele>
    <time>2012-03-04T13:50:49Z</time>
   </trkpt>
   <trkpt lat="46.270580291748" lon="7.45351648330688">
    <ele>480.205871582031</ele>
    <time>2012-03-04T13:50:56Z</time>
   </trkpt>
   <trkpt lat="46.2704277038574" lon="7.45341873168945">
    <ele>480.411773681641</ele>
    <time>2012-03-04T13:51:03Z</time>
   </trkpt>
   <trkpt lat="46.2702903747559" lon="7.45329523086548">
    <ele>480.617645263672</ele>
    <time>2012-03-04T13:51:10Z</time>
   </trkpt>
   <trkpt lat="46.2701454162598" lon="7.45320701599121">
    <ele>480.823516845703</ele>
    <time>2012-03-04T13:51:17Z</time>
   </trkpt>
   <trkpt lat="46.2700653076172" lon="7.45305299758911">
    <ele>481</ele>
    <time>2012-03-04T13:51:23Z</time>
   </trkpt>
   <trkpt lat="46.2699737548828" lon="7.45281457901001">
    <ele>481.235290527344</ele>
    <time>2012-03-04T13:51:31Z</time>
   </trkpt>
   <trkpt lat="46.2698707580566" lon="7.45258665084839">
    <ele>481.470581054688</ele>
    <time>2012-03-04T13:51:39Z</time>
   </trkpt>
   <trkpt lat="46.2697868347168" lon="7.45241498947144">
    <ele>481.647064208984</ele>
    <time>2012-03-04T13:51:45Z</time>
   </trkpt>
   <trkpt lat="46.2696990966797" lon="7.45222902297974">
    <ele>481.852935791016</ele>
    <time>2012-03-04T13:51:52Z</time>
   </trkpt>
   <trkpt lat="46.2696838378906" lon="7.45219945907593">
    <ele>481.882354736328</ele>
    <time>2012-03-04T13:51:53Z</time>
   </trkpt>
   <trkpt lat="46.2696685791016" lon="7.45216751098633">
    <ele>481.911773681641</ele>
    <time>2012-03-04T13:51:54Z</time>
   </trkpt>
   <trkpt lat="46.2696533203125" lon="7.45213842391968">
    <ele>481.941162109375</ele>
    <time>2012-03-04T13:51:55Z</time>
   </trkpt>
   <trkpt lat="46.2696342468262" lon="7.45211172103882">
    <ele>481.970581054688</ele>
    <time>2012-03-04T13:51:56Z</time>
   </trkpt>
   <trkpt lat="46.2696189880371" lon="7.45208120346069">
    <ele>482</ele>
    <time>2012-03-04T13:51:57Z</time>
   </trkpt>
   <trkpt lat="46.2696075439453" lon="7.45205497741699">
    <ele>482</ele>
    <time>2012-03-04T13:51:58Z</time>
   </trkpt>
   <trkpt lat="46.2694702148438" lon="7.45177602767944">
    <ele>482.454559326172</ele>
    <time>2012-03-04T13:52:08Z</time>
   </trkpt>
   <trkpt lat="46.2693710327148" lon="7.45154523849487">
    <ele>482.818176269531</ele>
    <time>2012-03-04T13:52:16Z</time>
   </trkpt>
   <trkpt lat="46.2692680358887" lon="7.45131826400757">
    <ele>483.181823730469</ele>
    <time>2012-03-04T13:52:24Z</time>
   </trkpt>
   <trkpt lat="46.269157409668" lon="7.45102262496948">
    <ele>483.636352539062</ele>
    <time>2012-03-04T13:52:34Z</time>
   </trkpt>
   <trkpt lat="46.2691307067871" lon="7.45088768005371">
    <ele>483.818176269531</ele>
    <time>2012-03-04T13:52:38Z</time>
   </trkpt>
   <trkpt lat="46.2691268920898" lon="7.45085573196411">
    <ele>483.863647460938</ele>
    <time>2012-03-04T13:52:39Z</time>
   </trkpt>
   <trkpt lat="46.2691268920898" lon="7.45082235336304">
    <ele>483.909088134766</ele>
    <time>2012-03-04T13:52:40Z</time>
   </trkpt>
   <trkpt lat="46.2691230773926" lon="7.45078992843628">
    <ele>483.954559326172</ele>
    <time>2012-03-04T13:52:41Z</time>
   </trkpt>
   <trkpt lat="46.2691192626953" lon="7.45075750350952">
    <ele>484</ele>
    <time>2012-03-04T13:52:42Z</time>
   </trkpt>
   <trkpt lat="46.2691078186035" lon="7.4505467414856">
    <ele>484</ele>
    <time>2012-03-04T13:52:48Z</time>
   </trkpt>
   <trkpt lat="46.2690963745117" lon="7.45027685165405">
    <ele>484.615386962891</ele>
    <time>2012-03-04T13:52:56Z</time>
   </trkpt>
   <trkpt lat="46.2690925598144" lon="7.45003604888916">
    <ele>485.153839111328</ele>
    <time>2012-03-04T13:53:03Z</time>
   </trkpt>
   <trkpt lat="46.2690887451172" lon="7.44996500015259">
    <ele>485.307678222656</ele>
    <time>2012-03-04T13:53:05Z</time>
   </trkpt>
   <trkpt lat="46.2690811157227" lon="7.44979810714722">
    <ele>485.692321777344</ele>
    <time>2012-03-04T13:53:10Z</time>
   </trkpt>
   <trkpt lat="46.2690773010254" lon="7.44976568222046">
    <ele>485.769226074219</ele>
    <time>2012-03-04T13:53:11Z</time>
   </trkpt>
   <trkpt lat="46.2690773010254" lon="7.44973230361938">
    <ele>485.846160888672</ele>
    <time>2012-03-04T13:53:12Z</time>
   </trkpt>
   <trkpt lat="46.2690734863281" lon="7.44969940185547">
    <ele>485.923065185547</ele>
    <time>2012-03-04T13:53:13Z</time>
   </trkpt>
   <trkpt lat="46.2690734863281" lon="7.44966411590576">
    <ele>486</ele>
    <time>2012-03-04T13:53:14Z</time>
   </trkpt>
   <trkpt lat="46.2690658569336" lon="7.44942474365234">
    <ele>486</ele>
    <time>2012-03-04T13:53:21Z</time>
   </trkpt>
   <trkpt lat="46.2690505981445" lon="7.44917821884155">
    <ele>486.290557861328</ele>
    <time>2012-03-04T13:53:28Z</time>
   </trkpt>
   <trkpt lat="46.2690353393555" lon="7.4488353729248">
    <ele>486.705657958984</ele>
    <time>2012-03-04T13:53:38Z</time>
   </trkpt>
   <trkpt lat="46.2690162658691" lon="7.44864511489868">
    <ele>486.954711914062</ele>
    <time>2012-03-04T13:53:44Z</time>
   </trkpt>
   <trkpt lat="46.268985748291" lon="7.44841384887695">
    <ele>487.245300292969</ele>
    <time>2012-03-04T13:53:51Z</time>
   </trkpt>
   <trkpt lat="46.2689552307129" lon="7.44821166992188">
    <ele>487.494354248047</ele>
    <time>2012-03-04T13:53:57Z</time>
   </trkpt>
   <trkpt lat="46.268913269043" lon="7.44801712036133">
    <ele>487.743408203125</ele>
    <time>2012-03-04T13:54:03Z</time>
   </trkpt>
   <trkpt lat="46.2688522338867" lon="7.44779872894287">
    <ele>488.033966064453</ele>
    <time>2012-03-04T13:54:10Z</time>
   </trkpt>
   <trkpt lat="46.2688407897949" lon="7.44776725769043">
    <ele>488.075469970703</ele>
    <time>2012-03-04T13:54:11Z</time>
   </trkpt>
   <trkpt lat="46.2688331604004" lon="7.44773435592651">
    <ele>488.117004394531</ele>
    <time>2012-03-04T13:54:12Z</time>
   </trkpt>
   <trkpt lat="46.2688293457031" lon="7.44770050048828">
    <ele>488.158508300781</ele>
    <time>2012-03-04T13:54:13Z</time>
   </trkpt>
   <trkpt lat="46.2688217163086" lon="7.44766807556152">
    <ele>488.200012207031</ele>
    <time>2012-03-04T13:54:14Z</time>
   </trkpt>
   <trkpt lat="46.2687911987305" lon="7.44756984710693">
    <ele>488.200012207031</ele>
    <time>2012-03-04T13:54:17Z</time>
   </trkpt>
   <trkpt lat="46.2687301635742" lon="7.447340965271">
    <ele>488.970001220703</ele>
    <time>2012-03-04T13:54:24Z</time>
   </trkpt>
   <trkpt lat="46.2686805725098" lon="7.44715213775635">
    <ele>489.630004882812</ele>
    <time>2012-03-04T13:54:30Z</time>
   </trkpt>
   <trkpt lat="46.2686462402344" lon="7.44706344604492">
    <ele>489.959991455078</ele>
    <time>2012-03-04T13:54:33Z</time>
   </trkpt>
   <trkpt lat="46.2686347961426" lon="7.44703340530396">
    <ele>490.070007324219</ele>
    <time>2012-03-04T13:54:34Z</time>
   </trkpt>
   <trkpt lat="46.2686195373535" lon="7.44700336456299">
    <ele>490.179992675781</ele>
    <time>2012-03-04T13:54:35Z</time>
   </trkpt>
   <trkpt lat="46.2686080932617" lon="7.44697570800781">
    <ele>490.290008544922</ele>
    <time>2012-03-04T13:54:36Z</time>
   </trkpt>
   <trkpt lat="46.2685966491699" lon="7.44694757461548">
    <ele>490.399993896484</ele>
    <time>2012-03-04T13:54:37Z</time>
   </trkpt>
   <trkpt lat="46.2685089111328" lon="7.44676208496094">
    <ele>490.399993896484</ele>
    <time>2012-03-04T13:54:44Z</time>
   </trkpt>
   <trkpt lat="46.2684211730957" lon="7.44661331176758">
    <ele>490.774993896484</ele>
    <time>2012-03-04T13:54:50Z</time>
   </trkpt>
   <trkpt lat="46.2684020996094" lon="7.44655990600586">
    <ele>490.899993896484</ele>
    <time>2012-03-04T13:54:52Z</time>
   </trkpt>
   <trkpt lat="46.2683181762695" lon="7.44640445709228">
    <ele>491.274993896484</ele>
    <time>2012-03-04T13:54:58Z</time>
   </trkpt>
   <trkpt lat="46.2682838439941" lon="7.44635152816772">
    <ele>491.399993896484</ele>
    <time>2012-03-04T13:55:00Z</time>
   </trkpt>
   <trkpt lat="46.2681694030762" lon="7.4461522102356">
    <ele>491.899993896484</ele>
    <time>2012-03-04T13:55:08Z</time>
   </trkpt>
   <trkpt lat="46.2681617736816" lon="7.44611883163452">
    <ele>491.962493896484</ele>
    <time>2012-03-04T13:55:09Z</time>
   </trkpt>
   <trkpt lat="46.2681884765625" lon="7.44603395462036">
    <ele>492.149993896484</ele>
    <time>2012-03-04T13:55:12Z</time>
   </trkpt>
   <trkpt lat="46.2682037353516" lon="7.44602966308594">
    <ele>492.212493896484</ele>
    <time>2012-03-04T13:55:13Z</time>
   </trkpt>
   <trkpt lat="46.2682266235352" lon="7.44603872299194">
    <ele>492.274993896484</ele>
    <time>2012-03-04T13:55:14Z</time>
   </trkpt>
   <trkpt lat="46.2682456970215" lon="7.44604730606079">
    <ele>492.337493896484</ele>
    <time>2012-03-04T13:55:15Z</time>
   </trkpt>
   <trkpt lat="46.2682571411133" lon="7.44606828689575">
    <ele>492.399993896484</ele>
    <time>2012-03-04T13:55:16Z</time>
   </trkpt>
   <trkpt lat="46.2682838439941" lon="7.44611024856567">
    <ele>492.399993896484</ele>
    <time>2012-03-04T13:55:18Z</time>
   </trkpt>
   <trkpt lat="46.2683525085449" lon="7.44617748260498">
    <ele>493.399993896484</ele>
    <time>2012-03-04T13:55:22Z</time>
   </trkpt>
   <trkpt lat="46.2683639526367" lon="7.44619750976562">
    <ele>493.649993896484</ele>
    <time>2012-03-04T13:55:23Z</time>
   </trkpt>
   <trkpt lat="46.2683753967285" lon="7.44621658325195">
    <ele>493.899993896484</ele>
    <time>2012-03-04T13:55:24Z</time>
   </trkpt>
   <trkpt lat="46.2683868408203" lon="7.44623374938965">
    <ele>494.149993896484</ele>
    <time>2012-03-04T13:55:25Z</time>
   </trkpt>
   <trkpt lat="46.2684020996094" lon="7.44625282287598">
    <ele>494.399993896484</ele>
    <time>2012-03-04T13:55:26Z</time>
   </trkpt>
   <trkpt lat="46.2684593200684" lon="7.44630575180054">
    <ele>494.399993896484</ele>
    <time>2012-03-04T13:55:29Z</time>
   </trkpt>
   <trkpt lat="46.2685585021973" lon="7.44638538360596">
    <ele>494.766662597656</ele>
    <time>2012-03-04T13:55:34Z</time>
   </trkpt>
   <trkpt lat="46.2686729431152" lon="7.4465184211731">
    <ele>495.279998779297</ele>
    <time>2012-03-04T13:55:41Z</time>
   </trkpt>
   <trkpt lat="46.2688026428223" lon="7.44664001464844">
    <ele>495.793334960938</ele>
    <time>2012-03-04T13:55:48Z</time>
   </trkpt>
   <trkpt lat="46.2689323425293" lon="7.44676160812378">
    <ele>496.306671142578</ele>
    <time>2012-03-04T13:55:55Z</time>
   </trkpt>
   <trkpt lat="46.2689476013184" lon="7.44678115844726">
    <ele>496.380004882812</ele>
    <time>2012-03-04T13:55:56Z</time>
   </trkpt>
   <trkpt lat="46.2689666748047" lon="7.4468035697937">
    <ele>496.453338623047</ele>
    <time>2012-03-04T13:55:57Z</time>
   </trkpt>
   <trkpt lat="46.2689819335938" lon="7.44682502746582">
    <ele>496.526672363281</ele>
    <time>2012-03-04T13:55:58Z</time>
   </trkpt>
   <trkpt lat="46.2689971923828" lon="7.44684314727783">
    <ele>496.600006103516</ele>
    <time>2012-03-04T13:55:59Z</time>
   </trkpt>
   <trkpt lat="46.269100189209" lon="7.44694757461548">
    <ele>496.600006103516</ele>
    <time>2012-03-04T13:56:05Z</time>
   </trkpt>
   <trkpt lat="46.2692604064941" lon="7.44711589813232">
    <ele>497.64208984375</ele>
    <time>2012-03-04T13:56:14Z</time>
   </trkpt>
   <trkpt lat="46.2693672180176" lon="7.44722652435303">
    <ele>498.336822509766</ele>
    <time>2012-03-04T13:56:20Z</time>
   </trkpt>
   <trkpt lat="46.2693862915039" lon="7.44724273681641">
    <ele>498.45263671875</ele>
    <time>2012-03-04T13:56:21Z</time>
   </trkpt>
   <trkpt lat="46.2693977355957" lon="7.44726228713989">
    <ele>498.568420410156</ele>
    <time>2012-03-04T13:56:22Z</time>
   </trkpt>
   <trkpt lat="46.269416809082" lon="7.44727563858032">
    <ele>498.684204101562</ele>
    <time>2012-03-04T13:56:23Z</time>
   </trkpt>
   <trkpt lat="46.2694320678711" lon="7.44729709625244">
    <ele>498.799987792969</ele>
    <time>2012-03-04T13:56:24Z</time>
   </trkpt>
   <trkpt lat="46.2694702148438" lon="7.44735622406006">
    <ele>498.799987792969</ele>
    <time>2012-03-04T13:56:27Z</time>
   </trkpt>
   <trkpt lat="46.2695770263672" lon="7.44749307632446">
    <ele>499.370361328125</ele>
    <time>2012-03-04T13:56:34Z</time>
   </trkpt>
   <trkpt lat="46.2696685791016" lon="7.44765901565552">
    <ele>499.940734863281</ele>
    <time>2012-03-04T13:56:41Z</time>
   </trkpt>
   <trkpt lat="46.2697677612305" lon="7.44784927368164">
    <ele>500.592590332031</ele>
    <time>2012-03-04T13:56:49Z</time>
   </trkpt>
   <trkpt lat="46.2697792053223" lon="7.44787263870239">
    <ele>500.674072265625</ele>
    <time>2012-03-04T13:56:50Z</time>
   </trkpt>
   <trkpt lat="46.2697944641113" lon="7.4478931427002">
    <ele>500.755554199219</ele>
    <time>2012-03-04T13:56:51Z</time>
   </trkpt>
   <trkpt lat="46.2698097229004" lon="7.44791269302368">
    <ele>500.837036132812</ele>
    <time>2012-03-04T13:56:52Z</time>
   </trkpt>
   <trkpt lat="46.2698211669922" lon="7.44793462753296">
    <ele>500.918518066406</ele>
    <time>2012-03-04T13:56:53Z</time>
   </trkpt>
   <trkpt lat="46.2698364257812" lon="7.44795370101929">
    <ele>501</ele>
    <time>2012-03-04T13:56:54Z</time>
   </trkpt>
   <trkpt lat="46.2699127197266" lon="7.44802856445312">
    <ele>501</ele>
    <time>2012-03-04T13:56:58Z</time>
   </trkpt>
   <trkpt lat="46.2699966430664" lon="7.44815874099732">
    <ele>501.799987792969</ele>
    <time>2012-03-04T13:57:04Z</time>
   </trkpt>
   <trkpt lat="46.2701301574707" lon="7.4483003616333">
    <ele>502.733337402344</ele>
    <time>2012-03-04T13:57:11Z</time>
   </trkpt>
   <trkpt lat="46.2701416015625" lon="7.44832372665405">
    <ele>502.866668701172</ele>
    <time>2012-03-04T13:57:12Z</time>
   </trkpt>
   <trkpt lat="46.2701568603516" lon="7.44834327697754">
    <ele>503</ele>
    <time>2012-03-04T13:57:13Z</time>
   </trkpt>
   <trkpt lat="46.2701683044434" lon="7.44836378097534">
    <ele>503.133331298828</ele>
    <time>2012-03-04T13:57:14Z</time>
   </trkpt>
   <trkpt lat="46.2701797485352" lon="7.44838666915894">
    <ele>503.266662597656</ele>
    <time>2012-03-04T13:57:15Z</time>
   </trkpt>
   <trkpt lat="46.270191192627" lon="7.44840860366821">
    <ele>503.399993896484</ele>
    <time>2012-03-04T13:57:16Z</time>
   </trkpt>
   <trkpt lat="46.2702598571777" lon="7.44852828979492">
    <ele>503.399993896484</ele>
    <time>2012-03-04T13:57:21Z</time>
   </trkpt>
   <trkpt lat="46.2702865600586" lon="7.44857263565064">
    <ele>502.700012207031</ele>
    <time>2012-03-04T13:57:23Z</time>
   </trkpt>
   <trkpt lat="46.2703018188477" lon="7.4485936164856">
    <ele>502.350006103516</ele>
    <time>2012-03-04T13:57:24Z</time>
   </trkpt>
   <trkpt lat="46.2703132629394" lon="7.44861745834351">
    <ele>502</ele>
    <time>2012-03-04T13:57:25Z</time>
   </trkpt>
   <trkpt lat="46.2703285217285" lon="7.44863986968994">
    <ele>502.399993896484</ele>
    <time>2012-03-04T13:57:26Z</time>
   </trkpt>
   <trkpt lat="46.2703437805176" lon="7.44866180419922">
    <ele>502.799987792969</ele>
    <time>2012-03-04T13:57:27Z</time>
   </trkpt>
   <trkpt lat="46.2703590393066" lon="7.4486780166626">
    <ele>503.200012207031</ele>
    <time>2012-03-04T13:57:28Z</time>
   </trkpt>
   <trkpt lat="46.2703742980957" lon="7.4486927986145">
    <ele>503.600006103516</ele>
    <time>2012-03-04T13:57:29Z</time>
   </trkpt>
   <trkpt lat="46.2703971862793" lon="7.44870328903198">
    <ele>504</ele>
    <time>2012-03-04T13:57:30Z</time>
   </trkpt>
   <trkpt lat="46.2704544067383" lon="7.44869470596314">
    <ele>504</ele>
    <time>2012-03-04T13:57:33Z</time>
   </trkpt>
   <trkpt lat="46.2704772949219" lon="7.44865226745606">
    <ele>504.095642089844</ele>
    <time>2012-03-04T13:57:35Z</time>
   </trkpt>
   <trkpt lat="46.2704772949219" lon="7.4485330581665">
    <ele>504.286956787109</ele>
    <time>2012-03-04T13:57:39Z</time>
   </trkpt>
   <trkpt lat="46.2704696655273" lon="7.44850444793701">
    <ele>504.334777832031</ele>
    <time>2012-03-04T13:57:40Z</time>
   </trkpt>
   <trkpt lat="46.2703819274902" lon="7.44833564758301">
    <ele>504.669555664062</ele>
    <time>2012-03-04T13:57:47Z</time>
   </trkpt>
   <trkpt lat="46.2703056335449" lon="7.44816732406616">
    <ele>505.004364013672</ele>
    <time>2012-03-04T13:57:54Z</time>
   </trkpt>
   <trkpt lat="46.2702865600586" lon="7.44811820983887">
    <ele>505.100006103516</ele>
    <time>2012-03-04T13:57:56Z</time>
   </trkpt>
   <trkpt lat="46.2702178955078" lon="7.44797945022583">
    <ele>505.386962890625</ele>
    <time>2012-03-04T13:58:02Z</time>
   </trkpt>
   <trkpt lat="46.2701568603516" lon="7.44778633117676">
    <ele>505.721740722656</ele>
    <time>2012-03-04T13:58:09Z</time>
   </trkpt>
   <trkpt lat="46.2701263427734" lon="7.44761180877686">
    <ele>506.008697509766</ele>
    <time>2012-03-04T13:58:15Z</time>
   </trkpt>
   <trkpt lat="46.2701187133789" lon="7.44758558273315">
    <ele>506.056518554688</ele>
    <time>2012-03-04T13:58:16Z</time>
   </trkpt>
   <trkpt lat="46.2701148986816" lon="7.4475588798523">
    <ele>506.104370117188</ele>
    <time>2012-03-04T13:58:17Z</time>
   </trkpt>
   <trkpt lat="46.2701110839844" lon="7.44754123687744">
    <ele>506.152191162109</ele>
    <time>2012-03-04T13:58:18Z</time>
   </trkpt>
   <trkpt lat="46.2701072692871" lon="7.44750833511352">
    <ele>506.200012207031</ele>
    <time>2012-03-04T13:58:19Z</time>
   </trkpt>
   <trkpt lat="46.2700881958008" lon="7.44741296768188">
    <ele>506.200012207031</ele>
    <time>2012-03-04T13:58:22Z</time>
   </trkpt>
   <trkpt lat="46.2700462341309" lon="7.44718503952026">
    <ele>507.299987792969</ele>
    <time>2012-03-04T13:58:30Z</time>
   </trkpt>
   <trkpt lat="46.2700119018555" lon="7.44707345962524">
    <ele>507.850006103516</ele>
    <time>2012-03-04T13:58:34Z</time>
   </trkpt>
   <trkpt lat="46.2700042724609" lon="7.44704389572144">
    <ele>507.987487792969</ele>
    <time>2012-03-04T13:58:35Z</time>
   </trkpt>
   <trkpt lat="46.2699928283691" lon="7.44701433181763">
    <ele>508.125</ele>
    <time>2012-03-04T13:58:36Z</time>
   </trkpt>
   <trkpt lat="46.2699851989746" lon="7.44698190689087">
    <ele>508.262481689453</ele>
    <time>2012-03-04T13:58:37Z</time>
   </trkpt>
   <trkpt lat="46.2699813842773" lon="7.44695234298706">
    <ele>508.399993896484</ele>
    <time>2012-03-04T13:58:38Z</time>
   </trkpt>
   <trkpt lat="46.2699317932129" lon="7.44685077667236">
    <ele>508.399993896484</ele>
    <time>2012-03-04T13:58:42Z</time>
   </trkpt>
   <trkpt lat="46.2698440551758" lon="7.44663715362549">
    <ele>509.127258300781</ele>
    <time>2012-03-04T13:58:50Z</time>
   </trkpt>
   <trkpt lat="46.2697830200195" lon="7.44645643234253">
    <ele>509.763641357422</ele>
    <time>2012-03-04T13:58:57Z</time>
   </trkpt>
   <trkpt lat="46.269775390625" lon="7.44636583328247">
    <ele>510.036346435547</ele>
    <time>2012-03-04T13:59:00Z</time>
   </trkpt>
   <trkpt lat="46.2697792053223" lon="7.44634628295898">
    <ele>510.127258300781</ele>
    <time>2012-03-04T13:59:01Z</time>
   </trkpt>
   <trkpt lat="46.2697944641113" lon="7.44632244110107">
    <ele>510.218170166016</ele>
    <time>2012-03-04T13:59:02Z</time>
   </trkpt>
   <trkpt lat="46.2698097229004" lon="7.44631576538086">
    <ele>510.30908203125</ele>
    <time>2012-03-04T13:59:03Z</time>
   </trkpt>
   <trkpt lat="46.2698249816894" lon="7.44631862640381">
    <ele>510.399993896484</ele>
    <time>2012-03-04T13:59:04Z</time>
   </trkpt>
   <trkpt lat="46.2698593139648" lon="7.44635677337646">
    <ele>510.399993896484</ele>
    <time>2012-03-04T13:59:06Z</time>
   </trkpt>
   <trkpt lat="46.2699127197266" lon="7.44644594192505">
    <ele>510.986663818359</ele>
    <time>2012-03-04T13:59:10Z</time>
   </trkpt>
   <trkpt lat="46.2699584960938" lon="7.44653081893921">
    <ele>511.426666259766</ele>
    <time>2012-03-04T13:59:13Z</time>
   </trkpt>
   <trkpt lat="46.2699928283691" lon="7.44657707214356">
    <ele>511.719970703125</ele>
    <time>2012-03-04T13:59:15Z</time>
   </trkpt>
   <trkpt lat="46.2700119018555" lon="7.44663524627686">
    <ele>512.013305664062</ele>
    <time>2012-03-04T13:59:17Z</time>
   </trkpt>
   <trkpt lat="46.2700233459473" lon="7.44666051864624">
    <ele>512.159973144531</ele>
    <time>2012-03-04T13:59:18Z</time>
   </trkpt>
   <trkpt lat="46.2700386047363" lon="7.44668245315552">
    <ele>512.306640625</ele>
    <time>2012-03-04T13:59:19Z</time>
   </trkpt>
   <trkpt lat="46.2700576782227" lon="7.44670248031616">
    <ele>512.453308105469</ele>
    <time>2012-03-04T13:59:20Z</time>
   </trkpt>
   <trkpt lat="46.2700729370117" lon="7.44671964645386">
    <ele>512.599975585938</ele>
    <time>2012-03-04T13:59:21Z</time>
   </trkpt>
   <trkpt lat="46.270149230957" lon="7.44686555862427">
    <ele>512.599975585938</ele>
    <time>2012-03-04T13:59:27Z</time>
   </trkpt>
   <trkpt lat="46.2701988220215" lon="7.44703102111816">
    <ele>513.575012207031</ele>
    <time>2012-03-04T13:59:33Z</time>
   </trkpt>
   <trkpt lat="46.2702522277832" lon="7.44718170166016">
    <ele>514.549987792969</ele>
    <time>2012-03-04T13:59:39Z</time>
   </trkpt>
   <trkpt lat="46.2702674865723" lon="7.44720935821533">
    <ele>514.712524414062</ele>
    <time>2012-03-04T13:59:40Z</time>
   </trkpt>
   <trkpt lat="46.2702827453613" lon="7.44723415374756">
    <ele>514.875</ele>
    <time>2012-03-04T13:59:41Z</time>
   </trkpt>
   <trkpt lat="46.2702941894531" lon="7.4472599029541">
    <ele>515.037536621094</ele>
    <time>2012-03-04T13:59:42Z</time>
   </trkpt>
   <trkpt lat="46.2703056335449" lon="7.44728469848633">
    <ele>515.200012207031</ele>
    <time>2012-03-04T13:59:43Z</time>
   </trkpt>
   <trkpt lat="46.270336151123" lon="7.44732904434204">
    <ele>515.200012207031</ele>
    <time>2012-03-04T13:59:45Z</time>
   </trkpt>
   <trkpt lat="46.2704315185547" lon="7.44749593734741">
    <ele>515.936828613281</ele>
    <time>2012-03-04T13:59:52Z</time>
   </trkpt>
   <trkpt lat="46.2705345153809" lon="7.44764995574951">
    <ele>516.673706054688</ele>
    <time>2012-03-04T13:59:59Z</time>
   </trkpt>
   <trkpt lat="46.2705497741699" lon="7.44766998291016">
    <ele>516.778930664062</ele>
    <time>2012-03-04T14:00:00Z</time>
   </trkpt>
   <trkpt lat="46.270565032959" lon="7.4476900100708">
    <ele>516.884216308594</ele>
    <time>2012-03-04T14:00:01Z</time>
   </trkpt>
   <trkpt lat="46.270580291748" lon="7.44770669937134">
    <ele>516.989501953125</ele>
    <time>2012-03-04T14:00:02Z</time>
   </trkpt>
   <trkpt lat="46.2705993652344" lon="7.44772386550903">
    <ele>517.0947265625</ele>
    <time>2012-03-04T14:00:03Z</time>
   </trkpt>
   <trkpt lat="46.2706108093262" lon="7.44774198532104">
    <ele>517.200012207031</ele>
    <time>2012-03-04T14:00:04Z</time>
   </trkpt>
   <trkpt lat="46.2706718444824" lon="7.44778060913086">
    <ele>517.200012207031</ele>
    <time>2012-03-04T14:00:07Z</time>
   </trkpt>
   <trkpt lat="46.270809173584" lon="7.44788026809692">
    <ele>518.075012207031</ele>
    <time>2012-03-04T14:00:14Z</time>
   </trkpt>
   <trkpt lat="46.2708930969238" lon="7.44797897338867">
    <ele>518.700012207031</ele>
    <time>2012-03-04T14:00:19Z</time>
   </trkpt>
   <trkpt lat="46.2709083557129" lon="7.44800186157226">
    <ele>518.825012207031</ele>
    <time>2012-03-04T14:00:20Z</time>
   </trkpt>
   <trkpt lat="46.2709159851074" lon="7.44802808761597">
    <ele>518.950012207031</ele>
    <time>2012-03-04T14:00:21Z</time>
   </trkpt>
   <trkpt lat="46.2709350585938" lon="7.44804620742798">
    <ele>519.075012207031</ele>
    <time>2012-03-04T14:00:22Z</time>
   </trkpt>
   <trkpt lat="46.2709426879883" lon="7.44807481765747">
    <ele>519.200012207031</ele>
    <time>2012-03-04T14:00:23Z</time>
   </trkpt>
   <trkpt lat="46.2709693908691" lon="7.44811773300171">
    <ele>519.200012207031</ele>
    <time>2012-03-04T14:00:25Z</time>
   </trkpt>
   <trkpt lat="46.2710342407227" lon="7.44820928573608">
    <ele>520.300048828125</ele>
    <time>2012-03-04T14:00:30Z</time>
   </trkpt>
   <trkpt lat="46.271053314209" lon="7.44823122024536">
    <ele>520.52001953125</ele>
    <time>2012-03-04T14:00:31Z</time>
   </trkpt>
   <trkpt lat="46.2710723876953" lon="7.44824886322022">
    <ele>520.739990234375</ele>
    <time>2012-03-04T14:00:32Z</time>
   </trkpt>
   <trkpt lat="46.2710914611816" lon="7.44827318191528">
    <ele>520.960021972656</ele>
    <time>2012-03-04T14:00:33Z</time>
   </trkpt>
   <trkpt lat="46.2711067199707" lon="7.44829082489014">
    <ele>521.180053710938</ele>
    <time>2012-03-04T14:00:34Z</time>
   </trkpt>
   <trkpt lat="46.2711181640625" lon="7.44830751419067">
    <ele>521.400024414062</ele>
    <time>2012-03-04T14:00:35Z</time>
   </trkpt>
   <trkpt lat="46.2712249755859" lon="7.44837379455566">
    <ele>521.400024414062</ele>
    <time>2012-03-04T14:00:41Z</time>
   </trkpt>
   <trkpt lat="46.2713241577148" lon="7.44840908050537">
    <ele>522.066711425781</ele>
    <time>2012-03-04T14:00:45Z</time>
   </trkpt>
   <trkpt lat="46.2713966369629" lon="7.44847297668457">
    <ele>522.900024414062</ele>
    <time>2012-03-04T14:00:50Z</time>
   </trkpt>
   <trkpt lat="46.2714042663574" lon="7.44848775863648">
    <ele>523.066711425781</ele>
    <time>2012-03-04T14:00:51Z</time>
   </trkpt>
   <trkpt lat="46.2714309692383" lon="7.44850397109985">
    <ele>523.233337402344</ele>
    <time>2012-03-04T14:00:52Z</time>
   </trkpt>
   <trkpt lat="46.2714538574219" lon="7.44851970672607">
    <ele>523.400024414062</ele>
    <time>2012-03-04T14:00:53Z</time>
   </trkpt>
   <trkpt lat="46.2714958190918" lon="7.44855165481567">
    <ele>523.400024414062</ele>
    <time>2012-03-04T14:00:55Z</time>
   </trkpt>
   <trkpt lat="46.2715606689453" lon="7.44861936569214">
    <ele>524.028564453125</ele>
    <time>2012-03-04T14:00:59Z</time>
   </trkpt>
   <trkpt lat="46.2715721130371" lon="7.44864559173584">
    <ele>524.185729980469</ele>
    <time>2012-03-04T14:01:00Z</time>
   </trkpt>
   <trkpt lat="46.2715950012207" lon="7.44869709014893">
    <ele>524.5</ele>
    <time>2012-03-04T14:01:02Z</time>
   </trkpt>
   <trkpt lat="46.2716331481934" lon="7.44876718521118">
    <ele>524.971435546875</ele>
    <time>2012-03-04T14:01:05Z</time>
   </trkpt>
   <trkpt lat="46.2716445922852" lon="7.44879055023193">
    <ele>525.128540039062</ele>
    <time>2012-03-04T14:01:06Z</time>
   </trkpt>
   <trkpt lat="46.2716598510742" lon="7.44881200790405">
    <ele>525.285705566406</ele>
    <time>2012-03-04T14:01:07Z</time>
   </trkpt>
   <trkpt lat="46.271671295166" lon="7.44883489608765">
    <ele>525.442810058594</ele>
    <time>2012-03-04T14:01:08Z</time>
   </trkpt>
   <trkpt lat="46.2716865539551" lon="7.4488582611084">
    <ele>525.599975585938</ele>
    <time>2012-03-04T14:01:09Z</time>
   </trkpt>
   <trkpt lat="46.2717094421387" lon="7.44890403747559">
    <ele>525.599975585938</ele>
    <time>2012-03-04T14:01:11Z</time>
   </trkpt>
   <trkpt lat="46.2717895507812" lon="7.44906663894653">
    <ele>526.505859375</ele>
    <time>2012-03-04T14:01:18Z</time>
   </trkpt>
   <trkpt lat="46.2718315124512" lon="7.44923877716064">
    <ele>527.282348632812</ele>
    <time>2012-03-04T14:01:24Z</time>
   </trkpt>
   <trkpt lat="46.271842956543" lon="7.44926500320435">
    <ele>527.411743164062</ele>
    <time>2012-03-04T14:01:25Z</time>
   </trkpt>
   <trkpt lat="46.2718467712402" lon="7.44929361343384">
    <ele>527.541137695312</ele>
    <time>2012-03-04T14:01:26Z</time>
   </trkpt>
   <trkpt lat="46.2718505859375" lon="7.44932222366333">
    <ele>527.670593261719</ele>
    <time>2012-03-04T14:01:27Z</time>
   </trkpt>
   <trkpt lat="46.2718620300293" lon="7.44934844970703">
    <ele>527.799987792969</ele>
    <time>2012-03-04T14:01:28Z</time>
   </trkpt>
   <trkpt lat="46.2718849182129" lon="7.44942998886108">
    <ele>527.799987792969</ele>
    <time>2012-03-04T14:01:31Z</time>
   </trkpt>
   <trkpt lat="46.271915435791" lon="7.44960641860962">
    <ele>528.890869140625</ele>
    <time>2012-03-04T14:01:37Z</time>
   </trkpt>
   <trkpt lat="46.2719230651856" lon="7.449631690979">
    <ele>529.072692871094</ele>
    <time>2012-03-04T14:01:38Z</time>
   </trkpt>
   <trkpt lat="46.2719345092773" lon="7.44965267181396">
    <ele>529.254516601562</ele>
    <time>2012-03-04T14:01:39Z</time>
   </trkpt>
   <trkpt lat="46.2719497680664" lon="7.44967365264893">
    <ele>529.436340332031</ele>
    <time>2012-03-04T14:01:40Z</time>
   </trkpt>
   <trkpt lat="46.2719650268555" lon="7.4496955871582">
    <ele>529.6181640625</ele>
    <time>2012-03-04T14:01:41Z</time>
   </trkpt>
   <trkpt lat="46.2719841003418" lon="7.44971752166748">
    <ele>529.799987792969</ele>
    <time>2012-03-04T14:01:42Z</time>
   </trkpt>
   <trkpt lat="46.2720108032227" lon="7.44977331161499">
    <ele>529.799987792969</ele>
    <time>2012-03-04T14:01:44Z</time>
   </trkpt>
   <trkpt lat="46.272087097168" lon="7.44991779327393">
    <ele>530.424987792969</ele>
    <time>2012-03-04T14:01:49Z</time>
   </trkpt>
   <trkpt lat="46.2721748352051" lon="7.4500937461853">
    <ele>531.299987792969</ele>
    <time>2012-03-04T14:01:56Z</time>
   </trkpt>
   <trkpt lat="46.2721900939941" lon="7.4501142501831">
    <ele>531.424987792969</ele>
    <time>2012-03-04T14:01:57Z</time>
   </trkpt>
   <trkpt lat="46.2721977233887" lon="7.45014524459839">
    <ele>531.549987792969</ele>
    <time>2012-03-04T14:01:58Z</time>
   </trkpt>
   <trkpt lat="46.2722129821777" lon="7.45017051696777">
    <ele>531.674987792969</ele>
    <time>2012-03-04T14:01:59Z</time>
   </trkpt>
   <trkpt lat="46.2722244262695" lon="7.45019388198852">
    <ele>531.799987792969</ele>
    <time>2012-03-04T14:02:00Z</time>
   </trkpt>
   <trkpt lat="46.2722434997559" lon="7.45021343231201">
    <ele>531.799987792969</ele>
    <time>2012-03-04T14:02:01Z</time>
   </trkpt>
   <trkpt lat="46.2723236083984" lon="7.45036172866821">
    <ele>532.657104492188</ele>
    <time>2012-03-04T14:02:07Z</time>
   </trkpt>
   <trkpt lat="46.2723770141602" lon="7.45045232772827">
    <ele>533.228576660156</ele>
    <time>2012-03-04T14:02:11Z</time>
   </trkpt>
   <trkpt lat="46.2723922729492" lon="7.45047903060913">
    <ele>533.371398925781</ele>
    <time>2012-03-04T14:02:12Z</time>
   </trkpt>
   <trkpt lat="46.2724075317383" lon="7.45050048828125">
    <ele>533.514282226562</ele>
    <time>2012-03-04T14:02:13Z</time>
   </trkpt>
   <trkpt lat="46.2724227905273" lon="7.45052480697632">
    <ele>533.657104492188</ele>
    <time>2012-03-04T14:02:14Z</time>
   </trkpt>
   <trkpt lat="46.2724380493164" lon="7.4505443572998">
    <ele>533.799987792969</ele>
    <time>2012-03-04T14:02:15Z</time>
   </trkpt>
   <trkpt lat="46.2724990844727" lon="7.45063924789429">
    <ele>533.799987792969</ele>
    <time>2012-03-04T14:02:19Z</time>
   </trkpt>
   <trkpt lat="46.2726058959961" lon="7.45079231262207">
    <ele>534.762512207031</ele>
    <time>2012-03-04T14:02:26Z</time>
   </trkpt>
   <trkpt lat="46.2726211547852" lon="7.4508171081543">
    <ele>534.900024414062</ele>
    <time>2012-03-04T14:02:27Z</time>
   </trkpt>
   <trkpt lat="46.2726821899414" lon="7.45091342926025">
    <ele>535.450012207031</ele>
    <time>2012-03-04T14:02:31Z</time>
   </trkpt>
   <trkpt lat="46.2726936340332" lon="7.45093679428101">
    <ele>535.587524414062</ele>
    <time>2012-03-04T14:02:32Z</time>
   </trkpt>
   <trkpt lat="46.272705078125" lon="7.45095586776733">
    <ele>535.724975585938</ele>
    <time>2012-03-04T14:02:33Z</time>
   </trkpt>
   <trkpt lat="46.2727165222168" lon="7.45098114013672">
    <ele>535.862487792969</ele>
    <time>2012-03-04T14:02:34Z</time>
   </trkpt>
   <trkpt lat="46.2727317810059" lon="7.451003074646">
    <ele>536</ele>
    <time>2012-03-04T14:02:35Z</time>
   </trkpt>
   <trkpt lat="46.2728042602539" lon="7.45111560821533">
    <ele>536</ele>
    <time>2012-03-04T14:02:40Z</time>
   </trkpt>
   <trkpt lat="46.2728843688965" lon="7.45130968093872">
    <ele>536.875</ele>
    <time>2012-03-04T14:02:47Z</time>
   </trkpt>
   <trkpt lat="46.2729263305664" lon="7.45146179199219">
    <ele>537.5</ele>
    <time>2012-03-04T14:02:52Z</time>
   </trkpt>
   <trkpt lat="46.2729339599609" lon="7.45149230957031">
    <ele>537.625</ele>
    <time>2012-03-04T14:02:53Z</time>
   </trkpt>
   <trkpt lat="46.2729454040527" lon="7.45152044296265">
    <ele>537.75</ele>
    <time>2012-03-04T14:02:54Z</time>
   </trkpt>
   <trkpt lat="46.2729530334473" lon="7.45154762268066">
    <ele>537.875</ele>
    <time>2012-03-04T14:02:55Z</time>
   </trkpt>
   <trkpt lat="46.2729606628418" lon="7.451575756073">
    <ele>538</ele>
    <time>2012-03-04T14:02:56Z</time>
   </trkpt>
   <trkpt lat="46.2729873657227" lon="7.45166110992432">
    <ele>538</ele>
    <time>2012-03-04T14:02:59Z</time>
   </trkpt>
   <trkpt lat="46.2730293273926" lon="7.45186853408814">
    <ele>539.75</ele>
    <time>2012-03-04T14:03:06Z</time>
   </trkpt>
   <trkpt lat="46.2730369567871" lon="7.45189714431763">
    <ele>540</ele>
    <time>2012-03-04T14:03:07Z</time>
   </trkpt>
   <trkpt lat="46.2730484008789" lon="7.45192384719849">
    <ele>540.25</ele>
    <time>2012-03-04T14:03:08Z</time>
   </trkpt>
   <trkpt lat="46.2730560302734" lon="7.4519534111023">
    <ele>540.5</ele>
    <time>2012-03-04T14:03:09Z</time>
   </trkpt>
   <trkpt lat="46.273063659668" lon="7.45198440551758">
    <ele>540.75</ele>
    <time>2012-03-04T14:03:10Z</time>
   </trkpt>
   <trkpt lat="46.2730751037598" lon="7.4520149230957">
    <ele>541</ele>
    <time>2012-03-04T14:03:11Z</time>
   </trkpt>
   <trkpt lat="46.2730903625488" lon="7.45207357406616">
    <ele>541</ele>
    <time>2012-03-04T14:03:13Z</time>
   </trkpt>
   <trkpt lat="46.2731590270996" lon="7.45231437683106">
    <ele>542</ele>
    <time>2012-03-04T14:03:21Z</time>
   </trkpt>
   <trkpt lat="46.2732086181641" lon="7.45241689682007">
    <ele>542.5</ele>
    <time>2012-03-04T14:03:25Z</time>
   </trkpt>
   <trkpt lat="46.2732238769531" lon="7.4524393081665">
    <ele>542.625</ele>
    <time>2012-03-04T14:03:26Z</time>
   </trkpt>
   <trkpt lat="46.2732353210449" lon="7.45246267318726">
    <ele>542.75</ele>
    <time>2012-03-04T14:03:27Z</time>
   </trkpt>
   <trkpt lat="46.273250579834" lon="7.45248508453369">
    <ele>542.875</ele>
    <time>2012-03-04T14:03:28Z</time>
   </trkpt>
   <trkpt lat="46.273265838623" lon="7.45250749588013">
    <ele>543</ele>
    <time>2012-03-04T14:03:29Z</time>
   </trkpt>
   <trkpt lat="46.2732772827148" lon="7.45252895355225">
    <ele>543</ele>
    <time>2012-03-04T14:03:30Z</time>
   </trkpt>
   <trkpt lat="46.273380279541" lon="7.45266962051392">
    <ele>543.962524414062</ele>
    <time>2012-03-04T14:03:37Z</time>
   </trkpt>
   <trkpt lat="46.2734756469727" lon="7.4527997970581">
    <ele>544.787536621094</ele>
    <time>2012-03-04T14:03:43Z</time>
   </trkpt>
   <trkpt lat="46.2734870910644" lon="7.45282459259033">
    <ele>544.924987792969</ele>
    <time>2012-03-04T14:03:44Z</time>
   </trkpt>
   <trkpt lat="46.2735023498535" lon="7.45284223556518">
    <ele>545.0625</ele>
    <time>2012-03-04T14:03:45Z</time>
   </trkpt>
   <trkpt lat="46.2735176086426" lon="7.45286130905151">
    <ele>545.200012207031</ele>
    <time>2012-03-04T14:03:46Z</time>
   </trkpt>
   <trkpt lat="46.2736167907715" lon="7.4530177116394">
    <ele>545.200012207031</ele>
    <time>2012-03-04T14:03:53Z</time>
   </trkpt>
   <trkpt lat="46.273681640625" lon="7.45310258865356">
    <ele>546.0400390625</ele>
    <time>2012-03-04T14:03:57Z</time>
   </trkpt>
   <trkpt lat="46.2736930847168" lon="7.45312833786011">
    <ele>546.25</ele>
    <time>2012-03-04T14:03:58Z</time>
   </trkpt>
   <trkpt lat="46.2737083435059" lon="7.45314884185791">
    <ele>546.460021972656</ele>
    <time>2012-03-04T14:03:59Z</time>
   </trkpt>
   <trkpt lat="46.2737236022949" lon="7.45316982269287">
    <ele>546.670043945312</ele>
    <time>2012-03-04T14:04:00Z</time>
   </trkpt>
   <trkpt lat="46.2737426757812" lon="7.45318841934204">
    <ele>546.880004882812</ele>
    <time>2012-03-04T14:04:01Z</time>
   </trkpt>
   <trkpt lat="46.2738609313965" lon="7.45336198806763">
    <ele>548.559997558594</ele>
    <time>2012-03-04T14:04:09Z</time>
   </trkpt>
   <trkpt lat="46.2738800048828" lon="7.45337820053101">
    <ele>548.77001953125</ele>
    <time>2012-03-04T14:04:10Z</time>
   </trkpt>
   <trkpt lat="46.2738990783691" lon="7.45340204238892">
    <ele>548.980041503906</ele>
    <time>2012-03-04T14:04:11Z</time>
   </trkpt>
   <trkpt lat="46.2739143371582" lon="7.45342588424683">
    <ele>549.190002441406</ele>
    <time>2012-03-04T14:04:12Z</time>
   </trkpt>
   <trkpt lat="46.2739295959473" lon="7.45344400405884">
    <ele>549.400024414062</ele>
    <time>2012-03-04T14:04:13Z</time>
   </trkpt>
   <trkpt lat="46.2739677429199" lon="7.45348072052002">
    <ele>549.400024414062</ele>
    <time>2012-03-04T14:04:15Z</time>
   </trkpt>
   <trkpt lat="46.2741088867188" lon="7.45358943939209">
    <ele>550.223571777344</ele>
    <time>2012-03-04T14:04:22Z</time>
   </trkpt>
   <trkpt lat="46.2742309570312" lon="7.45365285873413">
    <ele>550.929443359375</ele>
    <time>2012-03-04T14:04:28Z</time>
   </trkpt>
   <trkpt lat="46.2742538452148" lon="7.45366144180298">
    <ele>551.047058105469</ele>
    <time>2012-03-04T14:04:29Z</time>
   </trkpt>
   <trkpt lat="46.2742729187012" lon="7.45366382598877">
    <ele>551.164733886719</ele>
    <time>2012-03-04T14:04:30Z</time>
   </trkpt>
   <trkpt lat="46.274299621582" lon="7.45367288589478">
    <ele>551.282348632812</ele>
    <time>2012-03-04T14:04:31Z</time>
   </trkpt>
   <trkpt lat="46.2743225097656" lon="7.45368146896362">
    <ele>551.400024414062</ele>
    <time>2012-03-04T14:04:32Z</time>
   </trkpt>
   <trkpt lat="46.2744636535644" lon="7.45373439788818">
    <ele>551.400024414062</ele>
    <time>2012-03-04T14:04:38Z</time>
   </trkpt>
   <trkpt lat="46.2746505737305" lon="7.45381307601929">
    <ele>552.573303222656</ele>
    <time>2012-03-04T14:04:46Z</time>
   </trkpt>
   <trkpt lat="46.2747116088867" lon="7.45384502410889">
    <ele>553.013305664062</ele>
    <time>2012-03-04T14:04:49Z</time>
   </trkpt>
   <trkpt lat="46.2747344970703" lon="7.45385599136352">
    <ele>553.159973144531</ele>
    <time>2012-03-04T14:04:50Z</time>
   </trkpt>
   <trkpt lat="46.2747573852539" lon="7.45386695861816">
    <ele>553.306640625</ele>
    <time>2012-03-04T14:04:51Z</time>
   </trkpt>
   <trkpt lat="46.2747764587402" lon="7.45388221740723">
    <ele>553.453308105469</ele>
    <time>2012-03-04T14:04:52Z</time>
   </trkpt>
   <trkpt lat="46.2747993469238" lon="7.45389604568482">
    <ele>553.599975585938</ele>
    <time>2012-03-04T14:04:53Z</time>
   </trkpt>
   <trkpt lat="46.274959564209" lon="7.4539909362793">
    <ele>553.599975585938</ele>
    <time>2012-03-04T14:05:01Z</time>
   </trkpt>
   <trkpt lat="46.2750396728516" lon="7.45406436920166">
    <ele>554.599975585938</ele>
    <time>2012-03-04T14:05:05Z</time>
   </trkpt>
   <trkpt lat="46.2750587463379" lon="7.45407962799072">
    <ele>554.849975585938</ele>
    <time>2012-03-04T14:05:06Z</time>
   </trkpt>
   <trkpt lat="46.2750778198242" lon="7.45409774780274">
    <ele>555.099975585938</ele>
    <time>2012-03-04T14:05:07Z</time>
   </trkpt>
   <trkpt lat="46.2750930786133" lon="7.45411682128906">
    <ele>555.349975585938</ele>
    <time>2012-03-04T14:05:08Z</time>
   </trkpt>
   <trkpt lat="46.2751121520996" lon="7.45413541793823">
    <ele>555.599975585938</ele>
    <time>2012-03-04T14:05:09Z</time>
   </trkpt>
   <trkpt lat="46.2752418518066" lon="7.45428276062012">
    <ele>555.599975585938</ele>
    <time>2012-03-04T14:05:16Z</time>
   </trkpt>
   <trkpt lat="46.2753639221191" lon="7.45442247390747">
    <ele>557.140014648438</ele>
    <time>2012-03-04T14:05:23Z</time>
   </trkpt>
   <trkpt lat="46.2753791809082" lon="7.45444393157959">
    <ele>557.359985351562</ele>
    <time>2012-03-04T14:05:24Z</time>
   </trkpt>
   <trkpt lat="46.2753982543945" lon="7.45446348190308">
    <ele>557.579956054688</ele>
    <time>2012-03-04T14:05:25Z</time>
   </trkpt>
   <trkpt lat="46.2754135131836" lon="7.45448446273804">
    <ele>557.799987792969</ele>
    <time>2012-03-04T14:05:26Z</time>
   </trkpt>
   <trkpt lat="46.2755126953125" lon="7.45461273193359">
    <ele>557.799987792969</ele>
    <time>2012-03-04T14:05:32Z</time>
   </trkpt>
   <trkpt lat="46.2756080627441" lon="7.45474624633789">
    <ele>558.849975585938</ele>
    <time>2012-03-04T14:05:38Z</time>
   </trkpt>
   <trkpt lat="46.2757110595703" lon="7.45486974716186">
    <ele>559.899963378906</ele>
    <time>2012-03-04T14:05:44Z</time>
   </trkpt>
   <trkpt lat="46.2757263183594" lon="7.45488882064819">
    <ele>560.074951171875</ele>
    <time>2012-03-04T14:05:45Z</time>
   </trkpt>
   <trkpt lat="46.275749206543" lon="7.4549069404602">
    <ele>560.25</ele>
    <time>2012-03-04T14:05:46Z</time>
   </trkpt>
   <trkpt lat="46.275764465332" lon="7.45492649078369">
    <ele>560.424987792969</ele>
    <time>2012-03-04T14:05:47Z</time>
   </trkpt>
   <trkpt lat="46.2757797241211" lon="7.45494985580444">
    <ele>560.599975585938</ele>
    <time>2012-03-04T14:05:48Z</time>
   </trkpt>
   <trkpt lat="46.2759132385254" lon="7.455078125">
    <ele>560.599975585938</ele>
    <time>2012-03-04T14:05:55Z</time>
   </trkpt>
   <trkpt lat="46.2760276794434" lon="7.45518922805786">
    <ele>561.266662597656</ele>
    <time>2012-03-04T14:06:01Z</time>
   </trkpt>
   <trkpt lat="46.2761383056641" lon="7.45534229278564">
    <ele>562.04443359375</ele>
    <time>2012-03-04T14:06:08Z</time>
   </trkpt>
   <trkpt lat="46.2761611938477" lon="7.45538282394409">
    <ele>562.266662597656</ele>
    <time>2012-03-04T14:06:10Z</time>
   </trkpt>
   <trkpt lat="46.2761726379394" lon="7.45540428161621">
    <ele>562.377746582031</ele>
    <time>2012-03-04T14:06:11Z</time>
   </trkpt>
   <trkpt lat="46.2761878967285" lon="7.45542573928833">
    <ele>562.488891601562</ele>
    <time>2012-03-04T14:06:12Z</time>
   </trkpt>
   <trkpt lat="46.2761993408203" lon="7.45544672012329">
    <ele>562.599975585938</ele>
    <time>2012-03-04T14:06:13Z</time>
   </trkpt>
   <trkpt lat="46.276252746582" lon="7.45552825927734">
    <ele>562.599975585938</ele>
    <time>2012-03-04T14:06:17Z</time>
   </trkpt>
   <trkpt lat="46.2763557434082" lon="7.45567846298218">
    <ele>563.505859375</ele>
    <time>2012-03-04T14:06:24Z</time>
   </trkpt>
   <trkpt lat="46.2764587402344" lon="7.455810546875">
    <ele>564.282348632812</ele>
    <time>2012-03-04T14:06:30Z</time>
   </trkpt>
   <trkpt lat="46.2764739990234" lon="7.45584058761597">
    <ele>564.411743164062</ele>
    <time>2012-03-04T14:06:31Z</time>
   </trkpt>
   <trkpt lat="46.276481628418" lon="7.45587635040283">
    <ele>564.541137695312</ele>
    <time>2012-03-04T14:06:32Z</time>
   </trkpt>
   <trkpt lat="46.2764854431152" lon="7.45590829849243">
    <ele>564.670593261719</ele>
    <time>2012-03-04T14:06:33Z</time>
   </trkpt>
   <trkpt lat="46.2764930725098" lon="7.4559473991394">
    <ele>564.799987792969</ele>
    <time>2012-03-04T14:06:34Z</time>
   </trkpt>
   <trkpt lat="46.2765121459961" lon="7.4560227394104">
    <ele>564.799987792969</ele>
    <time>2012-03-04T14:06:36Z</time>
   </trkpt>
   <trkpt lat="46.2765769958496" lon="7.45619201660156">
    <ele>565.900024414062</ele>
    <time>2012-03-04T14:06:42Z</time>
   </trkpt>
   <trkpt lat="46.2766036987305" lon="7.45624876022339">
    <ele>566.266662597656</ele>
    <time>2012-03-04T14:06:44Z</time>
   </trkpt>
   <trkpt lat="46.2766189575195" lon="7.45627450942993">
    <ele>566.450012207031</ele>
    <time>2012-03-04T14:06:45Z</time>
   </trkpt>
   <trkpt lat="46.2766304016113" lon="7.45629739761352">
    <ele>566.63330078125</ele>
    <time>2012-03-04T14:06:46Z</time>
   </trkpt>
   <trkpt lat="46.2766418457031" lon="7.45631837844849">
    <ele>566.816650390625</ele>
    <time>2012-03-04T14:06:47Z</time>
   </trkpt>
   <trkpt lat="46.2766532897949" lon="7.45634460449219">
    <ele>567</ele>
    <time>2012-03-04T14:06:48Z</time>
   </trkpt>
   <trkpt lat="46.2766876220703" lon="7.45639181137085">
    <ele>567</ele>
    <time>2012-03-04T14:06:50Z</time>
   </trkpt>
   <trkpt lat="46.2768211364746" lon="7.45658111572266">
    <ele>567.941162109375</ele>
    <time>2012-03-04T14:06:58Z</time>
   </trkpt>
   <trkpt lat="46.2769012451172" lon="7.4566855430603">
    <ele>568.529418945312</ele>
    <time>2012-03-04T14:07:03Z</time>
   </trkpt>
   <trkpt lat="46.2769165039062" lon="7.45670890808106">
    <ele>568.647033691406</ele>
    <time>2012-03-04T14:07:04Z</time>
   </trkpt>
   <trkpt lat="46.2769317626953" lon="7.4567289352417">
    <ele>568.764709472656</ele>
    <time>2012-03-04T14:07:05Z</time>
   </trkpt>
   <trkpt lat="46.2769470214844" lon="7.45675325393677">
    <ele>568.88232421875</ele>
    <time>2012-03-04T14:07:06Z</time>
   </trkpt>
   <trkpt lat="46.2769660949707" lon="7.45677661895752">
    <ele>569</ele>
    <time>2012-03-04T14:07:07Z</time>
   </trkpt>
   <trkpt lat="46.2770538330078" lon="7.45688629150391">
    <ele>569</ele>
    <time>2012-03-04T14:07:12Z</time>
   </trkpt>
   <trkpt lat="46.2771987915039" lon="7.45708322525024">
    <ele>570.414306640625</ele>
    <time>2012-03-04T14:07:21Z</time>
   </trkpt>
   <trkpt lat="46.277214050293" lon="7.45710515975952">
    <ele>570.571411132812</ele>
    <time>2012-03-04T14:07:22Z</time>
   </trkpt>
   <trkpt lat="46.277229309082" lon="7.45712947845459">
    <ele>570.728576660156</ele>
    <time>2012-03-04T14:07:23Z</time>
   </trkpt>
   <trkpt lat="46.2772483825684" lon="7.45715045928955">
    <ele>570.8857421875</ele>
    <time>2012-03-04T14:07:24Z</time>
   </trkpt>
   <trkpt lat="46.2772636413574" lon="7.45717430114746">
    <ele>571.042846679688</ele>
    <time>2012-03-04T14:07:25Z</time>
   </trkpt>
   <trkpt lat="46.2772827148438" lon="7.45719480514526">
    <ele>571.200012207031</ele>
    <time>2012-03-04T14:07:26Z</time>
   </trkpt>
   <trkpt lat="46.2773132324219" lon="7.45724534988403">
    <ele>571.200012207031</ele>
    <time>2012-03-04T14:07:28Z</time>
   </trkpt>
   <trkpt lat="46.2774620056152" lon="7.45743179321289">
    <ele>572.485717773438</ele>
    <time>2012-03-04T14:07:37Z</time>
   </trkpt>
   <trkpt lat="46.2774810791016" lon="7.45745754241943">
    <ele>572.628601074219</ele>
    <time>2012-03-04T14:07:38Z</time>
   </trkpt>
   <trkpt lat="46.2774963378906" lon="7.45748424530029">
    <ele>572.771423339844</ele>
    <time>2012-03-04T14:07:39Z</time>
   </trkpt>
   <trkpt lat="46.277515411377" lon="7.45750379562378">
    <ele>572.914306640625</ele>
    <time>2012-03-04T14:07:40Z</time>
   </trkpt>
   <trkpt lat="46.277530670166" lon="7.45752811431885">
    <ele>573.05712890625</ele>
    <time>2012-03-04T14:07:41Z</time>
   </trkpt>
   <trkpt lat="46.2775459289551" lon="7.45755386352539">
    <ele>573.200012207031</ele>
    <time>2012-03-04T14:07:42Z</time>
   </trkpt>
   <trkpt lat="46.2775726318359" lon="7.45760250091553">
    <ele>573.200012207031</ele>
    <time>2012-03-04T14:07:44Z</time>
   </trkpt>
   <trkpt lat="46.2776870727539" lon="7.45786380767822">
    <ele>574.52001953125</ele>
    <time>2012-03-04T14:07:53Z</time>
   </trkpt>
   <trkpt lat="46.2777061462402" lon="7.45792484283447">
    <ele>574.813354492188</ele>
    <time>2012-03-04T14:07:55Z</time>
   </trkpt>
   <trkpt lat="46.277717590332" lon="7.45795917510986">
    <ele>574.960021972656</ele>
    <time>2012-03-04T14:07:56Z</time>
   </trkpt>
   <trkpt lat="46.2777290344238" lon="7.45799160003662">
    <ele>575.106689453125</ele>
    <time>2012-03-04T14:07:57Z</time>
   </trkpt>
   <trkpt lat="46.2777366638184" lon="7.45802640914917">
    <ele>575.253356933594</ele>
    <time>2012-03-04T14:07:58Z</time>
   </trkpt>
   <trkpt lat="46.2777481079102" lon="7.45806312561035">
    <ele>575.400024414062</ele>
    <time>2012-03-04T14:07:59Z</time>
   </trkpt>
   <trkpt lat="46.2777671813965" lon="7.45813417434692">
    <ele>575.400024414062</ele>
    <time>2012-03-04T14:08:01Z</time>
   </trkpt>
   <trkpt lat="46.2778015136719" lon="7.45834541320801">
    <ele>576.200012207031</ele>
    <time>2012-03-04T14:08:07Z</time>
   </trkpt>
   <trkpt lat="46.2778434753418" lon="7.45845127105713">
    <ele>576.733337402344</ele>
    <time>2012-03-04T14:08:11Z</time>
   </trkpt>
   <trkpt lat="46.2778816223144" lon="7.4584789276123">
    <ele>577</ele>
    <time>2012-03-04T14:08:13Z</time>
   </trkpt>
   <trkpt lat="46.277904510498" lon="7.4584755897522">
    <ele>577.133361816406</ele>
    <time>2012-03-04T14:08:14Z</time>
   </trkpt>
   <trkpt lat="46.2779273986816" lon="7.45846652984619">
    <ele>577.266662597656</ele>
    <time>2012-03-04T14:08:15Z</time>
   </trkpt>
   <trkpt lat="46.2779502868652" lon="7.45845079421997">
    <ele>577.400024414062</ele>
    <time>2012-03-04T14:08:16Z</time>
   </trkpt>
   <trkpt lat="46.2779655456543" lon="7.45842838287354">
    <ele>577.400024414062</ele>
    <time>2012-03-04T14:08:17Z</time>
   </trkpt>
   <trkpt lat="46.2779846191406" lon="7.45827150344849">
    <ele>577.720031738281</ele>
    <time>2012-03-04T14:08:21Z</time>
   </trkpt>
   <trkpt lat="46.2779846191406" lon="7.45823240280151">
    <ele>577.800048828125</ele>
    <time>2012-03-04T14:08:22Z</time>
   </trkpt>
   <trkpt lat="46.2779579162598" lon="7.45798826217651">
    <ele>578.280029296875</ele>
    <time>2012-03-04T14:08:28Z</time>
   </trkpt>
   <trkpt lat="46.277904510498" lon="7.45778703689575">
    <ele>578.760009765625</ele>
    <time>2012-03-04T14:08:34Z</time>
   </trkpt>
   <trkpt lat="46.27783203125" lon="7.45755481719971">
    <ele>579.320007324219</ele>
    <time>2012-03-04T14:08:41Z</time>
   </trkpt>
   <trkpt lat="46.2778167724609" lon="7.4574875831604">
    <ele>579.47998046875</ele>
    <time>2012-03-04T14:08:43Z</time>
   </trkpt>
   <trkpt lat="46.2778091430664" lon="7.45745515823364">
    <ele>579.559997558594</ele>
    <time>2012-03-04T14:08:44Z</time>
   </trkpt>
   <trkpt lat="46.2777976989746" lon="7.45742559432983">
    <ele>579.640014648438</ele>
    <time>2012-03-04T14:08:45Z</time>
   </trkpt>
   <trkpt lat="46.2777824401856" lon="7.45740127563476">
    <ele>579.719970703125</ele>
    <time>2012-03-04T14:08:46Z</time>
   </trkpt>
   <trkpt lat="46.277774810791" lon="7.4573655128479">
    <ele>579.799987792969</ele>
    <time>2012-03-04T14:08:47Z</time>
   </trkpt>
   <trkpt lat="46.2777671813965" lon="7.45733451843262">
    <ele>579.799987792969</ele>
    <time>2012-03-04T14:08:48Z</time>
   </trkpt>
   <trkpt lat="46.2777137756348" lon="7.45706367492676">
    <ele>580.866638183594</ele>
    <time>2012-03-04T14:08:56Z</time>
   </trkpt>
   <trkpt lat="46.2776832580566" lon="7.45697450637817">
    <ele>581.266662597656</ele>
    <time>2012-03-04T14:08:59Z</time>
   </trkpt>
   <trkpt lat="46.2776756286621" lon="7.45694446563721">
    <ele>581.399963378906</ele>
    <time>2012-03-04T14:09:00Z</time>
   </trkpt>
   <trkpt lat="46.2776718139648" lon="7.45690822601318">
    <ele>581.533325195312</ele>
    <time>2012-03-04T14:09:01Z</time>
   </trkpt>
   <trkpt lat="46.277660369873" lon="7.45687580108643">
    <ele>581.666625976562</ele>
    <time>2012-03-04T14:09:02Z</time>
   </trkpt>
   <trkpt lat="46.2776527404785" lon="7.4568452835083">
    <ele>581.799987792969</ele>
    <time>2012-03-04T14:09:03Z</time>
   </trkpt>
   <trkpt lat="46.2775840759277" lon="7.45671367645264">
    <ele>581.799987792969</ele>
    <time>2012-03-04T14:09:08Z</time>
   </trkpt>
   <trkpt lat="46.2774925231934" lon="7.4565634727478">
    <ele>582.625</ele>
    <time>2012-03-04T14:09:14Z</time>
   </trkpt>
   <trkpt lat="46.2774810791016" lon="7.45653390884399">
    <ele>582.762512207031</ele>
    <time>2012-03-04T14:09:15Z</time>
   </trkpt>
   <trkpt lat="46.277416229248" lon="7.45640087127686">
    <ele>583.450012207031</ele>
    <time>2012-03-04T14:09:20Z</time>
   </trkpt>
   <trkpt lat="46.2773971557617" lon="7.45637702941894">
    <ele>583.587524414062</ele>
    <time>2012-03-04T14:09:21Z</time>
   </trkpt>
   <trkpt lat="46.2773818969727" lon="7.45635080337524">
    <ele>583.724975585938</ele>
    <time>2012-03-04T14:09:22Z</time>
   </trkpt>
   <trkpt lat="46.2773666381836" lon="7.45632123947144">
    <ele>583.862487792969</ele>
    <time>2012-03-04T14:09:23Z</time>
   </trkpt>
   <trkpt lat="46.2773551940918" lon="7.45629644393921">
    <ele>584</ele>
    <time>2012-03-04T14:09:24Z</time>
   </trkpt>
   <trkpt lat="46.277286529541" lon="7.45616579055786">
    <ele>584</ele>
    <time>2012-03-04T14:09:29Z</time>
   </trkpt>
   <trkpt lat="46.2772407531738" lon="7.45605182647705">
    <ele>585</ele>
    <time>2012-03-04T14:09:33Z</time>
   </trkpt>
   <trkpt lat="46.2772331237793" lon="7.45602416992188">
    <ele>585.25</ele>
    <time>2012-03-04T14:09:34Z</time>
   </trkpt>
   <trkpt lat="46.2772178649902" lon="7.45599842071533">
    <ele>585.5</ele>
    <time>2012-03-04T14:09:35Z</time>
   </trkpt>
   <trkpt lat="46.2772102355957" lon="7.45597076416016">
    <ele>585.75</ele>
    <time>2012-03-04T14:09:36Z</time>
   </trkpt>
   <trkpt lat="46.2771987915039" lon="7.45594453811646">
    <ele>586</ele>
    <time>2012-03-04T14:09:37Z</time>
   </trkpt>
   <trkpt lat="46.2771301269531" lon="7.45574378967285">
    <ele>586</ele>
    <time>2012-03-04T14:09:44Z</time>
   </trkpt>
   <trkpt lat="46.2770881652832" lon="7.45556545257568">
    <ele>587.299987792969</ele>
    <time>2012-03-04T14:09:50Z</time>
   </trkpt>
   <trkpt lat="46.2770652770996" lon="7.45546340942383">
    <ele>587.949951171875</ele>
    <time>2012-03-04T14:09:53Z</time>
   </trkpt>
   <trkpt lat="46.2770652770996" lon="7.45543050765991">
    <ele>588.166625976562</ele>
    <time>2012-03-04T14:09:54Z</time>
   </trkpt>
   <trkpt lat="46.2770576477051" lon="7.45539617538452">
    <ele>588.38330078125</ele>
    <time>2012-03-04T14:09:55Z</time>
   </trkpt>
   <trkpt lat="46.2770538330078" lon="7.45536422729492">
    <ele>588.599975585938</ele>
    <time>2012-03-04T14:09:56Z</time>
   </trkpt>
   <trkpt lat="46.277042388916" lon="7.45529651641846">
    <ele>588.599975585938</ele>
    <time>2012-03-04T14:09:58Z</time>
   </trkpt>
   <trkpt lat="46.2770347595215" lon="7.45509624481201">
    <ele>589.266662597656</ele>
    <time>2012-03-04T14:10:04Z</time>
   </trkpt>
   <trkpt lat="46.2770195007324" lon="7.45484685897827">
    <ele>590.155517578125</ele>
    <time>2012-03-04T14:10:12Z</time>
   </trkpt>
   <trkpt lat="46.2770118713379" lon="7.45481777191162">
    <ele>590.266662597656</ele>
    <time>2012-03-04T14:10:13Z</time>
   </trkpt>
   <trkpt lat="46.2770080566406" lon="7.45479154586792">
    <ele>590.377746582031</ele>
    <time>2012-03-04T14:10:14Z</time>
   </trkpt>
   <trkpt lat="46.2770080566406" lon="7.45475816726685">
    <ele>590.488891601562</ele>
    <time>2012-03-04T14:10:15Z</time>
   </trkpt>
   <trkpt lat="46.2770080566406" lon="7.45472526550293">
    <ele>590.599975585938</ele>
    <time>2012-03-04T14:10:16Z</time>
   </trkpt>
   <trkpt lat="46.2770080566406" lon="7.45462989807129">
    <ele>590.599975585938</ele>
    <time>2012-03-04T14:10:19Z</time>
   </trkpt>
   <trkpt lat="46.2769927978516" lon="7.454430103302">
    <ele>591.523071289062</ele>
    <time>2012-03-04T14:10:25Z</time>
   </trkpt>
   <trkpt lat="46.2769775390625" lon="7.45433282852173">
    <ele>591.984619140625</ele>
    <time>2012-03-04T14:10:28Z</time>
   </trkpt>
   <trkpt lat="46.2769660949707" lon="7.45430088043213">
    <ele>592.138427734375</ele>
    <time>2012-03-04T14:10:29Z</time>
   </trkpt>
   <trkpt lat="46.2769584655762" lon="7.45427227020264">
    <ele>592.292297363281</ele>
    <time>2012-03-04T14:10:30Z</time>
   </trkpt>
   <trkpt lat="46.2769546508789" lon="7.45424175262451">
    <ele>592.446105957031</ele>
    <time>2012-03-04T14:10:31Z</time>
   </trkpt>
   <trkpt lat="46.2769470214844" lon="7.45420980453491">
    <ele>592.599975585938</ele>
    <time>2012-03-04T14:10:32Z</time>
   </trkpt>
   <trkpt lat="46.2768936157227" lon="7.45395040512085">
    <ele>592.599975585938</ele>
    <time>2012-03-04T14:10:40Z</time>
   </trkpt>
   <trkpt lat="46.2768249511719" lon="7.45370578765869">
    <ele>594.066650390625</ele>
    <time>2012-03-04T14:10:48Z</time>
   </trkpt>
   <trkpt lat="46.2768173217773" lon="7.45367670059204">
    <ele>594.25</ele>
    <time>2012-03-04T14:10:49Z</time>
   </trkpt>
   <trkpt lat="46.2768096923828" lon="7.45364189147949">
    <ele>594.433349609375</ele>
    <time>2012-03-04T14:10:50Z</time>
   </trkpt>
   <trkpt lat="46.2768020629883" lon="7.45361137390137">
    <ele>594.616638183594</ele>
    <time>2012-03-04T14:10:51Z</time>
   </trkpt>
   <trkpt lat="46.2767944335938" lon="7.45357990264893">
    <ele>594.799987792969</ele>
    <time>2012-03-04T14:10:52Z</time>
   </trkpt>
   <trkpt lat="46.2767639160156" lon="7.45346307754517">
    <ele>594.799987792969</ele>
    <time>2012-03-04T14:10:56Z</time>
   </trkpt>
   <trkpt lat="46.2767105102539" lon="7.45328617095947">
    <ele>595.799987792969</ele>
    <time>2012-03-04T14:11:02Z</time>
   </trkpt>
   <trkpt lat="46.276683807373" lon="7.45319271087646">
    <ele>596.299987792969</ele>
    <time>2012-03-04T14:11:05Z</time>
   </trkpt>
   <trkpt lat="46.2766761779785" lon="7.45315837860107">
    <ele>596.466674804688</ele>
    <time>2012-03-04T14:11:06Z</time>
   </trkpt>
   <trkpt lat="46.276668548584" lon="7.45312547683716">
    <ele>596.63330078125</ele>
    <time>2012-03-04T14:11:07Z</time>
   </trkpt>
   <trkpt lat="46.2766571044922" lon="7.45309019088745">
    <ele>596.799987792969</ele>
    <time>2012-03-04T14:11:08Z</time>
   </trkpt>
   <trkpt lat="46.2766380310059" lon="7.45302581787109">
    <ele>596.799987792969</ele>
    <time>2012-03-04T14:11:10Z</time>
   </trkpt>
   <trkpt lat="46.2765693664551" lon="7.45276784896851">
    <ele>597.866638183594</ele>
    <time>2012-03-04T14:11:18Z</time>
   </trkpt>
   <trkpt lat="46.276538848877" lon="7.4526834487915">
    <ele>598.266662597656</ele>
    <time>2012-03-04T14:11:21Z</time>
   </trkpt>
   <trkpt lat="46.2765235900879" lon="7.45265245437622">
    <ele>598.399963378906</ele>
    <time>2012-03-04T14:11:22Z</time>
   </trkpt>
   <trkpt lat="46.2765083312988" lon="7.45262336730957">
    <ele>598.533325195312</ele>
    <time>2012-03-04T14:11:23Z</time>
   </trkpt>
   <trkpt lat="46.276496887207" lon="7.45259666442871">
    <ele>598.666625976562</ele>
    <time>2012-03-04T14:11:24Z</time>
   </trkpt>
   <trkpt lat="46.2764854431152" lon="7.45256900787354">
    <ele>598.799987792969</ele>
    <time>2012-03-04T14:11:25Z</time>
   </trkpt>
   <trkpt lat="46.2763977050781" lon="7.45242834091186">
    <ele>598.799987792969</ele>
    <time>2012-03-04T14:11:31Z</time>
   </trkpt>
   <trkpt lat="46.2763290405273" lon="7.45229625701904">
    <ele>599.911071777344</ele>
    <time>2012-03-04T14:11:36Z</time>
   </trkpt>
   <trkpt lat="46.2763137817383" lon="7.45227146148682">
    <ele>600.13330078125</ele>
    <time>2012-03-04T14:11:37Z</time>
   </trkpt>
   <trkpt lat="46.2762985229492" lon="7.45224857330322">
    <ele>600.355529785156</ele>
    <time>2012-03-04T14:11:38Z</time>
   </trkpt>
   <trkpt lat="46.2762870788574" lon="7.45222663879394">
    <ele>600.577758789062</ele>
    <time>2012-03-04T14:11:39Z</time>
   </trkpt>
   <trkpt lat="46.2762718200684" lon="7.45220470428467">
    <ele>600.799987792969</ele>
    <time>2012-03-04T14:11:40Z</time>
   </trkpt>
   <trkpt lat="46.2761688232422" lon="7.45202207565308">
    <ele>600.799987792969</ele>
    <time>2012-03-04T14:11:47Z</time>
   </trkpt>
   <trkpt lat="46.2761192321777" lon="7.45193862915039">
    <ele>601.466674804688</ele>
    <time>2012-03-04T14:11:50Z</time>
   </trkpt>
   <trkpt lat="46.2760810852051" lon="7.4518895149231">
    <ele>601.911071777344</ele>
    <time>2012-03-04T14:11:52Z</time>
   </trkpt>
   <trkpt lat="46.276065826416" lon="7.4518666267395">
    <ele>602.13330078125</ele>
    <time>2012-03-04T14:11:53Z</time>
   </trkpt>
   <trkpt lat="46.2760467529297" lon="7.45184516906738">
    <ele>602.355529785156</ele>
    <time>2012-03-04T14:11:54Z</time>
   </trkpt>
   <trkpt lat="46.2760276794434" lon="7.45182418823242">
    <ele>602.577758789062</ele>
    <time>2012-03-04T14:11:55Z</time>
   </trkpt>
   <trkpt lat="46.2760124206543" lon="7.45180177688599">
    <ele>602.799987792969</ele>
    <time>2012-03-04T14:11:56Z</time>
   </trkpt>
   <trkpt lat="46.2759590148926" lon="7.45172548294067">
    <ele>602.799987792969</ele>
    <time>2012-03-04T14:11:59Z</time>
   </trkpt>
   <trkpt lat="46.2758483886719" lon="7.45157194137573">
    <ele>603.862060546875</ele>
    <time>2012-03-04T14:12:06Z</time>
   </trkpt>
   <trkpt lat="46.2758293151856" lon="7.45155000686646">
    <ele>604.013793945312</ele>
    <time>2012-03-04T14:12:07Z</time>
   </trkpt>
   <trkpt lat="46.275749206543" lon="7.45143699645996">
    <ele>604.772399902344</ele>
    <time>2012-03-04T14:12:12Z</time>
   </trkpt>
   <trkpt lat="46.2757339477539" lon="7.45141220092774">
    <ele>604.924133300781</ele>
    <time>2012-03-04T14:12:13Z</time>
   </trkpt>
   <trkpt lat="46.2757186889648" lon="7.45138835906982">
    <ele>605.075866699219</ele>
    <time>2012-03-04T14:12:14Z</time>
   </trkpt>
   <trkpt lat="46.2757034301758" lon="7.4513635635376">
    <ele>605.227600097656</ele>
    <time>2012-03-04T14:12:15Z</time>
   </trkpt>
   <trkpt lat="46.2756881713867" lon="7.45133829116821">
    <ele>605.379333496094</ele>
    <time>2012-03-04T14:12:16Z</time>
   </trkpt>
   <trkpt lat="46.275562286377" lon="7.45113658905029">
    <ele>606.593139648438</ele>
    <time>2012-03-04T14:12:24Z</time>
   </trkpt>
   <trkpt lat="46.2755470275879" lon="7.45111227035522">
    <ele>606.744812011719</ele>
    <time>2012-03-04T14:12:25Z</time>
   </trkpt>
   <trkpt lat="46.2755355834961" lon="7.45108652114868">
    <ele>606.896545410156</ele>
    <time>2012-03-04T14:12:26Z</time>
   </trkpt>
   <trkpt lat="46.2755241394043" lon="7.45106172561646">
    <ele>607.048278808594</ele>
    <time>2012-03-04T14:12:27Z</time>
   </trkpt>
   <trkpt lat="46.2755088806152" lon="7.45103883743286">
    <ele>607.200012207031</ele>
    <time>2012-03-04T14:12:28Z</time>
   </trkpt>
   <trkpt lat="46.2754249572754" lon="7.45091676712036">
    <ele>607.200012207031</ele>
    <time>2012-03-04T14:12:33Z</time>
   </trkpt>
   <trkpt lat="46.2753295898438" lon="7.45078659057617">
    <ele>608.05712890625</ele>
    <time>2012-03-04T14:12:39Z</time>
   </trkpt>
   <trkpt lat="46.2752647399902" lon="7.45070219039917">
    <ele>608.628601074219</ele>
    <time>2012-03-04T14:12:43Z</time>
   </trkpt>
   <trkpt lat="46.2752456665039" lon="7.45068407058716">
    <ele>608.771423339844</ele>
    <time>2012-03-04T14:12:44Z</time>
   </trkpt>
   <trkpt lat="46.2752304077148" lon="7.45066738128662">
    <ele>608.914306640625</ele>
    <time>2012-03-04T14:12:45Z</time>
   </trkpt>
   <trkpt lat="46.2752151489258" lon="7.45064735412598">
    <ele>609.05712890625</ele>
    <time>2012-03-04T14:12:46Z</time>
   </trkpt>
   <trkpt lat="46.2751998901367" lon="7.45062780380249">
    <ele>609.200012207031</ele>
    <time>2012-03-04T14:12:47Z</time>
   </trkpt>
   <trkpt lat="46.275089263916" lon="7.45048236846924">
    <ele>609.200012207031</ele>
    <time>2012-03-04T14:12:54Z</time>
   </trkpt>
   <trkpt lat="46.2750473022461" lon="7.45042037963867">
    <ele>610.142883300781</ele>
    <time>2012-03-04T14:12:57Z</time>
   </trkpt>
   <trkpt lat="46.2750358581543" lon="7.4503984451294">
    <ele>610.457153320312</ele>
    <time>2012-03-04T14:12:58Z</time>
   </trkpt>
   <trkpt lat="46.2750205993652" lon="7.45037460327148">
    <ele>610.771423339844</ele>
    <time>2012-03-04T14:12:59Z</time>
   </trkpt>
   <trkpt lat="46.2750091552734" lon="7.4503493309021">
    <ele>611.085754394531</ele>
    <time>2012-03-04T14:13:00Z</time>
   </trkpt>
   <trkpt lat="46.2749977111816" lon="7.45032835006714">
    <ele>611.400024414062</ele>
    <time>2012-03-04T14:13:01Z</time>
   </trkpt>
   <trkpt lat="46.2749862670898" lon="7.45030689239502">
    <ele>611.400024414062</ele>
    <time>2012-03-04T14:13:02Z</time>
   </trkpt>
   <trkpt lat="46.2748947143555" lon="7.45013809204102">
    <ele>612.400024414062</ele>
    <time>2012-03-04T14:13:09Z</time>
   </trkpt>
   <trkpt lat="46.2748603820801" lon="7.45005035400391">
    <ele>612.82861328125</ele>
    <time>2012-03-04T14:13:12Z</time>
   </trkpt>
   <trkpt lat="46.274845123291" lon="7.45001888275146">
    <ele>612.971435546875</ele>
    <time>2012-03-04T14:13:13Z</time>
   </trkpt>
   <trkpt lat="46.274829864502" lon="7.44999074935913">
    <ele>613.114318847656</ele>
    <time>2012-03-04T14:13:14Z</time>
   </trkpt>
   <trkpt lat="46.2748107910156" lon="7.44995927810669">
    <ele>613.257141113281</ele>
    <time>2012-03-04T14:13:15Z</time>
   </trkpt>
   <trkpt lat="46.2747955322266" lon="7.44993209838867">
    <ele>613.400024414062</ele>
    <time>2012-03-04T14:13:16Z</time>
   </trkpt>
   <trkpt lat="46.2747192382812" lon="7.44975471496582">
    <ele>613.400024414062</ele>
    <time>2012-03-04T14:13:23Z</time>
   </trkpt>
   <trkpt lat="46.2746963500977" lon="7.44970655441284">
    <ele>614.066711425781</ele>
    <time>2012-03-04T14:13:25Z</time>
   </trkpt>
   <trkpt lat="46.2746810913086" lon="7.44968318939209">
    <ele>614.400024414062</ele>
    <time>2012-03-04T14:13:26Z</time>
   </trkpt>
   <trkpt lat="46.2746696472168" lon="7.44966125488281">
    <ele>614.733337402344</ele>
    <time>2012-03-04T14:13:27Z</time>
   </trkpt>
   <trkpt lat="46.274658203125" lon="7.44963884353638">
    <ele>615.066711425781</ele>
    <time>2012-03-04T14:13:28Z</time>
   </trkpt>
   <trkpt lat="46.2746467590332" lon="7.44961547851562">
    <ele>615.400024414062</ele>
    <time>2012-03-04T14:13:29Z</time>
   </trkpt>
   <trkpt lat="46.2746391296387" lon="7.44959020614624">
    <ele>615.400024414062</ele>
    <time>2012-03-04T14:13:30Z</time>
   </trkpt>
   <trkpt lat="46.2746276855469" lon="7.44950437545776">
    <ele>616.141174316406</ele>
    <time>2012-03-04T14:13:33Z</time>
   </trkpt>
   <trkpt lat="46.2746505737305" lon="7.44946336746216">
    <ele>616.635314941406</ele>
    <time>2012-03-04T14:13:35Z</time>
   </trkpt>
   <trkpt lat="46.2746696472168" lon="7.44945287704468">
    <ele>616.882385253906</ele>
    <time>2012-03-04T14:13:36Z</time>
   </trkpt>
   <trkpt lat="46.2746849060059" lon="7.44945383071899">
    <ele>617.12939453125</ele>
    <time>2012-03-04T14:13:37Z</time>
   </trkpt>
   <trkpt lat="46.2747039794922" lon="7.44945907592774">
    <ele>617.37646484375</ele>
    <time>2012-03-04T14:13:38Z</time>
   </trkpt>
   <trkpt lat="46.2747192382812" lon="7.44946479797363">
    <ele>617.62353515625</ele>
    <time>2012-03-04T14:13:39Z</time>
   </trkpt>
   <trkpt lat="46.2747840881348" lon="7.44951629638672">
    <ele>618.611755371094</ele>
    <time>2012-03-04T14:13:43Z</time>
   </trkpt>
   <trkpt lat="46.2747955322266" lon="7.44953298568726">
    <ele>618.858825683594</ele>
    <time>2012-03-04T14:13:44Z</time>
   </trkpt>
   <trkpt lat="46.2748069763184" lon="7.44955205917358">
    <ele>619.105834960938</ele>
    <time>2012-03-04T14:13:45Z</time>
   </trkpt>
   <trkpt lat="46.2748222351074" lon="7.44957542419434">
    <ele>619.352905273438</ele>
    <time>2012-03-04T14:13:46Z</time>
   </trkpt>
   <trkpt lat="46.2748336791992" lon="7.44959592819214">
    <ele>619.599975585938</ele>
    <time>2012-03-04T14:13:47Z</time>
   </trkpt>
   <trkpt lat="46.2749290466309" lon="7.44969129562378">
    <ele>619.599975585938</ele>
    <time>2012-03-04T14:13:53Z</time>
   </trkpt>
   <trkpt lat="46.2750205993652" lon="7.44980001449585">
    <ele>620.933288574219</ele>
    <time>2012-03-04T14:13:59Z</time>
   </trkpt>
   <trkpt lat="46.2750396728516" lon="7.44981622695923">
    <ele>621.155517578125</ele>
    <time>2012-03-04T14:14:00Z</time>
   </trkpt>
   <trkpt lat="46.2750587463379" lon="7.44983291625976">
    <ele>621.377746582031</ele>
    <time>2012-03-04T14:14:01Z</time>
   </trkpt>
   <trkpt lat="46.2750778198242" lon="7.44985008239746">
    <ele>621.599975585938</ele>
    <time>2012-03-04T14:14:02Z</time>
   </trkpt>
   <trkpt lat="46.2751770019531" lon="7.44993352890015">
    <ele>621.599975585938</ele>
    <time>2012-03-04T14:14:07Z</time>
   </trkpt>
   <trkpt lat="46.275276184082" lon="7.44998168945312">
    <ele>622.711059570312</ele>
    <time>2012-03-04T14:14:12Z</time>
   </trkpt>
   <trkpt lat="46.2752990722656" lon="7.44999074935913">
    <ele>622.933288574219</ele>
    <time>2012-03-04T14:14:13Z</time>
   </trkpt>
   <trkpt lat="46.275318145752" lon="7.44999170303345">
    <ele>623.155517578125</ele>
    <time>2012-03-04T14:14:14Z</time>
   </trkpt>
   <trkpt lat="46.2753410339356" lon="7.44999980926514">
    <ele>623.377746582031</ele>
    <time>2012-03-04T14:14:15Z</time>
   </trkpt>
   <trkpt lat="46.2753639221191" lon="7.44999837875366">
    <ele>623.599975585938</ele>
    <time>2012-03-04T14:14:16Z</time>
   </trkpt>
   <trkpt lat="46.2754287719727" lon="7.45002317428589">
    <ele>623.599975585938</ele>
    <time>2012-03-04T14:14:19Z</time>
   </trkpt>
   <trkpt lat="46.2755508422852" lon="7.45007991790772">
    <ele>624.542846679688</ele>
    <time>2012-03-04T14:14:25Z</time>
   </trkpt>
   <trkpt lat="46.2756385803223" lon="7.45011568069458">
    <ele>625.17138671875</ele>
    <time>2012-03-04T14:14:29Z</time>
   </trkpt>
   <trkpt lat="46.2756614685059" lon="7.45012474060059">
    <ele>625.328552246094</ele>
    <time>2012-03-04T14:14:30Z</time>
   </trkpt>
   <trkpt lat="46.2756805419922" lon="7.45013523101807">
    <ele>625.485717773438</ele>
    <time>2012-03-04T14:14:31Z</time>
   </trkpt>
   <trkpt lat="46.2757034301758" lon="7.4501428604126">
    <ele>625.642822265625</ele>
    <time>2012-03-04T14:14:32Z</time>
   </trkpt>
   <trkpt lat="46.2757263183594" lon="7.45014762878418">
    <ele>625.799987792969</ele>
    <time>2012-03-04T14:14:33Z</time>
   </trkpt>
   <trkpt lat="46.2758483886719" lon="7.4501748085022">
    <ele>625.799987792969</ele>
    <time>2012-03-04T14:14:39Z</time>
   </trkpt>
   <trkpt lat="46.2760124206543" lon="7.45023441314697">
    <ele>627.13330078125</ele>
    <time>2012-03-04T14:14:47Z</time>
   </trkpt>
   <trkpt lat="46.2760314941406" lon="7.45024347305298">
    <ele>627.299987792969</ele>
    <time>2012-03-04T14:14:48Z</time>
   </trkpt>
   <trkpt lat="46.2760543823242" lon="7.45025062561035">
    <ele>627.466674804688</ele>
    <time>2012-03-04T14:14:49Z</time>
   </trkpt>
   <trkpt lat="46.2760772705078" lon="7.45026063919067">
    <ele>627.63330078125</ele>
    <time>2012-03-04T14:14:50Z</time>
   </trkpt>
   <trkpt lat="46.2761001586914" lon="7.45026969909668">
    <ele>627.799987792969</ele>
    <time>2012-03-04T14:14:51Z</time>
   </trkpt>
   <trkpt lat="46.2762260437012" lon="7.45032501220703">
    <ele>627.799987792969</ele>
    <time>2012-03-04T14:14:57Z</time>
   </trkpt>
   <trkpt lat="46.2763366699219" lon="7.45039319992065">
    <ele>629.022216796875</ele>
    <time>2012-03-04T14:15:02Z</time>
   </trkpt>
   <trkpt lat="46.2763557434082" lon="7.45041084289551">
    <ele>629.266662597656</ele>
    <time>2012-03-04T14:15:03Z</time>
   </trkpt>
   <trkpt lat="46.2763748168945" lon="7.45043039321899">
    <ele>629.511108398438</ele>
    <time>2012-03-04T14:15:04Z</time>
   </trkpt>
   <trkpt lat="46.2763938903809" lon="7.4504508972168">
    <ele>629.755554199219</ele>
    <time>2012-03-04T14:15:05Z</time>
   </trkpt>
   <trkpt lat="46.2764091491699" lon="7.45046901702881">
    <ele>630</ele>
    <time>2012-03-04T14:15:06Z</time>
   </trkpt>
   <trkpt lat="46.2765274047852" lon="7.4506664276123">
    <ele>630</ele>
    <time>2012-03-04T14:15:14Z</time>
   </trkpt>
   <trkpt lat="46.2765502929688" lon="7.45071840286255">
    <ele>630.799987792969</ele>
    <time>2012-03-04T14:15:16Z</time>
   </trkpt>
   <trkpt lat="46.2765617370606" lon="7.45074653625488">
    <ele>631.200012207031</ele>
    <time>2012-03-04T14:15:17Z</time>
   </trkpt>
   <trkpt lat="46.2765769958496" lon="7.45077037811279">
    <ele>631.599975585938</ele>
    <time>2012-03-04T14:15:18Z</time>
   </trkpt>
   <trkpt lat="46.2765922546387" lon="7.45079612731934">
    <ele>632</ele>
    <time>2012-03-04T14:15:19Z</time>
   </trkpt>
   <trkpt lat="46.2766380310059" lon="7.45087099075317">
    <ele>632</ele>
    <time>2012-03-04T14:15:22Z</time>
   </trkpt>
   <trkpt lat="46.276725769043" lon="7.45101881027222">
    <ele>633.200012207031</ele>
    <time>2012-03-04T14:15:28Z</time>
   </trkpt>
   <trkpt lat="46.2767448425293" lon="7.45104169845581">
    <ele>633.400024414062</ele>
    <time>2012-03-04T14:15:29Z</time>
   </trkpt>
   <trkpt lat="46.2767601013184" lon="7.45106315612793">
    <ele>633.599975585938</ele>
    <time>2012-03-04T14:15:30Z</time>
   </trkpt>
   <trkpt lat="46.2767791748047" lon="7.45108652114868">
    <ele>633.799987792969</ele>
    <time>2012-03-04T14:15:31Z</time>
   </trkpt>
   <trkpt lat="46.2767944335938" lon="7.45110988616943">
    <ele>634</ele>
    <time>2012-03-04T14:15:32Z</time>
   </trkpt>
   <trkpt lat="46.2769088745117" lon="7.45123100280762">
    <ele>634</ele>
    <time>2012-03-04T14:15:38Z</time>
   </trkpt>
   <trkpt lat="46.2770195007324" lon="7.45137357711792">
    <ele>635.090881347656</ele>
    <time>2012-03-04T14:15:44Z</time>
   </trkpt>
   <trkpt lat="46.2770385742188" lon="7.45139694213867">
    <ele>635.272705078125</ele>
    <time>2012-03-04T14:15:45Z</time>
   </trkpt>
   <trkpt lat="46.2770576477051" lon="7.45141839981079">
    <ele>635.454528808594</ele>
    <time>2012-03-04T14:15:46Z</time>
   </trkpt>
   <trkpt lat="46.2770767211914" lon="7.45143985748291">
    <ele>635.636352539062</ele>
    <time>2012-03-04T14:15:47Z</time>
   </trkpt>
   <trkpt lat="46.2770919799805" lon="7.4514627456665">
    <ele>635.818176269531</ele>
    <time>2012-03-04T14:15:48Z</time>
   </trkpt>
   <trkpt lat="46.2771110534668" lon="7.4514856338501">
    <ele>636</ele>
    <time>2012-03-04T14:15:49Z</time>
   </trkpt>
   <trkpt lat="46.277156829834" lon="7.45155382156372">
    <ele>636</ele>
    <time>2012-03-04T14:15:52Z</time>
   </trkpt>
   <trkpt lat="46.2772407531738" lon="7.45165824890137">
    <ele>637.222229003906</ele>
    <time>2012-03-04T14:15:57Z</time>
   </trkpt>
   <trkpt lat="46.2772560119629" lon="7.45167827606201">
    <ele>637.466674804688</ele>
    <time>2012-03-04T14:15:58Z</time>
   </trkpt>
   <trkpt lat="46.2772750854492" lon="7.45169925689697">
    <ele>637.711120605469</ele>
    <time>2012-03-04T14:15:59Z</time>
   </trkpt>
   <trkpt lat="46.2772903442383" lon="7.45172262191772">
    <ele>637.95556640625</ele>
    <time>2012-03-04T14:16:00Z</time>
   </trkpt>
   <trkpt lat="46.2773056030273" lon="7.45174503326416">
    <ele>638.200012207031</ele>
    <time>2012-03-04T14:16:01Z</time>
   </trkpt>
   <trkpt lat="46.2774429321289" lon="7.45191431045532">
    <ele>638.200012207031</ele>
    <time>2012-03-04T14:16:09Z</time>
   </trkpt>
   <trkpt lat="46.2775421142578" lon="7.45201778411865">
    <ele>639.311096191406</ele>
    <time>2012-03-04T14:16:14Z</time>
   </trkpt>
   <trkpt lat="46.2775611877441" lon="7.45203447341919">
    <ele>639.533325195312</ele>
    <time>2012-03-04T14:16:15Z</time>
   </trkpt>
   <trkpt lat="46.2775802612305" lon="7.45204877853394">
    <ele>639.755554199219</ele>
    <time>2012-03-04T14:16:16Z</time>
   </trkpt>
   <trkpt lat="46.2775993347168" lon="7.4520673751831">
    <ele>639.977783203125</ele>
    <time>2012-03-04T14:16:17Z</time>
   </trkpt>
   <trkpt lat="46.2776184082031" lon="7.45208501815796">
    <ele>640.200012207031</ele>
    <time>2012-03-04T14:16:18Z</time>
   </trkpt>
   <trkpt lat="46.2778053283691" lon="7.45228433609009">
    <ele>640.200012207031</ele>
    <time>2012-03-04T14:16:28Z</time>
   </trkpt>
   <trkpt lat="46.2778434753418" lon="7.45233201980591">
    <ele>640.933349609375</ele>
    <time>2012-03-04T14:16:30Z</time>
   </trkpt>
   <trkpt lat="46.2778587341309" lon="7.45235729217529">
    <ele>641.300048828125</ele>
    <time>2012-03-04T14:16:31Z</time>
   </trkpt>
   <trkpt lat="46.2778778076172" lon="7.45238304138184">
    <ele>641.666687011719</ele>
    <time>2012-03-04T14:16:32Z</time>
   </trkpt>
   <trkpt lat="46.2778930664062" lon="7.45240545272827">
    <ele>642.033325195312</ele>
    <time>2012-03-04T14:16:33Z</time>
   </trkpt>
   <trkpt lat="46.2779083251953" lon="7.45243120193482">
    <ele>642.400024414062</ele>
    <time>2012-03-04T14:16:34Z</time>
   </trkpt>
   <trkpt lat="46.2780151367188" lon="7.45262241363525">
    <ele>642.400024414062</ele>
    <time>2012-03-04T14:16:41Z</time>
   </trkpt>
   <trkpt lat="46.2780342102051" lon="7.45264577865601">
    <ele>642.800048828125</ele>
    <time>2012-03-04T14:16:42Z</time>
   </trkpt>
   <trkpt lat="46.2780494689941" lon="7.45266962051392">
    <ele>643.200012207031</ele>
    <time>2012-03-04T14:16:43Z</time>
   </trkpt>
   <trkpt lat="46.2780685424805" lon="7.45269680023193">
    <ele>643.600036621094</ele>
    <time>2012-03-04T14:16:44Z</time>
   </trkpt>
   <trkpt lat="46.2780838012695" lon="7.45272302627564">
    <ele>644</ele>
    <time>2012-03-04T14:16:45Z</time>
   </trkpt>
   <trkpt lat="46.2780990600586" lon="7.45274782180786">
    <ele>644.400024414062</ele>
    <time>2012-03-04T14:16:46Z</time>
   </trkpt>
   <trkpt lat="46.2781677246094" lon="7.45284652709961">
    <ele>644.400024414062</ele>
    <time>2012-03-04T14:16:50Z</time>
   </trkpt>
   <trkpt lat="46.278263092041" lon="7.45295238494873">
    <ele>645.775024414062</ele>
    <time>2012-03-04T14:16:55Z</time>
   </trkpt>
   <trkpt lat="46.2782821655273" lon="7.45297384262085">
    <ele>646.049987792969</ele>
    <time>2012-03-04T14:16:56Z</time>
   </trkpt>
   <trkpt lat="46.2783012390137" lon="7.45299530029297">
    <ele>646.324951171875</ele>
    <time>2012-03-04T14:16:57Z</time>
   </trkpt>
   <trkpt lat="46.2783203125" lon="7.45301485061646">
    <ele>646.599975585938</ele>
    <time>2012-03-04T14:16:58Z</time>
   </trkpt>
   <trkpt lat="46.2784118652344" lon="7.45312309265137">
    <ele>646.599975585938</ele>
    <time>2012-03-04T14:17:03Z</time>
   </trkpt>
   <trkpt lat="46.2784729003906" lon="7.45318078994751">
    <ele>647.145446777344</ele>
    <time>2012-03-04T14:17:06Z</time>
   </trkpt>
   <trkpt lat="46.2785453796387" lon="7.45326709747314">
    <ele>647.872680664062</ele>
    <time>2012-03-04T14:17:10Z</time>
   </trkpt>
   <trkpt lat="46.278564453125" lon="7.45328950881958">
    <ele>648.054504394531</ele>
    <time>2012-03-04T14:17:11Z</time>
   </trkpt>
   <trkpt lat="46.2785835266113" lon="7.45330858230591">
    <ele>648.236328125</ele>
    <time>2012-03-04T14:17:12Z</time>
   </trkpt>
   <trkpt lat="46.2786026000977" lon="7.45332908630371">
    <ele>648.418151855469</ele>
    <time>2012-03-04T14:17:13Z</time>
   </trkpt>
   <trkpt lat="46.2786178588867" lon="7.45335054397583">
    <ele>648.599975585938</ele>
    <time>2012-03-04T14:17:14Z</time>
   </trkpt>
   <trkpt lat="46.2787551879883" lon="7.45353317260742">
    <ele>648.599975585938</ele>
    <time>2012-03-04T14:17:22Z</time>
   </trkpt>
   <trkpt lat="46.2787704467773" lon="7.45355415344238">
    <ele>649.039978027344</ele>
    <time>2012-03-04T14:17:23Z</time>
   </trkpt>
   <trkpt lat="46.2787857055664" lon="7.45357608795166">
    <ele>649.47998046875</ele>
    <time>2012-03-04T14:17:24Z</time>
   </trkpt>
   <trkpt lat="46.2788009643555" lon="7.45359706878662">
    <ele>649.919982910156</ele>
    <time>2012-03-04T14:17:25Z</time>
   </trkpt>
   <trkpt lat="46.2788200378418" lon="7.45361995697022">
    <ele>650.359985351562</ele>
    <time>2012-03-04T14:17:26Z</time>
   </trkpt>
   <trkpt lat="46.2788352966309" lon="7.45363903045654">
    <ele>650.799987792969</ele>
    <time>2012-03-04T14:17:27Z</time>
   </trkpt>
   <trkpt lat="46.2789268493652" lon="7.45374488830566">
    <ele>650.799987792969</ele>
    <time>2012-03-04T14:17:32Z</time>
   </trkpt>
   <trkpt lat="46.2789916992188" lon="7.45384740829468">
    <ele>651.799987792969</ele>
    <time>2012-03-04T14:17:36Z</time>
   </trkpt>
   <trkpt lat="46.2790107727051" lon="7.45387315750122">
    <ele>652.049987792969</ele>
    <time>2012-03-04T14:17:37Z</time>
   </trkpt>
   <trkpt lat="46.2790298461914" lon="7.45389747619629">
    <ele>652.299987792969</ele>
    <time>2012-03-04T14:17:38Z</time>
   </trkpt>
   <trkpt lat="46.2790451049805" lon="7.45392274856567">
    <ele>652.549987792969</ele>
    <time>2012-03-04T14:17:39Z</time>
   </trkpt>
   <trkpt lat="46.2790603637695" lon="7.45394515991211">
    <ele>652.799987792969</ele>
    <time>2012-03-04T14:17:40Z</time>
   </trkpt>
   <trkpt lat="46.2791290283203" lon="7.45403814315796">
    <ele>652.799987792969</ele>
    <time>2012-03-04T14:17:44Z</time>
   </trkpt>
   <trkpt lat="46.2791557312012" lon="7.45408773422241">
    <ele>653.466674804688</ele>
    <time>2012-03-04T14:17:46Z</time>
   </trkpt>
   <trkpt lat="46.279167175293" lon="7.45411729812622">
    <ele>653.799987792969</ele>
    <time>2012-03-04T14:17:47Z</time>
   </trkpt>
   <trkpt lat="46.2791786193848" lon="7.45414161682129">
    <ele>654.13330078125</ele>
    <time>2012-03-04T14:17:48Z</time>
   </trkpt>
   <trkpt lat="46.2791862487793" lon="7.45416975021362">
    <ele>654.466674804688</ele>
    <time>2012-03-04T14:17:49Z</time>
   </trkpt>
   <trkpt lat="46.2791976928711" lon="7.45419692993164">
    <ele>654.799987792969</ele>
    <time>2012-03-04T14:17:50Z</time>
   </trkpt>
   <trkpt lat="46.2792091369629" lon="7.45422315597534">
    <ele>654.799987792969</ele>
    <time>2012-03-04T14:17:51Z</time>
   </trkpt>
   <trkpt lat="46.2792778015137" lon="7.45437479019165">
    <ele>656</ele>
    <time>2012-03-04T14:17:57Z</time>
   </trkpt>
   <trkpt lat="46.2792892456055" lon="7.45440292358398">
    <ele>656.200012207031</ele>
    <time>2012-03-04T14:17:58Z</time>
   </trkpt>
   <trkpt lat="46.2793045043945" lon="7.45442724227905">
    <ele>656.399963378906</ele>
    <time>2012-03-04T14:17:59Z</time>
   </trkpt>
   <trkpt lat="46.2793159484863" lon="7.45445394515991">
    <ele>656.599975585938</ele>
    <time>2012-03-04T14:18:00Z</time>
   </trkpt>
   <trkpt lat="46.2793312072754" lon="7.45448064804077">
    <ele>656.799987792969</ele>
    <time>2012-03-04T14:18:01Z</time>
   </trkpt>
   <trkpt lat="46.2793846130371" lon="7.45458173751831">
    <ele>656.799987792969</ele>
    <time>2012-03-04T14:18:05Z</time>
   </trkpt>
   <trkpt lat="46.2794342041016" lon="7.45468473434448">
    <ele>657.900024414062</ele>
    <time>2012-03-04T14:18:09Z</time>
   </trkpt>
   <trkpt lat="46.2794456481934" lon="7.45471143722534">
    <ele>658.174987792969</ele>
    <time>2012-03-04T14:18:10Z</time>
   </trkpt>
   <trkpt lat="46.2794570922852" lon="7.4547381401062">
    <ele>658.450012207031</ele>
    <time>2012-03-04T14:18:11Z</time>
   </trkpt>
   <trkpt lat="46.2794723510742" lon="7.45476531982422">
    <ele>658.724975585938</ele>
    <time>2012-03-04T14:18:12Z</time>
   </trkpt>
   <trkpt lat="46.279483795166" lon="7.45479154586792">
    <ele>659</ele>
    <time>2012-03-04T14:18:13Z</time>
   </trkpt>
   <trkpt lat="46.2794952392578" lon="7.4548192024231">
    <ele>659</ele>
    <time>2012-03-04T14:18:14Z</time>
   </trkpt>
   <trkpt lat="46.2795829772949" lon="7.45500898361206">
    <ele>660.076904296875</ele>
    <time>2012-03-04T14:18:21Z</time>
   </trkpt>
   <trkpt lat="46.2796020507812" lon="7.45506381988525">
    <ele>660.384643554688</ele>
    <time>2012-03-04T14:18:23Z</time>
   </trkpt>
   <trkpt lat="46.279613494873" lon="7.45509243011475">
    <ele>660.538452148438</ele>
    <time>2012-03-04T14:18:24Z</time>
   </trkpt>
   <trkpt lat="46.2796249389648" lon="7.45512056350708">
    <ele>660.692321777344</ele>
    <time>2012-03-04T14:18:25Z</time>
   </trkpt>
   <trkpt lat="46.2796325683594" lon="7.45514822006226">
    <ele>660.846130371094</ele>
    <time>2012-03-04T14:18:26Z</time>
   </trkpt>
   <trkpt lat="46.2796401977539" lon="7.45517492294312">
    <ele>661</ele>
    <time>2012-03-04T14:18:27Z</time>
   </trkpt>
   <trkpt lat="46.2796630859375" lon="7.45523071289062">
    <ele>661</ele>
    <time>2012-03-04T14:18:29Z</time>
   </trkpt>
   <trkpt lat="46.2797317504883" lon="7.45539379119873">
    <ele>662.320007324219</ele>
    <time>2012-03-04T14:18:35Z</time>
   </trkpt>
   <trkpt lat="46.2797508239746" lon="7.45541191101074">
    <ele>662.5400390625</ele>
    <time>2012-03-04T14:18:36Z</time>
   </trkpt>
   <trkpt lat="46.2797737121582" lon="7.4554271697998">
    <ele>662.760009765625</ele>
    <time>2012-03-04T14:18:37Z</time>
   </trkpt>
   <trkpt lat="46.2797927856445" lon="7.45543766021728">
    <ele>662.97998046875</ele>
    <time>2012-03-04T14:18:38Z</time>
   </trkpt>
   <trkpt lat="46.2798156738281" lon="7.45544099807739">
    <ele>663.200012207031</ele>
    <time>2012-03-04T14:18:39Z</time>
   </trkpt>
   <trkpt lat="46.2798347473144" lon="7.45543575286865">
    <ele>663.200012207031</ele>
    <time>2012-03-04T14:18:40Z</time>
   </trkpt>
   <trkpt lat="46.2799034118652" lon="7.45532131195068">
    <ele>663.726318359375</ele>
    <time>2012-03-04T14:18:45Z</time>
   </trkpt>
   <trkpt lat="46.2799072265625" lon="7.45528602600098">
    <ele>663.831604003906</ele>
    <time>2012-03-04T14:18:46Z</time>
   </trkpt>
   <trkpt lat="46.2798957824707" lon="7.45505619049072">
    <ele>664.568420410156</ele>
    <time>2012-03-04T14:18:53Z</time>
   </trkpt>
   <trkpt lat="46.2798881530762" lon="7.45499086380005">
    <ele>664.778930664062</ele>
    <time>2012-03-04T14:18:55Z</time>
   </trkpt>
   <trkpt lat="46.2798843383789" lon="7.45496082305908">
    <ele>664.884216308594</ele>
    <time>2012-03-04T14:18:56Z</time>
   </trkpt>
   <trkpt lat="46.2798805236816" lon="7.45492887496948">
    <ele>664.989501953125</ele>
    <time>2012-03-04T14:18:57Z</time>
   </trkpt>
   <trkpt lat="46.2798805236816" lon="7.45489358901978">
    <ele>665.0947265625</ele>
    <time>2012-03-04T14:18:58Z</time>
   </trkpt>
   <trkpt lat="46.2798805236816" lon="7.45486068725586">
    <ele>665.200012207031</ele>
    <time>2012-03-04T14:18:59Z</time>
   </trkpt>
   <trkpt lat="46.2798767089844" lon="7.45479536056518">
    <ele>665.200012207031</ele>
    <time>2012-03-04T14:19:01Z</time>
   </trkpt>
   <trkpt lat="46.2798385620117" lon="7.45451498031616">
    <ele>666.52001953125</ele>
    <time>2012-03-04T14:19:10Z</time>
   </trkpt>
   <trkpt lat="46.2798309326172" lon="7.45445585250854">
    <ele>666.813354492188</ele>
    <time>2012-03-04T14:19:12Z</time>
   </trkpt>
   <trkpt lat="46.2798309326172" lon="7.4544267654419">
    <ele>666.960021972656</ele>
    <time>2012-03-04T14:19:13Z</time>
   </trkpt>
   <trkpt lat="46.2798233032227" lon="7.45439910888672">
    <ele>667.106689453125</ele>
    <time>2012-03-04T14:19:14Z</time>
   </trkpt>
   <trkpt lat="46.2798156738281" lon="7.45436906814575">
    <ele>667.253356933594</ele>
    <time>2012-03-04T14:19:15Z</time>
   </trkpt>
   <trkpt lat="46.2798156738281" lon="7.45433664321899">
    <ele>667.400024414062</ele>
    <time>2012-03-04T14:19:16Z</time>
   </trkpt>
   <trkpt lat="46.2798118591309" lon="7.45427417755127">
    <ele>667.400024414062</ele>
    <time>2012-03-04T14:19:18Z</time>
   </trkpt>
   <trkpt lat="46.2798080444336" lon="7.45411205291748">
    <ele>668.309143066406</ele>
    <time>2012-03-04T14:19:23Z</time>
   </trkpt>
   <trkpt lat="46.2798004150391" lon="7.45405054092407">
    <ele>668.672729492188</ele>
    <time>2012-03-04T14:19:25Z</time>
   </trkpt>
   <trkpt lat="46.2797966003418" lon="7.454017162323">
    <ele>668.854553222656</ele>
    <time>2012-03-04T14:19:26Z</time>
   </trkpt>
   <trkpt lat="46.2797927856445" lon="7.4539852142334">
    <ele>669.036376953125</ele>
    <time>2012-03-04T14:19:27Z</time>
   </trkpt>
   <trkpt lat="46.2797889709473" lon="7.45395278930664">
    <ele>669.218200683594</ele>
    <time>2012-03-04T14:19:28Z</time>
   </trkpt>
   <trkpt lat="46.27978515625" lon="7.45392036437988">
    <ele>669.400024414062</ele>
    <time>2012-03-04T14:19:29Z</time>
   </trkpt>
   <trkpt lat="46.27978515625" lon="7.45388841629028">
    <ele>669.400024414062</ele>
    <time>2012-03-04T14:19:30Z</time>
   </trkpt>
   <trkpt lat="46.2797622680664" lon="7.45367288589478">
    <ele>670.799987792969</ele>
    <time>2012-03-04T14:19:37Z</time>
   </trkpt>
   <trkpt lat="46.2797546386719" lon="7.45364189147949">
    <ele>671</ele>
    <time>2012-03-04T14:19:38Z</time>
   </trkpt>
   <trkpt lat="46.2797508239746" lon="7.45361137390137">
    <ele>671.200012207031</ele>
    <time>2012-03-04T14:19:39Z</time>
   </trkpt>
   <trkpt lat="46.2797431945801" lon="7.45357990264893">
    <ele>671.400024414062</ele>
    <time>2012-03-04T14:19:40Z</time>
   </trkpt>
   <trkpt lat="46.2797393798828" lon="7.45354890823364">
    <ele>671.599975585938</ele>
    <time>2012-03-04T14:19:41Z</time>
   </trkpt>
   <trkpt lat="46.2797012329102" lon="7.45333099365234">
    <ele>673</ele>
    <time>2012-03-04T14:19:48Z</time>
   </trkpt>
   <trkpt lat="46.2796897888184" lon="7.45329904556274">
    <ele>673.199951171875</ele>
    <time>2012-03-04T14:19:49Z</time>
   </trkpt>
   <trkpt lat="46.2796821594238" lon="7.45326662063599">
    <ele>673.399963378906</ele>
    <time>2012-03-04T14:19:50Z</time>
   </trkpt>
   <trkpt lat="46.2796745300293" lon="7.45323657989502">
    <ele>673.599975585938</ele>
    <time>2012-03-04T14:19:51Z</time>
   </trkpt>
   <trkpt lat="46.2796516418457" lon="7.45311880111694">
    <ele>673.599975585938</ele>
    <time>2012-03-04T14:19:55Z</time>
   </trkpt>
   <trkpt lat="46.2795867919922" lon="7.45294713973999">
    <ele>674.699951171875</ele>
    <time>2012-03-04T14:20:01Z</time>
   </trkpt>
   <trkpt lat="46.2795715332031" lon="7.45289182662964">
    <ele>675.066650390625</ele>
    <time>2012-03-04T14:20:03Z</time>
   </trkpt>
   <trkpt lat="46.2795600891113" lon="7.45286321640015">
    <ele>675.25</ele>
    <time>2012-03-04T14:20:04Z</time>
   </trkpt>
   <trkpt lat="46.2795524597168" lon="7.45283508300781">
    <ele>675.433349609375</ele>
    <time>2012-03-04T14:20:05Z</time>
   </trkpt>
   <trkpt lat="46.2795372009277" lon="7.45280694961548">
    <ele>675.616638183594</ele>
    <time>2012-03-04T14:20:06Z</time>
   </trkpt>
   <trkpt lat="46.2795257568359" lon="7.4527792930603">
    <ele>675.799987792969</ele>
    <time>2012-03-04T14:20:07Z</time>
   </trkpt>
   <trkpt lat="46.2794570922852" lon="7.4526104927063">
    <ele>675.799987792969</ele>
    <time>2012-03-04T14:20:13Z</time>
   </trkpt>
   <trkpt lat="46.2794227600098" lon="7.45252752304077">
    <ele>676.657104492188</ele>
    <time>2012-03-04T14:20:16Z</time>
   </trkpt>
   <trkpt lat="46.279411315918" lon="7.4524974822998">
    <ele>676.94287109375</ele>
    <time>2012-03-04T14:20:17Z</time>
   </trkpt>
   <trkpt lat="46.2794036865234" lon="7.45246887207031">
    <ele>677.228576660156</ele>
    <time>2012-03-04T14:20:18Z</time>
   </trkpt>
   <trkpt lat="46.2793922424316" lon="7.45243787765503">
    <ele>677.514282226562</ele>
    <time>2012-03-04T14:20:19Z</time>
   </trkpt>
   <trkpt lat="46.2793807983398" lon="7.4524097442627">
    <ele>677.799987792969</ele>
    <time>2012-03-04T14:20:20Z</time>
   </trkpt>
   <trkpt lat="46.2793235778809" lon="7.45227909088135">
    <ele>677.799987792969</ele>
    <time>2012-03-04T14:20:25Z</time>
   </trkpt>
   <trkpt lat="46.2792816162109" lon="7.45216751098633">
    <ele>678.799987792969</ele>
    <time>2012-03-04T14:20:29Z</time>
   </trkpt>
   <trkpt lat="46.2792701721191" lon="7.45213794708252">
    <ele>679.049987792969</ele>
    <time>2012-03-04T14:20:30Z</time>
   </trkpt>
   <trkpt lat="46.2792625427246" lon="7.45211267471314">
    <ele>679.299987792969</ele>
    <time>2012-03-04T14:20:31Z</time>
   </trkpt>
   <trkpt lat="46.2792510986328" lon="7.45208692550659">
    <ele>679.549987792969</ele>
    <time>2012-03-04T14:20:32Z</time>
   </trkpt>
   <trkpt lat="46.279239654541" lon="7.45206117630005">
    <ele>679.799987792969</ele>
    <time>2012-03-04T14:20:33Z</time>
   </trkpt>
   <trkpt lat="46.2791862487793" lon="7.45192337036133">
    <ele>679.799987792969</ele>
    <time>2012-03-04T14:20:38Z</time>
   </trkpt>
   <trkpt lat="46.2791213989258" lon="7.45175075531006">
    <ele>681.119995117188</ele>
    <time>2012-03-04T14:20:44Z</time>
   </trkpt>
   <trkpt lat="46.279109954834" lon="7.45172071456909">
    <ele>681.339965820312</ele>
    <time>2012-03-04T14:20:45Z</time>
   </trkpt>
   <trkpt lat="46.2790946960449" lon="7.45169162750244">
    <ele>681.559997558594</ele>
    <time>2012-03-04T14:20:46Z</time>
   </trkpt>
   <trkpt lat="46.2790794372559" lon="7.45166349411011">
    <ele>681.780029296875</ele>
    <time>2012-03-04T14:20:47Z</time>
   </trkpt>
   <trkpt lat="46.2790641784668" lon="7.45163154602051">
    <ele>682</ele>
    <time>2012-03-04T14:20:48Z</time>
   </trkpt>
   <trkpt lat="46.2789993286133" lon="7.45146083831787">
    <ele>682</ele>
    <time>2012-03-04T14:20:54Z</time>
   </trkpt>
   <trkpt lat="46.2789535522461" lon="7.4513521194458">
    <ele>683</ele>
    <time>2012-03-04T14:20:58Z</time>
   </trkpt>
   <trkpt lat="46.2789421081543" lon="7.45132207870483">
    <ele>683.25</ele>
    <time>2012-03-04T14:20:59Z</time>
   </trkpt>
   <trkpt lat="46.2789306640625" lon="7.45129108428955">
    <ele>683.5</ele>
    <time>2012-03-04T14:21:00Z</time>
   </trkpt>
   <trkpt lat="46.2789192199707" lon="7.45125865936279">
    <ele>683.75</ele>
    <time>2012-03-04T14:21:01Z</time>
   </trkpt>
   <trkpt lat="46.2789077758789" lon="7.45122909545898">
    <ele>684</ele>
    <time>2012-03-04T14:21:02Z</time>
   </trkpt>
   <trkpt lat="46.2788200378418" lon="7.45100688934326">
    <ele>684</ele>
    <time>2012-03-04T14:21:10Z</time>
   </trkpt>
   <trkpt lat="46.27880859375" lon="7.45097827911377">
    <ele>684.400024414062</ele>
    <time>2012-03-04T14:21:11Z</time>
   </trkpt>
   <trkpt lat="46.2788009643555" lon="7.45094919204712">
    <ele>684.799987792969</ele>
    <time>2012-03-04T14:21:12Z</time>
   </trkpt>
   <trkpt lat="46.2787933349609" lon="7.4509220123291">
    <ele>685.200012207031</ele>
    <time>2012-03-04T14:21:13Z</time>
   </trkpt>
   <trkpt lat="46.2787895202637" lon="7.4508900642395">
    <ele>685.599975585938</ele>
    <time>2012-03-04T14:21:14Z</time>
   </trkpt>
   <trkpt lat="46.2787818908691" lon="7.45085716247559">
    <ele>686</ele>
    <time>2012-03-04T14:21:15Z</time>
   </trkpt>
   <trkpt lat="46.2787780761719" lon="7.4508261680603">
    <ele>686</ele>
    <time>2012-03-04T14:21:16Z</time>
   </trkpt>
   <trkpt lat="46.278736114502" lon="7.45063591003418">
    <ele>686.880004882812</ele>
    <time>2012-03-04T14:21:22Z</time>
   </trkpt>
   <trkpt lat="46.2787055969238" lon="7.45047187805176">
    <ele>687.613342285156</ele>
    <time>2012-03-04T14:21:27Z</time>
   </trkpt>
   <trkpt lat="46.2786979675293" lon="7.45043897628784">
    <ele>687.760009765625</ele>
    <time>2012-03-04T14:21:28Z</time>
   </trkpt>
   <trkpt lat="46.278694152832" lon="7.4504017829895">
    <ele>687.906677246094</ele>
    <time>2012-03-04T14:21:29Z</time>
   </trkpt>
   <trkpt lat="46.2786865234375" lon="7.45036840438843">
    <ele>688.053344726562</ele>
    <time>2012-03-04T14:21:30Z</time>
   </trkpt>
   <trkpt lat="46.278678894043" lon="7.45033550262451">
    <ele>688.200012207031</ele>
    <time>2012-03-04T14:21:31Z</time>
   </trkpt>
   <trkpt lat="46.2786521911621" lon="7.45005750656128">
    <ele>688.200012207031</ele>
    <time>2012-03-04T14:21:39Z</time>
   </trkpt>
   <trkpt lat="46.2786254882812" lon="7.44989013671875">
    <ele>689.311096191406</ele>
    <time>2012-03-04T14:21:44Z</time>
   </trkpt>
   <trkpt lat="46.2786254882812" lon="7.44985723495483">
    <ele>689.533325195312</ele>
    <time>2012-03-04T14:21:45Z</time>
   </trkpt>
   <trkpt lat="46.278621673584" lon="7.44982290267944">
    <ele>689.755554199219</ele>
    <time>2012-03-04T14:21:46Z</time>
   </trkpt>
   <trkpt lat="46.2786178588867" lon="7.44978952407837">
    <ele>689.977783203125</ele>
    <time>2012-03-04T14:21:47Z</time>
   </trkpt>
   <trkpt lat="46.2786140441894" lon="7.44975328445435">
    <ele>690.200012207031</ele>
    <time>2012-03-04T14:21:48Z</time>
   </trkpt>
   <trkpt lat="46.2785949707031" lon="7.44953966140747">
    <ele>690.200012207031</ele>
    <time>2012-03-04T14:21:54Z</time>
   </trkpt>
   <trkpt lat="46.2785873413086" lon="7.44950151443482">
    <ele>690.342895507812</ele>
    <time>2012-03-04T14:21:55Z</time>
   </trkpt>
   <trkpt lat="46.2785339355469" lon="7.44925117492676">
    <ele>691.342895507812</ele>
    <time>2012-03-04T14:22:02Z</time>
   </trkpt>
   <trkpt lat="46.2785110473633" lon="7.44918775558472">
    <ele>691.628601074219</ele>
    <time>2012-03-04T14:22:04Z</time>
   </trkpt>
   <trkpt lat="46.2784996032715" lon="7.44915580749512">
    <ele>691.771423339844</ele>
    <time>2012-03-04T14:22:05Z</time>
   </trkpt>
   <trkpt lat="46.2784881591797" lon="7.44912099838257">
    <ele>691.914306640625</ele>
    <time>2012-03-04T14:22:06Z</time>
   </trkpt>
   <trkpt lat="46.2784767150879" lon="7.44908618927002">
    <ele>692.05712890625</ele>
    <time>2012-03-04T14:22:07Z</time>
   </trkpt>
   <trkpt lat="46.2784690856934" lon="7.449049949646">
    <ele>692.200012207031</ele>
    <time>2012-03-04T14:22:08Z</time>
   </trkpt>
   <trkpt lat="46.2783699035644" lon="7.44877243041992">
    <ele>692.200012207031</ele>
    <time>2012-03-04T14:22:16Z</time>
   </trkpt>
   <trkpt lat="46.2782897949219" lon="7.4485592842102">
    <ele>693.123107910156</ele>
    <time>2012-03-04T14:22:22Z</time>
   </trkpt>
   <trkpt lat="46.278247833252" lon="7.44845676422119">
    <ele>693.584655761719</ele>
    <time>2012-03-04T14:22:25Z</time>
   </trkpt>
   <trkpt lat="46.2782402038574" lon="7.44842433929443">
    <ele>693.738464355469</ele>
    <time>2012-03-04T14:22:26Z</time>
   </trkpt>
   <trkpt lat="46.2782249450684" lon="7.44839191436768">
    <ele>693.892333984375</ele>
    <time>2012-03-04T14:22:27Z</time>
   </trkpt>
   <trkpt lat="46.2782135009766" lon="7.44835948944092">
    <ele>694.046142578125</ele>
    <time>2012-03-04T14:22:28Z</time>
   </trkpt>
   <trkpt lat="46.278205871582" lon="7.44832468032837">
    <ele>694.200012207031</ele>
    <time>2012-03-04T14:22:29Z</time>
   </trkpt>
   <trkpt lat="46.2782020568848" lon="7.44828844070435">
    <ele>694.200012207031</ele>
    <time>2012-03-04T14:22:30Z</time>
   </trkpt>
   <trkpt lat="46.2781791687012" lon="7.44803047180176">
    <ele>695.300048828125</ele>
    <time>2012-03-04T14:22:37Z</time>
   </trkpt>
   <trkpt lat="46.278205871582" lon="7.44788980484009">
    <ele>695.928588867188</ele>
    <time>2012-03-04T14:22:41Z</time>
   </trkpt>
   <trkpt lat="46.2782173156738" lon="7.44785928726196">
    <ele>696.085754394531</ele>
    <time>2012-03-04T14:22:42Z</time>
   </trkpt>
   <trkpt lat="46.2782249450684" lon="7.44782829284668">
    <ele>696.242858886719</ele>
    <time>2012-03-04T14:22:43Z</time>
   </trkpt>
   <trkpt lat="46.2782363891602" lon="7.4477949142456">
    <ele>696.400024414062</ele>
    <time>2012-03-04T14:22:44Z</time>
   </trkpt>
   <trkpt lat="46.2783317565918" lon="7.44764757156372">
    <ele>696.400024414062</ele>
    <time>2012-03-04T14:22:50Z</time>
   </trkpt>
   <trkpt lat="46.2784690856934" lon="7.44757080078125">
    <ele>697.600036621094</ele>
    <time>2012-03-04T14:22:56Z</time>
   </trkpt>
   <trkpt lat="46.2784957885742" lon="7.44755983352661">
    <ele>697.800048828125</ele>
    <time>2012-03-04T14:22:57Z</time>
   </trkpt>
   <trkpt lat="46.2785186767578" lon="7.44754934310913">
    <ele>698</ele>
    <time>2012-03-04T14:22:58Z</time>
   </trkpt>
   <trkpt lat="46.2785415649414" lon="7.44754028320312">
    <ele>698.200012207031</ele>
    <time>2012-03-04T14:22:59Z</time>
   </trkpt>
   <trkpt lat="46.2785682678223" lon="7.44753265380859">
    <ele>698.400024414062</ele>
    <time>2012-03-04T14:23:00Z</time>
   </trkpt>
   <trkpt lat="46.2786636352539" lon="7.44750881195068">
    <ele>698.400024414062</ele>
    <time>2012-03-04T14:23:04Z</time>
   </trkpt>
   <trkpt lat="46.2788124084473" lon="7.447509765625">
    <ele>699.600036621094</ele>
    <time>2012-03-04T14:23:10Z</time>
   </trkpt>
   <trkpt lat="46.2788352966309" lon="7.447509765625">
    <ele>699.800048828125</ele>
    <time>2012-03-04T14:23:11Z</time>
   </trkpt>
   <trkpt lat="46.2788619995117" lon="7.44751119613648">
    <ele>700</ele>
    <time>2012-03-04T14:23:12Z</time>
   </trkpt>
   <trkpt lat="46.2788848876953" lon="7.44750785827637">
    <ele>700.200012207031</ele>
    <time>2012-03-04T14:23:13Z</time>
   </trkpt>
   <trkpt lat="46.2789077758789" lon="7.4474983215332">
    <ele>700.400024414062</ele>
    <time>2012-03-04T14:23:14Z</time>
   </trkpt>
   <trkpt lat="46.2789840698242" lon="7.44744110107422">
    <ele>700.400024414062</ele>
    <time>2012-03-04T14:23:17Z</time>
   </trkpt>
   <trkpt lat="46.2790985107422" lon="7.4472541809082">
    <ele>701.028564453125</ele>
    <time>2012-03-04T14:23:23Z</time>
   </trkpt>
   <trkpt lat="46.2792091369629" lon="7.44704389572144">
    <ele>701.657165527344</ele>
    <time>2012-03-04T14:23:29Z</time>
   </trkpt>
   <trkpt lat="46.2793045043945" lon="7.44687032699585">
    <ele>702.180908203125</ele>
    <time>2012-03-04T14:23:34Z</time>
   </trkpt>
   <trkpt lat="46.2793235778809" lon="7.44683647155762">
    <ele>702.285705566406</ele>
    <time>2012-03-04T14:23:35Z</time>
   </trkpt>
   <trkpt lat="46.2793426513672" lon="7.44680261611938">
    <ele>702.390441894531</ele>
    <time>2012-03-04T14:23:36Z</time>
   </trkpt>
   <trkpt lat="46.2793617248535" lon="7.44676971435547">
    <ele>702.495239257812</ele>
    <time>2012-03-04T14:23:37Z</time>
   </trkpt>
   <trkpt lat="46.2793807983398" lon="7.44673585891724">
    <ele>702.599975585938</ele>
    <time>2012-03-04T14:23:38Z</time>
   </trkpt>
   <trkpt lat="46.2793998718262" lon="7.44670486450195">
    <ele>702.599975585938</ele>
    <time>2012-03-04T14:23:39Z</time>
   </trkpt>
   <trkpt lat="46.2794570922852" lon="7.44663619995117">
    <ele>702.885681152344</ele>
    <time>2012-03-04T14:23:42Z</time>
   </trkpt>
   <trkpt lat="46.2795066833496" lon="7.44663190841675">
    <ele>703.076171875</ele>
    <time>2012-03-04T14:23:44Z</time>
   </trkpt>
   <trkpt lat="46.2795829772949" lon="7.44673728942871">
    <ele>703.457092285156</ele>
    <time>2012-03-04T14:23:48Z</time>
   </trkpt>
   <trkpt lat="46.2795944213867" lon="7.44677209854126">
    <ele>703.552368164062</ele>
    <time>2012-03-04T14:23:49Z</time>
   </trkpt>
   <trkpt lat="46.2796783447266" lon="7.44702863693237">
    <ele>704.218994140625</ele>
    <time>2012-03-04T14:23:56Z</time>
   </trkpt>
   <trkpt lat="46.2796936035156" lon="7.44706964492798">
    <ele>704.314270019531</ele>
    <time>2012-03-04T14:23:57Z</time>
   </trkpt>
   <trkpt lat="46.2797088623047" lon="7.44711065292358">
    <ele>704.409484863281</ele>
    <time>2012-03-04T14:23:58Z</time>
   </trkpt>
   <trkpt lat="46.2797203063965" lon="7.44715023040772">
    <ele>704.504760742188</ele>
    <time>2012-03-04T14:23:59Z</time>
   </trkpt>
   <trkpt lat="46.279727935791" lon="7.44719076156616">
    <ele>704.599975585938</ele>
    <time>2012-03-04T14:24:00Z</time>
   </trkpt>
   <trkpt lat="46.2797737121582" lon="7.44730997085571">
    <ele>704.599975585938</ele>
    <time>2012-03-04T14:24:03Z</time>
   </trkpt>
   <trkpt lat="46.2799072265625" lon="7.44749069213867">
    <ele>705.542846679688</ele>
    <time>2012-03-04T14:24:09Z</time>
   </trkpt>
   <trkpt lat="46.2799987792969" lon="7.44759130477905">
    <ele>706.17138671875</ele>
    <time>2012-03-04T14:24:13Z</time>
   </trkpt>
   <trkpt lat="46.2800178527832" lon="7.44760990142822">
    <ele>706.328552246094</ele>
    <time>2012-03-04T14:24:14Z</time>
   </trkpt>
   <trkpt lat="46.2800445556641" lon="7.44762754440308">
    <ele>706.485717773438</ele>
    <time>2012-03-04T14:24:15Z</time>
   </trkpt>
   <trkpt lat="46.2800788879394" lon="7.44764232635498">
    <ele>706.642822265625</ele>
    <time>2012-03-04T14:24:16Z</time>
   </trkpt>
   <trkpt lat="46.2801055908203" lon="7.44765663146973">
    <ele>706.799987792969</ele>
    <time>2012-03-04T14:24:17Z</time>
   </trkpt>
   <trkpt lat="46.2802047729492" lon="7.44762897491455">
    <ele>706.799987792969</ele>
    <time>2012-03-04T14:24:21Z</time>
   </trkpt>
   <trkpt lat="46.2802543640137" lon="7.44761610031128">
    <ele>706.87841796875</ele>
    <time>2012-03-04T14:24:23Z</time>
   </trkpt>
   <trkpt lat="46.2803153991699" lon="7.44764566421509">
    <ele>706.956848144531</ele>
    <time>2012-03-04T14:24:25Z</time>
   </trkpt>
   <trkpt lat="46.2803726196289" lon="7.44768333435059">
    <ele>707.035278320312</ele>
    <time>2012-03-04T14:24:27Z</time>
   </trkpt>
   <trkpt lat="46.2804412841797" lon="7.44775772094726">
    <ele>707.192138671875</ele>
    <time>2012-03-04T14:24:31Z</time>
   </trkpt>
   <trkpt lat="46.280445098877" lon="7.44778108596802">
    <ele>707.348999023438</ele>
    <time>2012-03-04T14:24:35Z</time>
   </trkpt>
   <trkpt lat="46.280445098877" lon="7.44778108596802">
    <ele>707.741149902344</ele>
    <time>2012-03-04T14:24:45Z</time>
   </trkpt>
   <trkpt lat="46.2804489135742" lon="7.44780158996582">
    <ele>707.898010253906</ele>
    <time>2012-03-04T14:24:49Z</time>
   </trkpt>
   <trkpt lat="46.2804641723633" lon="7.44783210754394">
    <ele>707.976440429688</ele>
    <time>2012-03-04T14:24:51Z</time>
   </trkpt>
   <trkpt lat="46.280517578125" lon="7.44797468185425">
    <ele>708.172546386719</ele>
    <time>2012-03-04T14:24:56Z</time>
   </trkpt>
   <trkpt lat="46.2806015014648" lon="7.44804525375366">
    <ele>708.290161132812</ele>
    <time>2012-03-04T14:24:59Z</time>
   </trkpt>
   <trkpt lat="46.2806282043457" lon="7.44806909561157">
    <ele>708.329406738281</ele>
    <time>2012-03-04T14:25:00Z</time>
   </trkpt>
   <trkpt lat="46.2808151245117" lon="7.44820737838745">
    <ele>708.564697265625</ele>
    <time>2012-03-04T14:25:06Z</time>
   </trkpt>
   <trkpt lat="46.2809066772461" lon="7.44828653335571">
    <ele>708.682312011719</ele>
    <time>2012-03-04T14:25:09Z</time>
   </trkpt>
   <trkpt lat="46.280933380127" lon="7.44831609725952">
    <ele>708.721557617188</ele>
    <time>2012-03-04T14:25:10Z</time>
   </trkpt>
   <trkpt lat="46.2809638977051" lon="7.44834041595459">
    <ele>708.7607421875</ele>
    <time>2012-03-04T14:25:11Z</time>
   </trkpt>
   <trkpt lat="46.2809944152832" lon="7.44836759567261">
    <ele>708.799987792969</ele>
    <time>2012-03-04T14:25:12Z</time>
   </trkpt>
   <trkpt lat="46.2811851501465" lon="7.44855260848999">
    <ele>708.799987792969</ele>
    <time>2012-03-04T14:25:19Z</time>
   </trkpt>
   <trkpt lat="46.2812881469727" lon="7.44864177703857">
    <ele>709.599975585938</ele>
    <time>2012-03-04T14:25:23Z</time>
   </trkpt>
   <trkpt lat="46.2813453674316" lon="7.44866704940796">
    <ele>710</ele>
    <time>2012-03-04T14:25:25Z</time>
   </trkpt>
   <trkpt lat="46.2813720703125" lon="7.44868421554565">
    <ele>710.200012207031</ele>
    <time>2012-03-04T14:25:26Z</time>
   </trkpt>
   <trkpt lat="46.2813987731934" lon="7.44869184494018">
    <ele>710.399963378906</ele>
    <time>2012-03-04T14:25:27Z</time>
   </trkpt>
   <trkpt lat="46.2814254760742" lon="7.44869470596314">
    <ele>710.599975585938</ele>
    <time>2012-03-04T14:25:28Z</time>
   </trkpt>
   <trkpt lat="46.2814559936523" lon="7.44869470596314">
    <ele>710.799987792969</ele>
    <time>2012-03-04T14:25:29Z</time>
   </trkpt>
   <trkpt lat="46.2815208435059" lon="7.44870615005493">
    <ele>710.799987792969</ele>
    <time>2012-03-04T14:25:31Z</time>
   </trkpt>
   <trkpt lat="46.2816772460938" lon="7.44880628585815">
    <ele>711.4111328125</ele>
    <time>2012-03-04T14:25:36Z</time>
   </trkpt>
   <trkpt lat="46.2818641662598" lon="7.44881820678711">
    <ele>712.144409179688</ele>
    <time>2012-03-04T14:25:42Z</time>
   </trkpt>
   <trkpt lat="46.2819519042969" lon="7.44878911972046">
    <ele>712.511108398438</ele>
    <time>2012-03-04T14:25:45Z</time>
   </trkpt>
   <trkpt lat="46.2819786071777" lon="7.44877815246582">
    <ele>712.63330078125</ele>
    <time>2012-03-04T14:25:46Z</time>
   </trkpt>
   <trkpt lat="46.2820053100586" lon="7.44876527786255">
    <ele>712.755554199219</ele>
    <time>2012-03-04T14:25:47Z</time>
   </trkpt>
   <trkpt lat="46.2820320129394" lon="7.44875144958496">
    <ele>712.877807617188</ele>
    <time>2012-03-04T14:25:48Z</time>
   </trkpt>
   <trkpt lat="46.2820587158203" lon="7.44873428344726">
    <ele>713</ele>
    <time>2012-03-04T14:25:49Z</time>
   </trkpt>
   <trkpt lat="46.2822113037109" lon="7.4486083984375">
    <ele>713</ele>
    <time>2012-03-04T14:25:55Z</time>
   </trkpt>
   <trkpt lat="46.2823028564453" lon="7.44851350784302">
    <ele>714.142883300781</ele>
    <time>2012-03-04T14:25:59Z</time>
   </trkpt>
   <trkpt lat="46.2823257446289" lon="7.44849586486816">
    <ele>714.428588867188</ele>
    <time>2012-03-04T14:26:00Z</time>
   </trkpt>
   <trkpt lat="46.2823448181152" lon="7.44848012924194">
    <ele>714.714294433594</ele>
    <time>2012-03-04T14:26:01Z</time>
   </trkpt>
   <trkpt lat="46.2823638916016" lon="7.44846105575562">
    <ele>715</ele>
    <time>2012-03-04T14:26:02Z</time>
   </trkpt>
   <trkpt lat="46.282398223877" lon="7.44842624664307">
    <ele>715</ele>
    <time>2012-03-04T14:26:04Z</time>
   </trkpt>
   <trkpt lat="46.2824440002441" lon="7.44839239120483">
    <ele>715.666687011719</ele>
    <time>2012-03-04T14:26:06Z</time>
   </trkpt>
   <trkpt lat="46.2824668884277" lon="7.44837617874146">
    <ele>716</ele>
    <time>2012-03-04T14:26:07Z</time>
   </trkpt>
   <trkpt lat="46.2824897766113" lon="7.44836044311524">
    <ele>716.333312988281</ele>
    <time>2012-03-04T14:26:08Z</time>
   </trkpt>
   <trkpt lat="46.2825088500977" lon="7.4483494758606">
    <ele>716.666687011719</ele>
    <time>2012-03-04T14:26:09Z</time>
   </trkpt>
   <trkpt lat="46.2825317382812" lon="7.44833517074585">
    <ele>717</ele>
    <time>2012-03-04T14:26:10Z</time>
   </trkpt>
   <trkpt lat="46.2825736999512" lon="7.44830226898193">
    <ele>717</ele>
    <time>2012-03-04T14:26:12Z</time>
   </trkpt>
   <trkpt lat="46.2826957702637" lon="7.44821214675903">
    <ele>718.257141113281</ele>
    <time>2012-03-04T14:26:18Z</time>
   </trkpt>
   <trkpt lat="46.2827377319336" lon="7.44819450378418">
    <ele>718.676208496094</ele>
    <time>2012-03-04T14:26:20Z</time>
   </trkpt>
   <trkpt lat="46.2827606201172" lon="7.44817972183228">
    <ele>718.8857421875</ele>
    <time>2012-03-04T14:26:21Z</time>
   </trkpt>
   <trkpt lat="46.2827796936035" lon="7.44816255569458">
    <ele>719.095275878906</ele>
    <time>2012-03-04T14:26:22Z</time>
   </trkpt>
   <trkpt lat="46.2828025817871" lon="7.44814682006836">
    <ele>719.304748535156</ele>
    <time>2012-03-04T14:26:23Z</time>
   </trkpt>
   <trkpt lat="46.2828254699707" lon="7.44812965393066">
    <ele>719.514282226562</ele>
    <time>2012-03-04T14:26:24Z</time>
   </trkpt>
   <trkpt lat="46.2829246520996" lon="7.44802284240723">
    <ele>720.561950683594</ele>
    <time>2012-03-04T14:26:29Z</time>
   </trkpt>
   <trkpt lat="46.2829513549805" lon="7.44800233840942">
    <ele>720.771423339844</ele>
    <time>2012-03-04T14:26:30Z</time>
   </trkpt>
   <trkpt lat="46.2829704284668" lon="7.44798946380615">
    <ele>720.98095703125</ele>
    <time>2012-03-04T14:26:31Z</time>
   </trkpt>
   <trkpt lat="46.2829933166504" lon="7.4479775428772">
    <ele>721.190490722656</ele>
    <time>2012-03-04T14:26:32Z</time>
   </trkpt>
   <trkpt lat="46.2830123901367" lon="7.44796943664551">
    <ele>721.400024414062</ele>
    <time>2012-03-04T14:26:33Z</time>
   </trkpt>
   <trkpt lat="46.2830581665039" lon="7.44794607162476">
    <ele>721.400024414062</ele>
    <time>2012-03-04T14:26:35Z</time>
   </trkpt>
   <trkpt lat="46.2831764221191" lon="7.44788408279419">
    <ele>722.490905761719</ele>
    <time>2012-03-04T14:26:40Z</time>
   </trkpt>
   <trkpt lat="46.2832260131836" lon="7.44786787033081">
    <ele>722.92724609375</ele>
    <time>2012-03-04T14:26:42Z</time>
   </trkpt>
   <trkpt lat="46.2832489013672" lon="7.4478588104248">
    <ele>723.145446777344</ele>
    <time>2012-03-04T14:26:43Z</time>
   </trkpt>
   <trkpt lat="46.2832679748535" lon="7.4478554725647">
    <ele>723.363647460938</ele>
    <time>2012-03-04T14:26:44Z</time>
   </trkpt>
   <trkpt lat="46.2832908630371" lon="7.44785690307617">
    <ele>723.581787109375</ele>
    <time>2012-03-04T14:26:45Z</time>
   </trkpt>
   <trkpt lat="46.2833137512207" lon="7.44785356521606">
    <ele>723.799987792969</ele>
    <time>2012-03-04T14:26:46Z</time>
   </trkpt>
   <trkpt lat="46.2834320068359" lon="7.44788455963135">
    <ele>723.799987792969</ele>
    <time>2012-03-04T14:26:51Z</time>
   </trkpt>
   <trkpt lat="46.2834548950195" lon="7.44789266586304">
    <ele>724.239990234375</ele>
    <time>2012-03-04T14:26:52Z</time>
   </trkpt>
   <trkpt lat="46.2834815979004" lon="7.44790172576904">
    <ele>724.679992675781</ele>
    <time>2012-03-04T14:26:53Z</time>
   </trkpt>
   <trkpt lat="46.2835006713867" lon="7.44790887832642">
    <ele>725.119995117188</ele>
    <time>2012-03-04T14:26:54Z</time>
   </trkpt>
   <trkpt lat="46.2835235595703" lon="7.4479193687439">
    <ele>725.559997558594</ele>
    <time>2012-03-04T14:26:55Z</time>
   </trkpt>
   <trkpt lat="46.2835464477539" lon="7.44793128967285">
    <ele>726</ele>
    <time>2012-03-04T14:26:56Z</time>
   </trkpt>
   <trkpt lat="46.2835655212402" lon="7.44794225692749">
    <ele>726</ele>
    <time>2012-03-04T14:26:57Z</time>
   </trkpt>
   <trkpt lat="46.2836685180664" lon="7.44798278808594">
    <ele>727.222229003906</ele>
    <time>2012-03-04T14:27:02Z</time>
   </trkpt>
   <trkpt lat="46.2836837768555" lon="7.44798946380615">
    <ele>727.466674804688</ele>
    <time>2012-03-04T14:27:03Z</time>
   </trkpt>
   <trkpt lat="46.2836990356445" lon="7.44799423217774">
    <ele>727.711120605469</ele>
    <time>2012-03-04T14:27:04Z</time>
   </trkpt>
   <trkpt lat="46.2837181091309" lon="7.447998046875">
    <ele>727.95556640625</ele>
    <time>2012-03-04T14:27:05Z</time>
   </trkpt>
   <trkpt lat="46.2837371826172" lon="7.44800710678101">
    <ele>728.200012207031</ele>
    <time>2012-03-04T14:27:06Z</time>
   </trkpt>
   <trkpt lat="46.283748626709" lon="7.4480185508728">
    <ele>728.200012207031</ele>
    <time>2012-03-04T14:27:07Z</time>
   </trkpt>
   <trkpt lat="46.2837715148926" lon="7.44802236557007">
    <ele>728.422241210938</ele>
    <time>2012-03-04T14:27:08Z</time>
   </trkpt>
   <trkpt lat="46.2838363647461" lon="7.44802188873291">
    <ele>729.088928222656</ele>
    <time>2012-03-04T14:27:11Z</time>
   </trkpt>
   <trkpt lat="46.283863067627" lon="7.44802236557007">
    <ele>729.311096191406</ele>
    <time>2012-03-04T14:27:12Z</time>
   </trkpt>
   <trkpt lat="46.2838859558106" lon="7.44801664352417">
    <ele>729.533325195312</ele>
    <time>2012-03-04T14:27:13Z</time>
   </trkpt>
   <trkpt lat="46.2839126586914" lon="7.44801044464111">
    <ele>729.755554199219</ele>
    <time>2012-03-04T14:27:14Z</time>
   </trkpt>
   <trkpt lat="46.2839393615723" lon="7.44800472259522">
    <ele>729.977783203125</ele>
    <time>2012-03-04T14:27:15Z</time>
   </trkpt>
   <trkpt lat="46.2839622497559" lon="7.44799900054932">
    <ele>730.200012207031</ele>
    <time>2012-03-04T14:27:16Z</time>
   </trkpt>
   <trkpt lat="46.2839889526367" lon="7.44798469543457">
    <ele>730.200012207031</ele>
    <time>2012-03-04T14:27:17Z</time>
   </trkpt>
   <trkpt lat="46.2841377258301" lon="7.44792699813843">
    <ele>731.133361816406</ele>
    <time>2012-03-04T14:27:23Z</time>
   </trkpt>
   <trkpt lat="46.2842254638672" lon="7.44787740707398">
    <ele>731.755554199219</ele>
    <time>2012-03-04T14:27:27Z</time>
   </trkpt>
   <trkpt lat="46.2842483520508" lon="7.4478645324707">
    <ele>731.9111328125</ele>
    <time>2012-03-04T14:27:28Z</time>
   </trkpt>
   <trkpt lat="46.2842712402344" lon="7.44785022735596">
    <ele>732.066711425781</ele>
    <time>2012-03-04T14:27:29Z</time>
   </trkpt>
   <trkpt lat="46.284294128418" lon="7.4478349685669">
    <ele>732.222229003906</ele>
    <time>2012-03-04T14:27:30Z</time>
   </trkpt>
   <trkpt lat="46.2843132019043" lon="7.44782161712646">
    <ele>732.377807617188</ele>
    <time>2012-03-04T14:27:31Z</time>
   </trkpt>
   <trkpt lat="46.2845153808594" lon="7.44768333435059">
    <ele>733.777770996094</ele>
    <time>2012-03-04T14:27:40Z</time>
   </trkpt>
   <trkpt lat="46.2845344543457" lon="7.447669506073">
    <ele>733.933349609375</ele>
    <time>2012-03-04T14:27:41Z</time>
   </trkpt>
   <trkpt lat="46.2845573425293" lon="7.44765615463257">
    <ele>734.088928222656</ele>
    <time>2012-03-04T14:27:42Z</time>
   </trkpt>
   <trkpt lat="46.2845802307129" lon="7.44764375686646">
    <ele>734.244445800781</ele>
    <time>2012-03-04T14:27:43Z</time>
   </trkpt>
   <trkpt lat="46.2846031188965" lon="7.44763040542602">
    <ele>734.400024414062</ele>
    <time>2012-03-04T14:27:44Z</time>
   </trkpt>
   <trkpt lat="46.2846946716309" lon="7.44757509231567">
    <ele>734.400024414062</ele>
    <time>2012-03-04T14:27:48Z</time>
   </trkpt>
   <trkpt lat="46.2848014831543" lon="7.44750642776489">
    <ele>735.622192382812</ele>
    <time>2012-03-04T14:27:53Z</time>
   </trkpt>
   <trkpt lat="46.2848243713379" lon="7.44749450683594">
    <ele>735.866638183594</ele>
    <time>2012-03-04T14:27:54Z</time>
   </trkpt>
   <trkpt lat="46.2848472595215" lon="7.4474778175354">
    <ele>736.111083984375</ele>
    <time>2012-03-04T14:27:55Z</time>
   </trkpt>
   <trkpt lat="46.2848663330078" lon="7.44746398925781">
    <ele>736.355529785156</ele>
    <time>2012-03-04T14:27:56Z</time>
   </trkpt>
   <trkpt lat="46.2848854064941" lon="7.44745397567749">
    <ele>736.599975585938</ele>
    <time>2012-03-04T14:27:57Z</time>
   </trkpt>
   <trkpt lat="46.2850189208984" lon="7.44742441177368">
    <ele>736.599975585938</ele>
    <time>2012-03-04T14:28:03Z</time>
   </trkpt>
   <trkpt lat="46.2850608825684" lon="7.44741678237915">
    <ele>737.266662597656</ele>
    <time>2012-03-04T14:28:05Z</time>
   </trkpt>
   <trkpt lat="46.285083770752" lon="7.4474139213562">
    <ele>737.599975585938</ele>
    <time>2012-03-04T14:28:06Z</time>
   </trkpt>
   <trkpt lat="46.2851066589356" lon="7.44741296768188">
    <ele>737.933288574219</ele>
    <time>2012-03-04T14:28:07Z</time>
   </trkpt>
   <trkpt lat="46.2851257324219" lon="7.44741487503052">
    <ele>738.266662597656</ele>
    <time>2012-03-04T14:28:08Z</time>
   </trkpt>
   <trkpt lat="46.2851486206055" lon="7.44741725921631">
    <ele>738.599975585938</ele>
    <time>2012-03-04T14:28:09Z</time>
   </trkpt>
   <trkpt lat="46.2852745056152" lon="7.44746589660644">
    <ele>738.599975585938</ele>
    <time>2012-03-04T14:28:15Z</time>
   </trkpt>
   <trkpt lat="46.285343170166" lon="7.44749736785889">
    <ele>739.341125488281</ele>
    <time>2012-03-04T14:28:18Z</time>
   </trkpt>
   <trkpt lat="46.2853622436523" lon="7.44751167297363">
    <ele>739.588195800781</ele>
    <time>2012-03-04T14:28:19Z</time>
   </trkpt>
   <trkpt lat="46.2853775024414" lon="7.44753074645996">
    <ele>739.835266113281</ele>
    <time>2012-03-04T14:28:20Z</time>
   </trkpt>
   <trkpt lat="46.2853965759277" lon="7.44754457473755">
    <ele>740.082336425781</ele>
    <time>2012-03-04T14:28:21Z</time>
   </trkpt>
   <trkpt lat="46.2854194641113" lon="7.44756078720093">
    <ele>740.329406738281</ele>
    <time>2012-03-04T14:28:22Z</time>
   </trkpt>
   <trkpt lat="46.2855415344238" lon="7.4476580619812">
    <ele>741.811767578125</ele>
    <time>2012-03-04T14:28:28Z</time>
   </trkpt>
   <trkpt lat="46.2855644226074" lon="7.44767570495606">
    <ele>742.058837890625</ele>
    <time>2012-03-04T14:28:29Z</time>
   </trkpt>
   <trkpt lat="46.285587310791" lon="7.44769239425659">
    <ele>742.305847167969</ele>
    <time>2012-03-04T14:28:30Z</time>
   </trkpt>
   <trkpt lat="46.2856063842773" lon="7.44770908355713">
    <ele>742.552917480469</ele>
    <time>2012-03-04T14:28:31Z</time>
   </trkpt>
   <trkpt lat="46.2856292724609" lon="7.44772863388062">
    <ele>742.799987792969</ele>
    <time>2012-03-04T14:28:32Z</time>
   </trkpt>
   <trkpt lat="46.2857360839844" lon="7.44782114028931">
    <ele>742.799987792969</ele>
    <time>2012-03-04T14:28:37Z</time>
   </trkpt>
   <trkpt lat="46.2859077453613" lon="7.4479398727417">
    <ele>743.674987792969</ele>
    <time>2012-03-04T14:28:44Z</time>
   </trkpt>
   <trkpt lat="46.2860527038574" lon="7.44800901412964">
    <ele>744.424987792969</ele>
    <time>2012-03-04T14:28:50Z</time>
   </trkpt>
   <trkpt lat="46.286075592041" lon="7.44801712036133">
    <ele>744.549987792969</ele>
    <time>2012-03-04T14:28:51Z</time>
   </trkpt>
   <trkpt lat="46.2861022949219" lon="7.44802474975586">
    <ele>744.674987792969</ele>
    <time>2012-03-04T14:28:52Z</time>
   </trkpt>
   <trkpt lat="46.2861289978027" lon="7.44802808761597">
    <ele>744.799987792969</ele>
    <time>2012-03-04T14:28:53Z</time>
   </trkpt>
   <trkpt lat="46.2862014770508" lon="7.44803237915039">
    <ele>744.799987792969</ele>
    <time>2012-03-04T14:28:56Z</time>
   </trkpt>
   <trkpt lat="46.2863388061523" lon="7.44803524017334">
    <ele>746.119995117188</ele>
    <time>2012-03-04T14:29:02Z</time>
   </trkpt>
   <trkpt lat="46.2863616943359" lon="7.44803619384766">
    <ele>746.339965820312</ele>
    <time>2012-03-04T14:29:03Z</time>
   </trkpt>
   <trkpt lat="46.2863807678223" lon="7.44803953170776">
    <ele>746.559997558594</ele>
    <time>2012-03-04T14:29:04Z</time>
   </trkpt>
   <trkpt lat="46.2864074707031" lon="7.44804382324219">
    <ele>746.780029296875</ele>
    <time>2012-03-04T14:29:05Z</time>
   </trkpt>
   <trkpt lat="46.2864265441894" lon="7.44804668426514">
    <ele>747</ele>
    <time>2012-03-04T14:29:06Z</time>
   </trkpt>
   <trkpt lat="46.2865180969238" lon="7.4480619430542">
    <ele>747</ele>
    <time>2012-03-04T14:29:10Z</time>
   </trkpt>
   <trkpt lat="46.2866134643555" lon="7.44809007644653">
    <ele>747.82666015625</ele>
    <time>2012-03-04T14:29:14Z</time>
   </trkpt>
   <trkpt lat="46.2866325378418" lon="7.44809818267822">
    <ele>748.033325195312</ele>
    <time>2012-03-04T14:29:15Z</time>
   </trkpt>
   <trkpt lat="46.2866592407227" lon="7.4481086730957">
    <ele>748.239990234375</ele>
    <time>2012-03-04T14:29:16Z</time>
   </trkpt>
   <trkpt lat="46.2866821289062" lon="7.44812154769898">
    <ele>748.446655273438</ele>
    <time>2012-03-04T14:29:17Z</time>
   </trkpt>
   <trkpt lat="46.2867050170898" lon="7.44813442230225">
    <ele>748.6533203125</ele>
    <time>2012-03-04T14:29:18Z</time>
   </trkpt>
   <trkpt lat="46.2868614196777" lon="7.44822072982788">
    <ele>750.099975585938</ele>
    <time>2012-03-04T14:29:25Z</time>
   </trkpt>
   <trkpt lat="46.2868766784668" lon="7.44823598861694">
    <ele>750.306701660156</ele>
    <time>2012-03-04T14:29:26Z</time>
   </trkpt>
   <trkpt lat="46.2868957519531" lon="7.44825267791748">
    <ele>750.513366699219</ele>
    <time>2012-03-04T14:29:27Z</time>
   </trkpt>
   <trkpt lat="46.2869148254394" lon="7.44826889038086">
    <ele>750.720031738281</ele>
    <time>2012-03-04T14:29:28Z</time>
   </trkpt>
   <trkpt lat="46.2869338989258" lon="7.44828271865845">
    <ele>750.926696777344</ele>
    <time>2012-03-04T14:29:29Z</time>
   </trkpt>
   <trkpt lat="46.2870712280273" lon="7.44838762283325">
    <ele>752.373352050781</ele>
    <time>2012-03-04T14:29:36Z</time>
   </trkpt>
   <trkpt lat="46.2870941162109" lon="7.44840478897095">
    <ele>752.580017089844</ele>
    <time>2012-03-04T14:29:37Z</time>
   </trkpt>
   <trkpt lat="46.2871170043945" lon="7.44842147827148">
    <ele>752.786682128906</ele>
    <time>2012-03-04T14:29:38Z</time>
   </trkpt>
   <trkpt lat="46.2871322631836" lon="7.4484395980835">
    <ele>752.993347167969</ele>
    <time>2012-03-04T14:29:39Z</time>
   </trkpt>
   <trkpt lat="46.2871513366699" lon="7.44845342636108">
    <ele>753.200012207031</ele>
    <time>2012-03-04T14:29:40Z</time>
   </trkpt>
   <trkpt lat="46.2872085571289" lon="7.4485011100769">
    <ele>753.200012207031</ele>
    <time>2012-03-04T14:29:43Z</time>
   </trkpt>
   <trkpt lat="46.2873115539551" lon="7.44857835769653">
    <ele>754.299987792969</ele>
    <time>2012-03-04T14:29:48Z</time>
   </trkpt>
   <trkpt lat="46.2873306274414" lon="7.44859457015991">
    <ele>754.52001953125</ele>
    <time>2012-03-04T14:29:49Z</time>
   </trkpt>
   <trkpt lat="46.2873497009277" lon="7.44861221313476">
    <ele>754.739990234375</ele>
    <time>2012-03-04T14:29:50Z</time>
   </trkpt>
   <trkpt lat="46.2873687744141" lon="7.44862842559814">
    <ele>754.960021972656</ele>
    <time>2012-03-04T14:29:51Z</time>
   </trkpt>
   <trkpt lat="46.2873878479004" lon="7.44864654541016">
    <ele>755.179992675781</ele>
    <time>2012-03-04T14:29:52Z</time>
   </trkpt>
   <trkpt lat="46.2875213623047" lon="7.44875907897949">
    <ele>756.719970703125</ele>
    <time>2012-03-04T14:29:59Z</time>
   </trkpt>
   <trkpt lat="46.2875442504883" lon="7.4487714767456">
    <ele>756.940002441406</ele>
    <time>2012-03-04T14:30:00Z</time>
   </trkpt>
   <trkpt lat="46.2875595092773" lon="7.44878911972046">
    <ele>757.159973144531</ele>
    <time>2012-03-04T14:30:01Z</time>
   </trkpt>
   <trkpt lat="46.2875785827637" lon="7.44880294799805">
    <ele>757.380004882812</ele>
    <time>2012-03-04T14:30:02Z</time>
   </trkpt>
   <trkpt lat="46.28759765625" lon="7.44882011413574">
    <ele>757.599975585938</ele>
    <time>2012-03-04T14:30:03Z</time>
   </trkpt>
   <trkpt lat="46.2876358032227" lon="7.44884634017944">
    <ele>757.599975585938</ele>
    <time>2012-03-04T14:30:05Z</time>
   </trkpt>
   <trkpt lat="46.287769317627" lon="7.44890642166138">
    <ele>758.799987792969</ele>
    <time>2012-03-04T14:30:11Z</time>
   </trkpt>
   <trkpt lat="46.2877960205078" lon="7.4489164352417">
    <ele>759</ele>
    <time>2012-03-04T14:30:12Z</time>
   </trkpt>
   <trkpt lat="46.2878150939941" lon="7.4489254951477">
    <ele>759.199951171875</ele>
    <time>2012-03-04T14:30:13Z</time>
   </trkpt>
   <trkpt lat="46.2878341674805" lon="7.44893550872803">
    <ele>759.399963378906</ele>
    <time>2012-03-04T14:30:14Z</time>
   </trkpt>
   <trkpt lat="46.2878570556641" lon="7.44894552230835">
    <ele>759.599975585938</ele>
    <time>2012-03-04T14:30:15Z</time>
   </trkpt>
   <trkpt lat="46.2879867553711" lon="7.44897985458374">
    <ele>759.599975585938</ele>
    <time>2012-03-04T14:30:21Z</time>
   </trkpt>
   <trkpt lat="46.2880325317383" lon="7.44899082183838">
    <ele>760.266662597656</ele>
    <time>2012-03-04T14:30:23Z</time>
   </trkpt>
   <trkpt lat="46.2880554199219" lon="7.44899797439575">
    <ele>760.599975585938</ele>
    <time>2012-03-04T14:30:24Z</time>
   </trkpt>
   <trkpt lat="46.2880744934082" lon="7.44900274276733">
    <ele>760.933288574219</ele>
    <time>2012-03-04T14:30:25Z</time>
   </trkpt>
   <trkpt lat="46.2880973815918" lon="7.44901037216186">
    <ele>761.266662597656</ele>
    <time>2012-03-04T14:30:26Z</time>
   </trkpt>
   <trkpt lat="46.2881164550781" lon="7.44902038574219">
    <ele>761.599975585938</ele>
    <time>2012-03-04T14:30:27Z</time>
   </trkpt>
   <trkpt lat="46.2881660461426" lon="7.4490327835083">
    <ele>761.599975585938</ele>
    <time>2012-03-04T14:30:29Z</time>
   </trkpt>
   <trkpt lat="46.288257598877" lon="7.44905042648315">
    <ele>762.599975585938</ele>
    <time>2012-03-04T14:30:33Z</time>
   </trkpt>
   <trkpt lat="46.2882804870606" lon="7.44905471801758">
    <ele>762.849975585938</ele>
    <time>2012-03-04T14:30:34Z</time>
   </trkpt>
   <trkpt lat="46.2882995605469" lon="7.44906139373779">
    <ele>763.099975585938</ele>
    <time>2012-03-04T14:30:35Z</time>
   </trkpt>
   <trkpt lat="46.2883224487305" lon="7.44906520843506">
    <ele>763.349975585938</ele>
    <time>2012-03-04T14:30:36Z</time>
   </trkpt>
   <trkpt lat="46.2883415222168" lon="7.44907188415527">
    <ele>763.599975585938</ele>
    <time>2012-03-04T14:30:37Z</time>
   </trkpt>
   <trkpt lat="46.2883834838867" lon="7.44908571243286">
    <ele>763.599975585938</ele>
    <time>2012-03-04T14:30:39Z</time>
   </trkpt>
   <trkpt lat="46.2885398864746" lon="7.44912433624268">
    <ele>765</ele>
    <time>2012-03-04T14:30:46Z</time>
   </trkpt>
   <trkpt lat="46.2885551452637" lon="7.44912767410278">
    <ele>765.200012207031</ele>
    <time>2012-03-04T14:30:47Z</time>
   </trkpt>
   <trkpt lat="46.2885780334473" lon="7.44912719726562">
    <ele>765.399963378906</ele>
    <time>2012-03-04T14:30:48Z</time>
   </trkpt>
   <trkpt lat="46.2886009216309" lon="7.44913291931152">
    <ele>765.599975585938</ele>
    <time>2012-03-04T14:30:49Z</time>
   </trkpt>
   <trkpt lat="46.2886276245117" lon="7.44913625717163">
    <ele>765.799987792969</ele>
    <time>2012-03-04T14:30:50Z</time>
   </trkpt>
   <trkpt lat="46.2886772155762" lon="7.44915056228638">
    <ele>765.799987792969</ele>
    <time>2012-03-04T14:30:52Z</time>
   </trkpt>
   <trkpt lat="46.2887954711914" lon="7.44918775558472">
    <ele>767.133361816406</ele>
    <time>2012-03-04T14:30:57Z</time>
   </trkpt>
   <trkpt lat="46.2888145446777" lon="7.44919919967651">
    <ele>767.400024414062</ele>
    <time>2012-03-04T14:30:58Z</time>
   </trkpt>
   <trkpt lat="46.2888374328613" lon="7.44920492172241">
    <ele>767.666687011719</ele>
    <time>2012-03-04T14:30:59Z</time>
   </trkpt>
   <trkpt lat="46.2888603210449" lon="7.44922161102295">
    <ele>767.933349609375</ele>
    <time>2012-03-04T14:31:00Z</time>
   </trkpt>
   <trkpt lat="46.2888832092285" lon="7.44923973083496">
    <ele>768.200012207031</ele>
    <time>2012-03-04T14:31:01Z</time>
   </trkpt>
   <trkpt lat="46.2889022827148" lon="7.44925451278686">
    <ele>768.200012207031</ele>
    <time>2012-03-04T14:31:02Z</time>
   </trkpt>
   <trkpt lat="46.2889785766602" lon="7.44931030273438">
    <ele>769.200012207031</ele>
    <time>2012-03-04T14:31:06Z</time>
   </trkpt>
   <trkpt lat="46.2890014648438" lon="7.44932556152344">
    <ele>769.450012207031</ele>
    <time>2012-03-04T14:31:07Z</time>
   </trkpt>
   <trkpt lat="46.2890243530273" lon="7.44933748245239">
    <ele>769.700012207031</ele>
    <time>2012-03-04T14:31:08Z</time>
   </trkpt>
   <trkpt lat="46.2890472412109" lon="7.44934511184692">
    <ele>769.950012207031</ele>
    <time>2012-03-04T14:31:09Z</time>
   </trkpt>
   <trkpt lat="46.2890739440918" lon="7.44935035705566">
    <ele>770.200012207031</ele>
    <time>2012-03-04T14:31:10Z</time>
   </trkpt>
   <trkpt lat="46.2891426086426" lon="7.4493818283081">
    <ele>770.200012207031</ele>
    <time>2012-03-04T14:31:13Z</time>
   </trkpt>
   <trkpt lat="46.2892761230469" lon="7.44945669174194">
    <ele>771.666687011719</ele>
    <time>2012-03-04T14:31:19Z</time>
   </trkpt>
   <trkpt lat="46.2892990112305" lon="7.44946765899658">
    <ele>771.9111328125</ele>
    <time>2012-03-04T14:31:20Z</time>
   </trkpt>
   <trkpt lat="46.2893218994141" lon="7.44948101043701">
    <ele>772.155578613281</ele>
    <time>2012-03-04T14:31:21Z</time>
   </trkpt>
   <trkpt lat="46.2893371582031" lon="7.44948625564575">
    <ele>772.400024414062</ele>
    <time>2012-03-04T14:31:22Z</time>
   </trkpt>
   <trkpt lat="46.2893981933594" lon="7.44952249526978">
    <ele>772.400024414062</ele>
    <time>2012-03-04T14:31:25Z</time>
   </trkpt>
   <trkpt lat="46.2895050048828" lon="7.44959402084351">
    <ele>773.511108398438</ele>
    <time>2012-03-04T14:31:30Z</time>
   </trkpt>
   <trkpt lat="46.2895278930664" lon="7.4495997428894">
    <ele>773.733337402344</ele>
    <time>2012-03-04T14:31:31Z</time>
   </trkpt>
   <trkpt lat="46.2895545959473" lon="7.44960308074951">
    <ele>773.95556640625</ele>
    <time>2012-03-04T14:31:32Z</time>
   </trkpt>
   <trkpt lat="46.2895774841309" lon="7.44961166381836">
    <ele>774.177795410156</ele>
    <time>2012-03-04T14:31:33Z</time>
   </trkpt>
   <trkpt lat="46.2896003723144" lon="7.44962358474732">
    <ele>774.400024414062</ele>
    <time>2012-03-04T14:31:34Z</time>
   </trkpt>
   <trkpt lat="46.2896690368652" lon="7.44966554641724">
    <ele>774.400024414062</ele>
    <time>2012-03-04T14:31:37Z</time>
   </trkpt>
   <trkpt lat="46.2897109985352" lon="7.44969177246094">
    <ele>775.066711425781</ele>
    <time>2012-03-04T14:31:39Z</time>
   </trkpt>
   <trkpt lat="46.2897300720215" lon="7.44970369338989">
    <ele>775.400024414062</ele>
    <time>2012-03-04T14:31:40Z</time>
   </trkpt>
   <trkpt lat="46.2897491455078" lon="7.44971227645874">
    <ele>775.733337402344</ele>
    <time>2012-03-04T14:31:41Z</time>
   </trkpt>
   <trkpt lat="46.2897644042969" lon="7.44971990585327">
    <ele>776.066711425781</ele>
    <time>2012-03-04T14:31:42Z</time>
   </trkpt>
   <trkpt lat="46.2897834777832" lon="7.44973182678223">
    <ele>776.400024414062</ele>
    <time>2012-03-04T14:31:43Z</time>
   </trkpt>
   <trkpt lat="46.2899360656738" lon="7.4498291015625">
    <ele>776.400024414062</ele>
    <time>2012-03-04T14:31:50Z</time>
   </trkpt>
   <trkpt lat="46.2899856567383" lon="7.44986248016357">
    <ele>777.066711425781</ele>
    <time>2012-03-04T14:31:52Z</time>
   </trkpt>
   <trkpt lat="46.2900085449219" lon="7.44987392425537">
    <ele>777.400024414062</ele>
    <time>2012-03-04T14:31:53Z</time>
   </trkpt>
   <trkpt lat="46.2900314331055" lon="7.44989156723022">
    <ele>777.733337402344</ele>
    <time>2012-03-04T14:31:54Z</time>
   </trkpt>
   <trkpt lat="46.2900505065918" lon="7.4499101638794">
    <ele>778.066711425781</ele>
    <time>2012-03-04T14:31:55Z</time>
   </trkpt>
   <trkpt lat="46.2900733947754" lon="7.44993114471436">
    <ele>778.400024414062</ele>
    <time>2012-03-04T14:31:56Z</time>
   </trkpt>
   <trkpt lat="46.2900924682617" lon="7.44995975494385">
    <ele>778.400024414062</ele>
    <time>2012-03-04T14:31:57Z</time>
   </trkpt>
   <trkpt lat="46.2901229858398" lon="7.45011758804321">
    <ele>778.950012207031</ele>
    <time>2012-03-04T14:32:01Z</time>
   </trkpt>
   <trkpt lat="46.2900924682617" lon="7.45018672943115">
    <ele>779.224975585938</ele>
    <time>2012-03-04T14:32:03Z</time>
   </trkpt>
   <trkpt lat="46.2900390625" lon="7.45022344589233">
    <ele>779.5</ele>
    <time>2012-03-04T14:32:05Z</time>
   </trkpt>
   <trkpt lat="46.2899360656738" lon="7.45023155212402">
    <ele>780.1875</ele>
    <time>2012-03-04T14:32:10Z</time>
   </trkpt>
   <trkpt lat="46.2899131774902" lon="7.45022964477539">
    <ele>780.324951171875</ele>
    <time>2012-03-04T14:32:11Z</time>
   </trkpt>
   <trkpt lat="46.2898902893066" lon="7.45022439956665">
    <ele>780.462463378906</ele>
    <time>2012-03-04T14:32:12Z</time>
   </trkpt>
   <trkpt lat="46.2898712158203" lon="7.45021915435791">
    <ele>780.599975585938</ele>
    <time>2012-03-04T14:32:13Z</time>
   </trkpt>
   <trkpt lat="46.2897911071777" lon="7.45020246505737">
    <ele>780.599975585938</ele>
    <time>2012-03-04T14:32:17Z</time>
   </trkpt>
   <trkpt lat="46.2897720336914" lon="7.45020151138306">
    <ele>781</ele>
    <time>2012-03-04T14:32:18Z</time>
   </trkpt>
   <trkpt lat="46.2897529602051" lon="7.45020389556885">
    <ele>781.399963378906</ele>
    <time>2012-03-04T14:32:19Z</time>
   </trkpt>
   <trkpt lat="46.2897338867188" lon="7.45020771026611">
    <ele>781.799987792969</ele>
    <time>2012-03-04T14:32:20Z</time>
   </trkpt>
   <trkpt lat="46.2897071838379" lon="7.45020580291748">
    <ele>782.199951171875</ele>
    <time>2012-03-04T14:32:21Z</time>
   </trkpt>
   <trkpt lat="46.2896842956543" lon="7.45020294189453">
    <ele>782.599975585938</ele>
    <time>2012-03-04T14:32:22Z</time>
   </trkpt>
   <trkpt lat="46.2896118164062" lon="7.45020484924316">
    <ele>782.599975585938</ele>
    <time>2012-03-04T14:32:25Z</time>
   </trkpt>
   <trkpt lat="46.2895965576172" lon="7.45021629333496">
    <ele>782.799987792969</ele>
    <time>2012-03-04T14:32:26Z</time>
   </trkpt>
   <trkpt lat="46.2895393371582" lon="7.45026254653931">
    <ele>783.399963378906</ele>
    <time>2012-03-04T14:32:29Z</time>
   </trkpt>
   <trkpt lat="46.2895011901856" lon="7.45031070709228">
    <ele>783.799987792969</ele>
    <time>2012-03-04T14:32:31Z</time>
   </trkpt>
   <trkpt lat="46.2894859313965" lon="7.45033359527588">
    <ele>784</ele>
    <time>2012-03-04T14:32:32Z</time>
   </trkpt>
   <trkpt lat="46.2894706726074" lon="7.450355052948">
    <ele>784.199951171875</ele>
    <time>2012-03-04T14:32:33Z</time>
   </trkpt>
   <trkpt lat="46.2894515991211" lon="7.45037746429443">
    <ele>784.399963378906</ele>
    <time>2012-03-04T14:32:34Z</time>
   </trkpt>
   <trkpt lat="46.289436340332" lon="7.45040273666382">
    <ele>784.599975585938</ele>
    <time>2012-03-04T14:32:35Z</time>
   </trkpt>
   <trkpt lat="46.2893257141113" lon="7.45055818557739">
    <ele>784.599975585938</ele>
    <time>2012-03-04T14:32:42Z</time>
   </trkpt>
   <trkpt lat="46.2893104553223" lon="7.45058012008667">
    <ele>785.039978027344</ele>
    <time>2012-03-04T14:32:43Z</time>
   </trkpt>
   <trkpt lat="46.2892951965332" lon="7.45060682296753">
    <ele>785.47998046875</ele>
    <time>2012-03-04T14:32:44Z</time>
   </trkpt>
   <trkpt lat="46.2892799377441" lon="7.45063304901123">
    <ele>785.919982910156</ele>
    <time>2012-03-04T14:32:45Z</time>
   </trkpt>
   <trkpt lat="46.2892646789551" lon="7.45066213607788">
    <ele>786.359985351562</ele>
    <time>2012-03-04T14:32:46Z</time>
   </trkpt>
   <trkpt lat="46.289249420166" lon="7.45069026947022">
    <ele>786.799987792969</ele>
    <time>2012-03-04T14:32:47Z</time>
   </trkpt>
   <trkpt lat="46.2892379760742" lon="7.45071744918823">
    <ele>786.799987792969</ele>
    <time>2012-03-04T14:32:48Z</time>
   </trkpt>
   <trkpt lat="46.2891273498535" lon="7.45089960098267">
    <ele>788.200012207031</ele>
    <time>2012-03-04T14:32:55Z</time>
   </trkpt>
   <trkpt lat="46.2891159057617" lon="7.45092296600342">
    <ele>788.400024414062</ele>
    <time>2012-03-04T14:32:56Z</time>
   </trkpt>
   <trkpt lat="46.2891006469727" lon="7.45094633102417">
    <ele>788.599975585938</ele>
    <time>2012-03-04T14:32:57Z</time>
   </trkpt>
   <trkpt lat="46.2890853881836" lon="7.45097160339356">
    <ele>788.799987792969</ele>
    <time>2012-03-04T14:32:58Z</time>
   </trkpt>
   <trkpt lat="46.2890701293945" lon="7.45099878311157">
    <ele>789</ele>
    <time>2012-03-04T14:32:59Z</time>
   </trkpt>
   <trkpt lat="46.2890472412109" lon="7.45105791091919">
    <ele>789</ele>
    <time>2012-03-04T14:33:01Z</time>
   </trkpt>
   <trkpt lat="46.2889976501465" lon="7.45116853713989">
    <ele>790</ele>
    <time>2012-03-04T14:33:05Z</time>
   </trkpt>
   <trkpt lat="46.2889862060547" lon="7.45120191574097">
    <ele>790.25</ele>
    <time>2012-03-04T14:33:06Z</time>
   </trkpt>
   <trkpt lat="46.2889747619629" lon="7.45123100280762">
    <ele>790.5</ele>
    <time>2012-03-04T14:33:07Z</time>
   </trkpt>
   <trkpt lat="46.2889709472656" lon="7.45126104354858">
    <ele>790.75</ele>
    <time>2012-03-04T14:33:08Z</time>
   </trkpt>
   <trkpt lat="46.2889595031738" lon="7.4512882232666">
    <ele>791</ele>
    <time>2012-03-04T14:33:09Z</time>
   </trkpt>
   <trkpt lat="46.2889518737793" lon="7.45141935348511">
    <ele>791</ele>
    <time>2012-03-04T14:33:13Z</time>
   </trkpt>
   <trkpt lat="46.2889366149902" lon="7.45151662826538">
    <ele>791.857116699219</ele>
    <time>2012-03-04T14:33:16Z</time>
   </trkpt>
   <trkpt lat="46.2889289855957" lon="7.45155000686646">
    <ele>792.142883300781</ele>
    <time>2012-03-04T14:33:17Z</time>
   </trkpt>
   <trkpt lat="46.2889251708984" lon="7.4515814781189">
    <ele>792.428588867188</ele>
    <time>2012-03-04T14:33:18Z</time>
   </trkpt>
   <trkpt lat="46.2889251708984" lon="7.45161628723144">
    <ele>792.714294433594</ele>
    <time>2012-03-04T14:33:19Z</time>
   </trkpt>
   <trkpt lat="46.2889289855957" lon="7.45165109634399">
    <ele>793</ele>
    <time>2012-03-04T14:33:20Z</time>
   </trkpt>
   <trkpt lat="46.2889251708984" lon="7.45188522338867">
    <ele>793</ele>
    <time>2012-03-04T14:33:27Z</time>
   </trkpt>
   <trkpt lat="46.2889251708984" lon="7.45194911956787">
    <ele>793.733337402344</ele>
    <time>2012-03-04T14:33:29Z</time>
   </trkpt>
   <trkpt lat="46.2889251708984" lon="7.45198059082031">
    <ele>794.099975585938</ele>
    <time>2012-03-04T14:33:30Z</time>
   </trkpt>
   <trkpt lat="46.2889289855957" lon="7.4520149230957">
    <ele>794.466674804688</ele>
    <time>2012-03-04T14:33:31Z</time>
   </trkpt>
   <trkpt lat="46.288932800293" lon="7.45204734802246">
    <ele>794.833374023438</ele>
    <time>2012-03-04T14:33:32Z</time>
   </trkpt>
   <trkpt lat="46.2889366149902" lon="7.45207977294922">
    <ele>795.200012207031</ele>
    <time>2012-03-04T14:33:33Z</time>
   </trkpt>
   <trkpt lat="46.2889404296875" lon="7.45214653015137">
    <ele>795.200012207031</ele>
    <time>2012-03-04T14:33:35Z</time>
   </trkpt>
   <trkpt lat="46.2889366149902" lon="7.45233488082886">
    <ele>796.400024414062</ele>
    <time>2012-03-04T14:33:41Z</time>
   </trkpt>
   <trkpt lat="46.288932800293" lon="7.45236539840698">
    <ele>796.600036621094</ele>
    <time>2012-03-04T14:33:42Z</time>
   </trkpt>
   <trkpt lat="46.2889366149902" lon="7.45239639282226">
    <ele>796.799987792969</ele>
    <time>2012-03-04T14:33:43Z</time>
   </trkpt>
   <trkpt lat="46.2889366149902" lon="7.4524302482605">
    <ele>797</ele>
    <time>2012-03-04T14:33:44Z</time>
   </trkpt>
   <trkpt lat="46.2889404296875" lon="7.45246696472168">
    <ele>797.200012207031</ele>
    <time>2012-03-04T14:33:45Z</time>
   </trkpt>
   <trkpt lat="46.2889404296875" lon="7.45259809494018">
    <ele>797.200012207031</ele>
    <time>2012-03-04T14:33:49Z</time>
   </trkpt>
   <trkpt lat="46.2889442443848" lon="7.45268726348877">
    <ele>798.05712890625</ele>
    <time>2012-03-04T14:33:52Z</time>
   </trkpt>
   <trkpt lat="46.2889442443848" lon="7.45272159576416">
    <ele>798.342895507812</ele>
    <time>2012-03-04T14:33:53Z</time>
   </trkpt>
   <trkpt lat="46.2889442443848" lon="7.45275735855102">
    <ele>798.628601074219</ele>
    <time>2012-03-04T14:33:54Z</time>
   </trkpt>
   <trkpt lat="46.2889404296875" lon="7.45279264450073">
    <ele>798.914306640625</ele>
    <time>2012-03-04T14:33:55Z</time>
   </trkpt>
   <trkpt lat="46.2889366149902" lon="7.45282649993896">
    <ele>799.200012207031</ele>
    <time>2012-03-04T14:33:56Z</time>
   </trkpt>
   <trkpt lat="46.2888793945312" lon="7.45300817489624">
    <ele>799.200012207031</ele>
    <time>2012-03-04T14:34:02Z</time>
   </trkpt>
   <trkpt lat="46.2888488769531" lon="7.45309782028198">
    <ele>800.228576660156</ele>
    <time>2012-03-04T14:34:05Z</time>
   </trkpt>
   <trkpt lat="46.2888450622559" lon="7.45312786102295">
    <ele>800.571411132812</ele>
    <time>2012-03-04T14:34:06Z</time>
   </trkpt>
   <trkpt lat="46.2888298034668" lon="7.45315170288086">
    <ele>800.914245605469</ele>
    <time>2012-03-04T14:34:07Z</time>
   </trkpt>
   <trkpt lat="46.288818359375" lon="7.4531774520874">
    <ele>801.257141113281</ele>
    <time>2012-03-04T14:34:08Z</time>
   </trkpt>
   <trkpt lat="46.2888031005859" lon="7.45320177078247">
    <ele>801.599975585938</ele>
    <time>2012-03-04T14:34:09Z</time>
   </trkpt>
   <trkpt lat="46.2886810302734" lon="7.45334196090698">
    <ele>801.599975585938</ele>
    <time>2012-03-04T14:34:16Z</time>
   </trkpt>
   <trkpt lat="46.2886619567871" lon="7.45335578918457">
    <ele>802</ele>
    <time>2012-03-04T14:34:17Z</time>
   </trkpt>
   <trkpt lat="46.2886390686035" lon="7.45337200164795">
    <ele>802.399963378906</ele>
    <time>2012-03-04T14:34:18Z</time>
   </trkpt>
   <trkpt lat="46.2886161804199" lon="7.45339250564575">
    <ele>802.799987792969</ele>
    <time>2012-03-04T14:34:19Z</time>
   </trkpt>
   <trkpt lat="46.2885971069336" lon="7.45341110229492">
    <ele>803.199951171875</ele>
    <time>2012-03-04T14:34:20Z</time>
   </trkpt>
   <trkpt lat="46.2885856628418" lon="7.45343542098999">
    <ele>803.599975585938</ele>
    <time>2012-03-04T14:34:21Z</time>
   </trkpt>
   <trkpt lat="46.28857421875" lon="7.45346593856812">
    <ele>803.599975585938</ele>
    <time>2012-03-04T14:34:22Z</time>
   </trkpt>
   <trkpt lat="46.2885589599609" lon="7.45364284515381">
    <ele>804.385681152344</ele>
    <time>2012-03-04T14:34:27Z</time>
   </trkpt>
   <trkpt lat="46.2886047363281" lon="7.45376825332642">
    <ele>805.17138671875</ele>
    <time>2012-03-04T14:34:32Z</time>
   </trkpt>
   <trkpt lat="46.288631439209" lon="7.45378255844116">
    <ele>805.328552246094</ele>
    <time>2012-03-04T14:34:33Z</time>
   </trkpt>
   <trkpt lat="46.2886543273926" lon="7.45378923416138">
    <ele>805.485717773438</ele>
    <time>2012-03-04T14:34:34Z</time>
   </trkpt>
   <trkpt lat="46.2886772155762" lon="7.45379257202148">
    <ele>805.642822265625</ele>
    <time>2012-03-04T14:34:35Z</time>
   </trkpt>
   <trkpt lat="46.288703918457" lon="7.45379638671875">
    <ele>805.799987792969</ele>
    <time>2012-03-04T14:34:36Z</time>
   </trkpt>
   <trkpt lat="46.2887573242188" lon="7.45380020141602">
    <ele>805.799987792969</ele>
    <time>2012-03-04T14:34:38Z</time>
   </trkpt>
   <trkpt lat="46.2888793945312" lon="7.45381593704224">
    <ele>806.487487792969</ele>
    <time>2012-03-04T14:34:43Z</time>
   </trkpt>
   <trkpt lat="46.2890167236328" lon="7.45380353927612">
    <ele>807.3125</ele>
    <time>2012-03-04T14:34:49Z</time>
   </trkpt>
   <trkpt lat="46.2890319824219" lon="7.45379829406738">
    <ele>807.450012207031</ele>
    <time>2012-03-04T14:34:50Z</time>
   </trkpt>
   <trkpt lat="46.2890472412109" lon="7.45379590988159">
    <ele>807.587524414062</ele>
    <time>2012-03-04T14:34:51Z</time>
   </trkpt>
   <trkpt lat="46.2890625" lon="7.45379495620728">
    <ele>807.724975585938</ele>
    <time>2012-03-04T14:34:52Z</time>
   </trkpt>
   <trkpt lat="46.2890853881836" lon="7.45379066467285">
    <ele>807.862487792969</ele>
    <time>2012-03-04T14:34:53Z</time>
   </trkpt>
   <trkpt lat="46.2891082763672" lon="7.45378255844116">
    <ele>808</ele>
    <time>2012-03-04T14:34:54Z</time>
   </trkpt>
   <trkpt lat="46.289134979248" lon="7.4537672996521">
    <ele>808</ele>
    <time>2012-03-04T14:34:55Z</time>
   </trkpt>
   <trkpt lat="46.2892723083496" lon="7.45368671417236">
    <ele>809.099975585938</ele>
    <time>2012-03-04T14:35:01Z</time>
   </trkpt>
   <trkpt lat="46.2893447875977" lon="7.45364570617676">
    <ele>809.650024414062</ele>
    <time>2012-03-04T14:35:04Z</time>
   </trkpt>
   <trkpt lat="46.2893676757812" lon="7.45363235473633">
    <ele>809.833374023438</ele>
    <time>2012-03-04T14:35:05Z</time>
   </trkpt>
   <trkpt lat="46.2893943786621" lon="7.45361566543579">
    <ele>810.016662597656</ele>
    <time>2012-03-04T14:35:06Z</time>
   </trkpt>
   <trkpt lat="46.2894172668457" lon="7.4535984992981">
    <ele>810.200012207031</ele>
    <time>2012-03-04T14:35:07Z</time>
   </trkpt>
   <trkpt lat="46.2895660400391" lon="7.45346975326538">
    <ele>810.200012207031</ele>
    <time>2012-03-04T14:35:14Z</time>
   </trkpt>
   <trkpt lat="46.2896575927734" lon="7.45345401763916">
    <ele>811.200012207031</ele>
    <time>2012-03-04T14:35:18Z</time>
   </trkpt>
   <trkpt lat="46.2896766662598" lon="7.45345306396484">
    <ele>811.450012207031</ele>
    <time>2012-03-04T14:35:19Z</time>
   </trkpt>
   <trkpt lat="46.2896995544434" lon="7.45345640182495">
    <ele>811.700012207031</ele>
    <time>2012-03-04T14:35:20Z</time>
   </trkpt>
   <trkpt lat="46.289722442627" lon="7.45346784591675">
    <ele>811.950012207031</ele>
    <time>2012-03-04T14:35:21Z</time>
   </trkpt>
   <trkpt lat="46.289737701416" lon="7.45347929000854">
    <ele>812.200012207031</ele>
    <time>2012-03-04T14:35:22Z</time>
   </trkpt>
   <trkpt lat="46.289794921875" lon="7.45351839065552">
    <ele>812.200012207031</ele>
    <time>2012-03-04T14:35:25Z</time>
   </trkpt>
   <trkpt lat="46.2899055480957" lon="7.45357513427734">
    <ele>813.311096191406</ele>
    <time>2012-03-04T14:35:30Z</time>
   </trkpt>
   <trkpt lat="46.289924621582" lon="7.45358467102051">
    <ele>813.533325195312</ele>
    <time>2012-03-04T14:35:31Z</time>
   </trkpt>
   <trkpt lat="46.2899398803711" lon="7.45360136032104">
    <ele>813.755554199219</ele>
    <time>2012-03-04T14:35:32Z</time>
   </trkpt>
   <trkpt lat="46.2899551391602" lon="7.45360898971558">
    <ele>813.977783203125</ele>
    <time>2012-03-04T14:35:33Z</time>
   </trkpt>
   <trkpt lat="46.2899742126465" lon="7.45362043380737">
    <ele>814.200012207031</ele>
    <time>2012-03-04T14:35:34Z</time>
   </trkpt>
   <trkpt lat="46.2900619506836" lon="7.45368003845215">
    <ele>814.200012207031</ele>
    <time>2012-03-04T14:35:38Z</time>
   </trkpt>
   <trkpt lat="46.2901725769043" lon="7.45378255844116">
    <ele>815.52001953125</ele>
    <time>2012-03-04T14:35:44Z</time>
   </trkpt>
   <trkpt lat="46.2901916503906" lon="7.45380449295044">
    <ele>815.739990234375</ele>
    <time>2012-03-04T14:35:45Z</time>
   </trkpt>
   <trkpt lat="46.2902069091797" lon="7.45382165908814">
    <ele>815.960021972656</ele>
    <time>2012-03-04T14:35:46Z</time>
   </trkpt>
   <trkpt lat="46.290225982666" lon="7.4538369178772">
    <ele>816.180053710938</ele>
    <time>2012-03-04T14:35:47Z</time>
   </trkpt>
   <trkpt lat="46.2902412414551" lon="7.45386075973511">
    <ele>816.400024414062</ele>
    <time>2012-03-04T14:35:48Z</time>
   </trkpt>
   <trkpt lat="46.2903060913086" lon="7.45395803451538">
    <ele>816.400024414062</ele>
    <time>2012-03-04T14:35:52Z</time>
   </trkpt>
   <trkpt lat="46.2904090881348" lon="7.45409297943115">
    <ele>817.511108398438</ele>
    <time>2012-03-04T14:35:57Z</time>
   </trkpt>
   <trkpt lat="46.2904281616211" lon="7.45412635803223">
    <ele>817.733337402344</ele>
    <time>2012-03-04T14:35:58Z</time>
   </trkpt>
   <trkpt lat="46.2904434204102" lon="7.45415544509888">
    <ele>817.95556640625</ele>
    <time>2012-03-04T14:35:59Z</time>
   </trkpt>
   <trkpt lat="46.2904624938965" lon="7.4541802406311">
    <ele>818.177795410156</ele>
    <time>2012-03-04T14:36:00Z</time>
   </trkpt>
   <trkpt lat="46.2904777526856" lon="7.45420551300049">
    <ele>818.400024414062</ele>
    <time>2012-03-04T14:36:01Z</time>
   </trkpt>
   <trkpt lat="46.2905540466309" lon="7.4542932510376">
    <ele>818.400024414062</ele>
    <time>2012-03-04T14:36:05Z</time>
   </trkpt>
   <trkpt lat="46.2906608581543" lon="7.45435476303101">
    <ele>819.622192382812</ele>
    <time>2012-03-04T14:36:10Z</time>
   </trkpt>
   <trkpt lat="46.2906799316406" lon="7.45436191558838">
    <ele>819.866638183594</ele>
    <time>2012-03-04T14:36:11Z</time>
   </trkpt>
   <trkpt lat="46.290699005127" lon="7.45436763763428">
    <ele>820.111083984375</ele>
    <time>2012-03-04T14:36:12Z</time>
   </trkpt>
   <trkpt lat="46.2907218933106" lon="7.45436906814575">
    <ele>820.355529785156</ele>
    <time>2012-03-04T14:36:13Z</time>
   </trkpt>
   <trkpt lat="46.2907447814941" lon="7.45436143875122">
    <ele>820.599975585938</ele>
    <time>2012-03-04T14:36:14Z</time>
   </trkpt>
   <trkpt lat="46.2908172607422" lon="7.45431852340698">
    <ele>820.599975585938</ele>
    <time>2012-03-04T14:36:17Z</time>
   </trkpt>
   <trkpt lat="46.2909469604492" lon="7.4542064666748">
    <ele>821.523071289062</ele>
    <time>2012-03-04T14:36:23Z</time>
   </trkpt>
   <trkpt lat="46.291015625" lon="7.45415878295898">
    <ele>821.984619140625</ele>
    <time>2012-03-04T14:36:26Z</time>
   </trkpt>
   <trkpt lat="46.2910423278809" lon="7.4541506767273">
    <ele>822.138427734375</ele>
    <time>2012-03-04T14:36:27Z</time>
   </trkpt>
   <trkpt lat="46.2910652160644" lon="7.45414113998413">
    <ele>822.292297363281</ele>
    <time>2012-03-04T14:36:28Z</time>
   </trkpt>
   <trkpt lat="46.291088104248" lon="7.45413780212402">
    <ele>822.446105957031</ele>
    <time>2012-03-04T14:36:29Z</time>
   </trkpt>
   <trkpt lat="46.2911109924316" lon="7.4541335105896">
    <ele>822.599975585938</ele>
    <time>2012-03-04T14:36:30Z</time>
   </trkpt>
   <trkpt lat="46.2912559509277" lon="7.45409440994263">
    <ele>822.599975585938</ele>
    <time>2012-03-04T14:36:36Z</time>
   </trkpt>
   <trkpt lat="46.2913208007812" lon="7.4540753364563">
    <ele>823.542846679688</ele>
    <time>2012-03-04T14:36:39Z</time>
   </trkpt>
   <trkpt lat="46.2913436889648" lon="7.45407390594482">
    <ele>823.857116699219</ele>
    <time>2012-03-04T14:36:40Z</time>
   </trkpt>
   <trkpt lat="46.2913703918457" lon="7.45406818389893">
    <ele>824.17138671875</ele>
    <time>2012-03-04T14:36:41Z</time>
   </trkpt>
   <trkpt lat="46.2913932800293" lon="7.45406484603882">
    <ele>824.485717773438</ele>
    <time>2012-03-04T14:36:42Z</time>
   </trkpt>
   <trkpt lat="46.2914161682129" lon="7.45406246185303">
    <ele>824.799987792969</ele>
    <time>2012-03-04T14:36:43Z</time>
   </trkpt>
   <trkpt lat="46.2914428710938" lon="7.45405769348144">
    <ele>824.799987792969</ele>
    <time>2012-03-04T14:36:44Z</time>
   </trkpt>
   <trkpt lat="46.291576385498" lon="7.45401334762573">
    <ele>825.815368652344</ele>
    <time>2012-03-04T14:36:50Z</time>
   </trkpt>
   <trkpt lat="46.2916374206543" lon="7.45398473739624">
    <ele>826.323059082031</ele>
    <time>2012-03-04T14:36:53Z</time>
   </trkpt>
   <trkpt lat="46.2916564941406" lon="7.45396661758423">
    <ele>826.492309570312</ele>
    <time>2012-03-04T14:36:54Z</time>
   </trkpt>
   <trkpt lat="46.291675567627" lon="7.45395183563232">
    <ele>826.661560058594</ele>
    <time>2012-03-04T14:36:55Z</time>
   </trkpt>
   <trkpt lat="46.2916984558106" lon="7.45393657684326">
    <ele>826.830749511719</ele>
    <time>2012-03-04T14:36:56Z</time>
   </trkpt>
   <trkpt lat="46.2917213439941" lon="7.45392513275146">
    <ele>827</ele>
    <time>2012-03-04T14:36:57Z</time>
   </trkpt>
   <trkpt lat="46.2918319702148" lon="7.4538402557373">
    <ele>827</ele>
    <time>2012-03-04T14:37:03Z</time>
   </trkpt>
   <trkpt lat="46.2919158935547" lon="7.45376110076904">
    <ele>828.142883300781</ele>
    <time>2012-03-04T14:37:07Z</time>
   </trkpt>
   <trkpt lat="46.2919311523438" lon="7.45373630523682">
    <ele>828.428588867188</ele>
    <time>2012-03-04T14:37:08Z</time>
   </trkpt>
   <trkpt lat="46.2919464111328" lon="7.4537091255188">
    <ele>828.714294433594</ele>
    <time>2012-03-04T14:37:09Z</time>
   </trkpt>
   <trkpt lat="46.2919692993164" lon="7.45369052886963">
    <ele>829</ele>
    <time>2012-03-04T14:37:10Z</time>
   </trkpt>
   <trkpt lat="46.2920265197754" lon="7.45359039306641">
    <ele>829</ele>
    <time>2012-03-04T14:37:14Z</time>
   </trkpt>
   <trkpt lat="46.2920951843262" lon="7.45336484909058">
    <ele>830.272705078125</ele>
    <time>2012-03-04T14:37:21Z</time>
   </trkpt>
   <trkpt lat="46.2921028137207" lon="7.45333290100098">
    <ele>830.454528808594</ele>
    <time>2012-03-04T14:37:22Z</time>
   </trkpt>
   <trkpt lat="46.2921104431152" lon="7.45330429077148">
    <ele>830.636352539062</ele>
    <time>2012-03-04T14:37:23Z</time>
   </trkpt>
   <trkpt lat="46.292121887207" lon="7.45327711105347">
    <ele>830.818176269531</ele>
    <time>2012-03-04T14:37:24Z</time>
   </trkpt>
   <trkpt lat="46.2921295166016" lon="7.45324659347534">
    <ele>831</ele>
    <time>2012-03-04T14:37:25Z</time>
   </trkpt>
   <trkpt lat="46.2921600341797" lon="7.45316123962402">
    <ele>831</ele>
    <time>2012-03-04T14:37:28Z</time>
   </trkpt>
   <trkpt lat="46.2922019958496" lon="7.4530439376831">
    <ele>832.142883300781</ele>
    <time>2012-03-04T14:37:32Z</time>
   </trkpt>
   <trkpt lat="46.2922134399414" lon="7.45301675796509">
    <ele>832.428588867188</ele>
    <time>2012-03-04T14:37:33Z</time>
   </trkpt>
   <trkpt lat="46.2922210693359" lon="7.45297861099243">
    <ele>832.714294433594</ele>
    <time>2012-03-04T14:37:34Z</time>
   </trkpt>
   <trkpt lat="46.2922325134277" lon="7.45294523239136">
    <ele>833</ele>
    <time>2012-03-04T14:37:35Z</time>
   </trkpt>
   <trkpt lat="46.2923431396484" lon="7.45280838012695">
    <ele>833</ele>
    <time>2012-03-04T14:37:41Z</time>
   </trkpt>
   <trkpt lat="46.2924270629883" lon="7.45274972915649">
    <ele>834.200012207031</ele>
    <time>2012-03-04T14:37:45Z</time>
   </trkpt>
   <trkpt lat="46.2924461364746" lon="7.45273542404175">
    <ele>834.5</ele>
    <time>2012-03-04T14:37:46Z</time>
   </trkpt>
   <trkpt lat="46.2924690246582" lon="7.45272207260132">
    <ele>834.800048828125</ele>
    <time>2012-03-04T14:37:47Z</time>
   </trkpt>
   <trkpt lat="46.2924919128418" lon="7.45270347595215">
    <ele>835.100036621094</ele>
    <time>2012-03-04T14:37:48Z</time>
   </trkpt>
   <trkpt lat="46.2925109863281" lon="7.45268297195435">
    <ele>835.400024414062</ele>
    <time>2012-03-04T14:37:49Z</time>
   </trkpt>
   <trkpt lat="46.292610168457" lon="7.45256757736206">
    <ele>835.400024414062</ele>
    <time>2012-03-04T14:37:54Z</time>
   </trkpt>
   <trkpt lat="46.2926292419434" lon="7.45254182815552">
    <ele>835.900024414062</ele>
    <time>2012-03-04T14:37:55Z</time>
   </trkpt>
   <trkpt lat="46.2926406860352" lon="7.45251941680908">
    <ele>836.400024414062</ele>
    <time>2012-03-04T14:37:56Z</time>
   </trkpt>
   <trkpt lat="46.2926559448242" lon="7.45249223709106">
    <ele>836.900024414062</ele>
    <time>2012-03-04T14:37:57Z</time>
   </trkpt>
   <trkpt lat="46.292667388916" lon="7.45247030258179">
    <ele>837.400024414062</ele>
    <time>2012-03-04T14:37:58Z</time>
   </trkpt>
   <trkpt lat="46.2927169799805" lon="7.45232629776001">
    <ele>837.400024414062</ele>
    <time>2012-03-04T14:38:03Z</time>
   </trkpt>
   <trkpt lat="46.2927780151367" lon="7.4521541595459">
    <ele>838.600036621094</ele>
    <time>2012-03-04T14:38:09Z</time>
   </trkpt>
   <trkpt lat="46.2927856445312" lon="7.45212268829346">
    <ele>838.800048828125</ele>
    <time>2012-03-04T14:38:10Z</time>
   </trkpt>
   <trkpt lat="46.2927932739258" lon="7.45209360122681">
    <ele>839</ele>
    <time>2012-03-04T14:38:11Z</time>
   </trkpt>
   <trkpt lat="46.292797088623" lon="7.45206356048584">
    <ele>839.200012207031</ele>
    <time>2012-03-04T14:38:12Z</time>
   </trkpt>
   <trkpt lat="46.2928009033203" lon="7.45203256607056">
    <ele>839.400024414062</ele>
    <time>2012-03-04T14:38:13Z</time>
   </trkpt>
   <trkpt lat="46.2928237915039" lon="7.45190238952637">
    <ele>839.400024414062</ele>
    <time>2012-03-04T14:38:17Z</time>
   </trkpt>
   <trkpt lat="46.292839050293" lon="7.45176696777344">
    <ele>840.657165527344</ele>
    <time>2012-03-04T14:38:21Z</time>
   </trkpt>
   <trkpt lat="46.2928428649902" lon="7.45173263549805">
    <ele>840.971435546875</ele>
    <time>2012-03-04T14:38:22Z</time>
   </trkpt>
   <trkpt lat="46.2928428649902" lon="7.45169496536255">
    <ele>841.285705566406</ele>
    <time>2012-03-04T14:38:23Z</time>
   </trkpt>
   <trkpt lat="46.2928466796875" lon="7.45166063308716">
    <ele>841.599975585938</ele>
    <time>2012-03-04T14:38:24Z</time>
   </trkpt>
   <trkpt lat="46.2929039001465" lon="7.45145320892334">
    <ele>841.599975585938</ele>
    <time>2012-03-04T14:38:31Z</time>
   </trkpt>
   <trkpt lat="46.2929458618164" lon="7.45133590698242">
    <ele>842.599975585938</ele>
    <time>2012-03-04T14:38:35Z</time>
   </trkpt>
   <trkpt lat="46.2929534912109" lon="7.4512996673584">
    <ele>842.849975585938</ele>
    <time>2012-03-04T14:38:36Z</time>
   </trkpt>
   <trkpt lat="46.2929611206055" lon="7.45126819610596">
    <ele>843.099975585938</ele>
    <time>2012-03-04T14:38:37Z</time>
   </trkpt>
   <trkpt lat="46.2929725646973" lon="7.45123481750488">
    <ele>843.349975585938</ele>
    <time>2012-03-04T14:38:38Z</time>
   </trkpt>
   <trkpt lat="46.2929840087891" lon="7.45120668411255">
    <ele>843.599975585938</ele>
    <time>2012-03-04T14:38:39Z</time>
   </trkpt>
   <trkpt lat="46.2930450439453" lon="7.45105743408203">
    <ele>843.599975585938</ele>
    <time>2012-03-04T14:38:44Z</time>
   </trkpt>
   <trkpt lat="46.2930603027344" lon="7.4510350227356">
    <ele>843.819946289062</ele>
    <time>2012-03-04T14:38:45Z</time>
   </trkpt>
   <trkpt lat="46.293140411377" lon="7.45093107223511">
    <ele>844.699951171875</ele>
    <time>2012-03-04T14:38:49Z</time>
   </trkpt>
   <trkpt lat="46.2931594848633" lon="7.45091438293457">
    <ele>844.919982910156</ele>
    <time>2012-03-04T14:38:50Z</time>
   </trkpt>
   <trkpt lat="46.2931785583496" lon="7.4508957862854">
    <ele>845.140014648438</ele>
    <time>2012-03-04T14:38:51Z</time>
   </trkpt>
   <trkpt lat="46.2932014465332" lon="7.45087480545044">
    <ele>845.359985351562</ele>
    <time>2012-03-04T14:38:52Z</time>
   </trkpt>
   <trkpt lat="46.2932205200195" lon="7.45085859298706">
    <ele>845.579956054688</ele>
    <time>2012-03-04T14:38:53Z</time>
   </trkpt>
   <trkpt lat="46.2932395935059" lon="7.450843334198">
    <ele>845.799987792969</ele>
    <time>2012-03-04T14:38:54Z</time>
   </trkpt>
   <trkpt lat="46.2932777404785" lon="7.45081377029419">
    <ele>845.799987792969</ele>
    <time>2012-03-04T14:38:56Z</time>
   </trkpt>
   <trkpt lat="46.2934074401856" lon="7.45075607299805">
    <ele>847.119995117188</ele>
    <time>2012-03-04T14:39:02Z</time>
   </trkpt>
   <trkpt lat="46.2934265136719" lon="7.45074653625488">
    <ele>847.339965820312</ele>
    <time>2012-03-04T14:39:03Z</time>
   </trkpt>
   <trkpt lat="46.2934494018555" lon="7.45073366165161">
    <ele>847.559997558594</ele>
    <time>2012-03-04T14:39:04Z</time>
   </trkpt>
   <trkpt lat="46.2934722900391" lon="7.4507246017456">
    <ele>847.780029296875</ele>
    <time>2012-03-04T14:39:05Z</time>
   </trkpt>
   <trkpt lat="46.2934951782227" lon="7.45071887969971">
    <ele>848</ele>
    <time>2012-03-04T14:39:06Z</time>
   </trkpt>
   <trkpt lat="46.293586730957" lon="7.45069169998169">
    <ele>848</ele>
    <time>2012-03-04T14:39:10Z</time>
   </trkpt>
   <trkpt lat="46.2937088012695" lon="7.4506630897522">
    <ele>849.111083984375</ele>
    <time>2012-03-04T14:39:15Z</time>
   </trkpt>
   <trkpt lat="46.2937240600586" lon="7.45066213607788">
    <ele>849.333312988281</ele>
    <time>2012-03-04T14:39:16Z</time>
   </trkpt>
   <trkpt lat="46.2937431335449" lon="7.45065927505493">
    <ele>849.555541992188</ele>
    <time>2012-03-04T14:39:17Z</time>
   </trkpt>
   <trkpt lat="46.2937622070312" lon="7.45064306259155">
    <ele>849.777770996094</ele>
    <time>2012-03-04T14:39:18Z</time>
   </trkpt>
   <trkpt lat="46.2937850952148" lon="7.45062589645386">
    <ele>850</ele>
    <time>2012-03-04T14:39:19Z</time>
   </trkpt>
   <trkpt lat="46.2938613891602" lon="7.45059585571289">
    <ele>850</ele>
    <time>2012-03-04T14:39:22Z</time>
   </trkpt>
   <trkpt lat="46.2939376831055" lon="7.45048379898071">
    <ele>851</ele>
    <time>2012-03-04T14:39:26Z</time>
   </trkpt>
   <trkpt lat="46.2939529418945" lon="7.45043802261352">
    <ele>851.25</ele>
    <time>2012-03-04T14:39:27Z</time>
   </trkpt>
   <trkpt lat="46.2939682006836" lon="7.45040035247803">
    <ele>851.5</ele>
    <time>2012-03-04T14:39:28Z</time>
   </trkpt>
   <trkpt lat="46.2939910888672" lon="7.45036745071411">
    <ele>851.75</ele>
    <time>2012-03-04T14:39:29Z</time>
   </trkpt>
   <trkpt lat="46.2940063476562" lon="7.45033740997314">
    <ele>852</ele>
    <time>2012-03-04T14:39:30Z</time>
   </trkpt>
   <trkpt lat="46.2940521240234" lon="7.45024585723877">
    <ele>852</ele>
    <time>2012-03-04T14:39:33Z</time>
   </trkpt>
   <trkpt lat="46.294132232666" lon="7.45002365112305">
    <ele>853.320007324219</ele>
    <time>2012-03-04T14:39:39Z</time>
   </trkpt>
   <trkpt lat="46.2941513061523" lon="7.44998550415039">
    <ele>853.5400390625</ele>
    <time>2012-03-04T14:39:40Z</time>
   </trkpt>
   <trkpt lat="46.2941703796387" lon="7.44996118545532">
    <ele>853.760009765625</ele>
    <time>2012-03-04T14:39:41Z</time>
   </trkpt>
   <trkpt lat="46.2941856384277" lon="7.44993305206299">
    <ele>853.97998046875</ele>
    <time>2012-03-04T14:39:42Z</time>
   </trkpt>
   <trkpt lat="46.2942047119141" lon="7.44990825653076">
    <ele>854.200012207031</ele>
    <time>2012-03-04T14:39:43Z</time>
   </trkpt>
   <trkpt lat="46.2942276000977" lon="7.44988393783569">
    <ele>854.200012207031</ele>
    <time>2012-03-04T14:39:44Z</time>
   </trkpt>
   <trkpt lat="46.2943725585938" lon="7.44973659515381">
    <ele>855.52001953125</ele>
    <time>2012-03-04T14:39:50Z</time>
   </trkpt>
   <trkpt lat="46.2943954467773" lon="7.44971752166748">
    <ele>855.739990234375</ele>
    <time>2012-03-04T14:39:51Z</time>
   </trkpt>
   <trkpt lat="46.2944183349609" lon="7.44970178604126">
    <ele>855.960021972656</ele>
    <time>2012-03-04T14:39:52Z</time>
   </trkpt>
   <trkpt lat="46.2944412231445" lon="7.44968605041504">
    <ele>856.180053710938</ele>
    <time>2012-03-04T14:39:53Z</time>
   </trkpt>
   <trkpt lat="46.2944602966309" lon="7.4496660232544">
    <ele>856.400024414062</ele>
    <time>2012-03-04T14:39:54Z</time>
   </trkpt>
   <trkpt lat="46.2945137023926" lon="7.44960308074951">
    <ele>856.400024414062</ele>
    <time>2012-03-04T14:39:57Z</time>
   </trkpt>
   <trkpt lat="46.2946090698242" lon="7.44954347610474">
    <ele>857.400024414062</ele>
    <time>2012-03-04T14:40:01Z</time>
   </trkpt>
   <trkpt lat="46.2946243286133" lon="7.44952440261841">
    <ele>857.650024414062</ele>
    <time>2012-03-04T14:40:02Z</time>
   </trkpt>
   <trkpt lat="46.2946472167969" lon="7.44951009750366">
    <ele>857.900024414062</ele>
    <time>2012-03-04T14:40:03Z</time>
   </trkpt>
   <trkpt lat="46.2946662902832" lon="7.44949865341186">
    <ele>858.150024414062</ele>
    <time>2012-03-04T14:40:04Z</time>
   </trkpt>
   <trkpt lat="46.2946891784668" lon="7.44949007034302">
    <ele>858.400024414062</ele>
    <time>2012-03-04T14:40:05Z</time>
   </trkpt>
   <trkpt lat="46.2948036193848" lon="7.44943761825562">
    <ele>858.400024414062</ele>
    <time>2012-03-04T14:40:10Z</time>
   </trkpt>
   <trkpt lat="46.2948837280273" lon="7.44943284988403">
    <ele>859.257141113281</ele>
    <time>2012-03-04T14:40:13Z</time>
   </trkpt>
   <trkpt lat="46.2949066162109" lon="7.44943189620972">
    <ele>859.542907714844</ele>
    <time>2012-03-04T14:40:14Z</time>
   </trkpt>
   <trkpt lat="46.2949295043945" lon="7.44943523406982">
    <ele>859.82861328125</ele>
    <time>2012-03-04T14:40:15Z</time>
   </trkpt>
   <trkpt lat="46.2949523925781" lon="7.44943475723267">
    <ele>860.114318847656</ele>
    <time>2012-03-04T14:40:16Z</time>
   </trkpt>
   <trkpt lat="46.2949752807617" lon="7.44943523406982">
    <ele>860.400024414062</ele>
    <time>2012-03-04T14:40:17Z</time>
   </trkpt>
   <trkpt lat="46.2951393127441" lon="7.44944095611572">
    <ele>860.400024414062</ele>
    <time>2012-03-04T14:40:24Z</time>
   </trkpt>
   <trkpt lat="46.295166015625" lon="7.44943809509277">
    <ele>860.840026855469</ele>
    <time>2012-03-04T14:40:25Z</time>
   </trkpt>
   <trkpt lat="46.2951889038086" lon="7.44943904876709">
    <ele>861.280029296875</ele>
    <time>2012-03-04T14:40:26Z</time>
   </trkpt>
   <trkpt lat="46.2952117919922" lon="7.44943952560425">
    <ele>861.719970703125</ele>
    <time>2012-03-04T14:40:27Z</time>
   </trkpt>
   <trkpt lat="46.2952346801758" lon="7.44944190979004">
    <ele>862.159973144531</ele>
    <time>2012-03-04T14:40:28Z</time>
   </trkpt>
   <trkpt lat="46.2952575683594" lon="7.44944763183594">
    <ele>862.599975585938</ele>
    <time>2012-03-04T14:40:29Z</time>
   </trkpt>
   <trkpt lat="46.2953300476074" lon="7.44944620132446">
    <ele>862.599975585938</ele>
    <time>2012-03-04T14:40:32Z</time>
   </trkpt>
   <trkpt lat="46.2955055236816" lon="7.44945287704468">
    <ele>864</ele>
    <time>2012-03-04T14:40:39Z</time>
   </trkpt>
   <trkpt lat="46.2955284118652" lon="7.44945764541626">
    <ele>864.200012207031</ele>
    <time>2012-03-04T14:40:40Z</time>
   </trkpt>
   <trkpt lat="46.2955513000488" lon="7.44945764541626">
    <ele>864.399963378906</ele>
    <time>2012-03-04T14:40:41Z</time>
   </trkpt>
   <trkpt lat="46.2955741882324" lon="7.44946098327637">
    <ele>864.599975585938</ele>
    <time>2012-03-04T14:40:42Z</time>
   </trkpt>
   <trkpt lat="46.295597076416" lon="7.44946765899658">
    <ele>864.799987792969</ele>
    <time>2012-03-04T14:40:43Z</time>
   </trkpt>
   <trkpt lat="46.2956199645996" lon="7.44946813583374">
    <ele>864.799987792969</ele>
    <time>2012-03-04T14:40:44Z</time>
   </trkpt>
   <trkpt lat="46.2957801818848" lon="7.44946956634522">
    <ele>866.072692871094</ele>
    <time>2012-03-04T14:40:51Z</time>
   </trkpt>
   <trkpt lat="46.2958068847656" lon="7.44947290420532">
    <ele>866.254516601562</ele>
    <time>2012-03-04T14:40:52Z</time>
   </trkpt>
   <trkpt lat="46.295825958252" lon="7.4494833946228">
    <ele>866.436340332031</ele>
    <time>2012-03-04T14:40:53Z</time>
   </trkpt>
   <trkpt lat="46.2958488464356" lon="7.44949960708618">
    <ele>866.6181640625</ele>
    <time>2012-03-04T14:40:54Z</time>
   </trkpt>
   <trkpt lat="46.2958717346191" lon="7.44951105117798">
    <ele>866.799987792969</ele>
    <time>2012-03-04T14:40:55Z</time>
   </trkpt>
   <trkpt lat="46.2959175109863" lon="7.44954967498779">
    <ele>866.799987792969</ele>
    <time>2012-03-04T14:40:57Z</time>
   </trkpt>
   <trkpt lat="46.2960243225098" lon="7.44967126846314">
    <ele>868.119995117188</ele>
    <time>2012-03-04T14:41:03Z</time>
   </trkpt>
   <trkpt lat="46.2960395812988" lon="7.44969606399536">
    <ele>868.339965820312</ele>
    <time>2012-03-04T14:41:04Z</time>
   </trkpt>
   <trkpt lat="46.2960548400879" lon="7.4497218132019">
    <ele>868.559997558594</ele>
    <time>2012-03-04T14:41:05Z</time>
   </trkpt>
   <trkpt lat="46.296070098877" lon="7.44974565505982">
    <ele>868.780029296875</ele>
    <time>2012-03-04T14:41:06Z</time>
   </trkpt>
   <trkpt lat="46.2960891723633" lon="7.44976997375488">
    <ele>869</ele>
    <time>2012-03-04T14:41:07Z</time>
   </trkpt>
   <trkpt lat="46.2961959838867" lon="7.44990587234497">
    <ele>869</ele>
    <time>2012-03-04T14:41:13Z</time>
   </trkpt>
   <trkpt lat="46.296215057373" lon="7.44992733001709">
    <ele>869.5</ele>
    <time>2012-03-04T14:41:14Z</time>
   </trkpt>
   <trkpt lat="46.2962341308594" lon="7.44994926452637">
    <ele>870</ele>
    <time>2012-03-04T14:41:15Z</time>
   </trkpt>
   <trkpt lat="46.296257019043" lon="7.44996881484985">
    <ele>870.5</ele>
    <time>2012-03-04T14:41:16Z</time>
   </trkpt>
   <trkpt lat="46.2962837219238" lon="7.44998407363892">
    <ele>871</ele>
    <time>2012-03-04T14:41:17Z</time>
   </trkpt>
   <trkpt lat="46.2963523864746" lon="7.45003414154053">
    <ele>871</ele>
    <time>2012-03-04T14:41:20Z</time>
   </trkpt>
   <trkpt lat="46.2964820861816" lon="7.45013904571533">
    <ele>872.320007324219</ele>
    <time>2012-03-04T14:41:26Z</time>
   </trkpt>
   <trkpt lat="46.2965087890625" lon="7.45015668869018">
    <ele>872.5400390625</ele>
    <time>2012-03-04T14:41:27Z</time>
   </trkpt>
   <trkpt lat="46.2965278625488" lon="7.45017385482788">
    <ele>872.760009765625</ele>
    <time>2012-03-04T14:41:28Z</time>
   </trkpt>
   <trkpt lat="46.2965545654297" lon="7.45018768310547">
    <ele>872.97998046875</ele>
    <time>2012-03-04T14:41:29Z</time>
   </trkpt>
   <trkpt lat="46.2965774536133" lon="7.45020341873169">
    <ele>873.200012207031</ele>
    <time>2012-03-04T14:41:30Z</time>
   </trkpt>
   <trkpt lat="46.2967300415039" lon="7.45025253295898">
    <ele>873.200012207031</ele>
    <time>2012-03-04T14:41:36Z</time>
   </trkpt>
   <trkpt lat="46.2968063354492" lon="7.45025777816772">
    <ele>874.142883300781</ele>
    <time>2012-03-04T14:41:39Z</time>
   </trkpt>
   <trkpt lat="46.2968292236328" lon="7.45025396347046">
    <ele>874.457153320312</ele>
    <time>2012-03-04T14:41:40Z</time>
   </trkpt>
   <trkpt lat="46.2968521118164" lon="7.45024394989014">
    <ele>874.771423339844</ele>
    <time>2012-03-04T14:41:41Z</time>
   </trkpt>
   <trkpt lat="46.296875" lon="7.4502329826355">
    <ele>875.085754394531</ele>
    <time>2012-03-04T14:41:42Z</time>
   </trkpt>
   <trkpt lat="46.2968978881836" lon="7.45022296905518">
    <ele>875.400024414062</ele>
    <time>2012-03-04T14:41:43Z</time>
   </trkpt>
   <trkpt lat="46.2969245910644" lon="7.45021390914917">
    <ele>875.400024414062</ele>
    <time>2012-03-04T14:41:44Z</time>
   </trkpt>
   <trkpt lat="46.297046661377" lon="7.45015525817871">
    <ele>876.352416992188</ele>
    <time>2012-03-04T14:41:49Z</time>
   </trkpt>
   <trkpt lat="46.2971000671387" lon="7.45012950897217">
    <ele>876.733337402344</ele>
    <time>2012-03-04T14:41:51Z</time>
   </trkpt>
   <trkpt lat="46.2971267700195" lon="7.45012474060059">
    <ele>876.923828125</ele>
    <time>2012-03-04T14:41:52Z</time>
   </trkpt>
   <trkpt lat="46.2971534729004" lon="7.45011806488037">
    <ele>877.114318847656</ele>
    <time>2012-03-04T14:41:53Z</time>
   </trkpt>
   <trkpt lat="46.2971801757812" lon="7.45011615753174">
    <ele>877.304809570312</ele>
    <time>2012-03-04T14:41:54Z</time>
   </trkpt>
   <trkpt lat="46.2972030639648" lon="7.45011281967163">
    <ele>877.495239257812</ele>
    <time>2012-03-04T14:41:55Z</time>
   </trkpt>
   <trkpt lat="46.2973785400391" lon="7.45009994506836">
    <ele>878.82861328125</ele>
    <time>2012-03-04T14:42:02Z</time>
   </trkpt>
   <trkpt lat="46.2974014282227" lon="7.4501051902771">
    <ele>879.01904296875</ele>
    <time>2012-03-04T14:42:03Z</time>
   </trkpt>
   <trkpt lat="46.2974319458008" lon="7.45010852813721">
    <ele>879.209533691406</ele>
    <time>2012-03-04T14:42:04Z</time>
   </trkpt>
   <trkpt lat="46.2974548339844" lon="7.45011758804321">
    <ele>879.400024414062</ele>
    <time>2012-03-04T14:42:05Z</time>
   </trkpt>
   <trkpt lat="46.2975540161133" lon="7.45012712478638">
    <ele>879.400024414062</ele>
    <time>2012-03-04T14:42:09Z</time>
   </trkpt>
   <trkpt lat="46.2976760864258" lon="7.45014810562134">
    <ele>880.511108398438</ele>
    <time>2012-03-04T14:42:14Z</time>
   </trkpt>
   <trkpt lat="46.2976951599121" lon="7.45015335083008">
    <ele>880.733337402344</ele>
    <time>2012-03-04T14:42:15Z</time>
   </trkpt>
   <trkpt lat="46.2977142333984" lon="7.45016574859619">
    <ele>880.95556640625</ele>
    <time>2012-03-04T14:42:16Z</time>
   </trkpt>
   <trkpt lat="46.2977409362793" lon="7.45017242431641">
    <ele>881.177795410156</ele>
    <time>2012-03-04T14:42:17Z</time>
   </trkpt>
   <trkpt lat="46.2977638244629" lon="7.45019006729126">
    <ele>881.400024414062</ele>
    <time>2012-03-04T14:42:18Z</time>
   </trkpt>
   <trkpt lat="46.2978706359863" lon="7.45023584365845">
    <ele>881.400024414062</ele>
    <time>2012-03-04T14:42:22Z</time>
   </trkpt>
   <trkpt lat="46.297981262207" lon="7.45028829574585">
    <ele>882.542907714844</ele>
    <time>2012-03-04T14:42:26Z</time>
   </trkpt>
   <trkpt lat="46.2980117797852" lon="7.45030164718628">
    <ele>882.82861328125</ele>
    <time>2012-03-04T14:42:27Z</time>
   </trkpt>
   <trkpt lat="46.298038482666" lon="7.45031547546387">
    <ele>883.114318847656</ele>
    <time>2012-03-04T14:42:28Z</time>
   </trkpt>
   <trkpt lat="46.2980651855469" lon="7.45032835006714">
    <ele>883.400024414062</ele>
    <time>2012-03-04T14:42:29Z</time>
   </trkpt>
   <trkpt lat="46.2980918884277" lon="7.45033502578735">
    <ele>883.400024414062</ele>
    <time>2012-03-04T14:42:30Z</time>
   </trkpt>
   <trkpt lat="46.2982940673828" lon="7.45044231414795">
    <ele>884.866638183594</ele>
    <time>2012-03-04T14:42:38Z</time>
   </trkpt>
   <trkpt lat="46.2983169555664" lon="7.45046663284302">
    <ele>885.049987792969</ele>
    <time>2012-03-04T14:42:39Z</time>
   </trkpt>
   <trkpt lat="46.2983436584473" lon="7.45048666000366">
    <ele>885.233337402344</ele>
    <time>2012-03-04T14:42:40Z</time>
   </trkpt>
   <trkpt lat="46.2983665466309" lon="7.45050621032715">
    <ele>885.416625976562</ele>
    <time>2012-03-04T14:42:41Z</time>
   </trkpt>
   <trkpt lat="46.2983894348144" lon="7.45052909851074">
    <ele>885.599975585938</ele>
    <time>2012-03-04T14:42:42Z</time>
   </trkpt>
   <trkpt lat="46.2984352111816" lon="7.45056915283203">
    <ele>885.599975585938</ele>
    <time>2012-03-04T14:42:44Z</time>
   </trkpt>
   <trkpt lat="46.2985725402832" lon="7.45068597793579">
    <ele>886.933288574219</ele>
    <time>2012-03-04T14:42:50Z</time>
   </trkpt>
   <trkpt lat="46.2985954284668" lon="7.45070600509644">
    <ele>887.155517578125</ele>
    <time>2012-03-04T14:42:51Z</time>
   </trkpt>
   <trkpt lat="46.2986145019531" lon="7.45072507858276">
    <ele>887.377746582031</ele>
    <time>2012-03-04T14:42:52Z</time>
   </trkpt>
   <trkpt lat="46.2986335754394" lon="7.45074892044067">
    <ele>887.599975585938</ele>
    <time>2012-03-04T14:42:53Z</time>
   </trkpt>
   <trkpt lat="46.2986793518066" lon="7.45086574554443">
    <ele>887.599975585938</ele>
    <time>2012-03-04T14:42:57Z</time>
   </trkpt>
   <trkpt lat="46.2986145019531" lon="7.45089054107666">
    <ele>888.099975585938</ele>
    <time>2012-03-04T14:43:00Z</time>
   </trkpt>
   <trkpt lat="46.2985305786133" lon="7.4508843421936">
    <ele>888.599975585938</ele>
    <time>2012-03-04T14:43:03Z</time>
   </trkpt>
   <trkpt lat="46.2984771728516" lon="7.4508786201477">
    <ele>888.933288574219</ele>
    <time>2012-03-04T14:43:05Z</time>
   </trkpt>
   <trkpt lat="46.2984466552734" lon="7.45087337493896">
    <ele>889.099975585938</ele>
    <time>2012-03-04T14:43:06Z</time>
   </trkpt>
   <trkpt lat="46.2984199523926" lon="7.4508752822876">
    <ele>889.266662597656</ele>
    <time>2012-03-04T14:43:07Z</time>
   </trkpt>
   <trkpt lat="46.2983932495117" lon="7.45087957382202">
    <ele>889.433288574219</ele>
    <time>2012-03-04T14:43:08Z</time>
   </trkpt>
   <trkpt lat="46.2983665466309" lon="7.45087957382202">
    <ele>889.599975585938</ele>
    <time>2012-03-04T14:43:09Z</time>
   </trkpt>
   <trkpt lat="46.2982711791992" lon="7.45090961456299">
    <ele>889.599975585938</ele>
    <time>2012-03-04T14:43:13Z</time>
   </trkpt>
   <trkpt lat="46.2981452941894" lon="7.45098257064819">
    <ele>890.849975585938</ele>
    <time>2012-03-04T14:43:18Z</time>
   </trkpt>
   <trkpt lat="46.2981262207031" lon="7.451003074646">
    <ele>891.099975585938</ele>
    <time>2012-03-04T14:43:19Z</time>
   </trkpt>
   <trkpt lat="46.2981033325195" lon="7.45102787017822">
    <ele>891.349975585938</ele>
    <time>2012-03-04T14:43:20Z</time>
   </trkpt>
   <trkpt lat="46.2980804443359" lon="7.45104598999024">
    <ele>891.599975585938</ele>
    <time>2012-03-04T14:43:21Z</time>
   </trkpt>
   <trkpt lat="46.297966003418" lon="7.45117616653442">
    <ele>891.599975585938</ele>
    <time>2012-03-04T14:43:27Z</time>
   </trkpt>
   <trkpt lat="46.2978820800781" lon="7.45125865936279">
    <ele>892.699951171875</ele>
    <time>2012-03-04T14:43:31Z</time>
   </trkpt>
   <trkpt lat="46.2978591918945" lon="7.4512734413147">
    <ele>892.974975585938</ele>
    <time>2012-03-04T14:43:32Z</time>
   </trkpt>
   <trkpt lat="46.2978401184082" lon="7.45128965377808">
    <ele>893.25</ele>
    <time>2012-03-04T14:43:33Z</time>
   </trkpt>
   <trkpt lat="46.2978172302246" lon="7.45130920410156">
    <ele>893.524963378906</ele>
    <time>2012-03-04T14:43:34Z</time>
   </trkpt>
   <trkpt lat="46.2977981567383" lon="7.45132684707642">
    <ele>893.799987792969</ele>
    <time>2012-03-04T14:43:35Z</time>
   </trkpt>
   <trkpt lat="46.2977714538574" lon="7.45133781433106">
    <ele>893.799987792969</ele>
    <time>2012-03-04T14:43:36Z</time>
   </trkpt>
   <trkpt lat="46.2976226806641" lon="7.45147562026978">
    <ele>895.072692871094</ele>
    <time>2012-03-04T14:43:43Z</time>
   </trkpt>
   <trkpt lat="46.2976036071777" lon="7.45149087905884">
    <ele>895.254516601562</ele>
    <time>2012-03-04T14:43:44Z</time>
   </trkpt>
   <trkpt lat="46.2975845336914" lon="7.45150661468506">
    <ele>895.436340332031</ele>
    <time>2012-03-04T14:43:45Z</time>
   </trkpt>
   <trkpt lat="46.2975654602051" lon="7.45152807235718">
    <ele>895.6181640625</ele>
    <time>2012-03-04T14:43:46Z</time>
   </trkpt>
   <trkpt lat="46.2975425720215" lon="7.45154285430908">
    <ele>895.799987792969</ele>
    <time>2012-03-04T14:43:47Z</time>
   </trkpt>
   <trkpt lat="46.297492980957" lon="7.45158338546753">
    <ele>895.799987792969</ele>
    <time>2012-03-04T14:43:49Z</time>
   </trkpt>
   <trkpt lat="46.2974090576172" lon="7.45165634155274">
    <ele>896.900024414062</ele>
    <time>2012-03-04T14:43:53Z</time>
   </trkpt>
   <trkpt lat="46.2973861694336" lon="7.45167589187622">
    <ele>897.174987792969</ele>
    <time>2012-03-04T14:43:54Z</time>
   </trkpt>
   <trkpt lat="46.2973670959473" lon="7.45169115066528">
    <ele>897.450012207031</ele>
    <time>2012-03-04T14:43:55Z</time>
   </trkpt>
   <trkpt lat="46.2973480224609" lon="7.45171451568604">
    <ele>897.724975585938</ele>
    <time>2012-03-04T14:43:56Z</time>
   </trkpt>
   <trkpt lat="46.2973213195801" lon="7.451735496521">
    <ele>898</ele>
    <time>2012-03-04T14:43:57Z</time>
   </trkpt>
   <trkpt lat="46.2972145080566" lon="7.45183515548706">
    <ele>898</ele>
    <time>2012-03-04T14:44:02Z</time>
   </trkpt>
   <trkpt lat="46.2971725463867" lon="7.45187997817993">
    <ele>898.880004882812</ele>
    <time>2012-03-04T14:44:04Z</time>
   </trkpt>
   <trkpt lat="46.2971496582031" lon="7.45189714431763">
    <ele>899.320007324219</ele>
    <time>2012-03-04T14:44:05Z</time>
   </trkpt>
   <trkpt lat="46.2971343994141" lon="7.45192289352417">
    <ele>899.760009765625</ele>
    <time>2012-03-04T14:44:06Z</time>
   </trkpt>
   <trkpt lat="46.2971153259277" lon="7.4519453048706">
    <ele>900.200012207031</ele>
    <time>2012-03-04T14:44:07Z</time>
   </trkpt>
   <trkpt lat="46.2970962524414" lon="7.45197010040283">
    <ele>900.200012207031</ele>
    <time>2012-03-04T14:44:08Z</time>
   </trkpt>
   <trkpt lat="46.297004699707" lon="7.45209789276123">
    <ele>901.033325195312</ele>
    <time>2012-03-04T14:44:13Z</time>
   </trkpt>
   <trkpt lat="46.2969627380371" lon="7.45218849182129">
    <ele>901.533325195312</ele>
    <time>2012-03-04T14:44:16Z</time>
   </trkpt>
   <trkpt lat="46.2969512939453" lon="7.452223777771">
    <ele>901.700012207031</ele>
    <time>2012-03-04T14:44:17Z</time>
   </trkpt>
   <trkpt lat="46.2969398498535" lon="7.45225286483765">
    <ele>901.86669921875</ele>
    <time>2012-03-04T14:44:18Z</time>
   </trkpt>
   <trkpt lat="46.2969360351562" lon="7.45228576660156">
    <ele>902.033325195312</ele>
    <time>2012-03-04T14:44:19Z</time>
   </trkpt>
   <trkpt lat="46.2969245910644" lon="7.45231914520264">
    <ele>902.200012207031</ele>
    <time>2012-03-04T14:44:20Z</time>
   </trkpt>
   <trkpt lat="46.2969093322754" lon="7.45239353179932">
    <ele>902.200012207031</ele>
    <time>2012-03-04T14:44:22Z</time>
   </trkpt>
   <trkpt lat="46.2968864440918" lon="7.45260667800903">
    <ele>903.400024414062</ele>
    <time>2012-03-04T14:44:28Z</time>
   </trkpt>
   <trkpt lat="46.2968902587891" lon="7.45264482498169">
    <ele>903.600036621094</ele>
    <time>2012-03-04T14:44:29Z</time>
   </trkpt>
   <trkpt lat="46.2968902587891" lon="7.45268249511719">
    <ele>903.799987792969</ele>
    <time>2012-03-04T14:44:30Z</time>
   </trkpt>
   <trkpt lat="46.2968902587891" lon="7.45272016525268">
    <ele>904</ele>
    <time>2012-03-04T14:44:31Z</time>
   </trkpt>
   <trkpt lat="46.2968902587891" lon="7.45275592803955">
    <ele>904.200012207031</ele>
    <time>2012-03-04T14:44:32Z</time>
   </trkpt>
   <trkpt lat="46.2969245910644" lon="7.45296287536621">
    <ele>904.200012207031</ele>
    <time>2012-03-04T14:44:38Z</time>
   </trkpt>
   <trkpt lat="46.2969360351562" lon="7.45303297042847">
    <ele>904.933349609375</ele>
    <time>2012-03-04T14:44:40Z</time>
   </trkpt>
   <trkpt lat="46.2969436645508" lon="7.45306873321533">
    <ele>905.300048828125</ele>
    <time>2012-03-04T14:44:41Z</time>
   </trkpt>
   <trkpt lat="46.296947479248" lon="7.45310401916504">
    <ele>905.666687011719</ele>
    <time>2012-03-04T14:44:42Z</time>
   </trkpt>
   <trkpt lat="46.2969551086426" lon="7.45314407348633">
    <ele>906.033325195312</ele>
    <time>2012-03-04T14:44:43Z</time>
   </trkpt>
   <trkpt lat="46.2969627380371" lon="7.45318078994751">
    <ele>906.400024414062</ele>
    <time>2012-03-04T14:44:44Z</time>
   </trkpt>
   <trkpt lat="46.2969703674316" lon="7.45321464538574">
    <ele>906.400024414062</ele>
    <time>2012-03-04T14:44:45Z</time>
   </trkpt>
   <trkpt lat="46.297004699707" lon="7.4534158706665">
    <ele>907.660034179688</ele>
    <time>2012-03-04T14:44:51Z</time>
   </trkpt>
   <trkpt lat="46.2970123291016" lon="7.45345115661621">
    <ele>907.869995117188</ele>
    <time>2012-03-04T14:44:52Z</time>
   </trkpt>
   <trkpt lat="46.2970199584961" lon="7.45348405838013">
    <ele>908.080017089844</ele>
    <time>2012-03-04T14:44:53Z</time>
   </trkpt>
   <trkpt lat="46.2970237731934" lon="7.45351696014404">
    <ele>908.289978027344</ele>
    <time>2012-03-04T14:44:54Z</time>
   </trkpt>
   <trkpt lat="46.2970314025879" lon="7.45354986190796">
    <ele>908.5</ele>
    <time>2012-03-04T14:44:55Z</time>
   </trkpt>
   <trkpt lat="46.2970695495606" lon="7.45375537872314">
    <ele>909.760009765625</ele>
    <time>2012-03-04T14:45:01Z</time>
   </trkpt>
   <trkpt lat="46.2970771789551" lon="7.4537878036499">
    <ele>909.969970703125</ele>
    <time>2012-03-04T14:45:02Z</time>
   </trkpt>
   <trkpt lat="46.2970809936523" lon="7.45382261276245">
    <ele>910.179992675781</ele>
    <time>2012-03-04T14:45:03Z</time>
   </trkpt>
   <trkpt lat="46.2970848083496" lon="7.45385932922363">
    <ele>910.389953613281</ele>
    <time>2012-03-04T14:45:04Z</time>
   </trkpt>
   <trkpt lat="46.2970924377441" lon="7.45389413833618">
    <ele>910.599975585938</ele>
    <time>2012-03-04T14:45:05Z</time>
   </trkpt>
   <trkpt lat="46.2971115112305" lon="7.45399761199951">
    <ele>910.599975585938</ele>
    <time>2012-03-04T14:45:08Z</time>
   </trkpt>
   <trkpt lat="46.2971229553223" lon="7.45406913757324">
    <ele>911.333312988281</ele>
    <time>2012-03-04T14:45:10Z</time>
   </trkpt>
   <trkpt lat="46.2971267700195" lon="7.45410299301148">
    <ele>911.699951171875</ele>
    <time>2012-03-04T14:45:11Z</time>
   </trkpt>
   <trkpt lat="46.2971229553223" lon="7.45414018630982">
    <ele>912.066650390625</ele>
    <time>2012-03-04T14:45:12Z</time>
   </trkpt>
   <trkpt lat="46.2971305847168" lon="7.45417213439941">
    <ele>912.433349609375</ele>
    <time>2012-03-04T14:45:13Z</time>
   </trkpt>
   <trkpt lat="46.2971343994141" lon="7.45420408248901">
    <ele>912.799987792969</ele>
    <time>2012-03-04T14:45:14Z</time>
   </trkpt>
   <trkpt lat="46.2971420288086" lon="7.45423603057861">
    <ele>912.799987792969</ele>
    <time>2012-03-04T14:45:15Z</time>
   </trkpt>
   <trkpt lat="46.2971534729004" lon="7.45439291000366">
    <ele>913.799987792969</ele>
    <time>2012-03-04T14:45:20Z</time>
   </trkpt>
   <trkpt lat="46.2971611022949" lon="7.45447397232056">
    <ele>914.200012207031</ele>
    <time>2012-03-04T14:45:22Z</time>
   </trkpt>
   <trkpt lat="46.2971687316894" lon="7.45451259613037">
    <ele>914.399963378906</ele>
    <time>2012-03-04T14:45:23Z</time>
   </trkpt>
   <trkpt lat="46.2971687316894" lon="7.45455312728882">
    <ele>914.599975585938</ele>
    <time>2012-03-04T14:45:24Z</time>
   </trkpt>
   <trkpt lat="46.297176361084" lon="7.45459318161011">
    <ele>914.799987792969</ele>
    <time>2012-03-04T14:45:25Z</time>
   </trkpt>
   <trkpt lat="46.2971839904785" lon="7.45462322235107">
    <ele>914.799987792969</ele>
    <time>2012-03-04T14:45:26Z</time>
   </trkpt>
   <trkpt lat="46.2972106933594" lon="7.45479774475098">
    <ele>915.911071777344</ele>
    <time>2012-03-04T14:45:31Z</time>
   </trkpt>
   <trkpt lat="46.2972145080566" lon="7.45483589172363">
    <ele>916.13330078125</ele>
    <time>2012-03-04T14:45:32Z</time>
   </trkpt>
   <trkpt lat="46.2972183227539" lon="7.45487213134766">
    <ele>916.355529785156</ele>
    <time>2012-03-04T14:45:33Z</time>
   </trkpt>
   <trkpt lat="46.2972145080566" lon="7.45491361618042">
    <ele>916.577758789062</ele>
    <time>2012-03-04T14:45:34Z</time>
   </trkpt>
   <trkpt lat="46.2972106933594" lon="7.45494937896728">
    <ele>916.799987792969</ele>
    <time>2012-03-04T14:45:35Z</time>
   </trkpt>
   <trkpt lat="46.2972221374512" lon="7.45514297485352">
    <ele>916.799987792969</ele>
    <time>2012-03-04T14:45:40Z</time>
   </trkpt>
   <trkpt lat="46.2972183227539" lon="7.45526742935181">
    <ele>917.5</ele>
    <time>2012-03-04T14:45:43Z</time>
   </trkpt>
   <trkpt lat="46.2972145080566" lon="7.45530939102173">
    <ele>917.733337402344</ele>
    <time>2012-03-04T14:45:44Z</time>
   </trkpt>
   <trkpt lat="46.2972221374512" lon="7.45534563064575">
    <ele>917.966674804688</ele>
    <time>2012-03-04T14:45:45Z</time>
   </trkpt>
   <trkpt lat="46.2972259521484" lon="7.45538282394409">
    <ele>918.200012207031</ele>
    <time>2012-03-04T14:45:46Z</time>
   </trkpt>
   <trkpt lat="46.297233581543" lon="7.45542144775391">
    <ele>918.433349609375</ele>
    <time>2012-03-04T14:45:47Z</time>
   </trkpt>
   <trkpt lat="46.297248840332" lon="7.45571374893188">
    <ele>920.066650390625</ele>
    <time>2012-03-04T14:45:54Z</time>
   </trkpt>
   <trkpt lat="46.297248840332" lon="7.4557523727417">
    <ele>920.299987792969</ele>
    <time>2012-03-04T14:45:55Z</time>
   </trkpt>
   <trkpt lat="46.297248840332" lon="7.4557957649231">
    <ele>920.533325195312</ele>
    <time>2012-03-04T14:45:56Z</time>
   </trkpt>
   <trkpt lat="46.2972526550293" lon="7.45583534240723">
    <ele>920.766662597656</ele>
    <time>2012-03-04T14:45:57Z</time>
   </trkpt>
   <trkpt lat="46.2972564697266" lon="7.45587348937988">
    <ele>921</ele>
    <time>2012-03-04T14:45:58Z</time>
   </trkpt>
   <trkpt lat="46.2972640991211" lon="7.45598793029785">
    <ele>921</ele>
    <time>2012-03-04T14:46:01Z</time>
   </trkpt>
   <trkpt lat="46.2972640991211" lon="7.45623016357422">
    <ele>922.200012207031</ele>
    <time>2012-03-04T14:46:07Z</time>
   </trkpt>
   <trkpt lat="46.2972602844238" lon="7.45627021789551">
    <ele>922.400024414062</ele>
    <time>2012-03-04T14:46:08Z</time>
   </trkpt>
   <trkpt lat="46.2972602844238" lon="7.45631170272827">
    <ele>922.599975585938</ele>
    <time>2012-03-04T14:46:09Z</time>
   </trkpt>
   <trkpt lat="46.2972602844238" lon="7.4563479423523">
    <ele>922.799987792969</ele>
    <time>2012-03-04T14:46:10Z</time>
   </trkpt>
   <trkpt lat="46.2972602844238" lon="7.45639038085938">
    <ele>923</ele>
    <time>2012-03-04T14:46:11Z</time>
   </trkpt>
   <trkpt lat="46.2972602844238" lon="7.45645713806152">
    <ele>923</ele>
    <time>2012-03-04T14:46:13Z</time>
   </trkpt>
   <trkpt lat="46.2972755432129" lon="7.45660448074341">
    <ele>923.977783203125</ele>
    <time>2012-03-04T14:46:17Z</time>
   </trkpt>
   <trkpt lat="46.2972793579102" lon="7.45663547515869">
    <ele>924.222229003906</ele>
    <time>2012-03-04T14:46:18Z</time>
   </trkpt>
   <trkpt lat="46.2972831726074" lon="7.45667171478272">
    <ele>924.466674804688</ele>
    <time>2012-03-04T14:46:19Z</time>
   </trkpt>
   <trkpt lat="46.2972831726074" lon="7.4567060470581">
    <ele>924.711120605469</ele>
    <time>2012-03-04T14:46:20Z</time>
   </trkpt>
   <trkpt lat="46.297290802002" lon="7.45673656463623">
    <ele>924.95556640625</ele>
    <time>2012-03-04T14:46:21Z</time>
   </trkpt>
   <trkpt lat="46.2973022460938" lon="7.45696306228638">
    <ele>926.422241210938</ele>
    <time>2012-03-04T14:46:27Z</time>
   </trkpt>
   <trkpt lat="46.297306060791" lon="7.4569935798645">
    <ele>926.666687011719</ele>
    <time>2012-03-04T14:46:28Z</time>
   </trkpt>
   <trkpt lat="46.2973098754883" lon="7.45703172683716">
    <ele>926.9111328125</ele>
    <time>2012-03-04T14:46:29Z</time>
   </trkpt>
   <trkpt lat="46.2973175048828" lon="7.45707368850708">
    <ele>927.155578613281</ele>
    <time>2012-03-04T14:46:30Z</time>
   </trkpt>
   <trkpt lat="46.2973175048828" lon="7.45711898803711">
    <ele>927.400024414062</ele>
    <time>2012-03-04T14:46:31Z</time>
   </trkpt>
   <trkpt lat="46.2973327636719" lon="7.45724534988403">
    <ele>927.400024414062</ele>
    <time>2012-03-04T14:46:34Z</time>
   </trkpt>
   <trkpt lat="46.2973327636719" lon="7.45732021331787">
    <ele>928.200012207031</ele>
    <time>2012-03-04T14:46:36Z</time>
   </trkpt>
   <trkpt lat="46.2973365783691" lon="7.45735216140747">
    <ele>928.599975585938</ele>
    <time>2012-03-04T14:46:37Z</time>
   </trkpt>
   <trkpt lat="46.2973442077637" lon="7.45738840103149">
    <ele>929</ele>
    <time>2012-03-04T14:46:38Z</time>
   </trkpt>
   <trkpt lat="46.2973480224609" lon="7.45742321014404">
    <ele>929.400024414062</ele>
    <time>2012-03-04T14:46:39Z</time>
   </trkpt>
   <trkpt lat="46.2973518371582" lon="7.45745611190796">
    <ele>929.799987792969</ele>
    <time>2012-03-04T14:46:40Z</time>
   </trkpt>
   <trkpt lat="46.2973556518555" lon="7.45749282836914">
    <ele>929.799987792969</ele>
    <time>2012-03-04T14:46:41Z</time>
   </trkpt>
   <trkpt lat="46.2973670959473" lon="7.45766019821167">
    <ele>930.799987792969</ele>
    <time>2012-03-04T14:46:46Z</time>
   </trkpt>
   <trkpt lat="46.29736328125" lon="7.4576940536499">
    <ele>931</ele>
    <time>2012-03-04T14:46:47Z</time>
   </trkpt>
   <trkpt lat="46.2973709106445" lon="7.45772933959961">
    <ele>931.200012207031</ele>
    <time>2012-03-04T14:46:48Z</time>
   </trkpt>
   <trkpt lat="46.2973747253418" lon="7.45776128768921">
    <ele>931.399963378906</ele>
    <time>2012-03-04T14:46:49Z</time>
   </trkpt>
   <trkpt lat="46.2973785400391" lon="7.45779228210449">
    <ele>931.599975585938</ele>
    <time>2012-03-04T14:46:50Z</time>
   </trkpt>
   <trkpt lat="46.2973861694336" lon="7.45803070068359">
    <ele>933</ele>
    <time>2012-03-04T14:46:57Z</time>
   </trkpt>
   <trkpt lat="46.2973899841309" lon="7.45806503295898">
    <ele>933.200012207031</ele>
    <time>2012-03-04T14:46:58Z</time>
   </trkpt>
   <trkpt lat="46.2973899841309" lon="7.45809602737427">
    <ele>933.399963378906</ele>
    <time>2012-03-04T14:46:59Z</time>
   </trkpt>
   <trkpt lat="46.2973937988281" lon="7.4581298828125">
    <ele>933.599975585938</ele>
    <time>2012-03-04T14:47:00Z</time>
   </trkpt>
   <trkpt lat="46.2973937988281" lon="7.45816516876221">
    <ele>933.799987792969</ele>
    <time>2012-03-04T14:47:01Z</time>
   </trkpt>
   <trkpt lat="46.2973937988281" lon="7.45823574066162">
    <ele>933.799987792969</ele>
    <time>2012-03-04T14:47:03Z</time>
   </trkpt>
   <trkpt lat="46.2974052429199" lon="7.4583568572998">
    <ele>934.511596679688</ele>
    <time>2012-03-04T14:47:06Z</time>
   </trkpt>
   <trkpt lat="46.2974090576172" lon="7.45840549468994">
    <ele>934.748840332031</ele>
    <time>2012-03-04T14:47:07Z</time>
   </trkpt>
   <trkpt lat="46.2974128723144" lon="7.45845031738281">
    <ele>934.986022949219</ele>
    <time>2012-03-04T14:47:08Z</time>
   </trkpt>
   <trkpt lat="46.2974128723144" lon="7.45849514007568">
    <ele>935.223266601562</ele>
    <time>2012-03-04T14:47:09Z</time>
   </trkpt>
   <trkpt lat="46.2974128723144" lon="7.45853996276856">
    <ele>935.46044921875</ele>
    <time>2012-03-04T14:47:10Z</time>
   </trkpt>
   <trkpt lat="46.2974128723144" lon="7.4587287902832">
    <ele>936.409301757812</ele>
    <time>2012-03-04T14:47:14Z</time>
   </trkpt>
   <trkpt lat="46.2974128723144" lon="7.45877361297607">
    <ele>936.646484375</ele>
    <time>2012-03-04T14:47:15Z</time>
   </trkpt>
   <trkpt lat="46.2974128723144" lon="7.45882177352905">
    <ele>936.883728027344</ele>
    <time>2012-03-04T14:47:16Z</time>
   </trkpt>
   <trkpt lat="46.2974166870117" lon="7.45886182785034">
    <ele>937.120910644531</ele>
    <time>2012-03-04T14:47:17Z</time>
   </trkpt>
   <trkpt lat="46.2974166870117" lon="7.45890998840332">
    <ele>937.358154296875</ele>
    <time>2012-03-04T14:47:18Z</time>
   </trkpt>
   <trkpt lat="46.297435760498" lon="7.45913410186768">
    <ele>938.544189453125</ele>
    <time>2012-03-04T14:47:23Z</time>
   </trkpt>
   <trkpt lat="46.2974395751953" lon="7.45917701721191">
    <ele>938.781372070312</ele>
    <time>2012-03-04T14:47:24Z</time>
   </trkpt>
   <trkpt lat="46.2974472045898" lon="7.45922136306763">
    <ele>939.018615722656</ele>
    <time>2012-03-04T14:47:25Z</time>
   </trkpt>
   <trkpt lat="46.2974510192871" lon="7.45926570892334">
    <ele>939.255798339844</ele>
    <time>2012-03-04T14:47:26Z</time>
   </trkpt>
   <trkpt lat="46.2974700927734" lon="7.45948553085327">
    <ele>940.441833496094</ele>
    <time>2012-03-04T14:47:31Z</time>
   </trkpt>
   <trkpt lat="46.2974739074707" lon="7.45952892303467">
    <ele>940.679077148438</ele>
    <time>2012-03-04T14:47:32Z</time>
   </trkpt>
   <trkpt lat="46.2974739074707" lon="7.45957279205322">
    <ele>940.916259765625</ele>
    <time>2012-03-04T14:47:33Z</time>
   </trkpt>
   <trkpt lat="46.297477722168" lon="7.45961999893188">
    <ele>941.153503417969</ele>
    <time>2012-03-04T14:47:34Z</time>
   </trkpt>
   <trkpt lat="46.297477722168" lon="7.45966005325317">
    <ele>941.390686035156</ele>
    <time>2012-03-04T14:47:35Z</time>
   </trkpt>
   <trkpt lat="46.2974853515625" lon="7.45993995666504">
    <ele>943.051147460938</ele>
    <time>2012-03-04T14:47:42Z</time>
   </trkpt>
   <trkpt lat="46.2974853515625" lon="7.45998334884644">
    <ele>943.288391113281</ele>
    <time>2012-03-04T14:47:43Z</time>
   </trkpt>
   <trkpt lat="46.2974815368652" lon="7.46002531051636">
    <ele>943.525573730469</ele>
    <time>2012-03-04T14:47:44Z</time>
   </trkpt>
   <trkpt lat="46.2974853515625" lon="7.4600715637207">
    <ele>943.762817382812</ele>
    <time>2012-03-04T14:47:45Z</time>
   </trkpt>
   <trkpt lat="46.2974853515625" lon="7.46011447906494">
    <ele>944</ele>
    <time>2012-03-04T14:47:46Z</time>
   </trkpt>
   <trkpt lat="46.2974967956543" lon="7.46023654937744">
    <ele>944</ele>
    <time>2012-03-04T14:47:49Z</time>
   </trkpt>
   <trkpt lat="46.2975044250488" lon="7.46031475067139">
    <ele>944.733337402344</ele>
    <time>2012-03-04T14:47:51Z</time>
   </trkpt>
   <trkpt lat="46.2975082397461" lon="7.46035575866699">
    <ele>945.099975585938</ele>
    <time>2012-03-04T14:47:52Z</time>
   </trkpt>
   <trkpt lat="46.2975120544434" lon="7.4603967666626">
    <ele>945.466674804688</ele>
    <time>2012-03-04T14:47:53Z</time>
   </trkpt>
   <trkpt lat="46.2975120544434" lon="7.46044301986694">
    <ele>945.833374023438</ele>
    <time>2012-03-04T14:47:54Z</time>
   </trkpt>
   <trkpt lat="46.2975120544434" lon="7.46048927307129">
    <ele>946.200012207031</ele>
    <time>2012-03-04T14:47:55Z</time>
   </trkpt>
   <trkpt lat="46.2975311279297" lon="7.46062231063843">
    <ele>946.200012207031</ele>
    <time>2012-03-04T14:47:58Z</time>
   </trkpt>
   <trkpt lat="46.2975463867188" lon="7.46079063415527">
    <ele>947.200012207031</ele>
    <time>2012-03-04T14:48:02Z</time>
   </trkpt>
   <trkpt lat="46.2975463867188" lon="7.46083116531372">
    <ele>947.450012207031</ele>
    <time>2012-03-04T14:48:03Z</time>
   </trkpt>
   <trkpt lat="46.297550201416" lon="7.46088123321533">
    <ele>947.700012207031</ele>
    <time>2012-03-04T14:48:04Z</time>
   </trkpt>
   <trkpt lat="46.297550201416" lon="7.46092748641968">
    <ele>947.950012207031</ele>
    <time>2012-03-04T14:48:05Z</time>
   </trkpt>
   <trkpt lat="46.2975463867188" lon="7.46097326278686">
    <ele>948.200012207031</ele>
    <time>2012-03-04T14:48:06Z</time>
   </trkpt>
   <trkpt lat="46.2975692749023" lon="7.46123218536377">
    <ele>948.200012207031</ele>
    <time>2012-03-04T14:48:12Z</time>
   </trkpt>
   <trkpt lat="46.2975845336914" lon="7.46140909194946">
    <ele>949.200012207031</ele>
    <time>2012-03-04T14:48:16Z</time>
   </trkpt>
   <trkpt lat="46.2975845336914" lon="7.46145582199097">
    <ele>949.450012207031</ele>
    <time>2012-03-04T14:48:17Z</time>
   </trkpt>
   <trkpt lat="46.2975883483887" lon="7.46150493621826">
    <ele>949.700012207031</ele>
    <time>2012-03-04T14:48:18Z</time>
   </trkpt>
   <trkpt lat="46.2975883483887" lon="7.46154975891113">
    <ele>949.950012207031</ele>
    <time>2012-03-04T14:48:19Z</time>
   </trkpt>
   <trkpt lat="46.2975921630859" lon="7.4615969657898">
    <ele>950.200012207031</ele>
    <time>2012-03-04T14:48:20Z</time>
   </trkpt>
   <trkpt lat="46.2976226806641" lon="7.46200084686279">
    <ele>950.200012207031</ele>
    <time>2012-03-04T14:48:28Z</time>
   </trkpt>
   <trkpt lat="46.2976188659668" lon="7.46206140518188">
    <ele>950.400024414062</ele>
    <time>2012-03-04T14:48:29Z</time>
   </trkpt>
   <trkpt lat="46.2976341247559" lon="7.46232509613037">
    <ele>951.400024414062</ele>
    <time>2012-03-04T14:48:34Z</time>
   </trkpt>
   <trkpt lat="46.2976379394531" lon="7.46238040924072">
    <ele>951.600036621094</ele>
    <time>2012-03-04T14:48:35Z</time>
   </trkpt>
   <trkpt lat="46.2976379394531" lon="7.46243333816528">
    <ele>951.799987792969</ele>
    <time>2012-03-04T14:48:36Z</time>
   </trkpt>
   <trkpt lat="46.2976455688477" lon="7.46248912811279">
    <ele>952</ele>
    <time>2012-03-04T14:48:37Z</time>
   </trkpt>
   <trkpt lat="46.2976493835449" lon="7.46254444122314">
    <ele>952.200012207031</ele>
    <time>2012-03-04T14:48:38Z</time>
   </trkpt>
   <trkpt lat="46.2976608276367" lon="7.46280908584595">
    <ele>952.200012207031</ele>
    <time>2012-03-04T14:48:43Z</time>
   </trkpt>
   <trkpt lat="46.2976875305176" lon="7.46313428878784">
    <ele>951.880004882812</ele>
    <time>2012-03-04T14:48:49Z</time>
   </trkpt>
   <trkpt lat="46.2976875305176" lon="7.46319007873535">
    <ele>951.82666015625</ele>
    <time>2012-03-04T14:48:50Z</time>
   </trkpt>
   <trkpt lat="46.2976989746094" lon="7.4634599685669">
    <ele>951.559997558594</ele>
    <time>2012-03-04T14:48:55Z</time>
   </trkpt>
   <trkpt lat="46.2977104187012" lon="7.46369361877441">
    <ele>951.3466796875</ele>
    <time>2012-03-04T14:48:59Z</time>
   </trkpt>
   <trkpt lat="46.2977294921875" lon="7.46392822265625">
    <ele>951.133361816406</ele>
    <time>2012-03-04T14:49:03Z</time>
   </trkpt>
   <trkpt lat="46.2977447509766" lon="7.46417760848999">
    <ele>950.919982910156</ele>
    <time>2012-03-04T14:49:07Z</time>
   </trkpt>
   <trkpt lat="46.2977523803711" lon="7.46443367004394">
    <ele>950.706665039062</ele>
    <time>2012-03-04T14:49:11Z</time>
   </trkpt>
   <trkpt lat="46.2977676391602" lon="7.46457004547119">
    <ele>950.599975585938</ele>
    <time>2012-03-04T14:49:13Z</time>
   </trkpt>
   <trkpt lat="46.2977714538574" lon="7.46463918685913">
    <ele>950.546691894531</ele>
    <time>2012-03-04T14:49:14Z</time>
   </trkpt>
   <trkpt lat="46.2977981567383" lon="7.46509075164795">
    <ele>950.226684570312</ele>
    <time>2012-03-04T14:49:20Z</time>
   </trkpt>
   <trkpt lat="46.2978057861328" lon="7.46526336669922">
    <ele>950.119995117188</ele>
    <time>2012-03-04T14:49:22Z</time>
   </trkpt>
   <trkpt lat="46.2978172302246" lon="7.46543645858765">
    <ele>950.013305664062</ele>
    <time>2012-03-04T14:49:24Z</time>
   </trkpt>
   <trkpt lat="46.2978248596191" lon="7.46552848815918">
    <ele>949.9599609375</ele>
    <time>2012-03-04T14:49:25Z</time>
   </trkpt>
   <trkpt lat="46.2978286743164" lon="7.46562051773071">
    <ele>949.906677246094</ele>
    <time>2012-03-04T14:49:26Z</time>
   </trkpt>
   <trkpt lat="46.2978363037109" lon="7.46572208404541">
    <ele>949.853332519531</ele>
    <time>2012-03-04T14:49:27Z</time>
   </trkpt>
   <trkpt lat="46.2978401184082" lon="7.46582126617432">
    <ele>949.799987792969</ele>
    <time>2012-03-04T14:49:28Z</time>
   </trkpt>
   <trkpt lat="46.2978477478027" lon="7.46592330932617">
    <ele>949.799987792969</ele>
    <time>2012-03-04T14:49:29Z</time>
   </trkpt>
   <trkpt lat="46.2978591918945" lon="7.46613311767578">
    <ele>949</ele>
    <time>2012-03-04T14:49:31Z</time>
   </trkpt>
   <trkpt lat="46.2978630065918" lon="7.46623802185059">
    <ele>948.599975585938</ele>
    <time>2012-03-04T14:49:32Z</time>
   </trkpt>
   <trkpt lat="46.2978668212891" lon="7.46634674072266">
    <ele>948.200012207031</ele>
    <time>2012-03-04T14:49:33Z</time>
   </trkpt>
   <trkpt lat="46.2978744506836" lon="7.46644687652588">
    <ele>947.800048828125</ele>
    <time>2012-03-04T14:49:34Z</time>
   </trkpt>
   <trkpt lat="46.2978820800781" lon="7.46655178070068">
    <ele>947.400024414062</ele>
    <time>2012-03-04T14:49:35Z</time>
   </trkpt>
   <trkpt lat="46.2978897094727" lon="7.46666383743286">
    <ele>947.400024414062</ele>
    <time>2012-03-04T14:49:36Z</time>
   </trkpt>
   <trkpt lat="46.2978973388672" lon="7.46677112579346">
    <ele>946.960021972656</ele>
    <time>2012-03-04T14:49:37Z</time>
   </trkpt>
   <trkpt lat="46.297908782959" lon="7.46688079833984">
    <ele>946.52001953125</ele>
    <time>2012-03-04T14:49:38Z</time>
   </trkpt>
   <trkpt lat="46.2979164123535" lon="7.46699523925781">
    <ele>946.080017089844</ele>
    <time>2012-03-04T14:49:39Z</time>
   </trkpt>
   <trkpt lat="46.297924041748" lon="7.46710872650146">
    <ele>945.640014648438</ele>
    <time>2012-03-04T14:49:40Z</time>
   </trkpt>
   <trkpt lat="46.2979316711426" lon="7.46721744537354">
    <ele>945.200012207031</ele>
    <time>2012-03-04T14:49:41Z</time>
   </trkpt>
   <trkpt lat="46.2979393005371" lon="7.46732568740845">
    <ele>945.200012207031</ele>
    <time>2012-03-04T14:49:42Z</time>
   </trkpt>
   <trkpt lat="46.2979431152344" lon="7.46743154525757">
    <ele>944.97998046875</ele>
    <time>2012-03-04T14:49:43Z</time>
   </trkpt>
   <trkpt lat="46.2979850769043" lon="7.46771001815796">
    <ele>944.320007324219</ele>
    <time>2012-03-04T14:49:46Z</time>
   </trkpt>
   <trkpt lat="46.2980117797852" lon="7.4677996635437">
    <ele>944.099975585938</ele>
    <time>2012-03-04T14:49:47Z</time>
   </trkpt>
   <trkpt lat="46.298038482666" lon="7.46789121627808">
    <ele>943.880004882812</ele>
    <time>2012-03-04T14:49:48Z</time>
   </trkpt>
   <trkpt lat="46.2980690002441" lon="7.46796703338623">
    <ele>943.660034179688</ele>
    <time>2012-03-04T14:49:49Z</time>
   </trkpt>
   <trkpt lat="46.2980918884277" lon="7.46803426742554">
    <ele>943.440002441406</ele>
    <time>2012-03-04T14:49:50Z</time>
   </trkpt>
   <trkpt lat="46.2981033325195" lon="7.4680986404419">
    <ele>943.219970703125</ele>
    <time>2012-03-04T14:49:51Z</time>
   </trkpt>
   <trkpt lat="46.2980880737305" lon="7.46815013885498">
    <ele>943</ele>
    <time>2012-03-04T14:49:52Z</time>
   </trkpt>
   <trkpt lat="46.2980766296387" lon="7.46824073791504">
    <ele>943</ele>
    <time>2012-03-04T14:49:54Z</time>
   </trkpt>
   <trkpt lat="46.2980880737305" lon="7.46829891204834">
    <ele>943.166687011719</ele>
    <time>2012-03-04T14:49:55Z</time>
   </trkpt>
   <trkpt lat="46.298095703125" lon="7.4683575630188">
    <ele>943.333312988281</ele>
    <time>2012-03-04T14:49:56Z</time>
   </trkpt>
   <trkpt lat="46.2981185913086" lon="7.4684624671936">
    <ele>943.666687011719</ele>
    <time>2012-03-04T14:49:58Z</time>
   </trkpt>
   <trkpt lat="46.2981414794922" lon="7.46853971481323">
    <ele>944</ele>
    <time>2012-03-04T14:50:00Z</time>
   </trkpt>
   <trkpt lat="46.2981643676758" lon="7.46862268447876">
    <ele>944.333312988281</ele>
    <time>2012-03-04T14:50:02Z</time>
   </trkpt>
   <trkpt lat="46.298168182373" lon="7.4686598777771">
    <ele>944.5</ele>
    <time>2012-03-04T14:50:03Z</time>
   </trkpt>
   <trkpt lat="46.2981796264648" lon="7.46870279312134">
    <ele>944.666687011719</ele>
    <time>2012-03-04T14:50:04Z</time>
   </trkpt>
   <trkpt lat="46.2981910705566" lon="7.46874141693115">
    <ele>944.833312988281</ele>
    <time>2012-03-04T14:50:05Z</time>
   </trkpt>
   <trkpt lat="46.2982025146484" lon="7.46877765655518">
    <ele>945</ele>
    <time>2012-03-04T14:50:06Z</time>
   </trkpt>
   <trkpt lat="46.2982368469238" lon="7.46888256072998">
    <ele>945</ele>
    <time>2012-03-04T14:50:09Z</time>
   </trkpt>
   <trkpt lat="46.2982406616211" lon="7.46891975402832">
    <ele>945.400024414062</ele>
    <time>2012-03-04T14:50:10Z</time>
   </trkpt>
   <trkpt lat="46.2982521057129" lon="7.4689507484436">
    <ele>945.799987792969</ele>
    <time>2012-03-04T14:50:11Z</time>
   </trkpt>
   <trkpt lat="46.2982635498047" lon="7.46897983551025">
    <ele>946.200012207031</ele>
    <time>2012-03-04T14:50:12Z</time>
   </trkpt>
   <trkpt lat="46.2982749938965" lon="7.4690146446228">
    <ele>946.599975585938</ele>
    <time>2012-03-04T14:50:13Z</time>
   </trkpt>
   <trkpt lat="46.2982864379883" lon="7.46904754638672">
    <ele>947</ele>
    <time>2012-03-04T14:50:14Z</time>
   </trkpt>
   <trkpt lat="46.2983131408691" lon="7.46913909912109">
    <ele>947</ele>
    <time>2012-03-04T14:50:17Z</time>
   </trkpt>
   <trkpt lat="46.2983245849609" lon="7.46917009353638">
    <ele>947.549987792969</ele>
    <time>2012-03-04T14:50:18Z</time>
   </trkpt>
   <trkpt lat="46.2983360290527" lon="7.46920394897461">
    <ele>948.099975585938</ele>
    <time>2012-03-04T14:50:19Z</time>
   </trkpt>
   <trkpt lat="46.2983436584473" lon="7.46923160552978">
    <ele>948.650024414062</ele>
    <time>2012-03-04T14:50:20Z</time>
   </trkpt>
   <trkpt lat="46.2983512878418" lon="7.46926259994507">
    <ele>949.200012207031</ele>
    <time>2012-03-04T14:50:21Z</time>
   </trkpt>
   <trkpt lat="46.2983894348144" lon="7.46934938430786">
    <ele>949.200012207031</ele>
    <time>2012-03-04T14:50:24Z</time>
   </trkpt>
   <trkpt lat="46.298412322998" lon="7.46941423416138">
    <ele>949.933349609375</ele>
    <time>2012-03-04T14:50:26Z</time>
   </trkpt>
   <trkpt lat="46.2984237670898" lon="7.46944952011108">
    <ele>950.300048828125</ele>
    <time>2012-03-04T14:50:27Z</time>
   </trkpt>
   <trkpt lat="46.2984352111816" lon="7.46948337554932">
    <ele>950.666687011719</ele>
    <time>2012-03-04T14:50:28Z</time>
   </trkpt>
   <trkpt lat="46.2984466552734" lon="7.46951770782471">
    <ele>951.033325195312</ele>
    <time>2012-03-04T14:50:29Z</time>
   </trkpt>
   <trkpt lat="46.298454284668" lon="7.46955442428589">
    <ele>951.400024414062</ele>
    <time>2012-03-04T14:50:30Z</time>
   </trkpt>
   <trkpt lat="46.2984733581543" lon="7.46963548660278">
    <ele>951.400024414062</ele>
    <time>2012-03-04T14:50:32Z</time>
   </trkpt>
   <trkpt lat="46.2985076904297" lon="7.46979856491089">
    <ele>952.450012207031</ele>
    <time>2012-03-04T14:50:36Z</time>
   </trkpt>
   <trkpt lat="46.2985191345215" lon="7.46983289718628">
    <ele>952.712524414062</ele>
    <time>2012-03-04T14:50:37Z</time>
   </trkpt>
   <trkpt lat="46.298526763916" lon="7.46986675262451">
    <ele>952.974975585938</ele>
    <time>2012-03-04T14:50:38Z</time>
   </trkpt>
   <trkpt lat="46.2985382080078" lon="7.46990060806274">
    <ele>953.237487792969</ele>
    <time>2012-03-04T14:50:39Z</time>
   </trkpt>
   <trkpt lat="46.2985496520996" lon="7.46993589401245">
    <ele>953.5</ele>
    <time>2012-03-04T14:50:40Z</time>
   </trkpt>
   <trkpt lat="46.2985916137695" lon="7.47006320953369">
    <ele>954.549987792969</ele>
    <time>2012-03-04T14:50:44Z</time>
   </trkpt>
   <trkpt lat="46.2986030578613" lon="7.47009420394898">
    <ele>954.8125</ele>
    <time>2012-03-04T14:50:45Z</time>
   </trkpt>
   <trkpt lat="46.2986183166504" lon="7.47012424468994">
    <ele>955.074951171875</ele>
    <time>2012-03-04T14:50:46Z</time>
   </trkpt>
   <trkpt lat="46.2986335754394" lon="7.47015190124512">
    <ele>955.337463378906</ele>
    <time>2012-03-04T14:50:47Z</time>
   </trkpt>
   <trkpt lat="46.2986488342285" lon="7.4701738357544">
    <ele>955.599975585938</ele>
    <time>2012-03-04T14:50:48Z</time>
   </trkpt>
   <trkpt lat="46.2987442016602" lon="7.47031354904175">
    <ele>955.599975585938</ele>
    <time>2012-03-04T14:50:53Z</time>
   </trkpt>
   <trkpt lat="46.2987632751465" lon="7.47034549713135">
    <ele>956</ele>
    <time>2012-03-04T14:50:54Z</time>
   </trkpt>
   <trkpt lat="46.2987861633301" lon="7.47037124633789">
    <ele>956.399963378906</ele>
    <time>2012-03-04T14:50:55Z</time>
   </trkpt>
   <trkpt lat="46.2988052368164" lon="7.47039222717285">
    <ele>956.799987792969</ele>
    <time>2012-03-04T14:50:56Z</time>
   </trkpt>
   <trkpt lat="46.2988243103027" lon="7.4704098701477">
    <ele>957.199951171875</ele>
    <time>2012-03-04T14:50:57Z</time>
   </trkpt>
   <trkpt lat="46.2988471984863" lon="7.47042608261108">
    <ele>957.599975585938</ele>
    <time>2012-03-04T14:50:58Z</time>
   </trkpt>
   <trkpt lat="46.2988700866699" lon="7.47044277191162">
    <ele>957.599975585938</ele>
    <time>2012-03-04T14:50:59Z</time>
   </trkpt>
   <trkpt lat="46.2990379333496" lon="7.47053909301758">
    <ele>958.766662597656</ele>
    <time>2012-03-04T14:51:06Z</time>
   </trkpt>
   <trkpt lat="46.2990875244141" lon="7.47054767608643">
    <ele>959.099975585938</ele>
    <time>2012-03-04T14:51:08Z</time>
   </trkpt>
   <trkpt lat="46.2991104125977" lon="7.47054624557495">
    <ele>959.266662597656</ele>
    <time>2012-03-04T14:51:09Z</time>
   </trkpt>
   <trkpt lat="46.2991371154785" lon="7.47054147720337">
    <ele>959.433288574219</ele>
    <time>2012-03-04T14:51:10Z</time>
   </trkpt>
   <trkpt lat="46.2991638183594" lon="7.4705376625061">
    <ele>959.599975585938</ele>
    <time>2012-03-04T14:51:11Z</time>
   </trkpt>
   <trkpt lat="46.2992134094238" lon="7.47053003311157">
    <ele>959.599975585938</ele>
    <time>2012-03-04T14:51:13Z</time>
   </trkpt>
   <trkpt lat="46.2993087768555" lon="7.47052192687988">
    <ele>960.699951171875</ele>
    <time>2012-03-04T14:51:17Z</time>
   </trkpt>
   <trkpt lat="46.2993316650391" lon="7.47051429748535">
    <ele>960.974975585938</ele>
    <time>2012-03-04T14:51:18Z</time>
   </trkpt>
   <trkpt lat="46.2993583679199" lon="7.4705080986023">
    <ele>961.25</ele>
    <time>2012-03-04T14:51:19Z</time>
   </trkpt>
   <trkpt lat="46.2993850708008" lon="7.4705023765564">
    <ele>961.524963378906</ele>
    <time>2012-03-04T14:51:20Z</time>
   </trkpt>
   <trkpt lat="46.2994079589844" lon="7.47050285339356">
    <ele>961.799987792969</ele>
    <time>2012-03-04T14:51:21Z</time>
   </trkpt>
   <trkpt lat="46.2995452880859" lon="7.47047805786133">
    <ele>961.799987792969</ele>
    <time>2012-03-04T14:51:26Z</time>
   </trkpt>
   <trkpt lat="46.2996444702148" lon="7.47045516967774">
    <ele>962.741149902344</ele>
    <time>2012-03-04T14:51:30Z</time>
   </trkpt>
   <trkpt lat="46.2996673583984" lon="7.47044801712036">
    <ele>962.976440429688</ele>
    <time>2012-03-04T14:51:31Z</time>
   </trkpt>
   <trkpt lat="46.2996940612793" lon="7.47043991088867">
    <ele>963.211730957031</ele>
    <time>2012-03-04T14:51:32Z</time>
   </trkpt>
   <trkpt lat="46.2997207641602" lon="7.47042417526245">
    <ele>963.447021484375</ele>
    <time>2012-03-04T14:51:33Z</time>
   </trkpt>
   <trkpt lat="46.299861907959" lon="7.47038507461548">
    <ele>964.858825683594</ele>
    <time>2012-03-04T14:51:39Z</time>
   </trkpt>
   <trkpt lat="46.2998886108398" lon="7.470383644104">
    <ele>965.094116210938</ele>
    <time>2012-03-04T14:51:40Z</time>
   </trkpt>
   <trkpt lat="46.2999153137207" lon="7.47038316726685">
    <ele>965.329406738281</ele>
    <time>2012-03-04T14:51:41Z</time>
   </trkpt>
   <trkpt lat="46.299934387207" lon="7.47037696838379">
    <ele>965.564697265625</ele>
    <time>2012-03-04T14:51:42Z</time>
   </trkpt>
   <trkpt lat="46.2999610900879" lon="7.47037315368652">
    <ele>965.799987792969</ele>
    <time>2012-03-04T14:51:43Z</time>
   </trkpt>
   <trkpt lat="46.3000335693359" lon="7.47035837173462">
    <ele>965.799987792969</ele>
    <time>2012-03-04T14:51:46Z</time>
   </trkpt>
   <trkpt lat="46.3001174926758" lon="7.47033262252808">
    <ele>966.640014648438</ele>
    <time>2012-03-04T14:51:49Z</time>
   </trkpt>
   <trkpt lat="46.3001441955566" lon="7.47032165527344">
    <ele>966.919982910156</ele>
    <time>2012-03-04T14:51:50Z</time>
   </trkpt>
   <trkpt lat="46.3001670837402" lon="7.47031688690186">
    <ele>967.200012207031</ele>
    <time>2012-03-04T14:51:51Z</time>
   </trkpt>
   <trkpt lat="46.3001899719238" lon="7.47030735015869">
    <ele>967.47998046875</ele>
    <time>2012-03-04T14:51:52Z</time>
   </trkpt>
   <trkpt lat="46.3002128601074" lon="7.47030973434448">
    <ele>967.760009765625</ele>
    <time>2012-03-04T14:51:53Z</time>
   </trkpt>
   <trkpt lat="46.3003387451172" lon="7.47026872634888">
    <ele>969.159973144531</ele>
    <time>2012-03-04T14:51:58Z</time>
   </trkpt>
   <trkpt lat="46.3003616333008" lon="7.47025775909424">
    <ele>969.440002441406</ele>
    <time>2012-03-04T14:51:59Z</time>
   </trkpt>
   <trkpt lat="46.3003845214844" lon="7.47024774551392">
    <ele>969.719970703125</ele>
    <time>2012-03-04T14:52:00Z</time>
   </trkpt>
   <trkpt lat="46.3004112243652" lon="7.47024345397949">
    <ele>970</ele>
    <time>2012-03-04T14:52:01Z</time>
   </trkpt>
   <trkpt lat="46.3005104064941" lon="7.47022008895874">
    <ele>970</ele>
    <time>2012-03-04T14:52:05Z</time>
   </trkpt>
   <trkpt lat="46.3006057739258" lon="7.47019052505493">
    <ele>971</ele>
    <time>2012-03-04T14:52:09Z</time>
   </trkpt>
   <trkpt lat="46.3006286621094" lon="7.47017860412598">
    <ele>971.25</ele>
    <time>2012-03-04T14:52:10Z</time>
   </trkpt>
   <trkpt lat="46.300651550293" lon="7.47017335891724">
    <ele>971.5</ele>
    <time>2012-03-04T14:52:11Z</time>
   </trkpt>
   <trkpt lat="46.3006744384766" lon="7.47016620635986">
    <ele>971.75</ele>
    <time>2012-03-04T14:52:12Z</time>
   </trkpt>
   <trkpt lat="46.3007011413574" lon="7.47016048431396">
    <ele>972</ele>
    <time>2012-03-04T14:52:13Z</time>
   </trkpt>
   <trkpt lat="46.300853729248" lon="7.4701247215271">
    <ele>972</ele>
    <time>2012-03-04T14:52:19Z</time>
   </trkpt>
   <trkpt lat="46.3010101318359" lon="7.47008419036865">
    <ele>973.222229003906</ele>
    <time>2012-03-04T14:52:24Z</time>
   </trkpt>
   <trkpt lat="46.3010444641113" lon="7.4700722694397">
    <ele>973.466674804688</ele>
    <time>2012-03-04T14:52:25Z</time>
   </trkpt>
   <trkpt lat="46.3010787963867" lon="7.47006845474243">
    <ele>973.711120605469</ele>
    <time>2012-03-04T14:52:26Z</time>
   </trkpt>
   <trkpt lat="46.3011131286621" lon="7.47005987167358">
    <ele>973.95556640625</ele>
    <time>2012-03-04T14:52:27Z</time>
   </trkpt>
   <trkpt lat="46.3011474609375" lon="7.47005367279053">
    <ele>974.200012207031</ele>
    <time>2012-03-04T14:52:28Z</time>
   </trkpt>
   <trkpt lat="46.3013916015625" lon="7.46996402740478">
    <ele>974.200012207031</ele>
    <time>2012-03-04T14:52:35Z</time>
   </trkpt>
   <trkpt lat="46.3017158508301" lon="7.46989107131958">
    <ele>975.584655761719</ele>
    <time>2012-03-04T14:52:44Z</time>
   </trkpt>
   <trkpt lat="46.3017539978027" lon="7.46988725662232">
    <ele>975.738464355469</ele>
    <time>2012-03-04T14:52:45Z</time>
   </trkpt>
   <trkpt lat="46.3017921447754" lon="7.46988582611084">
    <ele>975.892333984375</ele>
    <time>2012-03-04T14:52:46Z</time>
   </trkpt>
   <trkpt lat="46.3018264770508" lon="7.46987771987915">
    <ele>976.046142578125</ele>
    <time>2012-03-04T14:52:47Z</time>
   </trkpt>
   <trkpt lat="46.3018684387207" lon="7.46987056732178">
    <ele>976.200012207031</ele>
    <time>2012-03-04T14:52:48Z</time>
   </trkpt>
   <trkpt lat="46.3020629882812" lon="7.46980285644531">
    <ele>976.200012207031</ele>
    <time>2012-03-04T14:52:53Z</time>
   </trkpt>
   <trkpt lat="46.3021850585938" lon="7.46976280212402">
    <ele>976.5</ele>
    <time>2012-03-04T14:52:56Z</time>
   </trkpt>
   <trkpt lat="46.3023490905762" lon="7.46973037719726">
    <ele>976.900024414062</ele>
    <time>2012-03-04T14:53:00Z</time>
   </trkpt>
   <trkpt lat="46.3023872375488" lon="7.46972513198852">
    <ele>977</ele>
    <time>2012-03-04T14:53:01Z</time>
   </trkpt>
   <trkpt lat="46.3027420043945" lon="7.46962022781372">
    <ele>977.900024414062</ele>
    <time>2012-03-04T14:53:10Z</time>
   </trkpt>
   <trkpt lat="46.3027801513672" lon="7.46960830688476">
    <ele>978</ele>
    <time>2012-03-04T14:53:11Z</time>
   </trkpt>
   <trkpt lat="46.3028182983398" lon="7.46959924697876">
    <ele>978.100036621094</ele>
    <time>2012-03-04T14:53:12Z</time>
   </trkpt>
   <trkpt lat="46.3028564453125" lon="7.46958875656128">
    <ele>978.200012207031</ele>
    <time>2012-03-04T14:53:13Z</time>
   </trkpt>
   <trkpt lat="46.3030548095703" lon="7.46952772140503">
    <ele>978.200012207031</ele>
    <time>2012-03-04T14:53:18Z</time>
   </trkpt>
   <trkpt lat="46.303409576416" lon="7.46942520141602">
    <ele>979.52001953125</ele>
    <time>2012-03-04T14:53:27Z</time>
   </trkpt>
   <trkpt lat="46.3034896850586" lon="7.46940851211548">
    <ele>979.813354492188</ele>
    <time>2012-03-04T14:53:29Z</time>
   </trkpt>
   <trkpt lat="46.303524017334" lon="7.46940612792969">
    <ele>979.960021972656</ele>
    <time>2012-03-04T14:53:30Z</time>
   </trkpt>
   <trkpt lat="46.3035659790039" lon="7.46941709518433">
    <ele>980.106689453125</ele>
    <time>2012-03-04T14:53:31Z</time>
   </trkpt>
   <trkpt lat="46.3036079406738" lon="7.46941232681274">
    <ele>980.253356933594</ele>
    <time>2012-03-04T14:53:32Z</time>
   </trkpt>
   <trkpt lat="46.3036460876465" lon="7.46941566467285">
    <ele>980.400024414062</ele>
    <time>2012-03-04T14:53:33Z</time>
   </trkpt>
   <trkpt lat="46.3038597106934" lon="7.469398021698">
    <ele>980.400024414062</ele>
    <time>2012-03-04T14:53:38Z</time>
   </trkpt>
   <trkpt lat="46.3041725158691" lon="7.46933841705322">
    <ele>981.466674804688</ele>
    <time>2012-03-04T14:53:46Z</time>
   </trkpt>
   <trkpt lat="46.3042869567871" lon="7.46930265426636">
    <ele>981.86669921875</ele>
    <time>2012-03-04T14:53:49Z</time>
   </trkpt>
   <trkpt lat="46.3043174743652" lon="7.46928453445435">
    <ele>982</ele>
    <time>2012-03-04T14:53:50Z</time>
   </trkpt>
   <trkpt lat="46.3043632507324" lon="7.4692645072937">
    <ele>982.133361816406</ele>
    <time>2012-03-04T14:53:51Z</time>
   </trkpt>
   <trkpt lat="46.3044013977051" lon="7.46925497055054">
    <ele>982.266662597656</ele>
    <time>2012-03-04T14:53:52Z</time>
   </trkpt>
   <trkpt lat="46.304443359375" lon="7.46925067901611">
    <ele>982.400024414062</ele>
    <time>2012-03-04T14:53:53Z</time>
   </trkpt>
   <trkpt lat="46.3047637939453" lon="7.46916675567627">
    <ele>982.400024414062</ele>
    <time>2012-03-04T14:54:01Z</time>
   </trkpt>
   <trkpt lat="46.3050842285156" lon="7.46904850006104">
    <ele>983.242126464844</ele>
    <time>2012-03-04T14:54:09Z</time>
   </trkpt>
   <trkpt lat="46.3053588867188" lon="7.46890449523926">
    <ele>983.978942871094</ele>
    <time>2012-03-04T14:54:16Z</time>
   </trkpt>
   <trkpt lat="46.3053894042969" lon="7.46888208389282">
    <ele>984.084228515625</ele>
    <time>2012-03-04T14:54:17Z</time>
   </trkpt>
   <trkpt lat="46.3054237365723" lon="7.46886205673218">
    <ele>984.189514160156</ele>
    <time>2012-03-04T14:54:18Z</time>
   </trkpt>
   <trkpt lat="46.3054580688477" lon="7.46884679794312">
    <ele>984.294738769531</ele>
    <time>2012-03-04T14:54:19Z</time>
   </trkpt>
   <trkpt lat="46.3054885864258" lon="7.4688310623169">
    <ele>984.400024414062</ele>
    <time>2012-03-04T14:54:20Z</time>
   </trkpt>
   <trkpt lat="46.3056373596191" lon="7.46879386901856">
    <ele>984.400024414062</ele>
    <time>2012-03-04T14:54:24Z</time>
   </trkpt>
   <trkpt lat="46.3056678771973" lon="7.46878576278686">
    <ele>984.760009765625</ele>
    <time>2012-03-04T14:54:25Z</time>
   </trkpt>
   <trkpt lat="46.3057022094727" lon="7.46877765655518">
    <ele>985.119995117188</ele>
    <time>2012-03-04T14:54:26Z</time>
   </trkpt>
   <trkpt lat="46.3057403564453" lon="7.46876525878906">
    <ele>985.480041503906</ele>
    <time>2012-03-04T14:54:27Z</time>
   </trkpt>
   <trkpt lat="46.3057708740234" lon="7.46875095367432">
    <ele>985.840026855469</ele>
    <time>2012-03-04T14:54:28Z</time>
   </trkpt>
   <trkpt lat="46.3058395385742" lon="7.46872425079346">
    <ele>986.559997558594</ele>
    <time>2012-03-04T14:54:30Z</time>
   </trkpt>
   <trkpt lat="46.3058700561523" lon="7.46871185302734">
    <ele>986.920043945312</ele>
    <time>2012-03-04T14:54:31Z</time>
   </trkpt>
   <trkpt lat="46.3059005737305" lon="7.46870613098144">
    <ele>987.280029296875</ele>
    <time>2012-03-04T14:54:32Z</time>
   </trkpt>
   <trkpt lat="46.3059310913086" lon="7.46870470046997">
    <ele>987.640014648438</ele>
    <time>2012-03-04T14:54:33Z</time>
   </trkpt>
   <trkpt lat="46.3059616088867" lon="7.46870231628418">
    <ele>988</ele>
    <time>2012-03-04T14:54:34Z</time>
   </trkpt>
   <trkpt lat="46.3060836791992" lon="7.46869707107544">
    <ele>989.440002441406</ele>
    <time>2012-03-04T14:54:38Z</time>
   </trkpt>
   <trkpt lat="46.3061141967773" lon="7.46869945526123">
    <ele>989.800048828125</ele>
    <time>2012-03-04T14:54:39Z</time>
   </trkpt>
   <trkpt lat="46.3061408996582" lon="7.4687008857727">
    <ele>990.160034179688</ele>
    <time>2012-03-04T14:54:40Z</time>
   </trkpt>
   <trkpt lat="46.3061714172363" lon="7.46869945526123">
    <ele>990.52001953125</ele>
    <time>2012-03-04T14:54:41Z</time>
   </trkpt>
   <trkpt lat="46.3061981201172" lon="7.4686975479126">
    <ele>990.880004882812</ele>
    <time>2012-03-04T14:54:42Z</time>
   </trkpt>
   <trkpt lat="46.3062934875488" lon="7.4686861038208">
    <ele>991.960021972656</ele>
    <time>2012-03-04T14:54:45Z</time>
   </trkpt>
   <trkpt lat="46.3063201904297" lon="7.46868801116943">
    <ele>992.320007324219</ele>
    <time>2012-03-04T14:54:46Z</time>
   </trkpt>
   <trkpt lat="46.3063468933106" lon="7.46868705749512">
    <ele>992.680053710938</ele>
    <time>2012-03-04T14:54:47Z</time>
   </trkpt>
   <trkpt lat="46.3063697814941" lon="7.46869707107544">
    <ele>993.0400390625</ele>
    <time>2012-03-04T14:54:48Z</time>
   </trkpt>
   <trkpt lat="46.3064002990723" lon="7.4687066078186">
    <ele>993.400024414062</ele>
    <time>2012-03-04T14:54:49Z</time>
   </trkpt>
   <trkpt lat="46.3064270019531" lon="7.4687123298645">
    <ele>993.400024414062</ele>
    <time>2012-03-04T14:54:50Z</time>
   </trkpt>
   <trkpt lat="46.3065605163574" lon="7.46874094009399">
    <ele>994.5</ele>
    <time>2012-03-04T14:54:55Z</time>
   </trkpt>
   <trkpt lat="46.306583404541" lon="7.46872425079346">
    <ele>994.719970703125</ele>
    <time>2012-03-04T14:54:56Z</time>
   </trkpt>
   <trkpt lat="46.3066101074219" lon="7.46871519088745">
    <ele>994.940002441406</ele>
    <time>2012-03-04T14:54:57Z</time>
   </trkpt>
   <trkpt lat="46.3066329956055" lon="7.46871423721314">
    <ele>995.159973144531</ele>
    <time>2012-03-04T14:54:58Z</time>
   </trkpt>
   <trkpt lat="46.3066596984863" lon="7.4687032699585">
    <ele>995.380004882812</ele>
    <time>2012-03-04T14:54:59Z</time>
   </trkpt>
   <trkpt lat="46.3066864013672" lon="7.46868991851807">
    <ele>995.599975585938</ele>
    <time>2012-03-04T14:55:00Z</time>
   </trkpt>
   <trkpt lat="46.3067474365234" lon="7.46866750717163">
    <ele>995.599975585938</ele>
    <time>2012-03-04T14:55:02Z</time>
   </trkpt>
   <trkpt lat="46.3069038391113" lon="7.46867513656616">
    <ele>996.032409667969</ele>
    <time>2012-03-04T14:55:06Z</time>
   </trkpt>
   <trkpt lat="46.3069877624512" lon="7.4686861038208">
    <ele>996.248596191406</ele>
    <time>2012-03-04T14:55:08Z</time>
   </trkpt>
   <trkpt lat="46.3071632385254" lon="7.46870803833008">
    <ele>996.681030273438</ele>
    <time>2012-03-04T14:55:12Z</time>
   </trkpt>
   <trkpt lat="46.3072471618652" lon="7.46870374679565">
    <ele>996.897277832031</ele>
    <time>2012-03-04T14:55:14Z</time>
   </trkpt>
   <trkpt lat="46.3074417114258" lon="7.46869134902954">
    <ele>997.437805175781</ele>
    <time>2012-03-04T14:55:19Z</time>
   </trkpt>
   <trkpt lat="46.3076095581055" lon="7.46873617172241">
    <ele>997.870239257812</ele>
    <time>2012-03-04T14:55:23Z</time>
   </trkpt>
   <trkpt lat="46.307689666748" lon="7.46875667572022">
    <ele>998.086486816406</ele>
    <time>2012-03-04T14:55:25Z</time>
   </trkpt>
   <trkpt lat="46.3078002929688" lon="7.46880054473877">
    <ele>998.410766601562</ele>
    <time>2012-03-04T14:55:28Z</time>
   </trkpt>
   <trkpt lat="46.3078346252441" lon="7.46881771087646">
    <ele>998.518920898438</ele>
    <time>2012-03-04T14:55:29Z</time>
   </trkpt>
   <trkpt lat="46.3078575134277" lon="7.46883249282837">
    <ele>998.627014160156</ele>
    <time>2012-03-04T14:55:30Z</time>
   </trkpt>
   <trkpt lat="46.3078842163086" lon="7.46884918212891">
    <ele>998.735107421875</ele>
    <time>2012-03-04T14:55:31Z</time>
   </trkpt>
   <trkpt lat="46.3079147338867" lon="7.46886301040649">
    <ele>998.843200683594</ele>
    <time>2012-03-04T14:55:32Z</time>
   </trkpt>
   <trkpt lat="46.3080024719238" lon="7.46891641616821">
    <ele>999.167541503906</ele>
    <time>2012-03-04T14:55:35Z</time>
   </trkpt>
   <trkpt lat="46.3080291748047" lon="7.46894454956055">
    <ele>999.275634765625</ele>
    <time>2012-03-04T14:55:36Z</time>
   </trkpt>
   <trkpt lat="46.3080596923828" lon="7.46896934509277">
    <ele>999.3837890625</ele>
    <time>2012-03-04T14:55:37Z</time>
   </trkpt>
   <trkpt lat="46.3080863952637" lon="7.46898698806763">
    <ele>999.491882324219</ele>
    <time>2012-03-04T14:55:38Z</time>
   </trkpt>
   <trkpt lat="46.30810546875" lon="7.46900796890259">
    <ele>999.599975585938</ele>
    <time>2012-03-04T14:55:39Z</time>
   </trkpt>
   <trkpt lat="46.3081321716309" lon="7.46903133392334">
    <ele>999.599975585938</ele>
    <time>2012-03-04T14:55:40Z</time>
   </trkpt>
   <trkpt lat="46.3082427978516" lon="7.46919679641724">
    <ele>1000.75787353516</ele>
    <time>2012-03-04T14:55:45Z</time>
   </trkpt>
   <trkpt lat="46.3082656860352" lon="7.46923732757568">
    <ele>1000.98944091797</ele>
    <time>2012-03-04T14:55:46Z</time>
   </trkpt>
   <trkpt lat="46.3082847595215" lon="7.46927738189697">
    <ele>1001.22100830078</ele>
    <time>2012-03-04T14:55:47Z</time>
   </trkpt>
   <trkpt lat="46.3083076477051" lon="7.4693112373352">
    <ele>1001.45263671875</ele>
    <time>2012-03-04T14:55:48Z</time>
   </trkpt>
   <trkpt lat="46.3083305358887" lon="7.4693398475647">
    <ele>1001.68420410156</ele>
    <time>2012-03-04T14:55:49Z</time>
   </trkpt>
   <trkpt lat="46.3083610534668" lon="7.46936368942261">
    <ele>1001.91577148438</ele>
    <time>2012-03-04T14:55:50Z</time>
   </trkpt>
   <trkpt lat="46.3084907531738" lon="7.46953630447388">
    <ele>1003.07366943359</ele>
    <time>2012-03-04T14:55:55Z</time>
   </trkpt>
   <trkpt lat="46.3085060119629" lon="7.46958065032959">
    <ele>1003.30523681641</ele>
    <time>2012-03-04T14:55:56Z</time>
   </trkpt>
   <trkpt lat="46.3085250854492" lon="7.46962404251099">
    <ele>1003.53686523438</ele>
    <time>2012-03-04T14:55:57Z</time>
   </trkpt>
   <trkpt lat="46.3085403442383" lon="7.46966409683228">
    <ele>1003.76843261719</ele>
    <time>2012-03-04T14:55:58Z</time>
   </trkpt>
   <trkpt lat="46.3085594177246" lon="7.46970748901367">
    <ele>1004</ele>
    <time>2012-03-04T14:55:59Z</time>
   </trkpt>
   <trkpt lat="46.3085975646973" lon="7.46979093551636">
    <ele>1004</ele>
    <time>2012-03-04T14:56:01Z</time>
   </trkpt>
   <trkpt lat="46.3086471557617" lon="7.46990823745728">
    <ele>1005</ele>
    <time>2012-03-04T14:56:04Z</time>
   </trkpt>
   <trkpt lat="46.308666229248" lon="7.4699444770813">
    <ele>1005.33331298828</ele>
    <time>2012-03-04T14:56:05Z</time>
   </trkpt>
   <trkpt lat="46.3086814880371" lon="7.46998262405396">
    <ele>1005.66668701172</ele>
    <time>2012-03-04T14:56:06Z</time>
   </trkpt>
   <trkpt lat="46.3086967468262" lon="7.47002220153809">
    <ele>1006</ele>
    <time>2012-03-04T14:56:07Z</time>
   </trkpt>
   <trkpt lat="46.3087120056152" lon="7.47006368637085">
    <ele>1006</ele>
    <time>2012-03-04T14:56:08Z</time>
   </trkpt>
   <trkpt lat="46.3087539672852" lon="7.47018194198608">
    <ele>1006.94287109375</ele>
    <time>2012-03-04T14:56:11Z</time>
   </trkpt>
   <trkpt lat="46.308765411377" lon="7.47022104263306">
    <ele>1007.25714111328</ele>
    <time>2012-03-04T14:56:12Z</time>
   </trkpt>
   <trkpt lat="46.308780670166" lon="7.47026062011719">
    <ele>1007.57141113281</ele>
    <time>2012-03-04T14:56:13Z</time>
   </trkpt>
   <trkpt lat="46.3087921142578" lon="7.47030353546143">
    <ele>1007.8857421875</ele>
    <time>2012-03-04T14:56:14Z</time>
   </trkpt>
   <trkpt lat="46.3088035583496" lon="7.47034502029419">
    <ele>1008.20001220703</ele>
    <time>2012-03-04T14:56:15Z</time>
   </trkpt>
   <trkpt lat="46.3088798522949" lon="7.47065782546997">
    <ele>1008.20001220703</ele>
    <time>2012-03-04T14:56:22Z</time>
   </trkpt>
   <trkpt lat="46.3089065551758" lon="7.4707498550415">
    <ele>1008.86669921875</ele>
    <time>2012-03-04T14:56:24Z</time>
   </trkpt>
   <trkpt lat="46.3089218139648" lon="7.47079563140869">
    <ele>1009.20001220703</ele>
    <time>2012-03-04T14:56:25Z</time>
   </trkpt>
   <trkpt lat="46.3089370727539" lon="7.47084522247314">
    <ele>1009.53332519531</ele>
    <time>2012-03-04T14:56:26Z</time>
   </trkpt>
   <trkpt lat="46.308952331543" lon="7.47089529037476">
    <ele>1009.86669921875</ele>
    <time>2012-03-04T14:56:27Z</time>
   </trkpt>
   <trkpt lat="46.3089637756348" lon="7.47094583511352">
    <ele>1010.20001220703</ele>
    <time>2012-03-04T14:56:28Z</time>
   </trkpt>
   <trkpt lat="46.3089790344238" lon="7.47099733352661">
    <ele>1010.20001220703</ele>
    <time>2012-03-04T14:56:29Z</time>
   </trkpt>
   <trkpt lat="46.3090629577637" lon="7.47132158279419">
    <ele>1010.72802734375</ele>
    <time>2012-03-04T14:56:35Z</time>
   </trkpt>
   <trkpt lat="46.3090782165527" lon="7.47137498855591">
    <ele>1010.81604003906</ele>
    <time>2012-03-04T14:56:36Z</time>
   </trkpt>
   <trkpt lat="46.3091354370117" lon="7.47158718109131">
    <ele>1011.16802978516</ele>
    <time>2012-03-04T14:56:40Z</time>
   </trkpt>
   <trkpt lat="46.3092422485352" lon="7.47202062606812">
    <ele>1011.87200927734</ele>
    <time>2012-03-04T14:56:48Z</time>
   </trkpt>
   <trkpt lat="46.309268951416" lon="7.47212982177734">
    <ele>1012.04803466797</ele>
    <time>2012-03-04T14:56:50Z</time>
   </trkpt>
   <trkpt lat="46.3092803955078" lon="7.4721851348877">
    <ele>1012.13604736328</ele>
    <time>2012-03-04T14:56:51Z</time>
   </trkpt>
   <trkpt lat="46.3092956542969" lon="7.47224235534668">
    <ele>1012.22399902344</ele>
    <time>2012-03-04T14:56:52Z</time>
   </trkpt>
   <trkpt lat="46.3093109130859" lon="7.47229814529419">
    <ele>1012.31201171875</ele>
    <time>2012-03-04T14:56:53Z</time>
   </trkpt>
   <trkpt lat="46.3093223571777" lon="7.47235107421875">
    <ele>1012.40002441406</ele>
    <time>2012-03-04T14:56:54Z</time>
   </trkpt>
   <trkpt lat="46.3093528747559" lon="7.47245788574219">
    <ele>1012.40002441406</ele>
    <time>2012-03-04T14:56:56Z</time>
   </trkpt>
   <trkpt lat="46.3095016479492" lon="7.47296619415283">
    <ele>1013.97143554688</ele>
    <time>2012-03-04T14:57:06Z</time>
   </trkpt>
   <trkpt lat="46.3095207214356" lon="7.47301721572876">
    <ele>1014.12854003906</ele>
    <time>2012-03-04T14:57:07Z</time>
   </trkpt>
   <trkpt lat="46.3095397949219" lon="7.473069190979">
    <ele>1014.28570556641</ele>
    <time>2012-03-04T14:57:08Z</time>
   </trkpt>
   <trkpt lat="46.3095588684082" lon="7.47311878204346">
    <ele>1014.44281005859</ele>
    <time>2012-03-04T14:57:09Z</time>
   </trkpt>
   <trkpt lat="46.3095817565918" lon="7.47316789627075">
    <ele>1014.59997558594</ele>
    <time>2012-03-04T14:57:10Z</time>
   </trkpt>
   <trkpt lat="46.3096885681152" lon="7.47341012954712">
    <ele>1014.59997558594</ele>
    <time>2012-03-04T14:57:15Z</time>
   </trkpt>
   <trkpt lat="46.3097763061523" lon="7.47359561920166">
    <ele>1015.69995117188</ele>
    <time>2012-03-04T14:57:19Z</time>
   </trkpt>
   <trkpt lat="46.3098030090332" lon="7.47363901138306">
    <ele>1015.97497558594</ele>
    <time>2012-03-04T14:57:20Z</time>
   </trkpt>
   <trkpt lat="46.3098220825195" lon="7.47368144989014">
    <ele>1016.25</ele>
    <time>2012-03-04T14:57:21Z</time>
   </trkpt>
   <trkpt lat="46.3098411560059" lon="7.47372341156006">
    <ele>1016.52496337891</ele>
    <time>2012-03-04T14:57:22Z</time>
   </trkpt>
   <trkpt lat="46.3098564147949" lon="7.47376775741577">
    <ele>1016.79998779297</ele>
    <time>2012-03-04T14:57:23Z</time>
   </trkpt>
   <trkpt lat="46.3099365234375" lon="7.47393321990967">
    <ele>1016.79998779297</ele>
    <time>2012-03-04T14:57:27Z</time>
   </trkpt>
   <trkpt lat="46.3101119995117" lon="7.47429180145264">
    <ele>1018.05712890625</ele>
    <time>2012-03-04T14:57:35Z</time>
   </trkpt>
   <trkpt lat="46.3101539611816" lon="7.47439575195312">
    <ele>1018.37139892578</ele>
    <time>2012-03-04T14:57:37Z</time>
   </trkpt>
   <trkpt lat="46.310173034668" lon="7.47444677352905">
    <ele>1018.52856445312</ele>
    <time>2012-03-04T14:57:38Z</time>
   </trkpt>
   <trkpt lat="46.3101959228516" lon="7.47449445724487">
    <ele>1018.68572998047</ele>
    <time>2012-03-04T14:57:39Z</time>
   </trkpt>
   <trkpt lat="46.3102226257324" lon="7.47454309463501">
    <ele>1018.84283447266</ele>
    <time>2012-03-04T14:57:40Z</time>
   </trkpt>
   <trkpt lat="46.3102493286133" lon="7.47459173202515">
    <ele>1019</ele>
    <time>2012-03-04T14:57:41Z</time>
   </trkpt>
   <trkpt lat="46.310417175293" lon="7.47494316101074">
    <ele>1019</ele>
    <time>2012-03-04T14:57:48Z</time>
   </trkpt>
   <trkpt lat="46.3105659484863" lon="7.4752516746521">
    <ele>1019.70587158203</ele>
    <time>2012-03-04T14:57:54Z</time>
   </trkpt>
   <trkpt lat="46.3106155395508" lon="7.4753532409668">
    <ele>1019.94116210938</ele>
    <time>2012-03-04T14:57:56Z</time>
   </trkpt>
   <trkpt lat="46.3107490539551" lon="7.47561597824097">
    <ele>1020.52941894531</ele>
    <time>2012-03-04T14:58:01Z</time>
   </trkpt>
   <trkpt lat="46.3107757568359" lon="7.47566938400268">
    <ele>1020.64703369141</ele>
    <time>2012-03-04T14:58:02Z</time>
   </trkpt>
   <trkpt lat="46.3108024597168" lon="7.47572231292725">
    <ele>1020.76470947266</ele>
    <time>2012-03-04T14:58:03Z</time>
   </trkpt>
   <trkpt lat="46.3108291625977" lon="7.47577333450317">
    <ele>1020.88232421875</ele>
    <time>2012-03-04T14:58:04Z</time>
   </trkpt>
   <trkpt lat="46.3108520507812" lon="7.47582674026489">
    <ele>1021</ele>
    <time>2012-03-04T14:58:05Z</time>
   </trkpt>
   <trkpt lat="46.3110466003418" lon="7.47627973556518">
    <ele>1021</ele>
    <time>2012-03-04T14:58:13Z</time>
   </trkpt>
   <trkpt lat="46.311149597168" lon="7.47661542892456">
    <ele>1021.93334960938</ele>
    <time>2012-03-04T14:58:19Z</time>
   </trkpt>
   <trkpt lat="46.3112373352051" lon="7.47677993774414">
    <ele>1022.55554199219</ele>
    <time>2012-03-04T14:58:23Z</time>
   </trkpt>
   <trkpt lat="46.3113670349121" lon="7.47687530517578">
    <ele>1023.177734375</ele>
    <time>2012-03-04T14:58:27Z</time>
   </trkpt>
   <trkpt lat="46.3113861083984" lon="7.47701549530029">
    <ele>1023.64440917969</ele>
    <time>2012-03-04T14:58:30Z</time>
   </trkpt>
   <trkpt lat="46.3113861083984" lon="7.47706413269043">
    <ele>1023.79998779297</ele>
    <time>2012-03-04T14:58:31Z</time>
   </trkpt>
   <trkpt lat="46.3113861083984" lon="7.4771089553833">
    <ele>1023.95550537109</ele>
    <time>2012-03-04T14:58:32Z</time>
   </trkpt>
   <trkpt lat="46.3113822937012" lon="7.47715377807617">
    <ele>1024.11108398438</ele>
    <time>2012-03-04T14:58:33Z</time>
   </trkpt>
   <trkpt lat="46.3114013671875" lon="7.477294921875">
    <ele>1024.57775878906</ele>
    <time>2012-03-04T14:58:36Z</time>
   </trkpt>
   <trkpt lat="46.3114128112793" lon="7.47733926773071">
    <ele>1024.73327636719</ele>
    <time>2012-03-04T14:58:37Z</time>
   </trkpt>
   <trkpt lat="46.3114280700684" lon="7.47737693786621">
    <ele>1024.88879394531</ele>
    <time>2012-03-04T14:58:38Z</time>
   </trkpt>
   <trkpt lat="46.3114433288574" lon="7.47741317749024">
    <ele>1025.04443359375</ele>
    <time>2012-03-04T14:58:39Z</time>
   </trkpt>
   <trkpt lat="46.3114624023438" lon="7.47745180130005">
    <ele>1025.19995117188</ele>
    <time>2012-03-04T14:58:40Z</time>
   </trkpt>
   <trkpt lat="46.3115043640137" lon="7.47752094268799">
    <ele>1025.19995117188</ele>
    <time>2012-03-04T14:58:42Z</time>
   </trkpt>
   <trkpt lat="46.3115692138672" lon="7.47766447067261">
    <ele>1026.30004882812</ele>
    <time>2012-03-04T14:58:46Z</time>
   </trkpt>
   <trkpt lat="46.311580657959" lon="7.47769784927368">
    <ele>1026.57495117188</ele>
    <time>2012-03-04T14:58:47Z</time>
   </trkpt>
   <trkpt lat="46.3115921020508" lon="7.47772884368896">
    <ele>1026.84997558594</ele>
    <time>2012-03-04T14:58:48Z</time>
   </trkpt>
   <trkpt lat="46.3116073608398" lon="7.47775936126709">
    <ele>1027.125</ele>
    <time>2012-03-04T14:58:49Z</time>
   </trkpt>
   <trkpt lat="46.3116226196289" lon="7.4777889251709">
    <ele>1027.40002441406</ele>
    <time>2012-03-04T14:58:50Z</time>
   </trkpt>
   <trkpt lat="46.3116989135742" lon="7.47792625427246">
    <ele>1027.40002441406</ele>
    <time>2012-03-04T14:58:54Z</time>
   </trkpt>
   <trkpt lat="46.3117752075195" lon="7.47802352905274">
    <ele>1028.65710449219</ele>
    <time>2012-03-04T14:58:58Z</time>
   </trkpt>
   <trkpt lat="46.3117942810059" lon="7.47804880142212">
    <ele>1028.97143554688</ele>
    <time>2012-03-04T14:58:59Z</time>
   </trkpt>
   <trkpt lat="46.3118171691894" lon="7.47807264328003">
    <ele>1029.28564453125</ele>
    <time>2012-03-04T14:59:00Z</time>
   </trkpt>
   <trkpt lat="46.311840057373" lon="7.47810459136963">
    <ele>1029.59997558594</ele>
    <time>2012-03-04T14:59:01Z</time>
   </trkpt>
   <trkpt lat="46.3119277954102" lon="7.4782395362854">
    <ele>1029.59997558594</ele>
    <time>2012-03-04T14:59:05Z</time>
   </trkpt>
   <trkpt lat="46.3119926452637" lon="7.47831630706787">
    <ele>1030.27893066406</ele>
    <time>2012-03-04T14:59:08Z</time>
   </trkpt>
   <trkpt lat="46.3120155334473" lon="7.47834062576294">
    <ele>1030.50524902344</ele>
    <time>2012-03-04T14:59:09Z</time>
   </trkpt>
   <trkpt lat="46.3120384216309" lon="7.47836685180664">
    <ele>1030.73156738281</ele>
    <time>2012-03-04T14:59:10Z</time>
   </trkpt>
   <trkpt lat="46.3120613098144" lon="7.47839307785034">
    <ele>1030.95788574219</ele>
    <time>2012-03-04T14:59:11Z</time>
   </trkpt>
   <trkpt lat="46.3120803833008" lon="7.47841882705688">
    <ele>1031.18420410156</ele>
    <time>2012-03-04T14:59:12Z</time>
   </trkpt>
   <trkpt lat="46.3122215270996" lon="7.47858572006226">
    <ele>1032.76843261719</ele>
    <time>2012-03-04T14:59:19Z</time>
   </trkpt>
   <trkpt lat="46.3122406005859" lon="7.47861003875732">
    <ele>1032.99475097656</ele>
    <time>2012-03-04T14:59:20Z</time>
   </trkpt>
   <trkpt lat="46.3122596740723" lon="7.47863245010376">
    <ele>1033.22106933594</ele>
    <time>2012-03-04T14:59:21Z</time>
   </trkpt>
   <trkpt lat="46.3122749328613" lon="7.47865438461304">
    <ele>1033.44738769531</ele>
    <time>2012-03-04T14:59:22Z</time>
   </trkpt>
   <trkpt lat="46.3122940063477" lon="7.47867631912232">
    <ele>1033.67370605469</ele>
    <time>2012-03-04T14:59:23Z</time>
   </trkpt>
   <trkpt lat="46.3123893737793" lon="7.47879314422607">
    <ele>1034.80517578125</ele>
    <time>2012-03-04T14:59:28Z</time>
   </trkpt>
   <trkpt lat="46.3124046325684" lon="7.47881746292114">
    <ele>1035.03149414062</ele>
    <time>2012-03-04T14:59:29Z</time>
   </trkpt>
   <trkpt lat="46.3124237060547" lon="7.4788408279419">
    <ele>1035.2578125</ele>
    <time>2012-03-04T14:59:30Z</time>
   </trkpt>
   <trkpt lat="46.3124389648438" lon="7.4788646697998">
    <ele>1035.48413085938</ele>
    <time>2012-03-04T14:59:31Z</time>
   </trkpt>
   <trkpt lat="46.3124580383301" lon="7.4788875579834">
    <ele>1035.71044921875</ele>
    <time>2012-03-04T14:59:32Z</time>
   </trkpt>
   <trkpt lat="46.3125877380371" lon="7.47904586791992">
    <ele>1037.29467773438</ele>
    <time>2012-03-04T14:59:39Z</time>
   </trkpt>
   <trkpt lat="46.3126029968262" lon="7.47906923294067">
    <ele>1037.52099609375</ele>
    <time>2012-03-04T14:59:40Z</time>
   </trkpt>
   <trkpt lat="46.3126182556152" lon="7.47909593582153">
    <ele>1037.74731445312</ele>
    <time>2012-03-04T14:59:41Z</time>
   </trkpt>
   <trkpt lat="46.3126373291016" lon="7.47912311553955">
    <ele>1037.9736328125</ele>
    <time>2012-03-04T14:59:42Z</time>
   </trkpt>
   <trkpt lat="46.3126564025879" lon="7.4791464805603">
    <ele>1038.19995117188</ele>
    <time>2012-03-04T14:59:43Z</time>
   </trkpt>
   <trkpt lat="46.3127250671387" lon="7.47924995422363">
    <ele>1038.19995117188</ele>
    <time>2012-03-04T14:59:47Z</time>
   </trkpt>
   <trkpt lat="46.3127746582031" lon="7.47931909561157">
    <ele>1039.14282226562</ele>
    <time>2012-03-04T14:59:50Z</time>
   </trkpt>
   <trkpt lat="46.3127937316894" lon="7.47934103012085">
    <ele>1039.45715332031</ele>
    <time>2012-03-04T14:59:51Z</time>
   </trkpt>
   <trkpt lat="46.3128128051758" lon="7.47936487197876">
    <ele>1039.771484375</ele>
    <time>2012-03-04T14:59:52Z</time>
   </trkpt>
   <trkpt lat="46.3128318786621" lon="7.47938871383667">
    <ele>1040.08569335938</ele>
    <time>2012-03-04T14:59:53Z</time>
   </trkpt>
   <trkpt lat="46.3128509521484" lon="7.47941207885742">
    <ele>1040.40002441406</ele>
    <time>2012-03-04T14:59:54Z</time>
   </trkpt>
   <trkpt lat="46.3128662109375" lon="7.47943687438965">
    <ele>1040.40002441406</ele>
    <time>2012-03-04T14:59:55Z</time>
   </trkpt>
   <trkpt lat="46.3129272460938" lon="7.4795331954956">
    <ele>1041.40002441406</ele>
    <time>2012-03-04T14:59:59Z</time>
   </trkpt>
   <trkpt lat="46.3129425048828" lon="7.47955560684204">
    <ele>1041.65002441406</ele>
    <time>2012-03-04T15:00:00Z</time>
   </trkpt>
   <trkpt lat="46.3129577636719" lon="7.47957992553711">
    <ele>1041.90002441406</ele>
    <time>2012-03-04T15:00:01Z</time>
   </trkpt>
   <trkpt lat="46.3129730224609" lon="7.47960710525513">
    <ele>1042.15002441406</ele>
    <time>2012-03-04T15:00:02Z</time>
   </trkpt>
   <trkpt lat="46.3129920959473" lon="7.47963237762451">
    <ele>1042.40002441406</ele>
    <time>2012-03-04T15:00:03Z</time>
   </trkpt>
   <trkpt lat="46.3131065368652" lon="7.47976636886597">
    <ele>1042.40002441406</ele>
    <time>2012-03-04T15:00:09Z</time>
   </trkpt>
   <trkpt lat="46.3131217956543" lon="7.47978734970093">
    <ele>1042.94995117188</ele>
    <time>2012-03-04T15:00:10Z</time>
   </trkpt>
   <trkpt lat="46.3131408691406" lon="7.47980785369873">
    <ele>1043.5</ele>
    <time>2012-03-04T15:00:11Z</time>
   </trkpt>
   <trkpt lat="46.313159942627" lon="7.47982835769653">
    <ele>1044.05004882812</ele>
    <time>2012-03-04T15:00:12Z</time>
   </trkpt>
   <trkpt lat="46.3131790161133" lon="7.47985076904297">
    <ele>1044.59997558594</ele>
    <time>2012-03-04T15:00:13Z</time>
   </trkpt>
   <trkpt lat="46.3132362365723" lon="7.4799165725708">
    <ele>1044.59997558594</ele>
    <time>2012-03-04T15:00:16Z</time>
   </trkpt>
   <trkpt lat="46.3132781982422" lon="7.47995376586914">
    <ele>1045.2666015625</ele>
    <time>2012-03-04T15:00:18Z</time>
   </trkpt>
   <trkpt lat="46.3132934570312" lon="7.47996950149536">
    <ele>1045.59997558594</ele>
    <time>2012-03-04T15:00:19Z</time>
   </trkpt>
   <trkpt lat="46.3133125305176" lon="7.47998332977295">
    <ele>1045.93334960938</ele>
    <time>2012-03-04T15:00:20Z</time>
   </trkpt>
   <trkpt lat="46.3133316040039" lon="7.48000335693359">
    <ele>1046.2666015625</ele>
    <time>2012-03-04T15:00:21Z</time>
   </trkpt>
   <trkpt lat="46.3133506774902" lon="7.48002099990845">
    <ele>1046.59997558594</ele>
    <time>2012-03-04T15:00:22Z</time>
   </trkpt>
   <trkpt lat="46.3133697509766" lon="7.48003530502319">
    <ele>1046.59997558594</ele>
    <time>2012-03-04T15:00:23Z</time>
   </trkpt>
   <trkpt lat="46.3134689331055" lon="7.48008918762207">
    <ele>1047.822265625</ele>
    <time>2012-03-04T15:00:28Z</time>
   </trkpt>
   <trkpt lat="46.3134841918945" lon="7.4801025390625">
    <ele>1048.06665039062</ele>
    <time>2012-03-04T15:00:29Z</time>
   </trkpt>
   <trkpt lat="46.3135032653809" lon="7.48011445999146">
    <ele>1048.31115722656</ele>
    <time>2012-03-04T15:00:30Z</time>
   </trkpt>
   <trkpt lat="46.3135261535644" lon="7.48012685775757">
    <ele>1048.55554199219</ele>
    <time>2012-03-04T15:00:31Z</time>
   </trkpt>
   <trkpt lat="46.3135452270508" lon="7.48014068603516">
    <ele>1048.80004882812</ele>
    <time>2012-03-04T15:00:32Z</time>
   </trkpt>
   <trkpt lat="46.3135795593262" lon="7.48017168045044">
    <ele>1048.80004882812</ele>
    <time>2012-03-04T15:00:34Z</time>
   </trkpt>
   <trkpt lat="46.3136367797852" lon="7.48022317886352">
    <ele>1049.58752441406</ele>
    <time>2012-03-04T15:00:37Z</time>
   </trkpt>
   <trkpt lat="46.3136596679688" lon="7.48024749755859">
    <ele>1049.85009765625</ele>
    <time>2012-03-04T15:00:38Z</time>
   </trkpt>
   <trkpt lat="46.3136825561523" lon="7.48026943206787">
    <ele>1050.11254882812</ele>
    <time>2012-03-04T15:00:39Z</time>
   </trkpt>
   <trkpt lat="46.3137016296387" lon="7.48029041290283">
    <ele>1050.375</ele>
    <time>2012-03-04T15:00:40Z</time>
   </trkpt>
   <trkpt lat="46.3138084411621" lon="7.48042583465576">
    <ele>1051.94995117188</ele>
    <time>2012-03-04T15:00:46Z</time>
   </trkpt>
   <trkpt lat="46.3138275146484" lon="7.48044490814209">
    <ele>1052.21252441406</ele>
    <time>2012-03-04T15:00:47Z</time>
   </trkpt>
   <trkpt lat="46.3138427734375" lon="7.48046731948852">
    <ele>1052.47497558594</ele>
    <time>2012-03-04T15:00:48Z</time>
   </trkpt>
   <trkpt lat="46.3138580322266" lon="7.4804892539978">
    <ele>1052.73754882812</ele>
    <time>2012-03-04T15:00:49Z</time>
   </trkpt>
   <trkpt lat="46.3138771057129" lon="7.48050832748413">
    <ele>1053</ele>
    <time>2012-03-04T15:00:50Z</time>
   </trkpt>
   <trkpt lat="46.3139266967773" lon="7.48056507110596">
    <ele>1053</ele>
    <time>2012-03-04T15:00:53Z</time>
   </trkpt>
   <trkpt lat="46.3139610290527" lon="7.48060894012451">
    <ele>1053.66662597656</ele>
    <time>2012-03-04T15:00:55Z</time>
   </trkpt>
   <trkpt lat="46.3139762878418" lon="7.48062944412232">
    <ele>1054</ele>
    <time>2012-03-04T15:00:56Z</time>
   </trkpt>
   <trkpt lat="46.3139915466309" lon="7.48065137863159">
    <ele>1054.33337402344</ele>
    <time>2012-03-04T15:00:57Z</time>
   </trkpt>
   <trkpt lat="46.3140106201172" lon="7.48067665100098">
    <ele>1054.66662597656</ele>
    <time>2012-03-04T15:00:58Z</time>
   </trkpt>
   <trkpt lat="46.3140258789062" lon="7.48070192337036">
    <ele>1055</ele>
    <time>2012-03-04T15:00:59Z</time>
   </trkpt>
   <trkpt lat="46.3140678405762" lon="7.48076581954956">
    <ele>1055</ele>
    <time>2012-03-04T15:01:02Z</time>
   </trkpt>
   <trkpt lat="46.3140983581543" lon="7.48081254959106">
    <ele>1055.73327636719</ele>
    <time>2012-03-04T15:01:04Z</time>
   </trkpt>
   <trkpt lat="46.3141098022461" lon="7.48083829879761">
    <ele>1056.09997558594</ele>
    <time>2012-03-04T15:01:05Z</time>
   </trkpt>
   <trkpt lat="46.3141250610352" lon="7.48086261749268">
    <ele>1056.46667480469</ele>
    <time>2012-03-04T15:01:06Z</time>
   </trkpt>
   <trkpt lat="46.314136505127" lon="7.4808874130249">
    <ele>1056.83325195312</ele>
    <time>2012-03-04T15:01:07Z</time>
   </trkpt>
   <trkpt lat="46.314151763916" lon="7.48091173171997">
    <ele>1057.19995117188</ele>
    <time>2012-03-04T15:01:08Z</time>
   </trkpt>
   <trkpt lat="46.3142204284668" lon="7.48102855682373">
    <ele>1057.19995117188</ele>
    <time>2012-03-04T15:01:13Z</time>
   </trkpt>
   <trkpt lat="46.3142471313477" lon="7.48106813430786">
    <ele>1057.86657714844</ele>
    <time>2012-03-04T15:01:15Z</time>
   </trkpt>
   <trkpt lat="46.3142623901367" lon="7.48109149932861">
    <ele>1058.19995117188</ele>
    <time>2012-03-04T15:01:16Z</time>
   </trkpt>
   <trkpt lat="46.3142738342285" lon="7.48111057281494">
    <ele>1058.53332519531</ele>
    <time>2012-03-04T15:01:17Z</time>
   </trkpt>
   <trkpt lat="46.3142929077148" lon="7.48113059997559">
    <ele>1058.86657714844</ele>
    <time>2012-03-04T15:01:18Z</time>
   </trkpt>
   <trkpt lat="46.3143043518066" lon="7.48114776611328">
    <ele>1059.19995117188</ele>
    <time>2012-03-04T15:01:19Z</time>
   </trkpt>
   <trkpt lat="46.3143272399902" lon="7.48119735717774">
    <ele>1059.19995117188</ele>
    <time>2012-03-04T15:01:21Z</time>
   </trkpt>
   <trkpt lat="46.3143768310547" lon="7.48125076293945">
    <ele>1060.19995117188</ele>
    <time>2012-03-04T15:01:24Z</time>
   </trkpt>
   <trkpt lat="46.3143920898438" lon="7.48126935958862">
    <ele>1060.53332519531</ele>
    <time>2012-03-04T15:01:25Z</time>
   </trkpt>
   <trkpt lat="46.3144111633301" lon="7.48128890991211">
    <ele>1060.86657714844</ele>
    <time>2012-03-04T15:01:26Z</time>
   </trkpt>
   <trkpt lat="46.3144302368164" lon="7.48130559921265">
    <ele>1061.19995117188</ele>
    <time>2012-03-04T15:01:27Z</time>
   </trkpt>
   <trkpt lat="46.3145484924316" lon="7.48144960403442">
    <ele>1061.19995117188</ele>
    <time>2012-03-04T15:01:33Z</time>
   </trkpt>
   <trkpt lat="46.3145713806152" lon="7.48146533966064">
    <ele>1061.64001464844</ele>
    <time>2012-03-04T15:01:34Z</time>
   </trkpt>
   <trkpt lat="46.3145904541016" lon="7.48148012161255">
    <ele>1062.07995605469</ele>
    <time>2012-03-04T15:01:35Z</time>
   </trkpt>
   <trkpt lat="46.3146057128906" lon="7.48149728775024">
    <ele>1062.52001953125</ele>
    <time>2012-03-04T15:01:36Z</time>
   </trkpt>
   <trkpt lat="46.314624786377" lon="7.48151397705078">
    <ele>1062.9599609375</ele>
    <time>2012-03-04T15:01:37Z</time>
   </trkpt>
   <trkpt lat="46.3146438598633" lon="7.48153114318848">
    <ele>1063.40002441406</ele>
    <time>2012-03-04T15:01:38Z</time>
   </trkpt>
   <trkpt lat="46.3146591186523" lon="7.48154973983765">
    <ele>1063.40002441406</ele>
    <time>2012-03-04T15:01:39Z</time>
   </trkpt>
   <trkpt lat="46.3147239685059" lon="7.48162174224854">
    <ele>1064.44995117188</ele>
    <time>2012-03-04T15:01:43Z</time>
   </trkpt>
   <trkpt lat="46.3147430419922" lon="7.48163747787476">
    <ele>1064.71252441406</ele>
    <time>2012-03-04T15:01:44Z</time>
   </trkpt>
   <trkpt lat="46.3147621154785" lon="7.48165321350098">
    <ele>1064.97497558594</ele>
    <time>2012-03-04T15:01:45Z</time>
   </trkpt>
   <trkpt lat="46.3147811889648" lon="7.48167133331299">
    <ele>1065.23754882812</ele>
    <time>2012-03-04T15:01:46Z</time>
   </trkpt>
   <trkpt lat="46.3147964477539" lon="7.48168992996216">
    <ele>1065.5</ele>
    <time>2012-03-04T15:01:47Z</time>
   </trkpt>
   <trkpt lat="46.3148612976074" lon="7.4817624092102">
    <ele>1066.55004882812</ele>
    <time>2012-03-04T15:01:51Z</time>
   </trkpt>
   <trkpt lat="46.3148765563965" lon="7.48177909851074">
    <ele>1066.8125</ele>
    <time>2012-03-04T15:01:52Z</time>
   </trkpt>
   <trkpt lat="46.3148880004883" lon="7.48179721832275">
    <ele>1067.07495117188</ele>
    <time>2012-03-04T15:01:53Z</time>
   </trkpt>
   <trkpt lat="46.3149070739746" lon="7.48181247711182">
    <ele>1067.33752441406</ele>
    <time>2012-03-04T15:01:54Z</time>
   </trkpt>
   <trkpt lat="46.3149261474609" lon="7.48182439804077">
    <ele>1067.59997558594</ele>
    <time>2012-03-04T15:01:55Z</time>
   </trkpt>
   <trkpt lat="46.314998626709" lon="7.48189163208008">
    <ele>1067.59997558594</ele>
    <time>2012-03-04T15:01:59Z</time>
   </trkpt>
   <trkpt lat="46.3150520324707" lon="7.48194885253906">
    <ele>1068.34118652344</ele>
    <time>2012-03-04T15:02:02Z</time>
   </trkpt>
   <trkpt lat="46.3150672912598" lon="7.48196887969971">
    <ele>1068.58825683594</ele>
    <time>2012-03-04T15:02:03Z</time>
   </trkpt>
   <trkpt lat="46.3150863647461" lon="7.48198890686035">
    <ele>1068.83532714844</ele>
    <time>2012-03-04T15:02:04Z</time>
   </trkpt>
   <trkpt lat="46.3151016235352" lon="7.48200798034668">
    <ele>1069.08239746094</ele>
    <time>2012-03-04T15:02:05Z</time>
   </trkpt>
   <trkpt lat="46.3151206970215" lon="7.48202657699585">
    <ele>1069.32946777344</ele>
    <time>2012-03-04T15:02:06Z</time>
   </trkpt>
   <trkpt lat="46.3152465820312" lon="7.48218202590942">
    <ele>1071.05883789062</ele>
    <time>2012-03-04T15:02:13Z</time>
   </trkpt>
   <trkpt lat="46.315258026123" lon="7.48220205307007">
    <ele>1071.30590820312</ele>
    <time>2012-03-04T15:02:14Z</time>
   </trkpt>
   <trkpt lat="46.3152694702148" lon="7.48222303390503">
    <ele>1071.55297851562</ele>
    <time>2012-03-04T15:02:15Z</time>
   </trkpt>
   <trkpt lat="46.3152847290039" lon="7.4822416305542">
    <ele>1071.80004882812</ele>
    <time>2012-03-04T15:02:16Z</time>
   </trkpt>
   <trkpt lat="46.3153190612793" lon="7.48229789733887">
    <ele>1071.80004882812</ele>
    <time>2012-03-04T15:02:19Z</time>
   </trkpt>
   <trkpt lat="46.3153495788574" lon="7.48233890533447">
    <ele>1072.30773925781</ele>
    <time>2012-03-04T15:02:21Z</time>
   </trkpt>
   <trkpt lat="46.3153648376465" lon="7.48236131668091">
    <ele>1072.5615234375</ele>
    <time>2012-03-04T15:02:22Z</time>
   </trkpt>
   <trkpt lat="46.3153800964356" lon="7.48238372802734">
    <ele>1072.8154296875</ele>
    <time>2012-03-04T15:02:23Z</time>
   </trkpt>
   <trkpt lat="46.3153953552246" lon="7.48240375518799">
    <ele>1073.0693359375</ele>
    <time>2012-03-04T15:02:24Z</time>
   </trkpt>
   <trkpt lat="46.3154144287109" lon="7.48242616653442">
    <ele>1073.32312011719</ele>
    <time>2012-03-04T15:02:25Z</time>
   </trkpt>
   <trkpt lat="46.3155059814453" lon="7.48255252838135">
    <ele>1074.84619140625</ele>
    <time>2012-03-04T15:02:31Z</time>
   </trkpt>
   <trkpt lat="46.3155212402344" lon="7.48257160186768">
    <ele>1075.10009765625</ele>
    <time>2012-03-04T15:02:32Z</time>
   </trkpt>
   <trkpt lat="46.3155326843262" lon="7.48259544372559">
    <ele>1075.35388183594</ele>
    <time>2012-03-04T15:02:33Z</time>
   </trkpt>
   <trkpt lat="46.3155479431152" lon="7.4826169013977">
    <ele>1075.60766601562</ele>
    <time>2012-03-04T15:02:34Z</time>
   </trkpt>
   <trkpt lat="46.315559387207" lon="7.48264026641846">
    <ele>1075.86157226562</ele>
    <time>2012-03-04T15:02:35Z</time>
   </trkpt>
   <trkpt lat="46.3156547546387" lon="7.48278045654297">
    <ele>1077.38464355469</ele>
    <time>2012-03-04T15:02:41Z</time>
   </trkpt>
   <trkpt lat="46.315673828125" lon="7.48280000686646">
    <ele>1077.63842773438</ele>
    <time>2012-03-04T15:02:42Z</time>
   </trkpt>
   <trkpt lat="46.3156852722168" lon="7.48281955718994">
    <ele>1077.89233398438</ele>
    <time>2012-03-04T15:02:43Z</time>
   </trkpt>
   <trkpt lat="46.3157005310059" lon="7.48283910751343">
    <ele>1078.14624023438</ele>
    <time>2012-03-04T15:02:44Z</time>
   </trkpt>
   <trkpt lat="46.3157157897949" lon="7.4828610420227">
    <ele>1078.40002441406</ele>
    <time>2012-03-04T15:02:45Z</time>
   </trkpt>
   <trkpt lat="46.315788269043" lon="7.48296499252319">
    <ele>1078.40002441406</ele>
    <time>2012-03-04T15:02:50Z</time>
   </trkpt>
   <trkpt lat="46.315803527832" lon="7.48298358917236">
    <ele>1078.80004882812</ele>
    <time>2012-03-04T15:02:51Z</time>
   </trkpt>
   <trkpt lat="46.3158187866211" lon="7.48300457000732">
    <ele>1079.20007324219</ele>
    <time>2012-03-04T15:02:52Z</time>
   </trkpt>
   <trkpt lat="46.3158340454102" lon="7.48302316665649">
    <ele>1079.59997558594</ele>
    <time>2012-03-04T15:02:53Z</time>
   </trkpt>
   <trkpt lat="46.3158493041992" lon="7.48304414749146">
    <ele>1080</ele>
    <time>2012-03-04T15:02:54Z</time>
   </trkpt>
   <trkpt lat="46.3158683776856" lon="7.48306512832642">
    <ele>1080.40002441406</ele>
    <time>2012-03-04T15:02:55Z</time>
   </trkpt>
   <trkpt lat="46.3159103393555" lon="7.48313474655151">
    <ele>1080.40002441406</ele>
    <time>2012-03-04T15:02:58Z</time>
   </trkpt>
   <trkpt lat="46.3159790039062" lon="7.48322248458862">
    <ele>1081.38830566406</ele>
    <time>2012-03-04T15:03:02Z</time>
   </trkpt>
   <trkpt lat="46.3159942626953" lon="7.48324680328369">
    <ele>1081.63525390625</ele>
    <time>2012-03-04T15:03:03Z</time>
   </trkpt>
   <trkpt lat="46.3160133361816" lon="7.48326873779297">
    <ele>1081.88232421875</ele>
    <time>2012-03-04T15:03:04Z</time>
   </trkpt>
   <trkpt lat="46.3160285949707" lon="7.48329210281372">
    <ele>1082.12939453125</ele>
    <time>2012-03-04T15:03:05Z</time>
   </trkpt>
   <trkpt lat="46.3160400390625" lon="7.48332023620606">
    <ele>1082.37646484375</ele>
    <time>2012-03-04T15:03:06Z</time>
   </trkpt>
   <trkpt lat="46.3161201477051" lon="7.48343563079834">
    <ele>1083.61169433594</ele>
    <time>2012-03-04T15:03:11Z</time>
   </trkpt>
   <trkpt lat="46.3161392211914" lon="7.48345947265625">
    <ele>1083.85876464844</ele>
    <time>2012-03-04T15:03:12Z</time>
   </trkpt>
   <trkpt lat="46.3161506652832" lon="7.48348522186279">
    <ele>1084.10583496094</ele>
    <time>2012-03-04T15:03:13Z</time>
   </trkpt>
   <trkpt lat="46.3161659240723" lon="7.48351001739502">
    <ele>1084.35290527344</ele>
    <time>2012-03-04T15:03:14Z</time>
   </trkpt>
   <trkpt lat="46.3161811828613" lon="7.4835376739502">
    <ele>1084.59997558594</ele>
    <time>2012-03-04T15:03:15Z</time>
   </trkpt>
   <trkpt lat="46.3161964416504" lon="7.48356103897095">
    <ele>1084.59997558594</ele>
    <time>2012-03-04T15:03:16Z</time>
   </trkpt>
   <trkpt lat="46.3162803649902" lon="7.48367023468018">
    <ele>1085.822265625</ele>
    <time>2012-03-04T15:03:21Z</time>
   </trkpt>
   <trkpt lat="46.3162956237793" lon="7.48369693756104">
    <ele>1086.06665039062</ele>
    <time>2012-03-04T15:03:22Z</time>
   </trkpt>
   <trkpt lat="46.3163146972656" lon="7.48372459411621">
    <ele>1086.31115722656</ele>
    <time>2012-03-04T15:03:23Z</time>
   </trkpt>
   <trkpt lat="46.3163299560547" lon="7.4837474822998">
    <ele>1086.55554199219</ele>
    <time>2012-03-04T15:03:24Z</time>
   </trkpt>
   <trkpt lat="46.316349029541" lon="7.48376655578613">
    <ele>1086.80004882812</ele>
    <time>2012-03-04T15:03:25Z</time>
   </trkpt>
   <trkpt lat="46.3163833618164" lon="7.48381233215332">
    <ele>1086.80004882812</ele>
    <time>2012-03-04T15:03:27Z</time>
   </trkpt>
   <trkpt lat="46.3164100646973" lon="7.48386001586914">
    <ele>1087.32507324219</ele>
    <time>2012-03-04T15:03:29Z</time>
   </trkpt>
   <trkpt lat="46.3164253234863" lon="7.48388385772705">
    <ele>1087.58752441406</ele>
    <time>2012-03-04T15:03:30Z</time>
   </trkpt>
   <trkpt lat="46.3164405822754" lon="7.4839129447937">
    <ele>1087.85009765625</ele>
    <time>2012-03-04T15:03:31Z</time>
   </trkpt>
   <trkpt lat="46.3164520263672" lon="7.48394060134888">
    <ele>1088.11254882812</ele>
    <time>2012-03-04T15:03:32Z</time>
   </trkpt>
   <trkpt lat="46.3164672851562" lon="7.48396062850952">
    <ele>1088.375</ele>
    <time>2012-03-04T15:03:33Z</time>
   </trkpt>
   <trkpt lat="46.3165397644043" lon="7.48413181304932">
    <ele>1089.94995117188</ele>
    <time>2012-03-04T15:03:39Z</time>
   </trkpt>
   <trkpt lat="46.3165473937988" lon="7.48417234420776">
    <ele>1090.21252441406</ele>
    <time>2012-03-04T15:03:40Z</time>
   </trkpt>
   <trkpt lat="46.3165512084961" lon="7.48420906066894">
    <ele>1090.47497558594</ele>
    <time>2012-03-04T15:03:41Z</time>
   </trkpt>
   <trkpt lat="46.3165626525879" lon="7.48423957824707">
    <ele>1090.73754882812</ele>
    <time>2012-03-04T15:03:42Z</time>
   </trkpt>
   <trkpt lat="46.3165702819824" lon="7.48427391052246">
    <ele>1091</ele>
    <time>2012-03-04T15:03:43Z</time>
   </trkpt>
   <trkpt lat="46.3165740966797" lon="7.48430871963501">
    <ele>1091</ele>
    <time>2012-03-04T15:03:44Z</time>
   </trkpt>
   <trkpt lat="46.3165817260742" lon="7.48437738418579">
    <ele>1091.59997558594</ele>
    <time>2012-03-04T15:03:46Z</time>
   </trkpt>
   <trkpt lat="46.3165817260742" lon="7.48441076278686">
    <ele>1091.90002441406</ele>
    <time>2012-03-04T15:03:47Z</time>
   </trkpt>
   <trkpt lat="46.3165817260742" lon="7.4844388961792">
    <ele>1092.19995117188</ele>
    <time>2012-03-04T15:03:48Z</time>
   </trkpt>
   <trkpt lat="46.3165817260742" lon="7.48446893692017">
    <ele>1092.5</ele>
    <time>2012-03-04T15:03:49Z</time>
   </trkpt>
   <trkpt lat="46.3165817260742" lon="7.48449850082398">
    <ele>1092.79992675781</ele>
    <time>2012-03-04T15:03:50Z</time>
   </trkpt>
   <trkpt lat="46.3165626525879" lon="7.48461818695068">
    <ele>1094</ele>
    <time>2012-03-04T15:03:54Z</time>
   </trkpt>
   <trkpt lat="46.3165588378906" lon="7.48464584350586">
    <ele>1094.29992675781</ele>
    <time>2012-03-04T15:03:55Z</time>
   </trkpt>
   <trkpt lat="46.3165512084961" lon="7.48467111587524">
    <ele>1094.59997558594</ele>
    <time>2012-03-04T15:03:56Z</time>
   </trkpt>
   <trkpt lat="46.3165435791016" lon="7.4846978187561">
    <ele>1094.89990234375</ele>
    <time>2012-03-04T15:03:57Z</time>
   </trkpt>
   <trkpt lat="46.3165321350098" lon="7.48472309112549">
    <ele>1095.19995117188</ele>
    <time>2012-03-04T15:03:58Z</time>
   </trkpt>
   <trkpt lat="46.3164825439453" lon="7.48485279083252">
    <ele>1095.19995117188</ele>
    <time>2012-03-04T15:04:03Z</time>
   </trkpt>
   <trkpt lat="46.3164558410644" lon="7.48490381240845">
    <ele>1095.86657714844</ele>
    <time>2012-03-04T15:04:05Z</time>
   </trkpt>
   <trkpt lat="46.3164443969727" lon="7.48492813110352">
    <ele>1096.19995117188</ele>
    <time>2012-03-04T15:04:06Z</time>
   </trkpt>
   <trkpt lat="46.3164291381836" lon="7.48495531082153">
    <ele>1096.53332519531</ele>
    <time>2012-03-04T15:04:07Z</time>
   </trkpt>
   <trkpt lat="46.3164176940918" lon="7.48498249053955">
    <ele>1096.86657714844</ele>
    <time>2012-03-04T15:04:08Z</time>
   </trkpt>
   <trkpt lat="46.3164100646973" lon="7.48500776290894">
    <ele>1097.19995117188</ele>
    <time>2012-03-04T15:04:09Z</time>
   </trkpt>
   <trkpt lat="46.3164024353027" lon="7.48503351211548">
    <ele>1097.19995117188</ele>
    <time>2012-03-04T15:04:10Z</time>
   </trkpt>
   <trkpt lat="46.316349029541" lon="7.48516416549683">
    <ele>1098.42224121094</ele>
    <time>2012-03-04T15:04:15Z</time>
   </trkpt>
   <trkpt lat="46.316333770752" lon="7.4851884841919">
    <ele>1098.66662597656</ele>
    <time>2012-03-04T15:04:16Z</time>
   </trkpt>
   <trkpt lat="46.3163223266602" lon="7.48521184921265">
    <ele>1098.9111328125</ele>
    <time>2012-03-04T15:04:17Z</time>
   </trkpt>
   <trkpt lat="46.3163108825684" lon="7.48523712158203">
    <ele>1099.15551757812</ele>
    <time>2012-03-04T15:04:18Z</time>
   </trkpt>
   <trkpt lat="46.3162994384766" lon="7.48525810241699">
    <ele>1099.40002441406</ele>
    <time>2012-03-04T15:04:19Z</time>
   </trkpt>
   <trkpt lat="46.3162498474121" lon="7.48538494110107">
    <ele>1099.40002441406</ele>
    <time>2012-03-04T15:04:24Z</time>
   </trkpt>
   <trkpt lat="46.316234588623" lon="7.48540687561035">
    <ele>1099.7333984375</ele>
    <time>2012-03-04T15:04:25Z</time>
   </trkpt>
   <trkpt lat="46.3162231445312" lon="7.48543643951416">
    <ele>1100.06665039062</ele>
    <time>2012-03-04T15:04:26Z</time>
   </trkpt>
   <trkpt lat="46.3162117004394" lon="7.48546409606934">
    <ele>1100.40002441406</ele>
    <time>2012-03-04T15:04:27Z</time>
   </trkpt>
   <trkpt lat="46.3162002563477" lon="7.48549127578735">
    <ele>1100.7333984375</ele>
    <time>2012-03-04T15:04:28Z</time>
   </trkpt>
   <trkpt lat="46.3161888122559" lon="7.48551511764526">
    <ele>1101.06665039062</ele>
    <time>2012-03-04T15:04:29Z</time>
   </trkpt>
   <trkpt lat="46.3161773681641" lon="7.48553895950317">
    <ele>1101.40002441406</ele>
    <time>2012-03-04T15:04:30Z</time>
   </trkpt>
   <trkpt lat="46.3161315917969" lon="7.4856333732605">
    <ele>1101.40002441406</ele>
    <time>2012-03-04T15:04:34Z</time>
   </trkpt>
   <trkpt lat="46.3161201477051" lon="7.48565530776978">
    <ele>1101.80004882812</ele>
    <time>2012-03-04T15:04:35Z</time>
   </trkpt>
   <trkpt lat="46.3161087036133" lon="7.48567914962768">
    <ele>1102.20007324219</ele>
    <time>2012-03-04T15:04:36Z</time>
   </trkpt>
   <trkpt lat="46.3160972595215" lon="7.4857063293457">
    <ele>1102.59997558594</ele>
    <time>2012-03-04T15:04:37Z</time>
   </trkpt>
   <trkpt lat="46.3160858154297" lon="7.48573207855225">
    <ele>1103</ele>
    <time>2012-03-04T15:04:38Z</time>
   </trkpt>
   <trkpt lat="46.3160743713379" lon="7.48576021194458">
    <ele>1103.40002441406</ele>
    <time>2012-03-04T15:04:39Z</time>
   </trkpt>
   <trkpt lat="46.3160629272461" lon="7.48578357696533">
    <ele>1103.40002441406</ele>
    <time>2012-03-04T15:04:40Z</time>
   </trkpt>
   <trkpt lat="46.3160095214844" lon="7.48589849472046">
    <ele>1104.51110839844</ele>
    <time>2012-03-04T15:04:45Z</time>
   </trkpt>
   <trkpt lat="46.3160018920898" lon="7.48592519760132">
    <ele>1104.7333984375</ele>
    <time>2012-03-04T15:04:46Z</time>
   </trkpt>
   <trkpt lat="46.315990447998" lon="7.48595285415649">
    <ele>1104.95556640625</ele>
    <time>2012-03-04T15:04:47Z</time>
   </trkpt>
   <trkpt lat="46.3159828186035" lon="7.4859881401062">
    <ele>1105.17785644531</ele>
    <time>2012-03-04T15:04:48Z</time>
   </trkpt>
   <trkpt lat="46.3159713745117" lon="7.48601722717285">
    <ele>1105.40002441406</ele>
    <time>2012-03-04T15:04:49Z</time>
   </trkpt>
   <trkpt lat="46.3159255981445" lon="7.48615550994873">
    <ele>1105.40002441406</ele>
    <time>2012-03-04T15:04:54Z</time>
   </trkpt>
   <trkpt lat="46.3159217834473" lon="7.48618507385254">
    <ele>1105.83996582031</ele>
    <time>2012-03-04T15:04:55Z</time>
   </trkpt>
   <trkpt lat="46.31591796875" lon="7.48621559143066">
    <ele>1106.28002929688</ele>
    <time>2012-03-04T15:04:56Z</time>
   </trkpt>
   <trkpt lat="46.31591796875" lon="7.4862470626831">
    <ele>1106.71997070312</ele>
    <time>2012-03-04T15:04:57Z</time>
   </trkpt>
   <trkpt lat="46.3159141540527" lon="7.48627519607544">
    <ele>1107.16003417969</ele>
    <time>2012-03-04T15:04:58Z</time>
   </trkpt>
   <trkpt lat="46.3159141540527" lon="7.48630714416504">
    <ele>1107.59997558594</ele>
    <time>2012-03-04T15:04:59Z</time>
   </trkpt>
   <trkpt lat="46.31591796875" lon="7.48636960983276">
    <ele>1107.59997558594</ele>
    <time>2012-03-04T15:05:01Z</time>
   </trkpt>
   <trkpt lat="46.3159370422363" lon="7.48649168014526">
    <ele>1108.54113769531</ele>
    <time>2012-03-04T15:05:05Z</time>
   </trkpt>
   <trkpt lat="46.3159484863281" lon="7.4865198135376">
    <ele>1108.77648925781</ele>
    <time>2012-03-04T15:05:06Z</time>
   </trkpt>
   <trkpt lat="46.3159599304199" lon="7.48654651641846">
    <ele>1109.01171875</ele>
    <time>2012-03-04T15:05:07Z</time>
   </trkpt>
   <trkpt lat="46.3159713745117" lon="7.48657274246216">
    <ele>1109.2470703125</ele>
    <time>2012-03-04T15:05:08Z</time>
   </trkpt>
   <trkpt lat="46.3160705566406" lon="7.48670816421509">
    <ele>1110.65881347656</ele>
    <time>2012-03-04T15:05:14Z</time>
   </trkpt>
   <trkpt lat="46.3160858154297" lon="7.48673057556152">
    <ele>1110.89404296875</ele>
    <time>2012-03-04T15:05:15Z</time>
   </trkpt>
   <trkpt lat="46.316104888916" lon="7.48675298690796">
    <ele>1111.12939453125</ele>
    <time>2012-03-04T15:05:16Z</time>
   </trkpt>
   <trkpt lat="46.3161239624023" lon="7.48677158355713">
    <ele>1111.36462402344</ele>
    <time>2012-03-04T15:05:17Z</time>
   </trkpt>
   <trkpt lat="46.3161430358887" lon="7.4867901802063">
    <ele>1111.59997558594</ele>
    <time>2012-03-04T15:05:18Z</time>
   </trkpt>
   <trkpt lat="46.3162612915039" lon="7.48690795898438">
    <ele>1111.59997558594</ele>
    <time>2012-03-04T15:05:24Z</time>
   </trkpt>
   <trkpt lat="46.3162803649902" lon="7.48692893981934">
    <ele>1112</ele>
    <time>2012-03-04T15:05:25Z</time>
   </trkpt>
   <trkpt lat="46.3162994384766" lon="7.48695135116577">
    <ele>1112.40002441406</ele>
    <time>2012-03-04T15:05:26Z</time>
   </trkpt>
   <trkpt lat="46.3163223266602" lon="7.48696851730347">
    <ele>1112.79992675781</ele>
    <time>2012-03-04T15:05:27Z</time>
   </trkpt>
   <trkpt lat="46.3163375854492" lon="7.4869909286499">
    <ele>1113.19995117188</ele>
    <time>2012-03-04T15:05:28Z</time>
   </trkpt>
   <trkpt lat="46.3163528442383" lon="7.48701667785644">
    <ele>1113.59997558594</ele>
    <time>2012-03-04T15:05:29Z</time>
   </trkpt>
   <trkpt lat="46.3163681030273" lon="7.4870433807373">
    <ele>1113.59997558594</ele>
    <time>2012-03-04T15:05:30Z</time>
   </trkpt>
   <trkpt lat="46.3164176940918" lon="7.48714733123779">
    <ele>1114.69995117188</ele>
    <time>2012-03-04T15:05:34Z</time>
   </trkpt>
   <trkpt lat="46.3164291381836" lon="7.48717498779297">
    <ele>1114.97497558594</ele>
    <time>2012-03-04T15:05:35Z</time>
   </trkpt>
   <trkpt lat="46.3164405822754" lon="7.48719882965088">
    <ele>1115.25</ele>
    <time>2012-03-04T15:05:36Z</time>
   </trkpt>
   <trkpt lat="46.3164520263672" lon="7.48722410202026">
    <ele>1115.52502441406</ele>
    <time>2012-03-04T15:05:37Z</time>
   </trkpt>
   <trkpt lat="46.3164596557617" lon="7.48725461959839">
    <ele>1115.80004882812</ele>
    <time>2012-03-04T15:05:38Z</time>
   </trkpt>
   <trkpt lat="46.3164939880371" lon="7.48738050460815">
    <ele>1115.80004882812</ele>
    <time>2012-03-04T15:05:42Z</time>
   </trkpt>
   <trkpt lat="46.316520690918" lon="7.48747825622559">
    <ele>1116.46435546875</ele>
    <time>2012-03-04T15:05:45Z</time>
   </trkpt>
   <trkpt lat="46.3165283203125" lon="7.48750877380371">
    <ele>1116.68579101562</ele>
    <time>2012-03-04T15:05:46Z</time>
   </trkpt>
   <trkpt lat="46.316535949707" lon="7.48753595352173">
    <ele>1116.9072265625</ele>
    <time>2012-03-04T15:05:47Z</time>
   </trkpt>
   <trkpt lat="46.3165435791016" lon="7.4875659942627">
    <ele>1117.12866210938</ele>
    <time>2012-03-04T15:05:48Z</time>
   </trkpt>
   <trkpt lat="46.3165550231934" lon="7.48759412765503">
    <ele>1117.35009765625</ele>
    <time>2012-03-04T15:05:49Z</time>
   </trkpt>
   <trkpt lat="46.3166084289551" lon="7.48780298233032">
    <ele>1118.90002441406</ele>
    <time>2012-03-04T15:05:56Z</time>
   </trkpt>
   <trkpt lat="46.3166160583496" lon="7.48783206939697">
    <ele>1119.12145996094</ele>
    <time>2012-03-04T15:05:57Z</time>
   </trkpt>
   <trkpt lat="46.3166236877441" lon="7.48786163330078">
    <ele>1119.34289550781</ele>
    <time>2012-03-04T15:05:58Z</time>
   </trkpt>
   <trkpt lat="46.3166313171387" lon="7.48789024353027">
    <ele>1119.56433105469</ele>
    <time>2012-03-04T15:05:59Z</time>
   </trkpt>
   <trkpt lat="46.3166999816894" lon="7.48808717727661">
    <ele>1121.1142578125</ele>
    <time>2012-03-04T15:06:06Z</time>
   </trkpt>
   <trkpt lat="46.3167114257812" lon="7.48811626434326">
    <ele>1121.33569335938</ele>
    <time>2012-03-04T15:06:07Z</time>
   </trkpt>
   <trkpt lat="46.316722869873" lon="7.48814249038696">
    <ele>1121.55712890625</ele>
    <time>2012-03-04T15:06:08Z</time>
   </trkpt>
   <trkpt lat="46.3167343139648" lon="7.4881706237793">
    <ele>1121.77856445312</ele>
    <time>2012-03-04T15:06:09Z</time>
   </trkpt>
   <trkpt lat="46.3167457580566" lon="7.48819875717163">
    <ele>1122</ele>
    <time>2012-03-04T15:06:10Z</time>
   </trkpt>
   <trkpt lat="46.3167762756348" lon="7.48824977874756">
    <ele>1122</ele>
    <time>2012-03-04T15:06:12Z</time>
   </trkpt>
   <trkpt lat="46.3168067932129" lon="7.48829936981201">
    <ele>1122.48889160156</ele>
    <time>2012-03-04T15:06:14Z</time>
   </trkpt>
   <trkpt lat="46.3168525695801" lon="7.48837757110596">
    <ele>1123.22216796875</ele>
    <time>2012-03-04T15:06:17Z</time>
   </trkpt>
   <trkpt lat="46.3168678283691" lon="7.48840379714966">
    <ele>1123.46667480469</ele>
    <time>2012-03-04T15:06:18Z</time>
   </trkpt>
   <trkpt lat="46.3168869018555" lon="7.48842906951904">
    <ele>1123.71105957031</ele>
    <time>2012-03-04T15:06:19Z</time>
   </trkpt>
   <trkpt lat="46.3169059753418" lon="7.48845386505127">
    <ele>1123.95556640625</ele>
    <time>2012-03-04T15:06:20Z</time>
   </trkpt>
   <trkpt lat="46.3169212341309" lon="7.4884786605835">
    <ele>1124.19995117188</ele>
    <time>2012-03-04T15:06:21Z</time>
   </trkpt>
   <trkpt lat="46.3170509338379" lon="7.48859882354736">
    <ele>1124.19995117188</ele>
    <time>2012-03-04T15:06:28Z</time>
   </trkpt>
   <trkpt lat="46.317066192627" lon="7.48861598968506">
    <ele>1124.59997558594</ele>
    <time>2012-03-04T15:06:29Z</time>
   </trkpt>
   <trkpt lat="46.3170852661133" lon="7.4886302947998">
    <ele>1125</ele>
    <time>2012-03-04T15:06:30Z</time>
   </trkpt>
   <trkpt lat="46.3171005249023" lon="7.48864936828613">
    <ele>1125.39990234375</ele>
    <time>2012-03-04T15:06:31Z</time>
   </trkpt>
   <trkpt lat="46.3171195983887" lon="7.48866605758667">
    <ele>1125.79992675781</ele>
    <time>2012-03-04T15:06:32Z</time>
   </trkpt>
   <trkpt lat="46.317138671875" lon="7.48867988586426">
    <ele>1126.19995117188</ele>
    <time>2012-03-04T15:06:33Z</time>
   </trkpt>
   <trkpt lat="46.3171768188477" lon="7.48870801925659">
    <ele>1126.19995117188</ele>
    <time>2012-03-04T15:06:35Z</time>
   </trkpt>
   <trkpt lat="46.3172760009766" lon="7.48880910873413">
    <ele>1127.30004882812</ele>
    <time>2012-03-04T15:06:41Z</time>
   </trkpt>
   <trkpt lat="46.317310333252" lon="7.48884582519531">
    <ele>1127.66662597656</ele>
    <time>2012-03-04T15:06:43Z</time>
   </trkpt>
   <trkpt lat="46.3173294067383" lon="7.48886775970459">
    <ele>1127.84997558594</ele>
    <time>2012-03-04T15:06:44Z</time>
   </trkpt>
   <trkpt lat="46.3173484802246" lon="7.48888826370239">
    <ele>1128.03332519531</ele>
    <time>2012-03-04T15:06:45Z</time>
   </trkpt>
   <trkpt lat="46.3173637390137" lon="7.48890924453735">
    <ele>1128.21667480469</ele>
    <time>2012-03-04T15:06:46Z</time>
   </trkpt>
   <trkpt lat="46.3173828125" lon="7.488929271698">
    <ele>1128.40002441406</ele>
    <time>2012-03-04T15:06:47Z</time>
   </trkpt>
   <trkpt lat="46.3173980712891" lon="7.48895406723022">
    <ele>1128.40002441406</ele>
    <time>2012-03-04T15:06:48Z</time>
   </trkpt>
   <trkpt lat="46.3174629211426" lon="7.48905420303345">
    <ele>1129.33337402344</ele>
    <time>2012-03-04T15:06:52Z</time>
   </trkpt>
   <trkpt lat="46.3174743652344" lon="7.48908424377441">
    <ele>1129.56665039062</ele>
    <time>2012-03-04T15:06:53Z</time>
   </trkpt>
   <trkpt lat="46.3174896240234" lon="7.48911285400391">
    <ele>1129.80004882812</ele>
    <time>2012-03-04T15:06:54Z</time>
   </trkpt>
   <trkpt lat="46.317497253418" lon="7.4891414642334">
    <ele>1130.03332519531</ele>
    <time>2012-03-04T15:06:55Z</time>
   </trkpt>
   <trkpt lat="46.3175086975098" lon="7.48916721343994">
    <ele>1130.26672363281</ele>
    <time>2012-03-04T15:06:56Z</time>
   </trkpt>
   <trkpt lat="46.3175735473633" lon="7.48934364318848">
    <ele>1131.66662597656</ele>
    <time>2012-03-04T15:07:02Z</time>
   </trkpt>
   <trkpt lat="46.3175811767578" lon="7.48937654495239">
    <ele>1131.90002441406</ele>
    <time>2012-03-04T15:07:03Z</time>
   </trkpt>
   <trkpt lat="46.3175888061523" lon="7.48940563201904">
    <ele>1132.13330078125</ele>
    <time>2012-03-04T15:07:04Z</time>
   </trkpt>
   <trkpt lat="46.3175964355469" lon="7.48943519592285">
    <ele>1132.36669921875</ele>
    <time>2012-03-04T15:07:05Z</time>
   </trkpt>
   <trkpt lat="46.3176002502441" lon="7.4894642829895">
    <ele>1132.59997558594</ele>
    <time>2012-03-04T15:07:06Z</time>
   </trkpt>
   <trkpt lat="46.3176460266113" lon="7.48961687088013">
    <ele>1132.59997558594</ele>
    <time>2012-03-04T15:07:11Z</time>
   </trkpt>
   <trkpt lat="46.3176574707031" lon="7.48964500427246">
    <ele>1133.0400390625</ele>
    <time>2012-03-04T15:07:12Z</time>
   </trkpt>
   <trkpt lat="46.3176689147949" lon="7.48967456817627">
    <ele>1133.47998046875</ele>
    <time>2012-03-04T15:07:13Z</time>
   </trkpt>
   <trkpt lat="46.3176765441894" lon="7.48970603942871">
    <ele>1133.92004394531</ele>
    <time>2012-03-04T15:07:14Z</time>
   </trkpt>
   <trkpt lat="46.317684173584" lon="7.48973369598389">
    <ele>1134.35998535156</ele>
    <time>2012-03-04T15:07:15Z</time>
   </trkpt>
   <trkpt lat="46.3176956176758" lon="7.48976278305054">
    <ele>1134.80004882812</ele>
    <time>2012-03-04T15:07:16Z</time>
   </trkpt>
   <trkpt lat="46.3177108764648" lon="7.48982334136963">
    <ele>1134.80004882812</ele>
    <time>2012-03-04T15:07:18Z</time>
   </trkpt>
   <trkpt lat="46.317756652832" lon="7.48999547958374">
    <ele>1136.11999511719</ele>
    <time>2012-03-04T15:07:24Z</time>
   </trkpt>
   <trkpt lat="46.3177642822266" lon="7.49002742767334">
    <ele>1136.33996582031</ele>
    <time>2012-03-04T15:07:25Z</time>
   </trkpt>
   <trkpt lat="46.3177719116211" lon="7.49005889892578">
    <ele>1136.56005859375</ele>
    <time>2012-03-04T15:07:26Z</time>
   </trkpt>
   <trkpt lat="46.3177795410156" lon="7.49008941650391">
    <ele>1136.78002929688</ele>
    <time>2012-03-04T15:07:27Z</time>
   </trkpt>
   <trkpt lat="46.3177871704102" lon="7.49011659622192">
    <ele>1137</ele>
    <time>2012-03-04T15:07:28Z</time>
   </trkpt>
   <trkpt lat="46.3178215026856" lon="7.49023389816284">
    <ele>1137</ele>
    <time>2012-03-04T15:07:32Z</time>
   </trkpt>
   <trkpt lat="46.3178558349609" lon="7.49032211303711">
    <ele>1138</ele>
    <time>2012-03-04T15:07:35Z</time>
   </trkpt>
   <trkpt lat="46.3178634643555" lon="7.49034833908081">
    <ele>1138.33337402344</ele>
    <time>2012-03-04T15:07:36Z</time>
   </trkpt>
   <trkpt lat="46.3178787231445" lon="7.49037456512451">
    <ele>1138.66662597656</ele>
    <time>2012-03-04T15:07:37Z</time>
   </trkpt>
   <trkpt lat="46.3178863525391" lon="7.49040222167969">
    <ele>1139</ele>
    <time>2012-03-04T15:07:38Z</time>
   </trkpt>
   <trkpt lat="46.3178939819336" lon="7.49043226242065">
    <ele>1139</ele>
    <time>2012-03-04T15:07:39Z</time>
   </trkpt>
   <trkpt lat="46.3179512023926" lon="7.49061298370361">
    <ele>1140.32629394531</ele>
    <time>2012-03-04T15:07:45Z</time>
   </trkpt>
   <trkpt lat="46.3179626464844" lon="7.49063968658447">
    <ele>1140.54736328125</ele>
    <time>2012-03-04T15:07:46Z</time>
   </trkpt>
   <trkpt lat="46.3179664611816" lon="7.49066734313965">
    <ele>1140.76843261719</ele>
    <time>2012-03-04T15:07:47Z</time>
   </trkpt>
   <trkpt lat="46.3179779052734" lon="7.49069595336914">
    <ele>1140.98950195312</ele>
    <time>2012-03-04T15:07:48Z</time>
   </trkpt>
   <trkpt lat="46.317985534668" lon="7.49072504043579">
    <ele>1141.21044921875</ele>
    <time>2012-03-04T15:07:49Z</time>
   </trkpt>
   <trkpt lat="46.3180313110352" lon="7.49087810516357">
    <ele>1142.31579589844</ele>
    <time>2012-03-04T15:07:54Z</time>
   </trkpt>
   <trkpt lat="46.318042755127" lon="7.49090623855591">
    <ele>1142.53674316406</ele>
    <time>2012-03-04T15:07:55Z</time>
   </trkpt>
   <trkpt lat="46.3180541992188" lon="7.49093437194824">
    <ele>1142.7578125</ele>
    <time>2012-03-04T15:07:56Z</time>
   </trkpt>
   <trkpt lat="46.3180618286133" lon="7.49096298217774">
    <ele>1142.97888183594</ele>
    <time>2012-03-04T15:07:57Z</time>
   </trkpt>
   <trkpt lat="46.3180656433106" lon="7.49099063873291">
    <ele>1143.19995117188</ele>
    <time>2012-03-04T15:07:58Z</time>
   </trkpt>
   <trkpt lat="46.3180999755859" lon="7.49111127853394">
    <ele>1143.19995117188</ele>
    <time>2012-03-04T15:08:02Z</time>
   </trkpt>
   <trkpt lat="46.3181228637695" lon="7.49117136001587">
    <ele>1143.86657714844</ele>
    <time>2012-03-04T15:08:04Z</time>
   </trkpt>
   <trkpt lat="46.3181343078613" lon="7.49120092391968">
    <ele>1144.19995117188</ele>
    <time>2012-03-04T15:08:05Z</time>
   </trkpt>
   <trkpt lat="46.3181457519531" lon="7.49122858047485">
    <ele>1144.53332519531</ele>
    <time>2012-03-04T15:08:06Z</time>
   </trkpt>
   <trkpt lat="46.3181571960449" lon="7.49125576019287">
    <ele>1144.86657714844</ele>
    <time>2012-03-04T15:08:07Z</time>
   </trkpt>
   <trkpt lat="46.3181686401367" lon="7.49128150939941">
    <ele>1145.19995117188</ele>
    <time>2012-03-04T15:08:08Z</time>
   </trkpt>
   <trkpt lat="46.3181953430176" lon="7.49133253097534">
    <ele>1145.19995117188</ele>
    <time>2012-03-04T15:08:10Z</time>
   </trkpt>
   <trkpt lat="46.3182487487793" lon="7.49144220352173">
    <ele>1146.30004882812</ele>
    <time>2012-03-04T15:08:14Z</time>
   </trkpt>
   <trkpt lat="46.3182640075684" lon="7.49146699905396">
    <ele>1146.57495117188</ele>
    <time>2012-03-04T15:08:15Z</time>
   </trkpt>
   <trkpt lat="46.3182792663574" lon="7.49148941040039">
    <ele>1146.84997558594</ele>
    <time>2012-03-04T15:08:16Z</time>
   </trkpt>
   <trkpt lat="46.3182907104492" lon="7.49151372909546">
    <ele>1147.125</ele>
    <time>2012-03-04T15:08:17Z</time>
   </trkpt>
   <trkpt lat="46.3183059692383" lon="7.49154043197632">
    <ele>1147.40002441406</ele>
    <time>2012-03-04T15:08:18Z</time>
   </trkpt>
   <trkpt lat="46.318431854248" lon="7.49172925949097">
    <ele>1147.40002441406</ele>
    <time>2012-03-04T15:08:26Z</time>
   </trkpt>
   <trkpt lat="46.3184852600098" lon="7.49180316925049">
    <ele>1148.5</ele>
    <time>2012-03-04T15:08:30Z</time>
   </trkpt>
   <trkpt lat="46.3185005187988" lon="7.49182748794556">
    <ele>1148.77502441406</ele>
    <time>2012-03-04T15:08:31Z</time>
   </trkpt>
   <trkpt lat="46.3185195922852" lon="7.49184846878052">
    <ele>1149.05004882812</ele>
    <time>2012-03-04T15:08:32Z</time>
   </trkpt>
   <trkpt lat="46.3185386657715" lon="7.491868019104">
    <ele>1149.32495117188</ele>
    <time>2012-03-04T15:08:33Z</time>
   </trkpt>
   <trkpt lat="46.3185615539551" lon="7.4918909072876">
    <ele>1149.59997558594</ele>
    <time>2012-03-04T15:08:34Z</time>
   </trkpt>
   <trkpt lat="46.3187026977539" lon="7.49203634262085">
    <ele>1149.59997558594</ele>
    <time>2012-03-04T15:08:41Z</time>
   </trkpt>
   <trkpt lat="46.3187217712402" lon="7.4920597076416">
    <ele>1150.09997558594</ele>
    <time>2012-03-04T15:08:42Z</time>
   </trkpt>
   <trkpt lat="46.3187408447266" lon="7.49208211898804">
    <ele>1150.59997558594</ele>
    <time>2012-03-04T15:08:43Z</time>
   </trkpt>
   <trkpt lat="46.3187599182129" lon="7.49210596084595">
    <ele>1151.09997558594</ele>
    <time>2012-03-04T15:08:44Z</time>
   </trkpt>
   <trkpt lat="46.3187828063965" lon="7.49212694168091">
    <ele>1151.59997558594</ele>
    <time>2012-03-04T15:08:45Z</time>
   </trkpt>
   <trkpt lat="46.3188858032227" lon="7.4922342300415">
    <ele>1151.59997558594</ele>
    <time>2012-03-04T15:08:50Z</time>
   </trkpt>
   <trkpt lat="46.3189468383789" lon="7.49229097366333">
    <ele>1152.45715332031</ele>
    <time>2012-03-04T15:08:53Z</time>
   </trkpt>
   <trkpt lat="46.3189697265625" lon="7.49231195449829">
    <ele>1152.74279785156</ele>
    <time>2012-03-04T15:08:54Z</time>
   </trkpt>
   <trkpt lat="46.3189888000488" lon="7.49233102798462">
    <ele>1153.02856445312</ele>
    <time>2012-03-04T15:08:55Z</time>
   </trkpt>
   <trkpt lat="46.3190040588379" lon="7.49235391616821">
    <ele>1153.31420898438</ele>
    <time>2012-03-04T15:08:56Z</time>
   </trkpt>
   <trkpt lat="46.3190269470215" lon="7.49237298965454">
    <ele>1153.59997558594</ele>
    <time>2012-03-04T15:08:57Z</time>
   </trkpt>
   <trkpt lat="46.3192253112793" lon="7.49251890182495">
    <ele>1153.59997558594</ele>
    <time>2012-03-04T15:09:06Z</time>
   </trkpt>
   <trkpt lat="46.3192481994629" lon="7.4925332069397">
    <ele>1154.15002441406</ele>
    <time>2012-03-04T15:09:07Z</time>
   </trkpt>
   <trkpt lat="46.3192672729492" lon="7.49254989624024">
    <ele>1154.69995117188</ele>
    <time>2012-03-04T15:09:08Z</time>
   </trkpt>
   <trkpt lat="46.3192901611328" lon="7.49256038665772">
    <ele>1155.25</ele>
    <time>2012-03-04T15:09:09Z</time>
   </trkpt>
   <trkpt lat="46.3193092346191" lon="7.49257469177246">
    <ele>1155.80004882812</ele>
    <time>2012-03-04T15:09:10Z</time>
   </trkpt>
   <trkpt lat="46.3193511962891" lon="7.49260234832764">
    <ele>1155.80004882812</ele>
    <time>2012-03-04T15:09:12Z</time>
   </trkpt>
   <trkpt lat="46.3194198608398" lon="7.49264287948608">
    <ele>1156.6572265625</ele>
    <time>2012-03-04T15:09:15Z</time>
   </trkpt>
   <trkpt lat="46.3194465637207" lon="7.49265289306641">
    <ele>1156.94287109375</ele>
    <time>2012-03-04T15:09:16Z</time>
   </trkpt>
   <trkpt lat="46.319465637207" lon="7.49266767501831">
    <ele>1157.22863769531</ele>
    <time>2012-03-04T15:09:17Z</time>
   </trkpt>
   <trkpt lat="46.3194923400879" lon="7.49268102645874">
    <ele>1157.51428222656</ele>
    <time>2012-03-04T15:09:18Z</time>
   </trkpt>
   <trkpt lat="46.3195152282715" lon="7.49268865585327">
    <ele>1157.80004882812</ele>
    <time>2012-03-04T15:09:19Z</time>
   </trkpt>
   <trkpt lat="46.3196487426758" lon="7.4927453994751">
    <ele>1157.80004882812</ele>
    <time>2012-03-04T15:09:25Z</time>
   </trkpt>
   <trkpt lat="46.3197250366211" lon="7.49277591705322">
    <ele>1158.6572265625</ele>
    <time>2012-03-04T15:09:28Z</time>
   </trkpt>
   <trkpt lat="46.3197479248047" lon="7.49278688430786">
    <ele>1158.94287109375</ele>
    <time>2012-03-04T15:09:29Z</time>
   </trkpt>
   <trkpt lat="46.3197708129883" lon="7.49279642105102">
    <ele>1159.22863769531</ele>
    <time>2012-03-04T15:09:30Z</time>
   </trkpt>
   <trkpt lat="46.3197975158691" lon="7.49280261993408">
    <ele>1159.51428222656</ele>
    <time>2012-03-04T15:09:31Z</time>
   </trkpt>
   <trkpt lat="46.3198204040527" lon="7.4928092956543">
    <ele>1159.80004882812</ele>
    <time>2012-03-04T15:09:32Z</time>
   </trkpt>
   <trkpt lat="46.3198699951172" lon="7.49282121658325">
    <ele>1159.80004882812</ele>
    <time>2012-03-04T15:09:34Z</time>
   </trkpt>
   <trkpt lat="46.3199615478516" lon="7.49285984039307">
    <ele>1161</ele>
    <time>2012-03-04T15:09:38Z</time>
   </trkpt>
   <trkpt lat="46.3199844360352" lon="7.49286794662476">
    <ele>1161.30004882812</ele>
    <time>2012-03-04T15:09:39Z</time>
   </trkpt>
   <trkpt lat="46.3200073242188" lon="7.49288034439087">
    <ele>1161.59997558594</ele>
    <time>2012-03-04T15:09:40Z</time>
   </trkpt>
   <trkpt lat="46.3200340270996" lon="7.49289178848267">
    <ele>1161.89990234375</ele>
    <time>2012-03-04T15:09:41Z</time>
   </trkpt>
   <trkpt lat="46.3200569152832" lon="7.49289464950562">
    <ele>1162.19995117188</ele>
    <time>2012-03-04T15:09:42Z</time>
   </trkpt>
   <trkpt lat="46.3202285766602" lon="7.49291515350342">
    <ele>1162.19995117188</ele>
    <time>2012-03-04T15:09:49Z</time>
   </trkpt>
   <trkpt lat="46.3202819824219" lon="7.49293184280396">
    <ele>1162.86657714844</ele>
    <time>2012-03-04T15:09:51Z</time>
   </trkpt>
   <trkpt lat="46.3203086853027" lon="7.49293422698975">
    <ele>1163.19995117188</ele>
    <time>2012-03-04T15:09:52Z</time>
   </trkpt>
   <trkpt lat="46.3203353881836" lon="7.49293899536133">
    <ele>1163.53332519531</ele>
    <time>2012-03-04T15:09:53Z</time>
   </trkpt>
   <trkpt lat="46.3203620910644" lon="7.49293518066406">
    <ele>1163.86657714844</ele>
    <time>2012-03-04T15:09:54Z</time>
   </trkpt>
   <trkpt lat="46.320384979248" lon="7.4929347038269">
    <ele>1164.19995117188</ele>
    <time>2012-03-04T15:09:55Z</time>
   </trkpt>
   <trkpt lat="46.3205413818359" lon="7.49296760559082">
    <ele>1164.19995117188</ele>
    <time>2012-03-04T15:10:01Z</time>
   </trkpt>
   <trkpt lat="46.3205871582031" lon="7.49297285079956">
    <ele>1164.93334960938</ele>
    <time>2012-03-04T15:10:03Z</time>
   </trkpt>
   <trkpt lat="46.3206100463867" lon="7.49297332763672">
    <ele>1165.30004882812</ele>
    <time>2012-03-04T15:10:04Z</time>
   </trkpt>
   <trkpt lat="46.3206329345703" lon="7.49297046661377">
    <ele>1165.66662597656</ele>
    <time>2012-03-04T15:10:05Z</time>
   </trkpt>
   <trkpt lat="46.3206520080566" lon="7.49297142028809">
    <ele>1166.03332519531</ele>
    <time>2012-03-04T15:10:06Z</time>
   </trkpt>
   <trkpt lat="46.3206748962402" lon="7.49296998977661">
    <ele>1166.40002441406</ele>
    <time>2012-03-04T15:10:07Z</time>
   </trkpt>
   <trkpt lat="46.3206977844238" lon="7.49296998977661">
    <ele>1166.40002441406</ele>
    <time>2012-03-04T15:10:08Z</time>
   </trkpt>
   <trkpt lat="46.3207511901856" lon="7.49298000335693">
    <ele>1167.25720214844</ele>
    <time>2012-03-04T15:10:11Z</time>
   </trkpt>
   <trkpt lat="46.3207664489746" lon="7.49298095703125">
    <ele>1167.54284667969</ele>
    <time>2012-03-04T15:10:12Z</time>
   </trkpt>
   <trkpt lat="46.3207855224609" lon="7.49298667907715">
    <ele>1167.82861328125</ele>
    <time>2012-03-04T15:10:13Z</time>
   </trkpt>
   <trkpt lat="46.32080078125" lon="7.49299001693726">
    <ele>1168.1142578125</ele>
    <time>2012-03-04T15:10:14Z</time>
   </trkpt>
   <trkpt lat="46.3208198547363" lon="7.4929895401001">
    <ele>1168.40002441406</ele>
    <time>2012-03-04T15:10:15Z</time>
   </trkpt>
  </trkseg>
 </trk>
</gpx>